# Wetter Temperatur Luftdruck Luftfeuchtigkeit Sichtweite Windgeschwindigkeit Windrichtung Zeit
1 Haze 30 1010 70 5000 3.6 300 08:27 02.10.2022
2 Haze 30 1010 70 5000 3.6 300 08:27 02.10.2022
3 Haze 28 1010 89 3000 1.54 280 05:19 02.10.2022
4 Haze 27 1007 94 3000 1.54 140 00:57 02.10.2022
5 Haze 27 1007 89 3000 0 0 00:37 02.10.2022
6 Haze 28 1008 83 3000 0 0 23:24 01.10.2022
7 Haze 28 1009 89 3000 2.06 260 21:38 01.10.2022
8 Haze 28 1009 83 3000 2.06 300 18:54 01.10.2022
9 Haze 29 1009 79 3500 2.57 300 17:26 01.10.2022
10 Haze 29 1007 79 4000 3.09 300 14:50 01.10.2022
11 Haze 30 1007 84 4000 5.14 290 13:44 01.10.2022
12 Haze 31 1007 70 3000 4.12 310 12:34 01.10.2022
13 Haze 31 1007 79 3000 6.69 290 11:22 01.10.2022
14 Haze 31 1008 74 3000 5.14 300 10:47 01.10.2022
15 Haze 31 1008 74 3000 6.17 270 10:26 01.10.2022
16 Haze 31 1009 74 3000 3.6 260 09:21 01.10.2022
17 Haze 30 1010 84 2500 5.14 280 08:26 01.10.2022
18 Haze 27 1009 89 2500 2.57 130 03:39 01.10.2022
19 Haze 27 1008 89 3000 2.06 100 01:31 01.10.2022
20 Haze 28 1008 89 3000 2.06 90 23:21 30.09.2022
21 Haze 28 1008 89 3000 2.57 320 21:57 30.09.2022
22 Haze 29 1009 89 3000 2.57 310 20:45 30.09.2022
23 Haze 29 1009 84 3000 2.06 340 20:20 30.09.2022
24 Thunderstorm 29 1009 84 3000 2.06 320 17:59 30.09.2022
25 Thunderstorm 29 1008 84 3000 2.57 300 16:31 30.09.2022
26 Haze 30 1006 79 4000 5.66 300 14:22 30.09.2022
27 Haze 32 1006 74 4000 5.14 300 12:29 30.09.2022
28 Haze 32 1006 74 4000 5.14 290 11:54 30.09.2022
29 Haze 30 1008 84 3000 5.14 250 08:57 30.09.2022
30 Haze 30 1009 79 3000 2.57 350 06:38 30.09.2022
31 Haze 27 1007 94 3000 1.54 120 02:51 30.09.2022
32 Haze 27 1007 94 3000 0 0 00:53 30.09.2022
33 Haze 28 1008 89 3000 0 0 21:39 29.09.2022
34 Haze 28 1008 89 3000 1.03 320 21:19 29.09.2022
35 Haze 28 1008 89 3000 1.54 320 18:54 29.09.2022
36 Haze 28 1008 89 3000 2.06 290 17:49 29.09.2022
37 Thunderstorm 29 1007 79 3000 2.06 300 16:29 29.09.2022
38 Haze 29 1007 79 3000 3.09 340 15:37 29.09.2022
39 Haze 29 1006 79 3000 3.6 320 14:59 29.09.2022
40 Haze 28 1006 83 2500 3.6 310 11:54 29.09.2022
41 Clouds 30 1008 79 3000 5.14 260 08:44 29.09.2022
42 Haze 28 1008 89 3000 0 0 04:22 29.09.2022
43 Haze 28 1006 89 3000 0 0 01:47 29.09.2022
44 Haze 28 1006 89 3000 1.54 360 23:20 28.09.2022
45 Haze 28 1007 89 3000 0 0 21:31 28.09.2022
46 Haze 29 1007 84 3000 1.54 340 20:51 28.09.2022
47 Haze 28 1008 89 3000 2.06 340 19:56 28.09.2022
48 Haze 28 1007 89 3000 2.06 310 16:35 28.09.2022
49 Haze 30 1006 79 3000 5.14 270 13:28 28.09.2022
50 Haze 29 1006 84 3000 4.63 270 11:45 28.09.2022
51 Clouds 28 1008 89 2200 2.57 310 09:37 28.09.2022
52 Haze 29 1009 79 3000 2.06 160 07:43 28.09.2022
53 Haze 27 1009 94 3000 2.06 110 05:37 28.09.2022
54 Haze 26 1007 94 3500 2.06 120 01:44 28.09.2022
55 Haze 27 1007 89 3500 0 0 00:36 28.09.2022
56 Haze 27 1008 89 3500 0 0 22:40 27.09.2022
57 Haze 27 1008 89 3500 0 0 21:20 27.09.2022
58 Haze 27 1008 89 3500 0 0 20:34 27.09.2022
59 Haze 27 1009 89 3500 2.06 150 19:40 27.09.2022
60 Haze 28 1009 78 3500 2.06 340 17:47 27.09.2022
61 Haze 28 1008 78 3500 1.54 320 16:56 27.09.2022
62 Haze 28 1007 83 4000 3.09 320 15:18 27.09.2022
63 Haze 29 1007 74 4000 2.57 320 14:21 27.09.2022
64 Haze 29 1007 79 3000 4.63 270 12:39 27.09.2022
65 Haze 29 1007 79 3000 4.63 270 12:39 27.09.2022
66 Haze 29 1008 70 4000 3.6 300 10:45 27.09.2022
67 Haze 29 1010 70 4000 1.54 320 08:36 27.09.2022
68 Haze 27 1010 94 2500 1.54 140 05:22 27.09.2022
69 Haze 27 1008 89 4000 0 0 01:40 27.09.2022
70 Haze 27 1008 89 4000 0 0 00:28 27.09.2022
71 Haze 27 1009 89 4000 0 0 23:24 26.09.2022
72 Haze 26 1010 94 4000 0 0 21:37 26.09.2022
73 Haze 27 1010 89 4000 0 0 20:18 26.09.2022
74 Haze 27 1011 89 4000 2.06 340 19:21 26.09.2022
75 Haze 28 1010 83 4000 1.54 110 17:27 26.09.2022
76 Haze 28 1009 83 4000 2.06 330 15:44 26.09.2022
77 Haze 29 1008 74 5000 4.63 300 12:42 26.09.2022
78 Haze 29 1009 100 5000 4.63 290 11:28 26.09.2022
79 Haze 29 1010 79 4000 4.63 300 10:36 26.09.2022
80 Haze 29 1010 79 4000 4.63 300 10:18 26.09.2022
81 Haze 28 1010 83 4000 2.57 310 09:52 26.09.2022
82 Haze 28 1011 83 4000 4.12 290 09:22 26.09.2022
83 Haze 28 1012 89 2500 2.57 140 05:50 26.09.2022
84 Haze 26 1009 94 3000 2.06 90 02:35 26.09.2022
85 Haze 27 1008 94 3000 3.09 200 23:26 25.09.2022
86 Haze 27 1009 89 3000 3.09 120 21:48 25.09.2022
87 Haze 27 1009 89 3000 2.06 130 21:25 25.09.2022
88 Haze 28 1010 83 3000 1.54 180 20:37 25.09.2022
89 Haze 28 1010 83 3000 0 0 19:25 25.09.2022
90 Haze 28 1009 83 3000 2.06 270 18:29 25.09.2022
91 Haze 28 1009 83 3000 2.06 270 18:29 25.09.2022
92 Haze 28 1009 83 3000 3.09 250 17:29 25.09.2022
93 Haze 28 1008 83 3500 3.09 300 16:21 25.09.2022
94 Haze 28 1007 78 5000 3.6 260 14:55 25.09.2022
95 Haze 29 1007 74 5000 3.6 260 14:19 25.09.2022
96 Haze 29 1007 79 6000 4.12 230 11:35 25.09.2022
97 Haze 29 1008 79 5000 3.6 240 09:48 25.09.2022
98 Haze 29 1009 79 4000 3.09 190 07:45 25.09.2022
99 Haze 27 1009 89 3000 2.57 180 05:27 25.09.2022
100 Haze 26 1007 94 3000 2.57 120 23:37 24.09.2022
101 Haze 26 1007 94 3000 2.57 160 21:50 24.09.2022
102 Haze 26 1008 94 3000 2.57 160 20:34 24.09.2022
103 Haze 27 1008 89 3000 3.09 150 19:20 24.09.2022
104 Haze 28 1007 83 3000 1.54 280 16:58 24.09.2022
105 Haze 28 1007 89 5000 2.57 280 15:54 24.09.2022
106 Haze 28 1006 83 5000 3.6 250 15:18 24.09.2022
107 Smoke 30 1005 79 6000 3.09 260 13:23 24.09.2022
108 Smoke 30 1006 79 6000 5.66 220 12:40 24.09.2022
109 Smoke 30 1007 79 6000 3.6 190 10:18 24.09.2022
110 Clouds 30 1009 79 6000 3.6 200 09:22 24.09.2022
111 Haze 29 1009 79 6000 3.09 200 08:42 24.09.2022
112 Clouds 25 1009 100 2500 2.57 140 04:58 24.09.2022
113 Clouds 25 1009 100 1200 2.06 40 04:27 24.09.2022
114 Drizzle 25 1007 100 3000 1.54 150 23:47 23.09.2022
115 Haze 25 1008 94 3000 2.57 110 21:44 23.09.2022
116 Haze 25 1008 94 3000 2.57 110 21:24 23.09.2022
117 Haze 26 1009 89 3000 2.57 100 20:54 23.09.2022
118 Haze 26 1009 89 3000 2.57 180 19:20 23.09.2022
119 Clouds 27 1009 83 3000 4.12 230 17:55 23.09.2022
120 Haze 29 1007 79 5000 4.63 220 13:41 23.09.2022
121 Haze 29 1009 79 5000 5.14 230 10:25 23.09.2022
122 Haze 29 1010 79 3500 4.12 200 08:45 23.09.2022
123 Haze 24 1009 94 2500 0 0 03:37 23.09.2022
124 Haze 24 1008 100 2200 2.06 80 23:30 22.09.2022
125 Haze 24 1009 100 2200 0 0 22:28 22.09.2022
126 Haze 24 1009 100 2200 1.54 110 21:36 22.09.2022
127 Haze 23 1010 88 2500 1.54 130 20:31 22.09.2022
128 Haze 23 1010 88 2500 2.06 120 18:59 22.09.2022
129 Haze 25 1008 88 2200 4.12 100 15:58 22.09.2022
130 Drizzle 25 1009 94 2500 1.03 320 10:55 22.09.2022
131 Drizzle 24 1010 100 2500 2.06 300 10:19 22.09.2022
132 Clouds 24 1011 100 1700 0 0 08:22 22.09.2022
133 Clouds 24 1011 100 2500 3.09 330 06:21 22.09.2022
134 Haze 25 1008 94 3000 1.54 90 02:28 22.09.2022
135 Haze 25 1008 94 3000 0 0 22:29 21.09.2022
136 Haze 25 1009 94 3000 0 0 21:26 21.09.2022
137 Haze 25 1010 94 3000 1.54 160 19:30 21.09.2022
138 Haze 25 1010 94 3000 1.54 160 19:30 21.09.2022
139 Haze 25 1009 94 3000 1.54 0 17:45 21.09.2022
140 Haze 25 1009 94 2500 1.54 220 16:22 21.09.2022
141 Clouds 25 1008 94 2500 4.12 250 13:57 21.09.2022
142 Haze 26 1008 83 4000 4.12 280 12:19 21.09.2022
143 Haze 26 1008 83 4000 4.63 280 11:28 21.09.2022
144 Haze 25 1009 88 4000 5.14 270 09:44 21.09.2022
145 Haze 26 1010 89 4000 4.63 290 08:50 21.09.2022
146 Drizzle 25 1011 100 2500 3.09 240 06:20 21.09.2022
147 Haze 25 1008 94 2500 0 0 02:44 21.09.2022
148 Haze 25 1008 94 2500 0 0 02:20 21.09.2022
149 Haze 25 1008 94 2500 2.06 110 00:26 21.09.2022
150 Haze 25 1008 94 2500 2.57 110 22:30 20.09.2022
151 Haze 25 1010 94 2500 2.57 120 20:37 20.09.2022
152 Haze 25 1010 94 2500 2.57 140 19:24 20.09.2022
153 Haze 25 1008 94 2500 2.57 100 16:18 20.09.2022
154 Drizzle 25 1007 100 2500 2.06 120 14:35 20.09.2022
155 Clouds 27 1007 83 3000 2.06 40 12:45 20.09.2022
156 Haze 28 1010 83 3000 4.12 270 08:51 20.09.2022
157 Haze 29 1010 79 3000 4.12 280 08:25 20.09.2022
158 Haze 25 1009 94 2500 0 0 04:46 20.09.2022
159 Haze 25 1009 94 2500 0 0 03:38 20.09.2022
160 Haze 25 1008 94 2500 2.57 100 22:51 19.09.2022
161 Haze 26 1009 94 2500 0 0 21:39 19.09.2022
162 Haze 26 1009 89 2500 0 0 20:47 19.09.2022
163 Haze 26 1010 89 2500 0 0 20:24 19.09.2022
164 Haze 26 1010 94 2500 1.54 130 17:44 19.09.2022
165 Haze 27 1008 83 2500 0 0 14:18 19.09.2022
166 Haze 28 1008 83 2500 0 0 12:56 19.09.2022
167 Haze 27 1009 78 2500 1.54 330 10:48 19.09.2022
168 Clouds 24 1011 100 2200 2.06 290 08:51 19.09.2022
169 Clouds 25 1010 94 2500 3.09 270 05:53 19.09.2022
170 Haze 25 1007 94 3000 1.54 190 01:54 19.09.2022
171 Haze 26 1008 94 3000 2.57 150 23:22 18.09.2022
172 Haze 26 1009 94 3000 2.57 150 21:43 18.09.2022
173 Haze 26 1010 94 3000 2.06 180 20:24 18.09.2022
174 Haze 25 1009 94 3000 2.06 130 17:54 18.09.2022
175 Haze 25 1009 94 3000 2.06 130 17:35 18.09.2022
176 Haze 27 1008 89 3000 1.54 300 15:44 18.09.2022
177 Haze 27 1007 83 4000 1.54 280 13:50 18.09.2022
178 Drizzle 26 1007 94 2500 4.12 330 12:35 18.09.2022
179 Clouds 25 1008 100 1600 5.14 320 11:24 18.09.2022
180 Clouds 25 1008 100 1500 5.14 280 04:26 18.09.2022
181 Rain 25 1007 100 1500 4.63 250 01:25 18.09.2022
182 Haze 25 1006 100 2500 4.63 220 00:23 18.09.2022
183 Clouds 25 1007 100 2200 1.54 180 21:40 17.09.2022
184 Clouds 27 1008 89 2200 2.57 170 19:44 17.09.2022
185 Haze 26 1008 94 2500 3.6 190 18:57 17.09.2022
186 Haze 26 1008 94 2500 3.6 190 18:57 17.09.2022
187 Drizzle 27 1006 89 3000 5.66 210 16:22 17.09.2022
188 Haze 29 1005 84 3000 5.66 220 13:56 17.09.2022
189 Haze 29 1006 84 2500 5.66 210 11:31 17.09.2022
190 Haze 30 1007 79 3000 4.63 210 09:27 17.09.2022
191 Haze 28 1008 89 2500 5.14 230 06:25 17.09.2022
192 Clouds 27 1005 94 2500 2.06 220 01:51 17.09.2022
193 Haze 26 1005 100 2500 0 0 22:54 16.09.2022
194 Rain 26 1006 94 2200 0 0 21:23 16.09.2022
195 Thunderstorm 26 1006 94 2500 2.57 300 19:51 16.09.2022
196 Haze 27 1006 89 2500 0 0 17:50 16.09.2022
197 Rain 28 1005 89 3000 5.14 250 15:34 16.09.2022
198 Haze 28 1004 89 2500 5.66 240 13:57 16.09.2022
199 Rain 27 1005 89 2500 6.69 260 11:43 16.09.2022
200 Thunderstorm 26 1008 94 2200 1.54 20 08:26 16.09.2022
201 Thunderstorm 25 1008 100 1700 3.09 310 07:19 16.09.2022
202 Thunderstorm 26 1007 100 1800 4.12 340 06:47 16.09.2022
203 Rain 27 1005 94 2500 4.63 250 02:52 16.09.2022
204 Drizzle 26 1006 100 2500 6.17 250 22:56 15.09.2022
205 Drizzle 26 1007 100 2500 5.14 230 21:18 15.09.2022
206 Haze 27 1008 100 2500 4.12 260 19:49 15.09.2022
207 Drizzle 26 1007 94 2500 3.6 240 18:29 15.09.2022
208 Drizzle 26 1007 100 2500 3.6 230 17:32 15.09.2022
209 Rain 27 1007 94 2500 5.66 250 16:43 15.09.2022
210 Clouds 28 1006 89 2500 4.12 240 14:36 15.09.2022
211 Haze 29 1006 84 2500 6.17 240 12:21 15.09.2022
212 Clouds 28 1007 89 3000 5.14 220 09:54 15.09.2022
213 Haze 28 1008 89 2500 6.17 220 07:50 15.09.2022
214 Clouds 28 1007 89 3000 4.12 230 03:56 15.09.2022
215 Haze 27 1005 94 3000 6.17 230 01:20 15.09.2022
216 Haze 28 1007 89 2500 4.12 220 21:39 14.09.2022
217 Haze 28 1007 89 2500 5.14 210 19:34 14.09.2022
218 Haze 28 1007 89 2500 5.14 210 19:34 14.09.2022
219 Haze 27 1007 94 2500 3.6 220 18:32 14.09.2022
220 Clouds 27 1006 94 2200 4.12 220 16:57 14.09.2022
221 Haze 27 1006 94 2500 4.63 230 15:38 14.09.2022
222 Clouds 28 1005 89 2100 6.17 220 14:33 14.09.2022
223 Clouds 29 1004 84 2100 7.72 210 11:39 14.09.2022
224 Haze 28 1006 89 3000 4.12 220 09:48 14.09.2022
225 Drizzle 29 1007 84 2500 6.17 220 07:38 14.09.2022
226 Clouds 29 1007 84 2500 3.6 220 06:46 14.09.2022
227 Haze 27 1005 94 2500 4.12 230 04:33 14.09.2022
228 Rain 26 1004 94 2500 2.06 190 01:47 14.09.2022
229 Haze 26 1003 100 2500 4.12 210 01:27 14.09.2022
230 Drizzle 26 1003 100 2500 3.6 190 00:48 14.09.2022
231 Clouds 26 1003 100 2100 5.14 250 23:54 13.09.2022
232 Drizzle 26 1004 100 2500 4.12 230 23:36 13.09.2022
233 Drizzle 26 1004 100 2500 4.12 230 23:18 13.09.2022
234 Drizzle 26 1004 100 2500 4.63 230 21:50 13.09.2022
235 Clouds 27 1005 94 2500 4.63 230 19:45 13.09.2022
236 Haze 28 1004 89 3000 5.14 220 17:44 13.09.2022
237 Haze 28 1003 89 3000 4.63 240 15:55 13.09.2022
238 Haze 28 1002 89 3000 6.17 230 14:36 13.09.2022
239 Clouds 28 1002 89 3000 4.12 240 12:40 13.09.2022
240 Haze 28 1004 94 2500 5.66 250 08:50 13.09.2022
241 Drizzle 26 1003 100 2200 0 0 05:45 13.09.2022
242 Clouds 26 1000 100 2500 0 0 00:19 13.09.2022
243 Rain 26 1001 100 2500 0 0 22:50 12.09.2022
244 Rain 26 1002 100 2200 3.09 270 21:37 12.09.2022
245 Thunderstorm 26 1002 100 2500 0 0 20:25 12.09.2022
246 Clouds 27 1002 94 2500 2.57 20 18:44 12.09.2022
247 Haze 29 1001 84 3000 2.57 200 16:38 12.09.2022
248 Haze 29 999 84 4000 4.63 240 14:36 12.09.2022
249 Clouds 28 1000 89 3000 3.09 270 11:30 12.09.2022
250 Haze 30 1001 79 3000 3.09 190 09:56 12.09.2022
251 Haze 27 1001 100 2500 2.06 150 04:51 12.09.2022
252 Haze 27 1000 94 2500 2.06 110 04:24 12.09.2022
253 Thunderstorm 27 1000 94 2200 0 0 23:39 11.09.2022
254 Haze 27 1001 94 2200 3.6 160 22:28 11.09.2022
255 Thunderstorm 28 1001 94 2000 2.57 140 20:50 11.09.2022
256 Clouds 29 1002 89 2500 0 0 19:57 11.09.2022
257 Thunderstorm 29 1001 89 2500 0 0 19:25 11.09.2022
258 Thunderstorm 29 1001 89 2500 0 0 18:21 11.09.2022
259 Clouds 29 1001 94 2500 3.6 250 16:46 11.09.2022
260 Haze 30 1000 84 3000 4.12 280 14:53 11.09.2022
261 Haze 30 999 79 3000 4.12 280 12:50 11.09.2022
262 Haze 30 1003 79 2500 3.09 240 09:25 11.09.2022
263 Haze 30 1003 79 2500 3.09 240 09:25 11.09.2022
264 Haze 30 1004 84 2100 2.06 230 07:19 11.09.2022
265 Haze 26 1002 100 2100 1.54 130 01:18 11.09.2022
266 Haze 26 1003 100 2500 2.57 130 23:20 10.09.2022
267 Haze 27 1004 100 2500 1.54 110 21:33 10.09.2022
268 Rain 27 1005 100 2500 0 0 19:49 10.09.2022
269 Rain 27 1005 100 2500 0 0 19:29 10.09.2022
270 Rain 27 1005 100 2500 0 0 18:55 10.09.2022
271 Rain 28 1004 89 2500 2.06 180 16:57 10.09.2022
272 Haze 29 1002 84 3000 2.57 230 14:45 10.09.2022
273 Haze 30 1001 79 5000 4.12 230 12:53 10.09.2022
274 Haze 32 1003 62 4000 3.09 250 11:35 10.09.2022
275 Haze 31 1005 70 3000 2.57 220 09:51 10.09.2022
276 Haze 32 1005 66 3000 2.06 180 08:37 10.09.2022
277 Haze 29 1006 84 3000 3.09 210 07:49 10.09.2022
278 Clouds 26 1003 100 2500 2.06 120 02:47 10.09.2022
279 Haze 26 1004 100 2500 0 0 23:34 09.09.2022
280 Haze 26 1005 100 2500 1.54 60 22:20 09.09.2022
281 Haze 26 1005 94 2500 2.06 120 20:48 09.09.2022
282 Drizzle 26 1005 94 2500 0 0 19:25 09.09.2022
283 Clouds 26 1005 100 2500 1.54 80 18:53 09.09.2022
284 Thunderstorm 28 1004 94 2500 2.06 180 16:33 09.09.2022
285 Haze 30 1002 79 4000 4.63 230 13:51 09.09.2022
286 Haze 31 1001 74 4000 4.12 250 12:56 09.09.2022
287 Haze 31 1004 74 3000 4.12 290 10:22 09.09.2022
288 Haze 29 1006 89 3000 2.57 240 06:45 09.09.2022
289 Haze 26 1004 94 3000 0 0 03:24 09.09.2022
290 Thunderstorm 26 1004 100 2200 2.57 90 22:19 08.09.2022
291 Thunderstorm 26 1005 100 2200 1.54 50 21:43 08.09.2022
292 Thunderstorm 26 1007 100 2500 0 0 20:38 08.09.2022
293 Thunderstorm 26 1007 100 2500 3.09 100 20:19 08.09.2022
294 Clouds 26 1006 100 2500 2.06 170 18:26 08.09.2022
295 Thunderstorm 27 1005 94 2500 2.57 20 16:38 08.09.2022
296 Clouds 29 1003 94 600 4.63 290 14:41 08.09.2022
297 Drizzle 30 1002 84 3500 5.66 290 13:27 08.09.2022
298 Haze 32 1002 70 3500 4.12 240 12:33 08.09.2022
299 Haze 32 1004 74 3500 3.6 270 10:58 08.09.2022
300 Haze 32 1004 74 3500 3.6 270 10:58 08.09.2022
301 Haze 31 1006 74 3000 3.09 40 08:59 08.09.2022
302 Haze 27 1007 94 2500 1.54 20 06:43 08.09.2022
303 Rain 26 1006 94 2100 3.09 60 02:37 08.09.2022
304 Rain 26 1006 94 2100 3.09 60 02:19 08.09.2022
305 Rain 26 1006 94 2100 2.57 40 01:58 08.09.2022
306 Rain 26 1006 94 2200 2.06 30 22:55 07.09.2022
307 Thunderstorm 26 1007 94 2100 4.12 50 21:43 07.09.2022
308 Thunderstorm 26 1008 94 2100 4.12 80 21:18 07.09.2022
309 Thunderstorm 26 1008 100 2100 3.6 70 19:54 07.09.2022
310 Rain 25 1007 100 1800 3.09 120 18:39 07.09.2022
311 Thunderstorm 27 1005 100 1900 2.06 190 15:21 07.09.2022
312 Haze 31 1004 74 4000 6.69 270 10:50 07.09.2022
313 Haze 31 1005 79 3000 6.17 260 10:24 07.09.2022
314 Haze 30 1007 84 3000 3.6 300 07:43 07.09.2022
315 Haze 28 1006 94 2500 2.06 360 04:46 07.09.2022
316 Haze 28 1006 89 4000 2.57 30 00:26 07.09.2022
317 Haze 29 1006 84 4000 3.09 340 21:47 06.09.2022
318 Haze 29 1007 84 4000 3.09 330 21:27 06.09.2022
319 Haze 29 1008 79 4000 2.06 310 18:55 06.09.2022
320 Haze 29 1007 79 4000 2.57 310 18:27 06.09.2022
321 Haze 29 1007 79 4000 0 0 17:23 06.09.2022
322 Haze 29 1006 79 4000 2.57 320 16:40 06.09.2022
323 Haze 30 1005 70 5000 4.12 310 15:23 06.09.2022
324 Haze 31 1005 66 5000 4.12 300 13:46 06.09.2022
325 Haze 31 1004 66 5000 4.12 320 13:26 06.09.2022
326 Haze 31 1005 62 5000 5.66 300 12:37 06.09.2022
327 Haze 31 1006 66 5000 5.66 290 10:46 06.09.2022
328 Haze 29 1008 84 4000 5.14 250 08:54 06.09.2022
329 Haze 30 1009 79 4000 2.06 250 07:52 06.09.2022
330 Haze 27 1008 89 4000 3.09 20 04:48 06.09.2022
331 Haze 28 1006 89 2500 0 0 23:52 05.09.2022
332 Haze 28 1007 89 3000 1.54 0 22:41 05.09.2022
333 Haze 28 1007 89 3500 1.54 170 20:59 05.09.2022
334 Haze 28 1008 89 4000 0 0 19:50 05.09.2022
335 Haze 28 1008 89 4000 1.54 0 18:49 05.09.2022
336 Haze 28 1008 89 4000 2.06 310 18:23 05.09.2022
337 Haze 29 1007 84 4000 6.17 290 17:31 05.09.2022
338 Haze 29 1006 79 4000 4.63 310 15:52 05.09.2022
339 Haze 30 1005 74 5000 3.6 280 13:54 05.09.2022
340 Haze 31 1006 74 5000 3.6 280 12:29 05.09.2022
341 Haze 31 1007 74 5000 3.6 270 10:34 05.09.2022
342 Haze 30 1009 79 4000 6.17 280 07:44 05.09.2022
343 Haze 28 1007 89 3000 3.09 290 02:58 05.09.2022
344 Haze 28 1007 89 3000 2.06 230 23:48 04.09.2022
345 Haze 27 1007 94 3000 2.57 260 22:28 04.09.2022
346 Haze 28 1008 89 3000 5.66 260 21:45 04.09.2022
347 Haze 29 1008 84 3000 2.06 270 19:44 04.09.2022
348 Haze 29 1008 84 2500 2.06 300 18:21 04.09.2022
349 Haze 29 1007 84 2500 2.06 280 17:24 04.09.2022
350 Haze 29 1007 84 2500 2.57 320 15:23 04.09.2022
351 Haze 29 1006 89 2500 4.12 300 14:22 04.09.2022
352 Haze 29 1006 89 2500 4.63 290 12:24 04.09.2022
353 Haze 30 1007 84 4000 5.66 280 10:58 04.09.2022
354 Haze 31 1008 79 3000 5.66 260 09:24 04.09.2022
355 Clouds 26 1009 100 2200 3.09 280 06:27 04.09.2022
356 Haze 28 1006 94 2500 0 0 02:31 04.09.2022
357 Rain 28 1007 94 2200 0 0 22:33 03.09.2022
358 Drizzle 27 1008 94 1800 1.54 230 21:25 03.09.2022
359 Clouds 27 1008 100 1500 1.54 160 20:55 03.09.2022
360 Haze 30 1007 89 3500 2.06 260 17:37 03.09.2022
361 Haze 30 1007 89 3500 4.12 230 16:52 03.09.2022
362 Haze 30 1006 84 4000 4.63 240 14:52 03.09.2022
363 Haze 30 1005 84 4000 4.63 220 14:30 03.09.2022
364 Haze 30 1005 84 4000 3.6 230 13:44 03.09.2022
365 Haze 31 1006 79 4000 6.17 240 11:32 03.09.2022
366 Haze 32 1008 74 3000 3.6 250 09:22 03.09.2022
367 Haze 32 1008 74 2500 2.57 220 07:48 03.09.2022
368 Smoke 28 1008 94 1800 1.54 120 04:50 03.09.2022
369 Haze 27 1006 94 3000 0 0 02:35 03.09.2022
370 Haze 27 1006 94 3000 2.06 120 23:42 02.09.2022
371 Haze 27 1007 94 3000 0 0 21:57 02.09.2022
372 Haze 27 1008 94 3000 1.54 70 20:42 02.09.2022
373 Haze 27 1008 94 3000 3.09 70 19:47 02.09.2022
374 Haze 28 1008 89 3000 0 0 18:50 02.09.2022
375 Haze 28 1007 89 2500 3.09 100 18:25 02.09.2022
376 Haze 28 1008 83 2500 3.09 90 17:24 02.09.2022
377 Haze 29 1007 89 2200 2.57 80 16:31 02.09.2022
378 Clouds 30 1005 84 3000 3.6 290 13:32 02.09.2022
379 Haze 33 1006 75 4000 5.66 250 10:43 02.09.2022
380 Haze 33 1007 70 4000 5.14 270 09:42 02.09.2022
381 Haze 32 1007 74 4000 4.63 270 08:46 02.09.2022
382 Haze 31 1008 74 2500 3.09 260 06:46 02.09.2022
383 Haze 31 1008 74 2500 2.57 260 06:21 02.09.2022
384 Haze 28 1006 89 3000 2.06 130 00:20 02.09.2022
385 Haze 28 1007 83 3000 1.54 10 21:56 01.09.2022
386 Haze 29 1007 84 3000 3.09 10 21:37 01.09.2022
387 Haze 29 1007 84 3000 3.09 10 21:18 01.09.2022
388 Haze 29 1007 79 3000 1.54 330 20:23 01.09.2022
389 Haze 29 1007 84 3000 2.57 350 18:20 01.09.2022
390 Haze 30 1006 79 3000 3.09 300 16:54 01.09.2022
391 Haze 30 1005 79 4000 5.66 290 14:52 01.09.2022
392 Haze 31 1004 79 4000 6.17 260 13:23 01.09.2022
393 Haze 31 1004 74 4000 6.17 270 12:55 01.09.2022
394 Haze 32 1005 70 4000 5.14 240 11:51 01.09.2022
395 Haze 31 1005 79 4000 5.14 240 11:19 01.09.2022
396 Haze 30 1007 84 4000 4.63 270 09:31 01.09.2022
397 Haze 28 1008 78 2500 1.54 50 06:34 01.09.2022
398 Thunderstorm 25 1006 94 2500 2.06 70 02:34 01.09.2022
399 Drizzle 25 1006 94 2500 2.57 80 01:30 01.09.2022
400 Drizzle 25 1006 94 2500 2.57 80 01:30 01.09.2022
401 Drizzle 25 1006 94 2500 2.57 80 01:30 01.09.2022
402 Drizzle 25 1006 94 2500 2.57 80 01:30 01.09.2022
403 Rain 25 1007 100 2500 2.06 30 22:22 31.08.2022
404 Thunderstorm 26 1008 94 2200 2.57 50 20:43 31.08.2022
405 Thunderstorm 29 1007 89 2500 0 0 18:45 31.08.2022
406 Thunderstorm 29 1005 89 3000 3.09 300 16:36 31.08.2022
407 Thunderstorm 30 1005 84 3000 4.12 300 15:21 31.08.2022
408 Haze 32 1004 74 5000 5.66 290 12:58 31.08.2022
409 Haze 32 1004 74 4500 6.69 290 11:54 31.08.2022
410 Haze 31 1007 79 4000 5.66 300 09:35 31.08.2022
411 Haze 31 1008 74 3500 4.12 290 07:31 31.08.2022
412 Haze 28 1006 89 3000 0 0 02:25 31.08.2022
413 Haze 28 1007 89 3000 3.09 290 22:21 30.08.2022
414 Haze 28 1007 89 3000 2.57 300 21:27 30.08.2022
415 Haze 29 1008 84 3000 3.09 130 19:51 30.08.2022
416 Haze 29 1008 79 3500 2.57 350 16:47 30.08.2022
417 Haze 30 1007 74 4000 5.66 300 13:38 30.08.2022
418 Haze 31 1007 70 4000 6.17 300 11:44 30.08.2022
419 Haze 31 1008 70 4000 4.63 310 11:19 30.08.2022
420 Haze 30 1009 74 4000 4.12 280 09:32 30.08.2022
421 Clouds 29 1010 84 3000 3.09 30 06:26 30.08.2022
422 Haze 27 1007 89 3000 1.54 350 00:33 30.08.2022
423 Haze 28 1008 83 4000 0 0 22:37 29.08.2022
424 Haze 28 1008 83 4000 1.54 320 21:51 29.08.2022
425 Haze 28 1009 83 4000 1.54 320 20:35 29.08.2022
426 Haze 28 1009 83 4000 1.54 350 18:58 29.08.2022
427 Haze 28 1008 83 4000 3.09 300 17:32 29.08.2022
428 Haze 29 1008 79 4000 2.57 320 16:58 29.08.2022
429 Haze 29 1007 74 4000 4.63 290 15:19 29.08.2022
430 Haze 30 1007 70 4000 5.66 270 13:42 29.08.2022
431 Haze 30 1007 79 4000 5.14 240 12:24 29.08.2022
432 Haze 30 1009 74 5000 5.14 270 10:43 29.08.2022
433 Haze 30 1010 74 4000 4.63 270 09:18 29.08.2022
434 Drizzle 27 1011 89 2500 2.06 150 06:52 29.08.2022
435 Haze 26 1008 94 3000 2.57 170 02:31 29.08.2022
436 Haze 28 1007 78 4000 1.54 340 23:35 28.08.2022
437 Haze 28 1008 78 4000 0 0 21:48 28.08.2022
438 Haze 28 1008 83 4000 1.54 270 21:25 28.08.2022
439 Haze 28 1008 78 4000 2.06 300 20:18 28.08.2022
440 Haze 28 1008 78 4000 2.06 300 20:18 28.08.2022
441 Haze 28 1008 78 4000 2.57 300 18:22 28.08.2022
442 Haze 28 1007 78 4000 3.09 290 17:51 28.08.2022
443 Haze 29 1007 74 4000 3.09 310 16:44 28.08.2022
444 Haze 29 1006 74 5000 5.14 280 15:33 28.08.2022
445 Haze 30 1005 74 5000 6.69 270 13:19 28.08.2022
446 Clouds 30 1006 74 6000 5.14 280 11:25 28.08.2022
447 Haze 30 1007 70 5000 6.17 280 10:20 28.08.2022
448 Haze 30 1008 66 5000 5.66 280 08:52 28.08.2022
449 Haze 30 1008 74 4000 4.63 240 07:53 28.08.2022
450 Haze 29 1008 74 4000 2.57 260 07:23 28.08.2022
451 Haze 27 1007 83 3000 0 0 00:36 28.08.2022
452 Haze 28 1008 78 4000 2.06 230 22:58 27.08.2022
453 Haze 28 1008 78 4000 1.54 280 22:24 27.08.2022
454 Haze 28 1009 78 4000 3.6 250 20:35 27.08.2022
455 Haze 28 1009 78 4000 2.57 290 18:57 27.08.2022
456 Haze 29 1007 74 4000 5.14 270 16:26 27.08.2022
457 Haze 29 1006 74 5000 4.12 300 15:31 27.08.2022
458 Haze 30 1006 70 5000 5.14 280 13:19 27.08.2022
459 Haze 30 1006 70 5000 6.17 270 11:59 27.08.2022
460 Haze 30 1007 74 5000 6.17 270 10:27 27.08.2022
461 Haze 30 1008 70 5000 4.63 250 09:33 27.08.2022
462 Haze 30 1009 70 3000 2.57 310 06:52 27.08.2022
463 Haze 27 1006 89 3000 2.06 280 00:52 27.08.2022
464 Haze 27 1006 89 3000 2.06 280 00:52 27.08.2022
465 Haze 28 1007 83 3000 2.06 270 23:46 26.08.2022
466 Haze 27 1007 89 3000 2.06 210 21:46 26.08.2022
467 Haze 28 1008 83 3000 2.06 240 19:50 26.08.2022
468 Haze 28 1007 83 3000 2.57 320 17:53 26.08.2022
469 Haze 28 1007 83 4000 3.6 260 15:45 26.08.2022
470 Haze 29 1006 79 4000 5.14 250 15:24 26.08.2022
471 Haze 30 1006 70 4000 6.17 260 12:59 26.08.2022
472 Haze 30 1006 70 4000 5.66 250 11:47 26.08.2022
473 Haze 30 1007 74 4000 6.17 280 11:21 26.08.2022
474 Haze 29 1008 79 4000 4.63 230 08:55 26.08.2022
475 Clouds 27 1007 89 3000 3.09 280 03:51 26.08.2022
476 Haze 27 1006 89 3000 2.57 240 00:39 26.08.2022
477 Haze 27 1007 89 3000 3.6 230 22:39 25.08.2022
478 Haze 27 1007 89 3000 3.09 250 20:54 25.08.2022
479 Clouds 26 1008 94 2500 2.57 220 19:35 25.08.2022
480 Clouds 28 1007 83 3000 2.57 220 18:29 25.08.2022
481 Haze 28 1007 83 3000 4.63 250 17:31 25.08.2022
482 Haze 28 1007 83 3000 5.14 250 16:40 25.08.2022
483 Haze 28 1006 83 3500 4.63 260 15:29 25.08.2022
484 Haze 29 1006 79 4000 5.66 270 13:51 25.08.2022
485 Clouds 28 1007 83 3000 4.63 240 11:21 25.08.2022
486 Haze 29 1007 84 3500 3.6 260 10:42 25.08.2022
487 Clouds 29 1008 84 1700 4.12 240 07:35 25.08.2022
488 Haze 26 1007 94 2500 2.57 240 02:51 25.08.2022
489 Haze 26 1006 94 2500 2.06 230 23:36 24.08.2022
490 Haze 26 1007 94 2500 3.09 220 22:56 24.08.2022
491 Haze 26 1008 89 2500 1.54 210 21:55 24.08.2022
492 Haze 27 1008 89 2500 3.09 230 21:28 24.08.2022
493 Haze 27 1008 89 2500 3.09 210 19:56 24.08.2022
494 Haze 26 1008 94 2500 4.63 260 16:58 24.08.2022
495 Haze 28 1007 83 2500 5.14 250 15:54 24.08.2022
496 Haze 28 1006 89 2500 6.17 250 15:28 24.08.2022
497 Haze 29 1006 89 2500 4.12 240 12:51 24.08.2022
498 Haze 30 1007 79 4000 5.66 250 11:19 24.08.2022
499 Haze 29 1008 84 3000 4.63 240 08:45 24.08.2022
500 Haze 27 1008 89 3000 3.6 220 06:23 24.08.2022
501 Clouds 26 1005 100 2100 5.14 230 00:55 24.08.2022
502 Haze 27 1006 94 2500 3.6 230 22:41 23.08.2022
503 Clouds 26 1007 94 2100 6.69 250 21:55 23.08.2022
504 Haze 26 1007 94 2500 4.63 230 20:47 23.08.2022
505 Haze 27 1007 94 2500 4.63 230 19:18 23.08.2022
506 Clouds 28 1006 89 2500 6.17 230 17:59 23.08.2022
507 Haze 28 1006 89 3000 6.17 230 17:22 23.08.2022
508 Haze 28 1005 83 3000 4.12 230 16:24 23.08.2022
509 Haze 28 1004 89 3500 6.17 240 14:30 23.08.2022
510 Haze 28 1004 89 3500 5.14 230 12:46 23.08.2022
511 Rain 29 1004 79 3000 4.12 220 10:58 23.08.2022
512 Clouds 29 1005 84 3000 5.14 230 10:33 23.08.2022
513 Haze 29 1005 84 3500 7.2 240 09:32 23.08.2022
514 Haze 29 1005 79 3500 4.63 240 08:46 23.08.2022
515 Haze 28 1005 89 3000 4.12 240 08:19 23.08.2022
516 Clouds 27 1005 89 2500 6.17 250 07:31 23.08.2022
517 Haze 28 1005 89 3500 6.69 240 06:23 23.08.2022
518 Clouds 27 1003 89 2500 6.69 250 01:45 23.08.2022
519 Clouds 27 1002 94 2500 4.63 250 00:27 23.08.2022
520 Haze 27 1002 94 2100 4.12 240 23:32 22.08.2022
521 Haze 27 1003 89 2500 3.09 240 22:25 22.08.2022
522 Clouds 27 1004 89 2500 4.63 250 20:44 22.08.2022
523 Haze 27 1005 94 2500 4.12 240 19:44 22.08.2022
524 Haze 27 1005 94 2500 3.6 240 18:37 22.08.2022
525 Haze 28 1004 89 2500 6.69 260 15:55 22.08.2022
526 Haze 28 1004 83 2500 6.69 260 15:18 22.08.2022
527 Haze 29 1004 84 3000 6.17 260 11:45 22.08.2022
528 Haze 29 1005 79 3000 4.12 250 09:24 22.08.2022
529 Haze 29 1006 84 2500 6.69 260 06:58 22.08.2022
530 Haze 27 1004 89 2500 5.66 250 02:28 22.08.2022
531 Haze 27 1003 89 2500 5.14 240 00:36 22.08.2022
532 Haze 27 1004 89 2500 4.63 250 23:32 21.08.2022
533 Haze 27 1005 94 2500 6.69 250 21:55 21.08.2022
534 Haze 27 1005 94 2500 4.63 250 21:20 21.08.2022
535 Haze 27 1006 94 2500 6.17 250 20:20 21.08.2022
536 Haze 27 1006 94 2500 6.17 250 18:49 21.08.2022
537 Haze 28 1005 89 3000 5.14 240 16:50 21.08.2022
538 Clouds 28 1005 89 3000 4.63 240 15:52 21.08.2022
539 Haze 28 1005 83 4000 6.17 250 14:51 21.08.2022
540 Haze 28 1005 83 4000 4.12 270 13:50 21.08.2022
541 Haze 28 1005 83 4000 4.12 260 12:56 21.08.2022
542 Haze 29 1006 84 3500 6.17 240 10:40 21.08.2022
543 Haze 29 1007 74 3000 5.66 260 08:57 21.08.2022
544 Haze 29 1007 74 3000 5.66 260 08:39 21.08.2022
545 Haze 27 1007 94 3000 6.17 260 08:18 21.08.2022
546 Clouds 27 1008 94 2500 3.09 260 06:37 21.08.2022
547 Haze 27 1005 94 3000 6.17 260 01:50 21.08.2022
548 Haze 27 1005 94 2500 4.63 250 23:34 20.08.2022
549 Haze 27 1006 94 2500 4.63 250 21:55 20.08.2022
550 Haze 27 1006 94 2500 5.14 240 20:51 20.08.2022
551 Haze 27 1007 94 2500 5.14 250 19:44 20.08.2022
552 Haze 27 1007 94 2500 4.63 250 18:50 20.08.2022
553 Haze 28 1007 89 2500 4.63 250 18:26 20.08.2022
554 Haze 27 1007 94 2500 4.63 240 17:21 20.08.2022
555 Haze 27 1006 94 2500 4.63 250 16:20 20.08.2022
556 Haze 27 1006 89 3000 4.63 230 14:26 20.08.2022
557 Drizzle 26 1007 100 2200 3.6 260 11:58 20.08.2022
558 Drizzle 26 1007 100 2200 3.6 260 11:37 20.08.2022
559 Clouds 27 1008 94 1600 3.6 260 09:20 20.08.2022
560 Haze 28 1008 83 3000 7.2 250 07:30 20.08.2022
561 Clouds 27 1008 94 1400 2.57 270 05:22 20.08.2022
562 Haze 27 1006 94 2500 4.12 230 00:58 20.08.2022
563 Haze 27 1006 94 2500 4.12 230 23:45 19.08.2022
564 Haze 27 1006 94 2500 2.57 210 22:45 19.08.2022
565 Haze 27 1007 94 2500 3.6 240 21:20 19.08.2022
566 Haze 28 1008 89 2500 4.12 240 19:22 19.08.2022
567 Haze 27 1007 89 3000 4.12 240 16:23 19.08.2022
568 Clouds 28 1006 89 2500 6.69 270 13:56 19.08.2022
569 Haze 29 1006 84 4000 4.12 220 11:51 19.08.2022
570 Haze 30 1007 79 3500 5.14 240 10:33 19.08.2022
571 Haze 29 1008 84 3000 6.69 240 08:43 19.08.2022
572 Haze 27 1007 94 2500 4.12 240 04:43 19.08.2022
573 Haze 27 1006 94 2500 3.6 230 00:42 19.08.2022
574 Haze 27 1006 94 2500 3.09 230 00:19 19.08.2022
575 Haze 27 1006 89 2500 3.6 220 22:57 18.08.2022
576 Haze 27 1006 94 2500 4.12 220 22:26 18.08.2022
577 Haze 27 1007 94 2500 4.12 230 21:50 18.08.2022
578 Haze 27 1007 94 2500 4.12 220 20:55 18.08.2022
579 Haze 27 1008 94 2500 4.12 230 19:39 18.08.2022
580 Haze 27 1008 94 2500 4.12 230 19:20 18.08.2022
581 Haze 27 1007 89 2500 4.63 230 17:32 18.08.2022
582 Haze 27 1006 94 2500 3.6 240 16:18 18.08.2022
583 Haze 28 1006 89 3000 6.17 240 14:21 18.08.2022
584 Haze 28 1006 89 3000 5.66 240 13:44 18.08.2022
585 Haze 28 1006 89 3000 5.66 240 13:44 18.08.2022
586 Clouds 28 1006 83 2500 6.17 230 12:30 18.08.2022
587 Clouds 30 1006 70 3500 5.66 230 11:20 18.08.2022
588 Haze 29 1007 89 3000 5.66 230 09:43 18.08.2022
589 Clouds 29 1008 89 2500 5.66 210 07:27 18.08.2022
590 Clouds 28 1008 89 3000 4.12 220 06:30 18.08.2022
591 Haze 26 1005 100 2500 4.12 240 01:44 18.08.2022
592 Clouds 27 1006 94 2200 3.6 210 22:46 17.08.2022
593 Haze 27 1007 94 2500 3.6 210 20:30 17.08.2022
594 Haze 27 1007 89 2500 5.66 210 19:58 17.08.2022
595 Haze 27 1007 89 2500 4.12 220 18:37 17.08.2022
596 Haze 27 1007 94 2500 4.12 240 17:21 17.08.2022
597 Haze 27 1006 94 2500 3.6 220 16:20 17.08.2022
598 Clouds 26 1005 94 2500 4.12 240 14:41 17.08.2022
599 Clouds 28 1005 89 1000 10.29 250 12:30 17.08.2022
600 Haze 28 1006 89 2500 5.66 210 11:23 17.08.2022
601 Haze 28 1006 89 2500 5.66 220 09:22 17.08.2022
602 Haze 28 1007 89 2500 4.63 220 06:34 17.08.2022
603 Haze 27 1005 94 2500 5.14 210 01:22 17.08.2022
604 Clouds 26 1005 100 2500 5.14 230 23:27 16.08.2022
605 Clouds 26 1006 100 2500 4.12 230 21:32 16.08.2022
606 Haze 27 1006 94 2500 4.63 210 20:22 16.08.2022
607 Drizzle 27 1006 94 2500 6.17 230 19:27 16.08.2022
608 Haze 27 1005 94 2500 4.12 230 17:56 16.08.2022
609 Clouds 27 1005 89 1600 5.66 210 16:55 16.08.2022
610 Rain 27 1004 94 2500 6.17 230 15:45 16.08.2022
611 Haze 28 1004 89 2500 7.2 220 14:54 16.08.2022
612 Haze 28 1004 89 2500 4.63 210 14:36 16.08.2022
613 Haze 28 1004 89 2500 4.12 230 12:39 16.08.2022
614 Rain 26 1005 100 2100 6.17 210 10:23 16.08.2022
615 Rain 25 1005 100 2100 5.66 210 08:55 16.08.2022
616 Rain 25 1005 100 1200 2.06 200 08:26 16.08.2022
617 Clouds 26 1006 94 3000 4.63 220 06:48 16.08.2022
618 Haze 27 1004 89 3000 6.17 230 01:20 16.08.2022
619 Haze 26 1005 94 3000 3.6 230 22:26 15.08.2022
620 Haze 26 1005 94 2500 4.12 220 21:51 15.08.2022
621 Haze 27 1006 94 3000 5.14 230 20:39 15.08.2022
622 Haze 27 1006 94 3000 4.12 220 19:59 15.08.2022
623 Haze 27 1006 89 3000 6.17 230 18:20 15.08.2022
624 Rain 27 1005 89 3000 5.14 230 16:26 15.08.2022
625 Haze 27 1005 89 3000 5.14 230 15:55 15.08.2022
626 Drizzle 28 1005 89 3000 4.63 220 13:54 15.08.2022
627 Haze 28 1005 89 3000 5.66 240 12:24 15.08.2022
628 Haze 29 1006 84 2500 4.63 240 09:54 15.08.2022
629 Haze 28 1006 89 2500 4.12 240 08:21 15.08.2022
630 Haze 27 1005 94 2500 6.17 230 04:36 15.08.2022
631 Rain 27 1005 89 2500 3.6 240 01:26 15.08.2022
632 Haze 27 1006 94 2500 3.6 240 22:39 14.08.2022
633 Haze 27 1006 94 2500 5.14 230 21:38 14.08.2022
634 Haze 28 1007 89 2500 5.66 230 19:58 14.08.2022
635 Haze 28 1007 89 2500 3.6 230 18:59 14.08.2022
636 Haze 28 1006 89 2500 6.69 240 18:19 14.08.2022
637 Haze 27 1006 89 2500 6.69 230 16:53 14.08.2022
638 Haze 28 1005 83 3000 7.2 220 15:49 14.08.2022
639 Haze 28 1005 89 3000 5.14 220 14:33 14.08.2022
640 Haze 29 1005 84 3000 5.66 230 13:50 14.08.2022
641 Haze 29 1005 79 3000 8.75 250 13:20 14.08.2022
642 Haze 28 1005 89 2500 6.17 230 12:28 14.08.2022
643 Clouds 28 1006 83 1000 8.23 220 10:50 14.08.2022
644 Haze 29 1007 84 3000 5.66 210 08:52 14.08.2022
645 Haze 26 1007 94 2500 2.57 220 06:22 14.08.2022
646 Haze 27 1005 89 2500 4.12 220 02:57 14.08.2022
647 Haze 26 1004 94 2500 2.57 220 00:19 14.08.2022
648 Haze 27 1004 94 2500 3.6 220 22:56 13.08.2022
649 Haze 26 1005 94 2500 4.12 230 21:19 13.08.2022
650 Haze 27 1006 89 2500 3.6 230 20:43 13.08.2022
651 Haze 28 1006 89 2500 5.14 220 19:44 13.08.2022
652 Haze 27 1005 94 2500 6.17 200 17:59 13.08.2022
653 Haze 28 1004 89 3000 4.12 210 15:40 13.08.2022
654 Haze 28 1003 89 3000 6.17 220 14:28 13.08.2022
655 Haze 29 1003 84 3000 5.14 200 13:41 13.08.2022
656 Haze 29 1003 84 3000 6.17 230 11:53 13.08.2022
657 Haze 30 1004 79 3000 6.17 230 10:31 13.08.2022
658 Haze 29 1005 84 2500 7.2 220 09:18 13.08.2022
659 Haze 28 1004 89 2500 5.14 250 05:57 13.08.2022
660 Haze 26 1003 94 2500 3.6 220 00:30 13.08.2022
661 Haze 27 1004 94 2500 6.17 220 22:23 12.08.2022
662 Haze 28 1004 89 2500 5.66 220 20:58 12.08.2022
663 Haze 28 1005 89 2500 4.12 210 19:43 12.08.2022
664 Haze 27 1004 94 2500 5.14 210 18:58 12.08.2022
665 Haze 27 1004 94 2500 5.14 210 17:57 12.08.2022
666 Haze 27 1002 89 2500 4.63 220 16:24 12.08.2022
667 Drizzle 27 1001 94 1700 7.72 200 14:47 12.08.2022
668 Haze 29 1001 84 2500 7.2 220 12:59 12.08.2022
669 Drizzle 29 1002 84 2500 5.14 220 11:19 12.08.2022
670 Clouds 29 1003 84 2500 6.17 210 08:47 12.08.2022
671 Drizzle 26 1003 100 2200 4.63 210 07:44 12.08.2022
672 Clouds 25 1001 94 2100 4.63 210 03:41 12.08.2022
673 Drizzle 27 1000 94 2500 9.26 230 00:31 12.08.2022
674 Clouds 26 1000 100 1600 6.17 210 23:40 11.08.2022
675 Clouds 27 1001 94 2100 3.6 210 22:35 11.08.2022
676 Clouds 27 1001 89 1700 5.14 210 21:47 11.08.2022
677 Clouds 27 1001 94 1700 4.63 220 21:22 11.08.2022
678 Clouds 26 1001 94 2200 7.2 210 20:29 11.08.2022
679 Drizzle 28 1001 89 2500 5.14 240 19:33 11.08.2022
680 Haze 28 1000 89 2500 4.63 230 18:39 11.08.2022
681 Clouds 27 1001 84 10000 12.24 228 16:38 11.08.2022
682 Rain 27 1000 85 8976 13.38 230 15:37 11.08.2022
683 Clouds 28 998 89 2200 5.66 200 13:51 11.08.2022
684 Clouds 26 998 100 2200 4.63 240 11:26 11.08.2022
685 Haze 29 999 84 1500 7.72 220 07:56 11.08.2022
686 Haze 28 998 89 2200 6.69 210 04:53 11.08.2022
687 Clouds 26 996 94 1200 3.6 250 01:56 11.08.2022
688 Clouds 26 996 100 2100 4.63 220 22:54 10.08.2022
689 Haze 27 996 94 2500 5.66 230 21:45 10.08.2022
690 Haze 27 997 94 2500 4.12 220 20:56 10.08.2022
691 Clouds 26 997 100 2200 6.17 220 19:58 10.08.2022
692 Clouds 26 997 100 1500 6.69 230 18:45 10.08.2022
693 Haze 27 997 94 2500 5.14 220 17:20 10.08.2022
694 Clouds 26 995 100 1500 7.2 220 13:49 10.08.2022
695 Clouds 27 995 94 1800 6.69 210 12:50 10.08.2022
696 Clouds 26 997 100 2000 7.72 220 10:31 10.08.2022
697 Clouds 28 997 94 2500 6.17 210 08:37 10.08.2022
698 Clouds 27 998 94 1600 4.63 200 07:22 10.08.2022
699 Drizzle 27 997 94 2500 4.63 220 04:50 10.08.2022
700 Clouds 26 996 100 2200 4.63 230 00:50 10.08.2022
701 Clouds 25 996 100 2200 5.14 230 23:29 09.08.2022
702 Haze 26 998 100 2500 4.12 250 21:41 09.08.2022
703 Haze 26 998 100 2500 4.12 250 21:22 09.08.2022
704 Haze 27 998 94 2500 6.17 230 18:56 09.08.2022
705 Haze 28 998 83 3000 5.66 230 17:31 09.08.2022
706 Haze 28 997 83 3000 8.23 230 16:46 09.08.2022
707 Haze 28 997 83 3000 6.17 240 16:22 09.08.2022
708 Haze 28 996 83 3000 10.29 230 14:50 09.08.2022
709 Clouds 28 996 89 2500 7.2 210 11:29 09.08.2022
710 Clouds 27 998 94 2200 6.69 220 08:53 09.08.2022
711 Drizzle 27 998 100 2100 6.69 220 07:58 09.08.2022
712 Clouds 26 997 100 1200 5.66 240 05:24 09.08.2022
713 Rain 26 995 100 300 8.75 270 00:59 09.08.2022
714 Rain 26 995 100 300 8.75 270 00:59 09.08.2022
715 Rain 26 995 100 500 4.12 270 23:25 08.08.2022
716 Haze 26 995 100 2100 6.69 260 22:42 08.08.2022
717 Drizzle 26 996 100 2100 3.09 170 21:44 08.08.2022
718 Drizzle 27 997 94 2100 3.6 160 20:43 08.08.2022
719 Rain 26 998 100 2100 5.14 200 19:39 08.08.2022
720 Rain 27 998 100 2100 3.6 220 18:18 08.08.2022
721 Clouds 26 997 100 2100 8.23 230 15:55 08.08.2022
722 Clouds 27 996 94 1000 6.17 220 15:37 08.08.2022
723 Clouds 28 997 89 3000 3.09 120 12:31 08.08.2022
724 Clouds 27 998 100 2500 3.09 230 10:37 08.08.2022
725 Haze 27 1000 94 2500 4.12 140 07:59 08.08.2022
726 Haze 26 999 94 2500 1.54 120 04:45 08.08.2022
727 Haze 26 998 94 2500 0 0 01:29 08.08.2022
728 Clouds 26 1001 100 2200 4.12 280 21:42 07.08.2022
729 Clouds 26 1001 100 2200 4.12 280 21:24 07.08.2022
730 Rain 25 1001 100 2200 4.12 210 20:24 07.08.2022
731 Rain 26 1002 94 1800 3.6 240 19:52 07.08.2022
732 Rain 26 1002 94 1800 3.6 240 19:22 07.08.2022
733 Thunderstorm 25 1001 100 1600 6.17 230 17:45 07.08.2022
734 Thunderstorm 26 1000 100 1800 5.14 240 16:52 07.08.2022
735 Thunderstorm 26 999 100 1500 4.63 220 15:40 07.08.2022
736 Thunderstorm 26 998 100 1800 4.63 240 14:27 07.08.2022
737 Clouds 28 998 94 2200 4.63 210 12:41 07.08.2022
738 Haze 29 999 84 2500 3.09 290 10:53 07.08.2022
739 Drizzle 29 999 89 2500 4.63 260 10:21 07.08.2022
740 Clouds 26 1000 100 2200 1.54 0 04:41 07.08.2022
741 Clouds 26 999 100 2500 1.54 130 02:35 07.08.2022
742 Clouds 27 999 94 3000 0 0 22:57 06.08.2022
743 Haze 27 1000 94 3000 0 0 22:19 06.08.2022
744 Haze 27 1001 94 3000 3.6 170 20:19 06.08.2022
745 Haze 27 1001 94 3000 2.57 170 19:38 06.08.2022
746 Haze 29 1000 84 3500 3.09 180 17:52 06.08.2022
747 Haze 29 999 79 4000 3.09 230 16:33 06.08.2022
748 Haze 30 998 79 5000 3.6 260 13:52 06.08.2022
749 Haze 30 998 79 5000 4.12 270 12:50 06.08.2022
750 Haze 30 999 79 5000 5.14 260 11:21 06.08.2022
751 Haze 29 1000 84 5000 4.63 240 09:50 06.08.2022
752 Haze 27 1001 100 3500 3.6 220 07:36 06.08.2022
753 Haze 26 1000 94 3000 0 0 02:22 06.08.2022
754 Drizzle 26 1001 100 3500 2.57 150 22:40 05.08.2022
755 Clouds 27 1001 94 3000 3.09 170 21:36 05.08.2022
756 Haze 27 1002 94 3000 3.09 190 19:29 05.08.2022
757 Haze 28 1002 89 3500 2.06 200 18:44 05.08.2022
758 Haze 28 1001 83 3000 2.06 200 17:26 05.08.2022
759 Haze 28 1001 83 3000 2.06 190 16:43 05.08.2022
760 Haze 28 1000 89 3500 3.6 260 15:21 05.08.2022
761 Drizzle 28 999 89 4000 5.14 250 13:43 05.08.2022
762 Drizzle 28 999 83 4000 4.63 260 13:22 05.08.2022
763 Haze 28 999 83 4000 4.12 260 12:24 05.08.2022
764 Haze 28 1000 89 3000 6.17 270 10:35 05.08.2022
765 Haze 29 1002 84 3000 1.03 250 07:58 05.08.2022
766 Haze 27 1002 94 2500 2.06 230 05:32 05.08.2022
767 Rain 27 1001 100 2500 1.54 160 00:30 05.08.2022
768 Rain 28 1002 89 2500 2.06 260 22:25 04.08.2022
769 Haze 28 1002 89 3000 1.54 260 21:25 04.08.2022
770 Haze 28 1003 89 3000 2.06 270 20:42 04.08.2022
771 Haze 29 1003 84 3500 1.54 320 19:23 04.08.2022
772 Haze 28 1002 83 3500 2.57 290 18:35 04.08.2022
773 Haze 28 1002 83 3500 2.06 260 17:37 04.08.2022
774 Haze 29 1000 84 5000 5.14 260 13:57 04.08.2022
775 Haze 30 1000 74 5000 3.09 280 12:43 04.08.2022
776 Haze 28 1002 89 5000 5.14 300 10:50 04.08.2022
777 Haze 27 1004 94 3000 2.57 350 07:53 04.08.2022
778 Clouds 27 1004 94 2500 1.03 320 04:43 04.08.2022
779 Haze 28 1002 94 2500 4.12 280 02:27 04.08.2022
780 Haze 28 1002 89 3000 0 0 23:44 03.08.2022
781 Rain 29 1004 84 3000 0 0 22:30 03.08.2022
782 Haze 29 1005 84 3000 3.6 240 20:50 03.08.2022
783 Haze 29 1005 84 3000 3.09 240 19:35 03.08.2022
784 Haze 29 1004 84 3000 3.09 260 18:36 03.08.2022
785 Haze 29 1003 79 3000 4.63 260 16:24 03.08.2022
786 Haze 30 1002 74 3500 3.6 280 14:51 03.08.2022
787 Haze 29 1002 84 3500 3.6 300 12:32 03.08.2022
788 Haze 29 1005 84 3500 2.57 280 08:50 03.08.2022
789 Clouds 27 1004 94 1700 2.06 30 04:47 03.08.2022
790 Haze 27 1003 94 2500 0 0 03:37 03.08.2022
791 Clouds 27 1003 94 2200 4.12 350 01:36 03.08.2022
792 Haze 28 1003 89 2500 2.06 330 23:27 02.08.2022
793 Haze 28 1004 89 2500 0 0 21:55 02.08.2022
794 Haze 28 1005 89 2500 0 0 21:33 02.08.2022
795 Haze 28 1005 89 2500 2.57 340 19:19 02.08.2022
796 Haze 29 1004 84 4000 4.63 280 16:38 02.08.2022
797 Haze 31 1003 70 4000 6.69 260 12:55 02.08.2022
798 Haze 31 1005 74 5000 6.17 270 09:53 02.08.2022
799 Haze 30 1006 79 4000 5.14 280 08:26 02.08.2022
800 Haze 30 1006 79 3500 5.14 260 07:50 02.08.2022
801 Haze 29 1006 84 2500 4.12 280 04:55 02.08.2022
802 Drizzle 27 1004 94 2500 3.6 290 01:26 02.08.2022
803 Haze 28 1005 89 3000 3.6 270 22:57 01.08.2022
804 Haze 29 1006 84 3000 2.57 280 21:19 01.08.2022
805 Haze 29 1006 84 3000 3.09 280 19:44 01.08.2022
806 Haze 29 1006 84 3000 2.57 300 18:53 01.08.2022
807 Haze 29 1005 84 2500 3.09 300 16:55 01.08.2022
808 Haze 29 1005 84 2500 3.09 300 16:29 01.08.2022
809 Haze 29 1005 84 2500 4.63 280 15:33 01.08.2022
810 Haze 30 1004 79 4000 4.63 260 14:44 01.08.2022
811 Haze 31 1005 74 5000 7.2 260 12:57 01.08.2022
812 Haze 30 1006 79 5000 5.14 260 10:47 01.08.2022
813 Haze 30 1007 84 3000 4.63 270 08:45 01.08.2022
814 Haze 29 1007 84 3500 6.17 250 06:51 01.08.2022
815 Haze 29 1007 84 3000 3.09 280 04:31 01.08.2022
816 Haze 28 1005 89 3000 3.6 300 00:58 01.08.2022
817 Haze 29 1005 79 3000 4.63 280 22:44 31.07.2022
818 Haze 29 1006 79 3000 4.12 280 22:18 31.07.2022
819 Haze 29 1006 79 3500 3.6 260 20:28 31.07.2022
820 Haze 29 1006 79 3500 4.63 280 18:39 31.07.2022
821 Haze 29 1005 79 3500 4.63 280 16:26 31.07.2022
822 Haze 30 1004 74 5000 4.12 260 14:37 31.07.2022
823 Haze 31 1004 70 5000 5.66 270 12:58 31.07.2022
824 Haze 31 1005 70 5000 5.14 280 11:37 31.07.2022
825 Haze 31 1007 70 4000 6.17 260 08:46 31.07.2022
826 Haze 29 1007 89 3000 3.6 280 05:20 31.07.2022
827 Haze 28 1005 89 2500 2.57 280 01:20 31.07.2022
828 Haze 28 1006 89 2500 1.54 300 22:46 30.07.2022
829 Haze 29 1006 84 3000 1.54 310 21:50 30.07.2022
830 Haze 29 1007 79 3000 1.54 300 21:32 30.07.2022
831 Haze 29 1007 79 3000 3.09 290 20:33 30.07.2022
832 Haze 29 1007 84 3000 3.6 280 19:50 30.07.2022
833 Haze 29 1007 84 3500 2.57 290 17:53 30.07.2022
834 Haze 29 1006 84 4000 4.12 280 16:38 30.07.2022
835 Haze 29 1006 84 5000 4.63 300 15:33 30.07.2022
836 Haze 31 1006 70 5000 5.66 280 13:23 30.07.2022
837 Haze 31 1006 74 4000 4.63 290 12:22 30.07.2022
838 Haze 31 1006 74 4000 4.63 290 11:51 30.07.2022
839 Haze 31 1007 74 4000 5.14 260 10:19 30.07.2022
840 Haze 31 1008 74 4000 6.69 260 08:55 30.07.2022
841 Haze 30 1009 79 3000 3.6 280 06:58 30.07.2022
842 Haze 28 1007 89 3000 1.54 210 02:33 30.07.2022
843 Haze 28 1007 89 4000 1.54 310 23:57 29.07.2022
844 Haze 29 1009 84 4000 2.06 330 21:37 29.07.2022
845 Haze 29 1009 84 4000 1.54 350 20:50 29.07.2022
846 Haze 29 1009 84 4000 1.54 310 19:46 29.07.2022
847 Haze 29 1008 84 4000 3.09 310 17:25 29.07.2022
848 Haze 30 1006 74 4500 5.14 310 14:48 29.07.2022
849 Haze 31 1006 70 4000 4.63 290 12:42 29.07.2022
850 Haze 29 1009 84 3000 4.12 310 08:52 29.07.2022
851 Haze 29 1009 84 3000 4.63 280 08:24 29.07.2022
852 Haze 29 1009 84 3000 2.06 80 05:22 29.07.2022
853 Haze 28 1008 89 3000 0 0 01:19 29.07.2022
854 Haze 28 1009 89 3000 1.54 290 21:41 28.07.2022
855 Haze 29 1009 84 3000 1.54 310 20:54 28.07.2022
856 Haze 29 1009 84 3000 2.06 310 20:18 28.07.2022
857 Clouds 28 1010 81 10000 2.79 299 19:40 28.07.2022
858 Haze 29 1009 84 3000 1.54 300 18:20 28.07.2022
859 Haze 29 1008 84 4000 2.57 300 17:36 28.07.2022
860 Haze 29 1008 84 4000 2.06 310 16:41 28.07.2022
861 Haze 31 1007 74 4000 4.63 290 14:28 28.07.2022
862 Haze 31 1006 74 4000 6.17 290 12:41 28.07.2022
863 Haze 29 1010 84 3000 3.6 250 09:25 28.07.2022
864 Haze 28 1010 89 2500 0 0 05:45 28.07.2022
865 Haze 27 1010 94 2500 1.54 130 05:21 28.07.2022
866 Clouds 25 1008 100 2500 2.57 320 00:28 28.07.2022
867 Haze 27 1009 94 3500 0 0 21:58 27.07.2022
868 Haze 28 1009 89 4000 0 0 20:20 27.07.2022
869 Haze 27 1009 94 4000 0 0 19:30 27.07.2022
870 Haze 28 1008 83 3500 2.06 260 16:33 27.07.2022
871 Haze 28 1007 83 3500 1.54 260 15:51 27.07.2022
872 Haze 28 1007 83 4000 2.57 310 14:42 27.07.2022
873 Haze 28 1006 83 4000 1.54 310 13:58 27.07.2022
874 Haze 27 1008 94 3000 3.09 300 11:49 27.07.2022
875 Haze 28 1009 89 2500 2.06 100 07:53 27.07.2022
876 Drizzle 26 1008 94 2200 3.09 110 05:23 27.07.2022
877 Clouds 25 1007 94 2200 0 0 00:28 27.07.2022
878 Drizzle 26 1008 94 2200 0 0 22:24 26.07.2022
879 Clouds 26 1008 100 2200 0 0 21:19 26.07.2022
880 Haze 27 1009 94 2200 2.57 110 19:39 26.07.2022
881 Drizzle 28 1008 83 2200 2.06 210 18:41 26.07.2022
882 Clouds 28 1008 89 2200 3.09 230 17:57 26.07.2022
883 Haze 28 1007 89 2500 4.63 240 15:47 26.07.2022
884 Haze 28 1007 89 3000 3.6 240 14:44 26.07.2022
885 Haze 28 1007 83 3000 2.06 230 12:41 26.07.2022
886 Haze 29 1008 84 3000 3.09 260 10:57 26.07.2022
887 Haze 29 1009 79 3500 4.12 260 08:31 26.07.2022
888 Haze 28 1008 83 2500 4.12 250 03:58 26.07.2022
889 Haze 27 1007 94 2500 5.66 250 00:24 26.07.2022
890 Haze 28 1007 83 3000 3.6 220 22:43 25.07.2022
891 Haze 28 1008 83 3000 4.12 250 22:21 25.07.2022
892 Haze 28 1008 83 3000 5.14 250 21:38 25.07.2022
893 Haze 28 1008 83 3000 3.6 230 20:39 25.07.2022
894 Haze 27 1008 94 3000 3.6 220 19:26 25.07.2022
895 Haze 28 1008 89 3000 4.12 240 18:18 25.07.2022
896 Haze 28 1007 83 3000 4.63 240 17:24 25.07.2022
897 Haze 29 1005 84 3000 5.14 240 14:23 25.07.2022
898 Haze 29 1006 100 2500 5.14 220 11:39 25.07.2022
899 Haze 28 1007 83 2500 3.6 250 08:22 25.07.2022
900 Haze 28 1005 89 2500 4.63 230 02:21 25.07.2022
901 Haze 28 1004 89 2500 5.14 230 23:51 24.07.2022
902 Haze 28 1005 89 2500 4.63 230 22:54 24.07.2022
903 Haze 28 1005 89 2500 3.6 230 22:24 24.07.2022
904 Haze 28 1006 89 2500 5.14 230 21:18 24.07.2022
905 Haze 28 1006 89 2500 3.6 240 20:46 24.07.2022
906 Haze 28 1006 89 2500 4.12 240 19:54 24.07.2022
907 Haze 27 1005 94 2500 2.06 220 18:30 24.07.2022
908 Clouds 28 1004 89 2500 5.66 250 16:28 24.07.2022
909 Clouds 28 1004 89 2500 6.17 240 15:45 24.07.2022
910 Haze 28 1003 83 3500 7.72 240 14:19 24.07.2022
911 Haze 28 1003 89 3000 6.17 230 12:52 24.07.2022
912 Haze 30 1004 79 3000 5.66 240 11:38 24.07.2022
913 Haze 29 1004 84 3000 4.63 220 10:59 24.07.2022
914 Haze 29 1005 79 3000 4.63 230 08:32 24.07.2022
915 Haze 29 1005 79 3000 4.63 250 07:52 24.07.2022
916 Haze 29 1005 84 2500 7.2 240 05:44 24.07.2022
917 Haze 28 1003 89 2500 6.69 250 00:28 24.07.2022
918 Haze 26 1005 94 2500 3.09 220 21:28 23.07.2022
919 Haze 28 1005 83 2500 4.12 240 20:19 23.07.2022
920 Haze 28 1005 83 2500 3.6 240 18:50 23.07.2022
921 Haze 28 1005 83 3000 7.72 250 17:28 23.07.2022
922 Haze 28 1005 89 3000 5.14 240 16:35 23.07.2022
923 Rain 27 1004 100 3000 6.17 240 15:22 23.07.2022
924 Rain 29 1003 79 1700 7.72 240 14:58 23.07.2022
925 Haze 29 1003 79 3500 5.14 260 14:27 23.07.2022
926 Clouds 28 1003 89 3500 6.17 250 13:26 23.07.2022
927 Clouds 30 1004 79 2500 7.2 240 10:45 23.07.2022
928 Haze 30 1005 79 3000 5.66 250 10:21 23.07.2022
929 Haze 30 1006 79 3000 5.14 250 08:39 23.07.2022
930 Haze 28 1005 83 2500 5.14 250 03:39 23.07.2022
931 Haze 27 1005 89 2500 5.66 250 01:27 23.07.2022
932 Drizzle 27 1005 94 2500 3.6 230 22:42 22.07.2022
933 Rain 28 1007 89 3000 4.63 250 20:56 22.07.2022
934 Haze 28 1007 83 3000 4.12 250 19:41 22.07.2022
935 Rain 27 1008 83 10000 4.88 261 18:28 22.07.2022
936 Haze 28 1007 89 3000 4.63 260 17:28 22.07.2022
937 Rain 29 1005 79 4000 6.69 260 14:55 22.07.2022
938 Haze 29 1007 84 4000 4.63 270 11:36 22.07.2022
939 Haze 30 1008 79 4000 5.14 270 09:26 22.07.2022
940 Haze 29 1009 84 4000 6.17 260 08:37 22.07.2022
941 Haze 29 1009 79 3000 4.63 260 07:20 22.07.2022
942 Haze 28 1007 83 3000 5.14 260 03:43 22.07.2022
943 Haze 27 1007 94 3000 4.12 250 22:45 21.07.2022
944 Haze 27 1007 94 3000 3.6 260 21:34 21.07.2022
945 Haze 28 1008 89 3000 2.57 280 19:30 21.07.2022
946 Haze 28 1007 83 3000 4.63 260 17:45 21.07.2022
947 Haze 28 1007 83 2500 4.12 270 17:19 21.07.2022
948 Haze 28 1006 89 2500 5.14 280 15:22 21.07.2022
949 Clouds 27 1006 89 2500 4.12 280 14:39 21.07.2022
950 Haze 29 1006 84 3000 5.14 270 12:28 21.07.2022
951 Haze 30 1006 79 2500 4.63 260 11:19 21.07.2022
952 Haze 28 1007 89 2500 5.14 250 09:41 21.07.2022
953 Haze 28 1007 89 2500 4.63 240 08:52 21.07.2022
954 Clouds 26 1007 100 2100 3.6 250 07:50 21.07.2022
955 Haze 28 1007 89 3000 3.6 220 06:24 21.07.2022
956 Haze 27 1006 94 2500 3.09 230 00:48 21.07.2022
957 Haze 28 1006 83 2500 3.6 240 22:22 20.07.2022
958 Haze 28 1006 89 2500 4.63 250 20:59 20.07.2022
959 Haze 28 1007 89 2500 4.12 240 19:54 20.07.2022
960 Haze 28 1007 83 2500 4.63 240 19:25 20.07.2022
961 Haze 27 1007 94 2500 5.66 240 18:52 20.07.2022
962 Haze 27 1006 94 2500 3.6 220 18:26 20.07.2022
963 Clouds 27 1005 94 2200 5.14 230 16:46 20.07.2022
964 Haze 29 1005 84 3500 4.63 260 15:32 20.07.2022
965 Haze 29 1005 84 3000 6.17 250 14:20 20.07.2022
966 Haze 30 1006 79 3000 5.14 250 11:55 20.07.2022
967 Haze 27 1007 89 2200 3.6 240 09:43 20.07.2022
968 Haze 27 1006 94 2100 5.66 240 04:36 20.07.2022
969 Haze 27 1005 94 2500 3.6 260 00:52 20.07.2022
970 Haze 27 1005 94 2500 3.6 250 00:25 20.07.2022
971 Haze 27 1005 94 2500 5.14 230 22:33 19.07.2022
972 Haze 27 1005 94 2500 4.12 230 21:46 19.07.2022
973 Clouds 28 1006 89 2000 5.14 240 20:48 19.07.2022
974 Haze 28 1006 89 2500 5.14 240 19:21 19.07.2022
975 Haze 28 1006 89 2500 5.66 250 18:34 19.07.2022
976 Haze 28 1006 89 2500 5.66 250 17:49 19.07.2022
977 Haze 29 1005 84 3000 5.66 240 15:21 19.07.2022
978 Haze 30 1005 79 3000 5.14 250 12:27 19.07.2022
979 Haze 29 1005 84 3000 3.6 250 11:31 19.07.2022
980 Haze 30 1006 84 2500 4.12 250 09:44 19.07.2022
981 Haze 29 1006 89 2500 5.14 240 08:42 19.07.2022
982 Clouds 29 1006 89 2500 4.12 230 07:19 19.07.2022
983 Drizzle 27 1006 100 2100 6.17 250 05:48 19.07.2022
984 Clouds 27 1005 94 1500 5.14 270 04:59 19.07.2022
985 Drizzle 26 1004 94 2100 4.12 250 02:33 19.07.2022
986 Drizzle 27 1004 94 2200 5.14 250 23:50 18.07.2022
987 Haze 27 1004 94 2500 5.14 230 23:19 18.07.2022
988 Haze 27 1005 94 2500 4.63 240 22:23 18.07.2022
989 Haze 28 1005 89 2500 4.63 230 20:57 18.07.2022
990 Haze 28 1005 89 2500 6.17 230 19:54 18.07.2022
991 Haze 28 1005 89 2500 3.6 230 18:24 18.07.2022
992 Haze 28 1004 89 2500 2.57 230 16:28 18.07.2022
993 Haze 28 1004 89 2500 3.6 240 15:19 18.07.2022
994 Drizzle 27 1004 89 2500 5.14 220 13:31 18.07.2022
995 Drizzle 28 1004 89 2500 3.6 240 11:34 18.07.2022
996 Clouds 28 1005 89 2200 4.63 240 09:55 18.07.2022
997 Rain 28 1006 89 2200 4.12 250 07:54 18.07.2022
998 Haze 27 1004 94 2500 6.17 250 03:32 18.07.2022
999 Haze 28 1004 89 2500 5.14 230 22:56 17.07.2022
1000 Haze 28 1004 89 2500 4.12 230 22:31 17.07.2022
1001 Clouds 28 1005 89 2100 5.14 240 21:39 17.07.2022
1002 Haze 28 1005 89 2500 4.12 220 20:46 17.07.2022
1003 Haze 28 1005 89 2500 4.63 230 19:50 17.07.2022
1004 Haze 28 1005 89 2500 3.6 230 19:21 17.07.2022
1005 Clouds 28 1005 94 2500 4.12 230 17:43 17.07.2022
1006 Haze 28 1004 89 3000 5.14 230 17:25 17.07.2022
1007 Haze 28 1004 89 3000 5.14 230 16:33 17.07.2022
1008 Haze 29 1003 84 3500 6.17 230 15:50 17.07.2022
1009 Haze 29 1003 84 3500 5.14 240 13:51 17.07.2022
1010 Haze 29 1003 84 3500 5.66 230 12:43 17.07.2022
1011 Haze 29 1004 84 3500 4.12 220 10:20 17.07.2022
1012 Haze 29 1004 89 3000 3.6 220 07:31 17.07.2022
1013 Haze 27 1002 94 2200 4.12 230 02:35 17.07.2022
1014 Haze 28 1002 94 2200 4.63 230 23:28 16.07.2022
1015 Haze 27 1003 100 2300 4.63 230 22:33 16.07.2022
1016 Clouds 26 1003 100 1500 4.12 230 20:45 16.07.2022
1017 Clouds 25 1003 100 2200 5.14 250 18:58 16.07.2022
1018 Haze 28 1002 94 2200 5.14 220 17:48 16.07.2022
1019 Clouds 27 1001 100 1500 5.66 230 16:22 16.07.2022
1020 Clouds 28 999 94 2500 6.69 220 13:26 16.07.2022
1021 Clouds 29 1000 89 1200 5.66 210 10:34 16.07.2022
1022 Haze 30 1000 84 3500 5.66 200 09:28 16.07.2022
1023 Haze 30 1001 79 3000 5.66 200 08:41 16.07.2022
1024 Haze 29 1001 89 2500 6.17 220 07:40 16.07.2022
1025 Haze 28 1000 89 2200 6.17 210 03:38 16.07.2022
1026 Drizzle 27 999 94 2100 4.12 200 00:48 16.07.2022
1027 Haze 26 999 100 2500 5.66 230 22:57 15.07.2022
1028 Haze 26 999 100 2500 5.66 230 22:37 15.07.2022
1029 Haze 28 1000 89 2500 5.14 180 20:44 15.07.2022
1030 Haze 28 1001 89 2500 3.6 200 19:35 15.07.2022
1031 Haze 28 1001 89 2500 5.14 220 18:30 15.07.2022
1032 Haze 28 1000 89 2500 3.6 210 17:19 15.07.2022
1033 Clouds 28 998 89 2100 6.17 210 14:24 15.07.2022
1034 Rain 29 999 84 2200 6.17 210 12:38 15.07.2022
1035 Haze 29 1000 89 2500 6.69 210 10:52 15.07.2022
1036 Clouds 28 1000 94 2100 5.14 220 07:55 15.07.2022
1037 Drizzle 27 999 94 2200 6.69 240 04:54 15.07.2022
1038 Drizzle 26 997 94 2200 5.66 210 00:47 15.07.2022
1039 Drizzle 26 998 94 2200 4.63 220 23:25 14.07.2022
1040 Haze 28 998 89 2200 4.12 220 22:32 14.07.2022
1041 Haze 28 999 89 2200 5.66 220 21:41 14.07.2022
1042 Haze 28 999 89 2200 4.63 220 21:23 14.07.2022
1043 Haze 28 999 89 2200 4.63 220 20:43 14.07.2022
1044 Haze 27 999 94 2200 4.12 230 20:19 14.07.2022
1045 Drizzle 27 998 100 2200 4.12 220 18:38 14.07.2022
1046 Drizzle 28 997 89 1600 4.12 230 16:20 14.07.2022
1047 Rain 27 997 94 1600 5.66 220 15:26 14.07.2022
1048 Rain 27 997 94 1500 9.26 220 13:52 14.07.2022
1049 Haze 27 997 94 2100 4.12 240 12:39 14.07.2022
1050 Rain 27 998 94 2100 4.12 240 11:28 14.07.2022
1051 Rain 27 998 94 2100 4.12 240 10:59 14.07.2022
1052 Rain 25 999 100 1200 10.29 260 09:29 14.07.2022
1053 Rain 27 999 94 2200 5.14 230 05:20 14.07.2022
1054 Drizzle 26 998 100 2500 4.12 240 01:22 14.07.2022
1055 Rain 26 999 94 2500 5.66 230 00:52 14.07.2022
1056 Rain 27 1000 94 2500 4.63 240 22:32 13.07.2022
1057 Drizzle 27 1000 94 2200 4.12 220 21:51 13.07.2022
1058 Rain 27 1001 94 1600 3.6 230 20:45 13.07.2022
1059 Haze 28 1001 89 2500 5.14 230 19:19 13.07.2022
1060 Rain 27 1000 94 2000 4.63 240 17:35 13.07.2022
1061 Clouds 27 1000 94 2200 5.14 240 16:23 13.07.2022
1062 Rain 27 1000 94 2200 5.14 240 15:24 13.07.2022
1063 Rain 26 1001 94 2000 7.72 260 12:39 13.07.2022
1064 Rain 27 1002 100 2200 5.14 240 10:45 13.07.2022
1065 Rain 26 1002 100 2100 6.69 250 09:57 13.07.2022
1066 Rain 27 1002 100 2100 7.2 250 09:21 13.07.2022
1067 Rain 25 1002 100 1500 8.75 260 05:52 13.07.2022
1068 Rain 28 1001 89 2200 8.23 250 01:27 13.07.2022
1069 Haze 28 1002 89 2500 4.63 250 23:42 12.07.2022
1070 Haze 27 1003 89 2500 5.66 240 21:55 12.07.2022
1071 Haze 28 1004 89 2500 5.66 250 21:19 12.07.2022
1072 Rain 28 1004 89 2500 4.12 250 20:41 12.07.2022
1073 Haze 28 1005 89 2500 4.12 250 19:25 12.07.2022
1074 Drizzle 28 1005 89 2500 3.6 250 17:49 12.07.2022
1075 Haze 28 1004 89 2500 6.69 260 15:57 12.07.2022
1076 Clouds 28 1003 89 2500 6.17 260 14:30 12.07.2022
1077 Rain 27 1004 89 2100 6.69 250 12:29 12.07.2022
1078 Clouds 28 1004 89 800 10.29 270 11:22 12.07.2022
1079 Clouds 27 1005 94 1500 5.14 300 09:38 12.07.2022
1080 Clouds 26 1006 100 1500 5.66 250 08:19 12.07.2022
1081 Clouds 25 1006 100 1000 5.66 290 06:29 12.07.2022
1082 Rain 25 1005 100 1000 5.14 290 05:39 12.07.2022
1083 Drizzle 26 1004 94 2500 5.14 260 02:32 12.07.2022
1084 Drizzle 28 1004 89 2500 4.63 260 23:28 11.07.2022
1085 Rain 26 1005 100 2200 5.14 260 22:30 11.07.2022
1086 Drizzle 27 1006 94 2500 2.57 250 20:41 11.07.2022
1087 Rain 27 1007 94 2200 4.63 250 19:36 11.07.2022
1088 Rain 24 1006 100 1800 5.14 280 18:32 11.07.2022
1089 Rain 24 1006 100 1800 5.14 280 18:32 11.07.2022
1090 Rain 26 1005 100 2100 5.14 240 17:46 11.07.2022
1091 Drizzle 27 1004 94 2100 4.63 260 16:20 11.07.2022
1092 Drizzle 27 1004 94 2100 4.63 240 14:41 11.07.2022
1093 Rain 29 1004 84 1200 6.69 250 11:58 11.07.2022
1094 Haze 29 1005 84 2500 5.14 250 10:35 11.07.2022
1095 Haze 29 1005 84 2500 5.14 250 09:43 11.07.2022
1096 Drizzle 29 1005 84 2100 7.72 260 08:34 11.07.2022
1097 Rain 28 1005 89 2100 7.2 260 05:52 11.07.2022
1098 Rain 28 1004 89 2100 6.17 250 00:22 11.07.2022
1099 Rain 28 1004 89 2100 5.14 250 23:28 10.07.2022
1100 Clouds 28 1004 89 2100 4.63 260 21:55 10.07.2022
1101 Rain 27 1005 94 2100 5.14 250 20:54 10.07.2022
1102 Haze 28 1005 94 2200 6.17 250 19:50 10.07.2022
1103 Haze 28 1005 89 2200 6.69 250 18:50 10.07.2022
1104 Haze 28 1005 89 2200 6.69 260 17:40 10.07.2022
1105 Rain 28 1004 89 2200 3.6 260 16:57 10.07.2022
1106 Clouds 28 1004 89 1700 4.12 250 16:19 10.07.2022
1107 Haze 27 1003 94 2200 4.63 250 14:33 10.07.2022
1108 Haze 29 1003 89 2500 4.63 250 12:33 10.07.2022
1109 Haze 29 1003 84 2500 6.17 250 11:34 10.07.2022
1110 Haze 29 1004 89 2500 4.12 250 08:46 10.07.2022
1111 Haze 29 1004 89 2500 5.14 240 08:24 10.07.2022
1112 Rain 28 1004 89 2100 4.12 250 05:36 10.07.2022
1113 Rain 28 1002 89 2500 7.2 250 23:32 09.07.2022
1114 Haze 28 1003 89 2500 6.69 250 22:26 09.07.2022
1115 Haze 28 1003 89 2500 6.69 250 22:26 09.07.2022
1116 Haze 28 1003 89 2500 7.2 250 21:31 09.07.2022
1117 Rain 28 1003 89 2500 5.14 250 19:19 09.07.2022
1118 Rain 27 1003 94 2200 6.17 240 18:22 09.07.2022
1119 Rain 29 1002 84 2500 4.63 250 16:59 09.07.2022
1120 Drizzle 29 1002 84 2500 5.14 260 15:54 09.07.2022
1121 Haze 28 1002 89 2500 5.14 260 15:35 09.07.2022
1122 Rain 28 1001 89 2500 6.17 250 13:54 09.07.2022
1123 Haze 28 1001 89 2500 7.72 250 13:28 09.07.2022
1124 Rain 29 1002 84 2500 7.72 260 11:34 09.07.2022
1125 Rain 29 1002 84 2200 5.14 260 10:24 09.07.2022
1126 Haze 29 1002 89 2200 7.2 260 08:27 09.07.2022
1127 Clouds 28 1003 94 1700 6.17 260 06:59 09.07.2022
1128 Rain 28 1002 89 2100 4.63 260 04:35 09.07.2022
1129 Rain 28 1002 94 1700 5.14 260 23:27 08.07.2022
1130 Rain 28 1003 89 1800 6.69 250 22:00 08.07.2022
1131 Rain 28 1003 94 1800 6.69 250 21:20 08.07.2022
1132 Rain 28 1004 94 1800 6.17 250 20:34 08.07.2022
1133 Rain 28 1004 94 2100 5.14 250 18:45 08.07.2022
1134 Rain 28 1004 94 2100 6.17 250 17:45 08.07.2022
1135 Rain 28 1003 89 2100 4.12 270 15:53 08.07.2022
1136 Rain 29 1002 89 2500 7.2 250 14:50 08.07.2022
1137 Haze 29 1003 84 2500 6.17 260 12:31 08.07.2022
1138 Haze 29 1003 84 2500 7.2 260 10:46 08.07.2022
1139 Haze 29 1004 89 2500 6.17 260 09:42 08.07.2022
1140 Clouds 28 1005 89 2100 5.14 250 06:55 08.07.2022
1141 Haze 28 1004 94 2100 4.63 250 04:32 08.07.2022
1142 Haze 28 1003 94 2200 4.12 260 00:23 08.07.2022
1143 Haze 27 1004 94 2200 5.14 250 22:47 07.07.2022
1144 Haze 26 1005 100 2200 0 0 21:41 07.07.2022
1145 Clouds 26 1006 100 1500 5.66 300 19:28 07.07.2022
1146 Clouds 26 1005 100 2100 1.54 260 17:42 07.07.2022
1147 Haze 29 1003 89 2100 7.72 260 15:58 07.07.2022
1148 Haze 29 1003 89 2100 6.17 260 13:32 07.07.2022
1149 Rain 29 1003 89 2100 5.66 260 12:40 07.07.2022
1150 Rain 29 1003 89 2100 4.12 230 12:21 07.07.2022
1151 Clouds 27 1004 100 2000 4.12 220 11:31 07.07.2022
1152 Clouds 28 1004 94 2100 4.12 240 10:45 07.07.2022
1153 Clouds 28 1004 89 2100 5.14 260 10:26 07.07.2022
1154 Clouds 27 1005 100 2200 6.69 260 08:21 07.07.2022
1155 Rain 27 1005 100 2100 4.63 250 05:23 07.07.2022
1156 Rain 27 1004 87 4741 7.64 233 23:37 06.07.2022
1157 Drizzle 26 1003 100 2200 4.63 240 23:19 06.07.2022
1158 Drizzle 26 1003 100 2200 4.63 240 22:58 06.07.2022
1159 Clouds 26 1003 100 2200 5.66 250 22:40 06.07.2022
1160 Clouds 25 1003 100 2100 6.17 250 21:59 06.07.2022
1161 Rain 27 1004 100 2100 4.12 220 19:45 06.07.2022
1162 Rain 27 1003 94 2500 4.63 230 18:41 06.07.2022
1163 Rain 28 1002 94 2200 3.09 210 16:45 06.07.2022
1164 Haze 27 1001 94 2500 4.12 220 15:39 06.07.2022
1165 Drizzle 27 1001 89 2500 3.6 190 12:44 06.07.2022
1166 Clouds 28 1001 94 2100 4.12 240 11:49 06.07.2022
1167 Rain 28 1001 94 2100 3.6 200 10:33 06.07.2022
1168 Rain 27 1002 94 2500 4.63 210 08:43 06.07.2022
1169 Clouds 26 1001 100 2500 4.63 220 07:41 06.07.2022
1170 Rain 26 1001 94 1500 5.66 230 06:40 06.07.2022
1171 Rain 26 999 100 1100 6.69 230 22:50 05.07.2022
1172 Rain 26 1000 100 2200 3.6 230 22:28 05.07.2022
1173 Clouds 27 1000 100 2100 5.66 240 20:42 05.07.2022
1174 Rain 27 1000 100 2500 4.12 230 19:54 05.07.2022
1175 Haze 27 1000 94 2500 3.09 200 19:35 05.07.2022
1176 Clouds 27 1000 94 1200 1.54 0 17:49 05.07.2022
1177 Clouds 27 999 94 1500 2.06 180 17:18 05.07.2022
1178 Clouds 27 999 94 1500 2.06 350 15:39 05.07.2022
1179 Clouds 26 998 100 1200 3.09 240 14:39 05.07.2022
1180 Clouds 26 1001 100 1500 3.6 270 12:52 05.07.2022
1181 Clouds 25 1001 100 1500 2.57 210 12:21 05.07.2022
1182 Clouds 26 1000 100 1300 2.06 350 10:45 05.07.2022
1183 Clouds 25 1000 100 1200 3.6 240 09:32 05.07.2022
1184 Clouds 26 1001 100 400 5.66 240 08:19 05.07.2022
1185 Clouds 26 1000 100 1000 4.63 260 06:22 05.07.2022
1186 Clouds 26 1000 100 1300 1.54 150 04:26 05.07.2022
1187 Clouds 26 1000 100 2100 2.57 100 00:43 05.07.2022
1188 Clouds 26 1000 100 1800 2.57 210 23:36 04.07.2022
1189 Rain 27 1000 100 1000 2.06 140 22:54 04.07.2022
1190 Rain 27 1001 100 2500 2.06 210 21:53 04.07.2022
1191 Clouds 26 1002 100 2500 2.06 220 20:54 04.07.2022
1192 Clouds 26 1002 100 2500 2.06 220 20:35 04.07.2022
1193 Clouds 26 1002 100 2500 2.57 210 19:55 04.07.2022
1194 Clouds 26 1002 100 2200 2.57 220 19:36 04.07.2022
1195 Clouds 26 1002 100 2100 3.6 180 18:26 04.07.2022
1196 Clouds 26 1001 100 1800 3.09 220 16:36 04.07.2022
1197 Clouds 27 1000 100 2100 1.54 120 15:34 04.07.2022
1198 Clouds 27 999 94 1300 4.12 240 13:35 04.07.2022
1199 Rain 28 999 100 1000 6.69 290 12:36 04.07.2022
1200 Clouds 29 1001 89 1700 4.12 270 10:35 04.07.2022
1201 Clouds 30 1001 84 2200 6.17 270 09:53 04.07.2022
1202 Drizzle 28 1001 94 2500 5.14 270 08:31 04.07.2022
1203 Clouds 28 1001 94 2200 1.54 220 05:34 04.07.2022
1204 Haze 26 1001 100 2500 2.57 210 00:42 04.07.2022
1205 Haze 27 1001 94 2500 0 0 23:25 03.07.2022
1206 Haze 28 1002 94 2500 4.63 230 21:58 03.07.2022
1207 Haze 28 1003 89 2500 3.6 220 20:41 03.07.2022
1208 Haze 27 1003 94 2500 3.6 210 19:42 03.07.2022
1209 Haze 27 1003 94 2500 3.6 210 19:23 03.07.2022
1210 Haze 29 1002 89 2500 4.63 210 17:45 03.07.2022
1211 Haze 29 1001 84 2500 5.14 230 16:58 03.07.2022
1212 Clouds 29 1001 89 2500 4.63 250 15:25 03.07.2022
1213 Haze 30 1000 79 3000 6.17 230 14:37 03.07.2022
1214 Haze 30 1000 79 3000 3.6 220 13:49 03.07.2022
1215 Clouds 28 1002 80 10000 9.12 233 12:42 03.07.2022
1216 Haze 31 1002 74 4000 5.14 210 11:40 03.07.2022
1217 Haze 31 1002 74 4000 6.17 220 10:40 03.07.2022
1218 Haze 31 1002 79 4000 6.17 220 09:59 03.07.2022
1219 Haze 30 1002 79 2500 5.14 230 07:37 03.07.2022
1220 Drizzle 27 1002 94 2200 0.51 220 05:22 03.07.2022
1221 Haze 28 1000 94 2500 5.66 240 00:25 03.07.2022
1222 Haze 28 1001 94 2500 3.6 240 22:36 02.07.2022
1223 Haze 28 1002 89 2500 3.6 230 21:43 02.07.2022
1224 Haze 29 1002 89 2500 6.17 240 20:20 02.07.2022
1225 Haze 28 1002 94 2500 4.12 240 19:49 02.07.2022
1226 Haze 29 1002 89 2500 4.12 240 17:58 02.07.2022
1227 Haze 28 1001 94 2500 4.12 240 17:37 02.07.2022
1228 Haze 28 1000 89 2500 4.63 250 15:32 02.07.2022
1229 Clouds 31 1000 79 3500 5.14 240 12:49 02.07.2022
1230 Haze 31 1001 79 3000 5.66 240 11:28 02.07.2022
1231 Haze 31 1001 79 3000 3.6 240 10:48 02.07.2022
1232 Clouds 30 1002 89 2200 6.69 240 09:49 02.07.2022
1233 Haze 31 1003 79 2500 4.63 220 08:37 02.07.2022
1234 Haze 31 1003 79 2500 4.63 220 08:18 02.07.2022
1235 Clouds 28 1001 94 2500 4.12 240 02:53 02.07.2022
1236 Haze 27 1001 94 2500 5.14 210 00:27 02.07.2022
1237 Clouds 26 1002 100 1800 1.54 40 22:59 01.07.2022
1238 Haze 26 1002 100 2500 1.54 180 22:26 01.07.2022
1239 Clouds 26 1003 100 2100 2.06 80 21:37 01.07.2022
1240 Clouds 26 1003 100 2100 3.6 120 20:58 01.07.2022
1241 Haze 26 1004 100 2500 3.09 100 20:19 01.07.2022
1242 Clouds 26 1004 100 2200 3.6 120 19:34 01.07.2022
1243 Clouds 25 1003 100 2100 1.54 170 16:40 01.07.2022
1244 Clouds 25 1002 100 1200 6.17 260 14:27 01.07.2022
1245 Clouds 26 1002 100 1400 5.14 260 13:33 01.07.2022
1246 Clouds 26 1003 100 2200 3.6 340 10:53 01.07.2022
1247 Clouds 26 1003 100 1500 1.54 140 10:19 01.07.2022
1248 Drizzle 26 1005 100 2500 1.03 80 06:21 01.07.2022
1249 Haze 25 1002 100 2500 2.06 100 02:19 01.07.2022
1250 Haze 24 1002 94 2500 2.06 120 23:34 30.06.2022
1251 Haze 24 1002 94 2500 0 0 22:50 30.06.2022
1252 Haze 25 1003 100 2500 3.6 100 22:31 30.06.2022
1253 Drizzle 25 1003 100 2500 3.09 110 21:53 30.06.2022
1254 Clouds 25 1004 100 2500 2.06 130 20:49 30.06.2022
1255 Rain 25 1004 100 2500 2.57 130 20:20 30.06.2022
1256 Rain 25 1005 100 2200 3.09 120 19:47 30.06.2022
1257 Rain 26 1005 94 2200 3.09 110 18:52 30.06.2022
1258 Clouds 25 1004 100 1500 1.54 150 17:56 30.06.2022
1259 Rain 25 1004 100 800 3.6 190 17:18 30.06.2022
1260 Rain 25 1003 100 2200 3.09 200 16:18 30.06.2022
1261 Clouds 26 1001 100 2500 1.03 200 13:59 30.06.2022
1262 Clouds 26 1001 100 2500 2.57 220 13:20 30.06.2022
1263 Rain 26 1002 94 2200 1.54 220 12:33 30.06.2022
1264 Clouds 26 1002 100 1500 2.06 140 10:49 30.06.2022
1265 Clouds 25 1003 100 2200 2.06 230 09:47 30.06.2022
1266 Clouds 25 1003 100 1400 4.12 210 09:23 30.06.2022
1267 Drizzle 27 1003 100 1500 3.09 130 07:41 30.06.2022
1268 Drizzle 28 1003 94 2500 3.09 100 05:45 30.06.2022
1269 Clouds 26 1002 100 2500 1.54 0 23:56 29.06.2022
1270 Haze 26 1002 100 2500 2.57 170 22:42 29.06.2022
1271 Rain 26 1003 100 2500 4.63 170 22:20 29.06.2022
1272 Thunderstorm 26 1003 100 2500 3.6 190 20:54 29.06.2022
1273 Thunderstorm 27 1004 100 2100 2.06 190 20:32 29.06.2022
1274 Clouds 27 1004 94 1700 2.06 270 19:31 29.06.2022
1275 Haze 29 1003 89 3000 3.09 220 17:39 29.06.2022
1276 Haze 29 1002 89 3500 3.6 240 16:31 29.06.2022
1277 Haze 29 1001 89 3500 5.66 250 13:58 29.06.2022
1278 Clouds 28 1001 94 3000 2.57 190 12:38 29.06.2022
1279 Clouds 28 1003 94 2500 2.57 130 10:19 29.06.2022
1280 Clouds 28 1003 94 2500 0 0 09:31 29.06.2022
1281 Clouds 30 1003 84 1700 4.12 250 07:23 29.06.2022
1282 Mist 28 1003 94 2200 2.06 120 04:48 29.06.2022
1283 Haze 27 1002 94 2500 1.54 100 00:55 29.06.2022
1284 Haze 27 1002 94 2500 1.54 100 00:35 29.06.2022
1285 Haze 27 1003 94 2500 2.06 110 22:53 28.06.2022
1286 Haze 27 1004 94 2500 0 0 22:21 28.06.2022
1287 Haze 27 1004 94 2500 0 0 21:50 28.06.2022
1288 Haze 27 1004 94 2500 1.54 130 21:30 28.06.2022
1289 Haze 27 1005 94 2500 2.06 170 20:20 28.06.2022
1290 Haze 27 1005 94 2500 1.54 150 19:32 28.06.2022
1291 Haze 27 1004 94 2500 2.06 140 18:42 28.06.2022
1292 Drizzle 27 1004 94 2500 2.06 130 17:37 28.06.2022
1293 Haze 27 1003 94 2500 1.54 100 15:56 28.06.2022
1294 Haze 27 1003 100 2500 2.06 120 14:59 28.06.2022
1295 Haze 27 1003 94 2500 2.57 100 14:19 28.06.2022
1296 Haze 27 1003 94 2500 1.54 150 13:47 28.06.2022
1297 Haze 26 1004 100 2500 4.12 60 12:47 28.06.2022
1298 Haze 29 1005 84 3000 3.09 150 10:46 28.06.2022
1299 Drizzle 27 1005 94 2500 3.6 210 09:25 28.06.2022
1300 Clouds 27 1005 94 2200 3.09 190 08:43 28.06.2022
1301 Haze 27 1005 100 3000 4.63 170 07:20 28.06.2022
1302 Haze 27 1005 94 3000 3.6 170 04:56 28.06.2022
1303 Haze 27 1003 94 3000 2.06 160 23:56 27.06.2022
1304 Haze 27 1003 94 3000 3.09 160 23:28 27.06.2022
1305 Haze 27 1004 94 3000 2.57 170 22:42 27.06.2022
1306 Haze 27 1005 94 3000 2.06 170 21:30 27.06.2022
1307 Drizzle 27 1005 94 3000 2.57 170 20:38 27.06.2022
1308 Drizzle 28 1005 89 3000 3.09 200 18:55 27.06.2022
1309 Haze 29 1004 84 3000 2.06 180 17:45 27.06.2022
1310 Haze 29 1003 84 3000 5.14 200 15:51 27.06.2022
1311 Haze 29 1002 84 3000 5.66 200 14:26 27.06.2022
1312 Clouds 28 1002 94 2500 5.14 200 12:59 27.06.2022
1313 Clouds 28 1002 94 2500 5.14 200 12:36 27.06.2022
1314 Haze 29 1003 84 4000 3.6 220 10:22 27.06.2022
1315 Haze 29 1003 94 3000 5.14 210 08:43 27.06.2022
1316 Clouds 29 1004 84 2500 4.12 190 07:53 27.06.2022
1317 Clouds 28 1004 94 2500 3.6 140 06:37 27.06.2022
1318 Drizzle 27 1001 94 2500 2.57 170 01:26 27.06.2022
1319 Haze 27 1000 78 4000 4.12 130 23:39 26.06.2022
1320 Haze 27 1002 74 3500 3.6 140 21:51 26.06.2022
1321 Drizzle 26 1002 83 3500 4.12 130 20:34 26.06.2022
1322 Haze 27 1003 74 3500 4.12 150 19:19 26.06.2022
1323 Haze 28 1002 83 4000 5.14 150 18:23 26.06.2022
1324 Haze 29 1001 79 3000 2.57 170 15:53 26.06.2022
1325 Drizzle 29 1000 84 3500 3.6 170 14:34 26.06.2022
1326 Haze 29 999 70 4000 3.09 150 13:29 26.06.2022
1327 Haze 30 999 66 5000 4.12 150 12:44 26.06.2022
1328 Haze 30 1001 66 4000 4.12 170 10:53 26.06.2022
1329 Haze 29 1001 70 4000 4.63 170 10:23 26.06.2022
1330 Haze 29 1001 70 3000 3.6 160 08:45 26.06.2022
1331 Clouds 28 1002 74 2200 3.6 180 07:18 26.06.2022
1332 Haze 26 998 78 4000 2.57 160 00:48 26.06.2022
1333 Haze 26 998 78 4000 3.09 140 00:20 26.06.2022
1334 Haze 28 998 78 4000 4.12 120 23:33 25.06.2022
1335 Haze 28 998 78 4000 4.12 120 23:33 25.06.2022
1336 Haze 28 998 78 4000 4.63 120 22:51 25.06.2022
1337 Haze 29 999 74 4000 5.66 130 22:26 25.06.2022
1338 Haze 29 999 74 4000 5.66 130 21:23 25.06.2022
1339 Haze 29 1000 74 3500 6.17 130 20:59 25.06.2022
1340 Haze 29 1000 74 3500 5.66 140 20:25 25.06.2022
1341 Haze 29 1000 74 3500 4.63 130 18:45 25.06.2022
1342 Haze 29 1000 74 3000 6.17 110 17:28 25.06.2022
1343 Haze 29 999 74 4000 5.14 110 16:44 25.06.2022
1344 Clouds 31 998 66 4000 5.66 130 14:50 25.06.2022
1345 Haze 32 997 66 5000 4.12 160 12:57 25.06.2022
1346 Haze 32 998 66 5000 4.63 170 12:37 25.06.2022
1347 Haze 29 1000 79 4000 5.14 140 10:32 25.06.2022
1348 Haze 29 1001 84 4000 4.63 180 08:57 25.06.2022
1349 Haze 29 1001 84 5000 3.6 140 08:29 25.06.2022
1350 Haze 30 1001 79 5000 3.09 170 07:45 25.06.2022
1351 Haze 27 1000 94 3000 3.6 120 03:30 25.06.2022
1352 Haze 27 1000 89 3000 3.6 140 00:33 25.06.2022
1353 Haze 27 1001 94 2500 1.54 160 22:51 24.06.2022
1354 Haze 27 1001 94 2500 2.06 150 21:34 24.06.2022
1355 Haze 27 1001 94 2500 2.57 120 20:44 24.06.2022
1356 Haze 27 1002 94 2500 3.09 110 20:18 24.06.2022
1357 Rain 27 1003 94 2500 3.09 110 19:20 24.06.2022
1358 Rain 27 1003 94 2500 2.06 110 18:48 24.06.2022
1359 Rain 27 1003 100 2500 1.54 60 18:30 24.06.2022
1360 Clouds 28 1002 94 1000 1.54 270 16:57 24.06.2022
1361 Rain 28 1001 89 3000 3.09 230 15:29 24.06.2022
1362 Haze 28 1000 89 4000 1.54 100 14:26 24.06.2022
1363 Haze 27 1000 94 4000 1.03 100 13:53 24.06.2022
1364 Haze 29 1001 84 3000 5.14 150 11:43 24.06.2022
1365 Clouds 29 1002 84 2500 4.63 170 10:47 24.06.2022
1366 Haze 31 1004 74 4000 4.63 200 09:42 24.06.2022
1367 Haze 31 1004 74 4000 4.63 200 09:19 24.06.2022
1368 Haze 31 1004 74 4000 2.57 160 08:42 24.06.2022
1369 Haze 29 1005 84 3000 4.12 130 06:47 24.06.2022
1370 Haze 29 1005 79 2500 4.12 190 06:29 24.06.2022
1371 Haze 29 1005 79 2500 3.6 180 05:51 24.06.2022
1372 Thunderstorm 27 1003 94 2500 2.57 80 00:57 24.06.2022
1373 Rain 27 1004 94 2500 2.06 20 22:44 23.06.2022
1374 Rain 27 1005 94 2500 2.57 120 21:52 23.06.2022
1375 Thunderstorm 27 1006 94 2500 2.57 120 20:53 23.06.2022
1376 Thunderstorm 28 1006 89 2500 3.6 100 20:31 23.06.2022
1377 Thunderstorm 29 1006 84 3000 3.6 170 18:44 23.06.2022
1378 Thunderstorm 29 1005 79 3000 3.6 180 17:44 23.06.2022
1379 Haze 29 1004 84 3500 4.12 230 16:36 23.06.2022
1380 Haze 30 1003 79 4000 5.14 230 15:29 23.06.2022
1381 Haze 30 1002 79 4000 5.14 260 14:59 23.06.2022
1382 Haze 31 1002 66 4000 3.6 230 12:39 23.06.2022
1383 Haze 32 1004 62 4000 4.12 270 11:20 23.06.2022
1384 Haze 30 1005 70 4000 3.6 220 09:30 23.06.2022
1385 Haze 29 1006 79 4000 4.12 180 07:51 23.06.2022
1386 Haze 27 1004 94 2500 1.54 100 01:29 23.06.2022
1387 Haze 27 1004 94 2500 2.06 110 00:25 23.06.2022
1388 Haze 27 1004 94 2500 3.09 120 23:23 22.06.2022
1389 Haze 27 1005 94 2500 2.06 100 21:45 22.06.2022
1390 Haze 27 1005 94 2500 2.06 100 21:45 22.06.2022
1391 Haze 27 1006 94 2500 2.57 110 20:57 22.06.2022
1392 Rain 27 1006 94 2500 2.57 110 20:21 22.06.2022
1393 Clouds 27 1006 94 2500 3.09 120 19:48 22.06.2022
1394 Clouds 28 1005 89 2500 0 0 17:50 22.06.2022
1395 Clouds 28 1005 89 2500 2.06 150 17:20 22.06.2022
1396 Rain 29 1003 84 3000 4.12 220 15:53 22.06.2022
1397 Rain 29 1003 84 3500 5.66 240 15:24 22.06.2022
1398 Haze 30 1002 79 4000 5.14 220 13:50 22.06.2022
1399 Haze 30 1002 79 4000 3.6 240 13:25 22.06.2022
1400 Haze 30 1002 79 4000 4.63 210 12:44 22.06.2022
1401 Haze 31 1002 74 4000 4.63 230 11:47 22.06.2022
1402 Haze 30 1003 79 4000 4.63 230 10:54 22.06.2022
1403 Clouds 30 1004 79 3500 4.12 200 09:44 22.06.2022
1404 Haze 30 1004 79 3500 3.6 210 07:56 22.06.2022
1405 Haze 27 1002 94 2500 2.57 150 03:25 22.06.2022
1406 Thunderstorm 26 1001 100 2500 3.09 100 01:21 22.06.2022
1407 Haze 27 1001 94 2500 2.06 140 23:39 21.06.2022
1408 Haze 27 1002 94 2500 0 0 21:31 21.06.2022
1409 Drizzle 26 1003 100 2500 3.6 160 19:43 21.06.2022
1410 Thunderstorm 27 1003 89 3000 2.57 180 18:30 21.06.2022
1411 Haze 28 1001 89 3000 5.14 190 16:52 21.06.2022
1412 Clouds 26 1002 100 2500 5.14 210 12:40 21.06.2022
1413 Haze 28 1002 83 3000 5.14 220 10:55 21.06.2022
1414 Drizzle 29 1003 84 3000 7.2 200 09:48 21.06.2022
1415 Haze 29 1003 84 3000 5.14 190 08:22 21.06.2022
1416 Haze 29 1003 84 3000 5.14 190 08:22 21.06.2022
1417 Haze 27 1003 94 2500 3.6 140 05:37 21.06.2022
1418 Clouds 25 1002 100 2500 1.03 100 00:43 21.06.2022
1419 Drizzle 26 1003 100 2200 2.57 110 22:25 20.06.2022
1420 Clouds 27 1003 94 1800 2.57 90 21:50 20.06.2022
1421 Clouds 27 1004 94 1800 1.54 140 20:32 20.06.2022
1422 Clouds 27 1004 94 1800 1.54 140 20:32 20.06.2022
1423 Haze 27 1005 94 2500 2.57 90 19:38 20.06.2022
1424 Haze 27 1004 94 2200 1.54 160 18:44 20.06.2022
1425 Haze 28 1003 89 3000 3.6 170 17:52 20.06.2022
1426 Haze 28 1003 89 3000 2.57 180 17:29 20.06.2022
1427 Haze 28 1003 89 3500 3.6 190 15:53 20.06.2022
1428 Haze 27 1003 94 3000 5.14 210 12:41 20.06.2022
1429 Clouds 26 1005 94 2500 4.12 200 10:41 20.06.2022
1430 Haze 27 1005 89 3000 4.63 200 09:30 20.06.2022
1431 Clouds 29 1005 84 3000 6.69 200 08:44 20.06.2022
1432 Clouds 27 1006 94 2000 5.14 190 05:35 20.06.2022
1433 Drizzle 26 1004 94 2500 1.54 130 02:27 20.06.2022
1434 Haze 26 1004 100 2500 1.54 190 00:26 20.06.2022
1435 Drizzle 27 1005 94 2500 2.06 130 22:53 19.06.2022
1436 Rain 26 1006 94 2500 2.57 160 21:58 19.06.2022
1437 Rain 27 1006 94 2500 3.09 150 21:40 19.06.2022
1438 Rain 27 1007 94 3000 2.57 160 20:39 19.06.2022
1439 Drizzle 27 1007 94 3000 4.12 210 19:47 19.06.2022
1440 Haze 27 1006 89 3500 2.57 190 18:57 19.06.2022
1441 Haze 27 1006 89 3500 3.6 180 18:30 19.06.2022
1442 Thunderstorm 28 1005 89 3500 3.6 200 17:22 19.06.2022
1443 Haze 28 1005 83 3500 4.12 190 16:35 19.06.2022
1444 Haze 29 1004 79 3500 3.6 200 15:42 19.06.2022
1445 Haze 29 1004 84 3500 4.63 230 14:58 19.06.2022
1446 Haze 29 1004 84 3500 5.66 210 14:20 19.06.2022
1447 Haze 30 1004 79 3500 4.63 220 13:36 19.06.2022
1448 Haze 27 1006 83 3000 4.12 270 11:38 19.06.2022
1449 Clouds 27 1007 83 3000 4.12 240 10:31 19.06.2022
1450 Haze 29 1006 89 3000 5.14 180 08:49 19.06.2022
1451 Thunderstorm 27 1007 89 3000 2.06 210 08:19 19.06.2022
1452 Haze 28 1006 89 3000 2.57 110 05:42 19.06.2022
1453 Haze 27 1004 94 2500 0 0 02:32 19.06.2022
1454 Drizzle 27 1004 94 2500 2.57 140 00:26 19.06.2022
1455 Clouds 26 1005 94 2100 0 0 23:36 18.06.2022
1456 Clouds 27 1005 89 1400 4.12 260 22:45 18.06.2022
1457 Haze 29 1005 89 3000 2.57 170 21:43 18.06.2022
1458 Haze 29 1006 89 3500 2.57 160 20:49 18.06.2022
1459 Haze 29 1006 89 3500 3.6 170 19:40 18.06.2022
1460 Haze 29 1006 89 4000 3.09 190 18:54 18.06.2022
1461 Haze 29 1005 84 4000 4.63 170 17:43 18.06.2022
1462 Haze 29 1005 84 4000 5.14 180 17:22 18.06.2022
1463 Haze 30 1004 79 4000 3.6 210 15:37 18.06.2022
1464 Haze 31 1003 70 4000 4.63 180 14:48 18.06.2022
1465 Haze 31 1003 66 4000 5.14 220 13:42 18.06.2022
1466 Haze 32 1005 66 4000 5.14 190 11:58 18.06.2022
1467 Haze 31 1005 62 4000 4.12 200 10:57 18.06.2022
1468 Haze 32 1006 66 4000 4.12 210 09:28 18.06.2022
1469 Haze 30 1006 79 4000 5.14 230 08:33 18.06.2022
1470 Haze 30 1006 74 3500 3.09 230 07:32 18.06.2022
1471 Haze 29 1005 84 3000 3.09 120 04:20 18.06.2022
1472 Haze 28 1004 89 3000 2.57 140 01:27 18.06.2022
1473 Haze 28 1004 89 3000 2.57 140 01:27 18.06.2022
1474 Haze 28 1004 89 3000 2.06 140 00:50 18.06.2022
1475 Haze 29 1004 84 3000 2.06 160 00:22 18.06.2022
1476 Haze 28 1004 89 3000 2.06 210 23:29 17.06.2022
1477 Haze 29 1005 84 3000 2.57 170 21:44 17.06.2022
1478 Haze 30 1005 79 3000 2.57 180 20:29 17.06.2022
1479 Haze 30 1005 79 3000 2.57 190 19:19 17.06.2022
1480 Haze 30 1004 79 3000 4.12 220 17:47 17.06.2022
1481 Haze 30 1003 79 3000 4.12 210 16:44 17.06.2022
1482 Haze 30 1003 74 3000 4.12 220 16:21 17.06.2022
1483 Haze 30 1003 79 3500 4.12 220 15:37 17.06.2022
1484 Haze 30 1003 79 3500 4.12 210 14:23 17.06.2022
1485 Haze 30 1003 79 3500 5.14 210 13:58 17.06.2022
1486 Haze 31 1003 74 3500 5.14 220 13:38 17.06.2022
1487 Haze 31 1003 74 3500 4.12 210 12:24 17.06.2022
1488 Haze 32 1004 74 3500 5.66 230 11:50 17.06.2022
1489 Rain 32 1004 70 3500 6.17 220 11:32 17.06.2022
1490 Haze 31 1006 66 4000 4.63 200 08:56 17.06.2022
1491 Haze 31 1006 70 4000 3.6 200 08:25 17.06.2022
1492 Haze 30 1006 79 3500 3.09 180 06:42 17.06.2022
1493 Haze 28 1005 94 2500 2.57 90 03:42 17.06.2022
1494 Haze 29 1004 84 3000 2.57 120 01:55 17.06.2022
1495 Haze 29 1004 84 3000 3.09 240 23:35 16.06.2022
1496 Haze 30 1005 79 3000 2.06 190 22:41 16.06.2022
1497 Haze 30 1005 79 3000 3.6 220 21:21 16.06.2022
1498 Haze 30 1005 79 3000 3.09 220 20:51 16.06.2022
1499 Haze 30 1006 79 3000 3.6 200 20:32 16.06.2022
1500 Haze 30 1006 79 3500 2.57 220 19:32 16.06.2022
1501 Haze 30 1005 79 3500 3.09 230 17:57 16.06.2022
1502 Haze 30 1005 79 3500 4.12 220 17:33 16.06.2022
1503 Haze 30 1004 79 3500 3.6 230 16:30 16.06.2022
1504 Haze 30 1004 79 3500 4.12 240 15:21 16.06.2022
1505 Haze 30 1004 84 3000 4.12 240 14:28 16.06.2022
1506 Clouds 31 1004 74 4000 4.12 250 12:59 16.06.2022
1507 Haze 33 1005 62 4000 4.63 220 12:35 16.06.2022
1508 Haze 33 1005 66 4000 5.14 250 11:49 16.06.2022
1509 Haze 32 1005 70 3500 4.63 230 10:51 16.06.2022
1510 Haze 30 1006 79 3000 3.6 230 09:43 16.06.2022
1511 Haze 31 1006 70 2500 6.17 250 09:20 16.06.2022
1512 Haze 28 1006 89 2500 1.03 130 07:57 16.06.2022
1513 Clouds 27 1007 83 1500 3.09 250 06:51 16.06.2022
1514 Clouds 26 1006 94 2000 3.09 220 04:28 16.06.2022
1515 Haze 27 1004 94 3000 3.6 180 01:54 16.06.2022
1516 Haze 27 1004 89 3000 2.57 80 01:34 16.06.2022
1517 Haze 28 1005 89 3000 3.09 100 00:36 16.06.2022
1518 Haze 29 1005 84 3000 2.06 160 23:23 15.06.2022
1519 Haze 29 1005 84 3000 1.54 180 22:28 15.06.2022
1520 Haze 30 1005 79 3000 3.6 210 21:21 15.06.2022
1521 Haze 30 1006 79 3000 3.6 210 20:38 15.06.2022
1522 Haze 30 1006 79 3000 3.6 210 20:19 15.06.2022
1523 Haze 30 1006 79 3000 4.63 230 18:51 15.06.2022
1524 Haze 30 1006 74 3000 2.57 250 17:55 15.06.2022
1525 Haze 30 1005 79 3500 4.12 240 16:38 15.06.2022
1526 Haze 30 1004 79 4000 4.63 240 15:35 15.06.2022
1527 Haze 31 1005 66 4000 6.69 260 13:43 15.06.2022
1528 Clouds 31 1005 74 2500 6.69 230 12:53 15.06.2022
1529 Haze 32 1005 70 4000 3.6 250 11:48 15.06.2022
1530 Haze 31 1006 74 5000 6.69 230 10:24 15.06.2022
1531 Haze 32 1006 70 5000 4.63 220 09:39 15.06.2022
1532 Haze 32 1007 70 5000 5.66 220 08:30 15.06.2022
1533 Haze 31 1007 79 4000 4.12 180 06:33 15.06.2022
1534 Haze 29 1005 89 3500 2.57 160 03:45 15.06.2022
1535 Haze 29 1005 89 3500 2.57 170 01:54 15.06.2022
1536 Haze 29 1005 84 3500 2.57 170 00:50 15.06.2022
1537 Haze 29 1005 89 3500 3.09 160 23:39 14.06.2022
1538 Haze 30 1005 74 3500 2.57 170 23:18 14.06.2022
1539 Haze 30 1005 79 3500 4.12 190 22:18 14.06.2022
1540 Haze 30 1006 79 3500 4.63 200 21:33 14.06.2022
1541 Haze 30 1006 79 3500 3.09 180 20:48 14.06.2022
1542 Haze 30 1007 79 3500 3.6 200 20:28 14.06.2022
1543 Haze 30 1007 74 3500 4.63 200 18:54 14.06.2022
1544 Haze 30 1006 74 3500 3.09 230 17:40 14.06.2022
1545 Haze 30 1006 74 4000 4.63 200 16:43 14.06.2022
1546 Haze 31 1005 70 5000 3.09 220 15:50 14.06.2022
1547 Haze 31 1005 70 5000 6.17 230 15:22 14.06.2022
1548 Smoke 32 1005 66 6000 3.6 220 14:30 14.06.2022
1549 Smoke 32 1005 66 6000 4.12 200 13:41 14.06.2022
1550 Haze 33 1006 62 5000 4.63 210 12:42 14.06.2022
1551 Haze 33 1006 62 5000 4.12 230 11:31 14.06.2022
1552 Haze 32 1006 62 5000 4.63 190 10:47 14.06.2022
1553 Haze 33 1007 62 5000 5.66 220 09:48 14.06.2022
1554 Haze 32 1007 55 5000 5.66 190 08:46 14.06.2022
1555 Haze 31 1007 74 4000 5.66 180 07:31 14.06.2022
1556 Clouds 29 1008 79 2100 5.14 230 05:19 14.06.2022
1557 Haze 28 1006 89 3000 3.09 160 02:57 14.06.2022
1558 Haze 29 1005 84 3500 3.09 160 00:32 14.06.2022
1559 Haze 29 1005 79 3500 1.54 190 23:27 13.06.2022
1560 Haze 29 1006 79 3500 4.12 180 22:26 13.06.2022
1561 Haze 29 1006 79 3500 4.12 180 22:26 13.06.2022
1562 Haze 29 1006 84 3500 3.6 40 21:49 13.06.2022
1563 Haze 29 1006 84 3500 2.57 170 20:42 13.06.2022
1564 Haze 30 1006 74 3500 3.09 190 19:34 13.06.2022
1565 Haze 29 1007 84 3500 3.09 200 18:25 13.06.2022
1566 Haze 29 1007 79 3500 3.09 210 17:46 13.06.2022
1567 Haze 30 1006 79 3500 6.17 190 16:52 13.06.2022
1568 Haze 31 1005 74 5000 5.14 210 15:39 13.06.2022
1569 Haze 31 1004 70 6000 4.12 210 14:47 13.06.2022
1570 Clouds 32 1004 70 6000 4.63 230 13:54 13.06.2022
1571 Clouds 32 1004 66 6000 5.66 220 12:48 13.06.2022
1572 Clouds 33 1005 58 6000 4.63 220 11:34 13.06.2022
1573 Clouds 32 1007 66 6000 4.12 210 10:27 13.06.2022
1574 Smoke 32 1007 62 6000 5.66 210 09:39 13.06.2022
1575 Smoke 31 1008 70 6000 5.66 200 07:53 13.06.2022
1576 Smoke 31 1008 70 6000 3.6 170 06:33 13.06.2022
1577 Haze 28 1006 83 4000 4.12 180 03:28 13.06.2022
1578 Haze 28 1005 83 3500 1.54 150 01:38 13.06.2022
1579 Haze 27 1005 89 3500 1.54 170 00:22 13.06.2022
1580 Haze 29 1006 79 3500 3.09 130 23:29 12.06.2022
1581 Clouds 28 1006 81 9290 6.68 194 22:23 12.06.2022
1582 Haze 29 1006 84 3500 4.12 160 21:28 12.06.2022
1583 Haze 29 1006 84 3500 3.6 160 20:34 12.06.2022
1584 Haze 29 1006 84 3500 4.12 160 19:38 12.06.2022
1585 Haze 30 1006 79 4000 4.12 160 18:39 12.06.2022
1586 Haze 30 1004 79 5000 2.57 170 16:42 12.06.2022
1587 Haze 31 1004 70 5000 3.6 200 15:30 12.06.2022
1588 Haze 32 1003 66 6000 5.14 190 14:32 12.06.2022
1589 Haze 31 1003 74 6000 5.66 220 13:55 12.06.2022
1590 Haze 31 1003 66 6000 5.66 220 12:58 12.06.2022
1591 Haze 32 1004 62 4000 5.14 210 11:48 12.06.2022
1592 Drizzle 31 1004 70 4000 4.12 140 10:45 12.06.2022
1593 Haze 30 1006 74 5000 5.14 160 09:28 12.06.2022
1594 Haze 28 1006 83 5000 4.12 160 08:49 12.06.2022
1595 Haze 29 1006 79 5000 7.2 170 07:40 12.06.2022
1596 Haze 28 1006 89 5000 3.09 130 05:39 12.06.2022
1597 Haze 27 1004 89 4000 2.57 110 03:38 12.06.2022
1598 Haze 26 1004 94 2500 3.6 170 01:43 12.06.2022
1599 Drizzle 26 1004 94 2500 2.57 130 00:59 12.06.2022
1600 Haze 26 1004 94 2500 2.06 160 00:28 12.06.2022
1601 Drizzle 26 1004 100 2500 3.09 160 23:56 11.06.2022
1602 Clouds 26 1005 100 2500 3.09 170 22:49 11.06.2022
1603 Clouds 26 1005 94 2500 2.57 170 22:29 11.06.2022
1604 Thunderstorm 27 1006 94 2500 3.09 170 20:55 11.06.2022
1605 Drizzle 27 1006 94 2500 2.57 170 20:26 11.06.2022
1606 Thunderstorm 27 1006 94 2500 3.09 180 19:32 11.06.2022
1607 Rain 27 1006 100 2500 3.09 190 18:36 11.06.2022
1608 Thunderstorm 27 1006 94 2500 0 0 17:52 11.06.2022
1609 Thunderstorm 27 1005 94 1600 4.63 240 17:29 11.06.2022
1610 Rain 28 1005 89 2500 3.6 210 16:59 11.06.2022
1611 Clouds 29 1005 84 2500 3.6 210 16:38 11.06.2022
1612 Haze 30 1004 74 4000 5.14 180 15:46 11.06.2022
1613 Haze 30 1004 74 5000 4.63 200 13:54 11.06.2022
1614 Haze 30 1004 74 5000 5.14 200 13:36 11.06.2022
1615 Haze 32 1004 62 4000 5.14 200 11:18 11.06.2022
1616 Haze 32 1005 66 4000 4.63 160 10:29 11.06.2022
1617 Haze 30 1006 70 4000 4.12 170 09:40 11.06.2022
1618 Haze 29 1006 89 3000 4.12 190 07:58 11.06.2022
1619 Drizzle 25 1006 94 2500 2.57 160 06:31 11.06.2022
1620 Rain 27 1006 94 2200 2.06 90 05:26 11.06.2022
1621 Thunderstorm 27 1004 94 2500 0 0 02:34 11.06.2022
1622 Thunderstorm 27 1004 94 1500 3.09 240 01:41 11.06.2022
1623 Thunderstorm 27 1004 100 2100 0 0 00:37 11.06.2022
1624 Clouds 28 1004 94 1500 2.06 210 22:38 10.06.2022
1625 Haze 28 1004 94 2500 1.54 180 21:56 10.06.2022
1626 Thunderstorm 28 1005 94 2500 2.06 150 21:22 10.06.2022
1627 Clouds 27 1006 94 2500 2.06 130 20:36 10.06.2022
1628 Clouds 27 1006 94 2500 2.06 130 20:18 10.06.2022
1629 Thunderstorm 28 1006 94 2500 4.63 230 19:18 10.06.2022
1630 Thunderstorm 28 1006 94 2500 4.63 230 19:18 10.06.2022
1631 Thunderstorm 31 1005 74 3000 3.6 210 18:20 10.06.2022
1632 Haze 31 1004 74 4000 3.6 230 17:41 10.06.2022
1633 Haze 31 1004 74 4000 4.12 240 16:59 10.06.2022
1634 Haze 31 1003 74 4000 3.6 210 16:20 10.06.2022
1635 Haze 31 1003 74 5000 3.09 240 15:36 10.06.2022
1636 Haze 32 1002 74 5000 5.66 230 13:52 10.06.2022
1637 Haze 32 1002 70 6000 4.63 220 12:48 10.06.2022
1638 Haze 32 1003 70 6000 5.14 220 11:41 10.06.2022
1639 Haze 33 1003 66 5000 5.66 220 10:44 10.06.2022
1640 Haze 33 1004 62 5000 5.14 250 09:44 10.06.2022
1641 Haze 32 1006 66 5000 5.14 230 08:30 10.06.2022
1642 Haze 32 1006 62 4000 4.12 200 07:24 10.06.2022
1643 Haze 32 1006 66 3500 2.57 220 06:43 10.06.2022
1644 Haze 32 1006 66 3500 2.57 220 06:24 10.06.2022
1645 Haze 29 1005 79 2800 2.57 110 03:52 10.06.2022
1646 Haze 28 1003 89 2500 3.09 110 01:41 10.06.2022
1647 Haze 27 1003 94 2500 0 0 00:28 10.06.2022
1648 Haze 27 1003 94 2500 0 0 23:29 09.06.2022
1649 Haze 27 1004 89 2500 1.54 150 21:58 09.06.2022
1650 Haze 27 1004 89 2500 2.06 100 21:32 09.06.2022
1651 Haze 27 1005 89 2500 2.57 100 20:54 09.06.2022
1652 Thunderstorm 27 1005 89 2200 1.54 70 19:59 09.06.2022
1653 Clouds 26 1005 100 2200 1.54 120 19:19 09.06.2022
1654 Thunderstorm 26 1005 94 2100 1.54 70 18:21 09.06.2022
1655 Thunderstorm 30 1005 89 2500 3.6 240 16:50 09.06.2022
1656 Clouds 31 1003 79 3000 4.63 250 15:48 09.06.2022
1657 Clouds 31 1003 79 3000 4.63 250 15:48 09.06.2022
1658 Haze 31 1002 79 6000 4.63 250 14:35 09.06.2022
1659 Clouds 32 1001 74 6000 5.14 250 13:51 09.06.2022
1660 Clouds 32 1002 74 6000 4.12 250 13:27 09.06.2022
1661 Clouds 33 1002 70 6000 4.63 240 11:54 09.06.2022
1662 Clouds 32 1003 66 6000 4.63 240 11:18 09.06.2022
1663 Clouds 34 1004 62 6000 5.66 280 09:44 09.06.2022
1664 Clouds 33 1004 66 6000 5.14 260 09:23 09.06.2022
1665 Clouds 33 1005 58 6000 4.12 240 07:45 09.06.2022
1666 Clouds 33 1005 58 6000 4.12 240 07:45 09.06.2022
1667 Haze 32 1006 66 5000 3.09 240 06:28 09.06.2022
1668 Haze 30 1004 79 3500 1.54 200 02:38 09.06.2022
1669 Haze 31 1004 74 3500 2.06 230 23:39 08.06.2022
1670 Haze 31 1004 74 4000 2.06 260 22:58 08.06.2022
1671 Haze 31 1005 74 4000 2.06 230 22:27 08.06.2022
1672 Haze 31 1005 74 4000 2.57 210 21:54 08.06.2022
1673 Haze 31 1006 79 4000 2.06 220 21:21 08.06.2022
1674 Haze 31 1006 74 4000 1.54 260 20:20 08.06.2022
1675 Haze 31 1006 79 4000 4.12 280 19:38 08.06.2022
1676 Haze 31 1006 79 4000 4.12 250 18:43 08.06.2022
1677 Haze 31 1005 74 4000 5.14 250 16:54 08.06.2022
1678 Haze 31 1004 79 5000 6.17 270 15:44 08.06.2022
1679 Clouds 33 1003 66 6000 5.66 270 13:51 08.06.2022
1680 Clouds 33 1004 66 6000 6.17 270 11:52 08.06.2022
1681 Clouds 33 1004 70 6000 5.14 260 11:29 08.06.2022
1682 Clouds 33 1006 66 6000 6.69 270 09:59 08.06.2022
1683 Clouds 32 1006 70 6000 4.63 260 09:21 08.06.2022
1684 Smoke 33 1007 62 5000 5.14 250 08:26 08.06.2022
1685 Haze 32 1007 66 5000 2.06 290 05:51 08.06.2022
1686 Haze 30 1006 79 3500 3.09 260 03:55 08.06.2022
1687 Haze 30 1005 84 3500 0 0 00:38 08.06.2022
1688 Haze 30 1006 79 3500 2.57 220 23:28 07.06.2022
1689 Haze 30 1006 79 3500 2.57 190 22:45 07.06.2022
1690 Haze 30 1006 79 3500 3.09 200 22:23 07.06.2022
1691 Haze 31 1007 79 3500 3.09 220 21:34 07.06.2022
1692 Haze 31 1007 74 4000 2.57 230 20:58 07.06.2022
1693 Haze 31 1007 74 4000 3.6 210 20:32 07.06.2022
1694 Haze 31 1007 74 4000 3.09 220 19:38 07.06.2022
1695 Haze 31 1007 74 4000 3.6 230 18:23 07.06.2022
1696 Haze 31 1006 74 4000 5.66 250 17:26 07.06.2022
1697 Haze 31 1006 74 4000 5.66 260 16:43 07.06.2022
1698 Haze 31 1005 74 5000 5.66 260 15:54 07.06.2022
1699 Haze 31 1005 74 5000 5.14 250 15:26 07.06.2022
1700 Haze 31 1005 74 5000 5.14 230 14:50 07.06.2022
1701 Haze 32 1005 70 5000 5.66 250 14:32 07.06.2022
1702 Haze 32 1004 70 5000 4.63 270 13:31 07.06.2022
1703 Haze 32 1005 70 5000 4.12 280 12:49 07.06.2022
1704 Haze 32 1005 70 5000 4.63 250 11:47 07.06.2022
1705 Haze 32 1006 70 6000 5.66 260 10:26 07.06.2022
1706 Clouds 33 1006 66 6000 5.14 250 08:50 07.06.2022
1707 Smoke 33 1007 62 6000 5.14 260 07:34 07.06.2022
1708 Haze 31 1007 70 5000 2.06 240 06:18 07.06.2022
1709 Haze 30 1005 74 3500 1.54 160 03:32 07.06.2022
1710 Haze 30 1005 74 3500 0 0 00:45 07.06.2022
1711 Haze 30 1005 74 4000 0 0 23:41 06.06.2022
1712 Haze 30 1006 74 4000 2.06 250 22:53 06.06.2022
1713 Haze 30 1006 74 4000 2.57 240 22:28 06.06.2022
1714 Haze 30 1007 74 4000 3.6 230 20:42 06.06.2022
1715 Haze 30 1007 74 4000 4.12 250 19:24 06.06.2022
1716 Haze 31 1007 70 4000 4.63 250 18:48 06.06.2022
1717 Haze 31 1006 70 4500 4.63 260 17:57 06.06.2022
1718 Haze 31 1006 66 4500 4.63 270 16:57 06.06.2022
1719 Haze 31 1005 70 4500 4.63 260 15:52 06.06.2022
1720 Haze 31 1005 70 5000 5.14 270 14:59 06.06.2022
1721 Haze 31 1005 70 5000 5.14 270 14:59 06.06.2022
1722 Haze 32 1004 66 5000 6.17 260 14:18 06.06.2022
1723 Smoke 32 1004 62 6000 3.6 250 13:20 06.06.2022
1724 Smoke 32 1005 66 6000 4.12 260 12:35 06.06.2022
1725 Smoke 33 1005 58 6000 6.17 260 11:49 06.06.2022
1726 Haze 33 1005 62 5000 5.66 240 09:53 06.06.2022
1727 Haze 33 1006 62 5000 6.17 260 09:18 06.06.2022
1728 Haze 32 1006 62 5000 5.66 230 08:31 06.06.2022
1729 Haze 32 1006 66 5000 4.63 220 07:24 06.06.2022
1730 Haze 30 1006 74 3500 2.06 240 04:42 06.06.2022
1731 Haze 30 1005 74 3500 2.06 230 02:19 06.06.2022
1732 Haze 29 1004 79 3500 2.57 240 00:57 06.06.2022
1733 Haze 30 1004 74 3500 3.09 250 00:35 06.06.2022
1734 Haze 30 1005 74 3500 4.12 230 23:25 05.06.2022
1735 Haze 30 1005 74 3500 3.6 230 22:33 05.06.2022
1736 Rain 30 1006 74 3500 2.57 260 20:34 05.06.2022
1737 Haze 30 1006 74 4000 4.12 250 19:26 05.06.2022
1738 Haze 30 1006 74 4000 3.6 260 18:26 05.06.2022
1739 Haze 30 1006 79 4000 3.09 280 17:46 05.06.2022
1740 Haze 30 1005 74 4000 4.12 290 17:22 05.06.2022
1741 Haze 31 1005 74 4000 5.14 270 16:48 05.06.2022
1742 Haze 31 1004 70 5000 4.63 270 15:47 05.06.2022
1743 Haze 31 1003 70 5000 5.14 270 14:22 05.06.2022
1744 Clouds 32 1004 66 6000 4.12 260 12:43 05.06.2022
1745 Clouds 33 1004 62 6000 5.14 270 11:35 05.06.2022
1746 Clouds 32 1005 70 6000 5.14 270 10:25 05.06.2022
1747 Haze 33 1005 62 6000 7.2 260 09:58 05.06.2022
1748 Haze 33 1006 62 6000 5.14 270 08:26 05.06.2022
1749 Haze 32 1006 62 6000 2.06 230 06:54 05.06.2022
1750 Haze 30 1006 70 3500 2.06 300 05:20 05.06.2022
1751 Haze 30 1006 74 3500 2.57 240 03:38 05.06.2022
1752 Haze 29 1005 79 3500 2.06 320 01:32 05.06.2022
1753 Haze 30 1005 74 3500 2.06 290 23:58 04.06.2022
1754 Haze 30 1005 79 3500 3.6 270 21:49 04.06.2022
1755 Haze 30 1006 79 3500 4.12 280 20:21 04.06.2022
1756 Haze 30 1005 74 4000 4.63 280 18:18 04.06.2022
1757 Haze 30 1005 79 4000 3.6 280 16:43 04.06.2022
1758 Haze 30 1004 74 5000 5.14 290 16:18 04.06.2022
1759 Smoke 32 1004 66 6000 5.66 280 14:47 04.06.2022
1760 Smoke 32 1004 66 6000 5.14 280 12:28 04.06.2022
1761 Smoke 33 1005 62 6000 6.17 250 10:58 04.06.2022
1762 Smoke 33 1005 58 6000 4.63 280 10:26 04.06.2022
1763 Smoke 33 1005 58 6000 4.63 260 09:42 04.06.2022
1764 Haze 32 1006 66 5000 5.66 270 08:40 04.06.2022
1765 Haze 32 1007 66 5000 4.63 270 07:40 04.06.2022
1766 Haze 30 1007 74 4000 3.09 280 04:57 04.06.2022
1767 Haze 29 1005 74 4000 3.09 280 01:25 04.06.2022
1768 Haze 30 1005 74 4000 3.09 240 23:59 03.06.2022
1769 Haze 30 1006 74 4000 3.09 270 22:40 03.06.2022
1770 Haze 30 1007 74 4000 3.09 290 21:24 03.06.2022
1771 Haze 30 1007 74 4000 3.6 280 20:33 03.06.2022
1772 Haze 30 1006 74 4000 6.69 250 18:23 03.06.2022
1773 Haze 30 1006 74 4000 4.12 260 16:47 03.06.2022
1774 Haze 31 1005 70 5000 5.14 260 15:23 03.06.2022
1775 Haze 32 1004 66 5000 5.14 290 13:22 03.06.2022
1776 Haze 33 1004 58 5000 5.14 280 11:40 03.06.2022
1777 Haze 33 1005 58 5000 6.17 280 09:45 03.06.2022
1778 Haze 32 1006 66 5000 6.69 260 08:58 03.06.2022
1779 Haze 32 1007 62 4000 4.12 260 07:26 03.06.2022
1780 Haze 32 1007 62 4000 4.12 260 07:26 03.06.2022
1781 Haze 31 1007 66 4000 3.6 250 06:34 03.06.2022
1782 Haze 31 1007 66 3500 2.57 310 05:52 03.06.2022
1783 Haze 29 1006 79 3500 3.09 250 00:30 03.06.2022
1784 Haze 30 1006 74 3500 4.12 270 22:45 02.06.2022
1785 Haze 30 1006 74 3500 4.12 250 21:51 02.06.2022
1786 Haze 30 1007 74 3500 4.63 270 20:22 02.06.2022
1787 Haze 30 1007 74 3500 4.63 270 20:22 02.06.2022
1788 Haze 30 1007 74 3500 4.63 260 19:50 02.06.2022
1789 Haze 30 1007 74 3500 4.63 270 19:31 02.06.2022
1790 Haze 30 1006 74 3500 4.63 250 17:32 02.06.2022
1791 Haze 30 1005 79 4000 4.63 270 16:27 02.06.2022
1792 Haze 31 1004 70 4000 5.14 270 14:22 02.06.2022
1793 Haze 31 1004 70 4500 4.12 280 13:30 02.06.2022
1794 Haze 31 1004 66 4500 5.66 260 12:21 02.06.2022
1795 Haze 33 1006 55 5000 4.12 270 10:20 02.06.2022
1796 Haze 32 1006 66 4000 5.66 270 09:28 02.06.2022
1797 Haze 32 1007 66 4000 5.14 260 08:27 02.06.2022
1798 Haze 31 1007 66 4000 2.57 270 07:33 02.06.2022
1799 Haze 30 1007 74 3500 2.57 310 04:54 02.06.2022
1800 Haze 30 1006 79 3500 2.57 280 02:48 02.06.2022
1801 Haze 30 1006 74 4000 3.6 280 23:50 01.06.2022
1802 Haze 30 1006 74 3500 4.63 280 22:51 01.06.2022
1803 Haze 30 1006 74 3500 5.14 270 21:37 01.06.2022
1804 Haze 30 1007 79 3500 4.63 260 20:59 01.06.2022
1805 Haze 30 1007 79 3500 4.63 260 20:37 01.06.2022
1806 Haze 30 1007 79 3500 4.12 270 19:28 01.06.2022
1807 Haze 30 1006 74 3500 4.63 280 17:46 01.06.2022
1808 Haze 30 1005 74 4000 4.63 270 16:40 01.06.2022
1809 Haze 31 1004 70 4000 4.63 300 15:18 01.06.2022
1810 Haze 31 1003 70 5000 5.66 280 13:54 01.06.2022
1811 Haze 32 1004 66 5000 5.66 290 12:28 01.06.2022
1812 Clouds 32 1006 62 6000 5.14 290 10:25 01.06.2022
1813 Smoke 33 1006 62 6000 5.14 280 09:24 01.06.2022
1814 Smoke 33 1007 58 4500 3.6 270 07:25 01.06.2022
1815 Haze 32 1008 62 4500 2.06 260 06:30 01.06.2022
1816 Haze 30 1005 74 3500 3.6 270 01:28 01.06.2022
1817 Haze 30 1006 74 3500 3.6 280 23:41 31.05.2022
1818 Haze 30 1006 74 3500 4.63 260 22:37 31.05.2022
1819 Haze 30 1006 74 3500 4.12 260 21:46 31.05.2022
1820 Haze 30 1007 74 3500 4.63 260 20:46 31.05.2022
1821 Haze 30 1007 74 3500 4.63 250 20:23 31.05.2022
1822 Haze 30 1006 74 3500 5.14 270 18:53 31.05.2022
1823 Haze 30 1006 74 4000 5.14 270 17:51 31.05.2022
1824 Haze 30 1005 74 4000 5.66 270 17:20 31.05.2022
1825 Haze 31 1004 70 5000 6.17 280 15:41 31.05.2022
1826 Smoke 32 1003 66 6000 5.66 280 14:33 31.05.2022
1827 Smoke 32 1004 66 6000 6.17 280 12:22 31.05.2022
1828 Smoke 33 1005 62 6000 5.66 290 11:23 31.05.2022
1829 Smoke 33 1005 58 5000 4.63 280 09:49 31.05.2022
1830 Smoke 32 1007 58 4000 4.12 280 07:36 31.05.2022
1831 Haze 30 1007 79 3000 4.12 260 05:24 31.05.2022
1832 Haze 30 1006 74 3000 5.14 260 01:42 31.05.2022
1833 Haze 30 1006 74 4000 4.63 250 23:29 30.05.2022
1834 Haze 30 1006 74 4000 6.17 250 22:57 30.05.2022
1835 Haze 30 1006 74 4000 4.63 260 22:24 30.05.2022
1836 Haze 30 1007 79 4000 4.12 260 21:35 30.05.2022
1837 Haze 30 1007 74 4000 5.66 250 20:22 30.05.2022
1838 Haze 30 1007 74 4000 4.12 280 18:58 30.05.2022
1839 Haze 31 1006 70 4000 5.14 260 17:41 30.05.2022
1840 Haze 31 1006 66 4000 5.14 280 16:45 30.05.2022
1841 Haze 31 1005 70 5000 5.14 270 15:22 30.05.2022
1842 Smoke 32 1005 66 6000 4.12 260 12:37 30.05.2022
1843 Smoke 33 1006 58 6000 4.12 260 10:47 30.05.2022
1844 Smoke 32 1007 66 6000 6.17 290 09:39 30.05.2022
1845 Haze 32 1008 66 5000 6.17 270 07:24 30.05.2022
1846 Haze 31 1008 70 4000 5.14 260 05:50 30.05.2022
1847 Haze 30 1006 74 3000 4.12 250 02:33 30.05.2022
1848 Haze 30 1006 74 3500 5.14 260 23:24 29.05.2022
1849 Haze 30 1006 74 3500 5.66 250 22:39 29.05.2022
1850 Haze 30 1007 74 3500 4.63 250 21:19 29.05.2022
1851 Haze 30 1007 74 4000 5.14 250 19:38 29.05.2022
1852 Haze 30 1007 74 4000 5.14 250 19:18 29.05.2022
1853 Haze 30 1006 74 4000 5.14 250 17:41 29.05.2022
1854 Haze 31 1005 70 5000 4.63 270 15:49 29.05.2022
1855 Haze 31 1005 70 5000 6.17 260 15:28 29.05.2022
1856 Haze 32 1005 66 6000 6.69 260 14:23 29.05.2022
1857 Haze 33 1006 62 6000 5.14 260 11:55 29.05.2022
1858 Haze 33 1006 62 5000 6.17 280 10:42 29.05.2022
1859 Haze 33 1007 62 4500 4.12 260 09:51 29.05.2022
1860 Haze 32 1009 66 3500 4.63 250 06:56 29.05.2022
1861 Haze 31 1008 70 3500 5.14 240 04:49 29.05.2022
1862 Haze 31 1008 70 3500 4.63 230 04:24 29.05.2022
1863 Haze 30 1006 74 3500 4.63 230 23:59 28.05.2022
1864 Haze 30 1006 74 3500 4.63 230 23:39 28.05.2022
1865 Haze 30 1007 74 3500 4.12 230 22:40 28.05.2022
1866 Haze 30 1007 74 3500 4.63 230 21:42 28.05.2022
1867 Haze 30 1007 74 3500 5.66 230 19:52 28.05.2022
1868 Haze 30 1007 74 3500 5.14 230 19:18 28.05.2022
1869 Haze 30 1007 74 4000 5.14 240 17:44 28.05.2022
1870 Haze 31 1006 70 4000 4.12 250 16:53 28.05.2022
1871 Haze 31 1006 70 5000 5.14 250 15:44 28.05.2022
1872 Haze 31 1005 70 6000 5.66 230 14:37 28.05.2022
1873 Haze 32 1005 66 6000 5.66 250 13:21 28.05.2022
1874 Haze 33 1006 62 6000 5.14 270 12:40 28.05.2022
1875 Haze 33 1006 62 6000 6.17 240 11:26 28.05.2022
1876 Haze 32 1007 62 6000 5.14 270 10:25 28.05.2022
1877 Smoke 32 1008 66 6000 5.14 240 09:30 28.05.2022
1878 Haze 32 1008 58 4000 4.63 240 07:47 28.05.2022
1879 Haze 31 1008 70 3500 6.17 240 06:32 28.05.2022
1880 Haze 30 1008 74 3500 6.17 240 04:21 28.05.2022
1881 Haze 30 1006 74 3500 5.14 250 00:50 28.05.2022
1882 Haze 30 1006 74 3500 4.12 250 23:42 27.05.2022
1883 Haze 30 1006 74 3500 3.09 240 22:24 27.05.2022
1884 Haze 30 1007 74 3500 3.6 240 20:58 27.05.2022
1885 Haze 30 1008 74 3500 5.14 250 20:31 27.05.2022
1886 Haze 30 1008 74 3500 4.12 250 19:55 27.05.2022
1887 Haze 30 1008 74 3500 4.12 250 19:33 27.05.2022
1888 Haze 30 1007 74 3500 5.14 260 18:37 27.05.2022
1889 Haze 31 1007 70 4000 5.14 250 16:42 27.05.2022
1890 Haze 31 1006 70 5000 5.66 230 15:44 27.05.2022
1891 Haze 32 1006 66 5000 5.14 270 14:45 27.05.2022
1892 Smoke 32 1006 66 6000 6.17 260 13:35 27.05.2022
1893 Haze 33 1007 62 5000 5.14 270 11:43 27.05.2022
1894 Haze 33 1007 62 5000 4.63 240 11:25 27.05.2022
1895 Haze 33 1008 62 5000 5.14 240 10:35 27.05.2022
1896 Haze 32 1008 66 5000 4.12 240 09:42 27.05.2022
1897 Haze 32 1009 66 5000 5.14 280 08:24 27.05.2022
1898 Haze 32 1010 66 5000 4.63 270 06:50 27.05.2022
1899 Haze 30 1007 74 3500 3.6 240 02:56 27.05.2022
1900 Haze 29 1006 79 3500 2.06 220 00:53 27.05.2022
1901 Haze 30 1007 74 3500 3.6 240 22:50 26.05.2022
1902 Haze 30 1008 74 3500 4.12 240 21:43 26.05.2022
1903 Haze 30 1008 74 3500 6.17 250 20:59 26.05.2022
1904 Haze 30 1009 74 3500 5.14 250 19:29 26.05.2022
1905 Haze 30 1008 74 4000 4.63 250 18:24 26.05.2022
1906 Haze 30 1007 74 5000 4.63 270 16:58 26.05.2022
1907 Haze 31 1006 70 6000 6.17 270 15:49 26.05.2022
1908 Haze 31 1006 70 6000 5.66 270 14:48 26.05.2022
1909 Haze 32 1006 62 6000 6.69 260 13:45 26.05.2022
1910 Haze 32 1007 58 6000 6.69 260 11:38 26.05.2022
1911 Haze 32 1008 66 5000 4.63 260 10:37 26.05.2022
1912 Haze 33 1008 66 5000 5.14 260 09:37 26.05.2022
1913 Haze 33 1009 62 5000 4.12 280 08:38 26.05.2022
1914 Haze 31 1009 70 3500 4.12 290 05:24 26.05.2022
1915 Haze 30 1007 74 3000 3.6 260 01:24 26.05.2022
1916 Haze 30 1007 74 3500 3.09 270 23:41 25.05.2022
1917 Haze 30 1007 74 3500 4.63 260 22:48 25.05.2022
1918 Haze 30 1008 79 3500 4.12 280 21:37 25.05.2022
1919 Haze 30 1009 79 3500 4.63 240 20:39 25.05.2022
1920 Haze 30 1009 79 3500 3.6 270 19:31 25.05.2022
1921 Haze 30 1008 79 3500 3.6 280 18:20 25.05.2022
1922 Haze 31 1007 74 4000 4.12 260 16:41 25.05.2022
1923 Haze 31 1007 74 4000 4.63 260 16:21 25.05.2022
1924 Haze 31 1007 70 5000 6.17 270 15:24 25.05.2022
1925 Haze 31 1007 74 5000 6.17 260 14:37 25.05.2022
1926 Haze 32 1006 70 5000 4.63 260 14:19 25.05.2022
1927 Haze 32 1006 70 5000 5.66 260 12:52 25.05.2022
1928 Clear 31 1007 66 10000 5.63 288 11:31 25.05.2022
1929 Haze 32 1008 62 5000 4.63 270 10:22 25.05.2022
1930 Clear 31 1009 65 10000 5.13 280 08:45 25.05.2022
1931 Clear 30 1010 65 10000 4.52 302 07:23 25.05.2022
1932 Haze 31 1010 74 3500 4.63 260 05:23 25.05.2022
1933 Haze 30 1007 79 3500 4.63 260 00:31 25.05.2022
1934 Haze 30 1007 79 3500 4.63 250 23:47 24.05.2022
1935 Haze 30 1008 79 3500 6.17 250 22:53 24.05.2022
1936 Haze 30 1008 79 3500 3.09 240 21:46 24.05.2022
1937 Haze 30 1008 79 3500 3.09 230 21:22 24.05.2022
1938 Haze 30 1008 79 3500 4.63 230 20:44 24.05.2022
1939 Haze 30 1008 79 3500 3.6 240 18:59 24.05.2022
1940 Haze 31 1008 74 3500 4.63 240 17:50 24.05.2022
1941 Haze 31 1007 74 4000 5.14 230 16:36 24.05.2022
1942 Haze 31 1006 74 4000 5.66 250 15:27 24.05.2022
1943 Haze 32 1006 66 5000 3.6 270 14:37 24.05.2022
1944 Haze 32 1006 70 5000 4.12 260 13:35 24.05.2022
1945 Haze 33 1006 66 5000 5.14 270 12:18 24.05.2022
1946 Haze 33 1007 66 5000 5.14 280 09:50 24.05.2022
1947 Haze 32 1008 70 5000 5.66 260 08:51 24.05.2022
1948 Haze 32 1007 70 5000 3.09 230 07:44 24.05.2022
1949 Haze 31 1007 74 4000 3.6 250 06:34 24.05.2022
1950 Haze 30 1005 79 3000 4.63 260 03:32 24.05.2022
1951 Haze 30 1004 79 3000 4.12 250 01:46 24.05.2022
1952 Haze 30 1003 79 3500 5.14 250 00:21 24.05.2022
1953 Haze 30 1003 79 3500 5.66 240 22:24 23.05.2022
1954 Haze 30 1004 84 3500 4.12 230 21:45 23.05.2022
1955 Haze 30 1004 79 3500 5.14 230 20:46 23.05.2022
1956 Haze 30 1004 79 3500 5.66 230 19:51 23.05.2022
1957 Haze 30 1004 79 3500 5.66 230 19:22 23.05.2022
1958 Haze 30 1004 84 3500 5.14 230 18:40 23.05.2022
1959 Haze 31 1004 79 3500 5.14 240 17:56 23.05.2022
1960 Haze 31 1003 74 3500 3.6 220 16:28 23.05.2022
1961 Haze 32 1002 70 5000 5.14 240 14:18 23.05.2022
1962 Haze 32 1002 66 5000 5.14 210 11:53 23.05.2022
1963 Haze 32 1003 66 5000 6.17 220 10:49 23.05.2022
1964 Haze 33 1004 66 5000 6.17 230 09:48 23.05.2022
1965 Haze 32 1004 70 5000 4.12 230 08:46 23.05.2022
1966 Haze 33 1004 70 5000 5.14 240 08:46 23.05.2022
1967 Haze 32 1004 70 4000 5.66 240 07:31 23.05.2022
1968 Haze 31 1004 74 4000 5.14 240 06:40 23.05.2022
1969 Drizzle 30 1003 84 3500 5.66 230 03:41 23.05.2022
1970 Haze 30 1002 84 3500 5.14 240 01:52 23.05.2022
1971 Haze 30 1002 79 3500 5.66 240 01:32 23.05.2022
1972 Haze 30 1002 79 3500 5.66 240 23:18 22.05.2022
1973 Haze 30 1003 84 3500 4.63 240 22:27 22.05.2022
1974 Haze 30 1004 84 3500 5.14 240 21:52 22.05.2022
1975 Haze 30 1004 84 3500 5.66 220 20:46 22.05.2022
1976 Haze 30 1004 84 3500 3.6 220 20:23 22.05.2022
1977 Haze 30 1005 84 3500 4.12 240 19:39 22.05.2022
1978 Haze 30 1005 79 3500 5.66 230 18:52 22.05.2022
1979 Haze 30 1004 84 3500 4.12 220 18:21 22.05.2022
1980 Haze 30 1004 79 4000 3.6 210 17:26 22.05.2022
1981 Haze 31 1003 74 5000 5.66 230 15:57 22.05.2022
1982 Haze 32 1002 70 5000 6.17 230 14:47 22.05.2022
1983 Haze 32 1002 70 5000 4.63 240 14:47 22.05.2022
1984 Haze 32 1002 70 5000 6.17 240 13:22 22.05.2022
1985 Haze 32 1002 66 5000 5.14 250 12:48 22.05.2022
1986 Haze 33 1003 62 5000 6.17 240 11:29 22.05.2022
1987 Haze 32 1005 66 4000 4.63 230 09:40 22.05.2022
1988 Haze 32 1006 70 4000 4.63 240 07:54 22.05.2022
1989 Haze 32 1006 70 4000 4.12 250 07:20 22.05.2022
1990 Haze 30 1005 79 3000 5.66 260 04:59 22.05.2022
1991 Haze 30 1003 79 3500 4.63 240 01:21 22.05.2022
1992 Haze 30 1003 79 3500 3.09 230 00:26 22.05.2022
1993 Haze 30 1003 79 3500 4.12 230 23:47 21.05.2022
1994 Haze 30 1004 79 3500 5.14 240 22:24 21.05.2022
1995 Haze 30 1005 79 3500 5.14 230 21:41 21.05.2022
1996 Haze 30 1005 79 3500 5.66 240 20:48 21.05.2022
1997 Haze 30 1005 79 3500 5.14 220 20:21 21.05.2022
1998 Haze 30 1006 70 3500 3.6 240 19:25 21.05.2022
1999 Haze 30 1005 79 3500 5.14 240 17:38 21.05.2022
2000 Haze 31 1005 74 4000 5.14 230 15:44 21.05.2022
2001 Haze 32 1005 70 5000 5.14 240 14:37 21.05.2022
2002 Smoke 32 1005 66 5000 3.6 260 13:41 21.05.2022
2003 Smoke 32 1005 66 5000 6.69 260 12:41 21.05.2022
2004 Smoke 32 1005 66 5000 3.6 220 11:56 21.05.2022
2005 Smoke 32 1006 62 5000 4.12 220 10:22 21.05.2022
2006 Smoke 32 1006 62 5000 4.12 240 09:38 21.05.2022
2007 Smoke 32 1007 62 5000 6.17 240 08:52 21.05.2022
2008 Clouds 29 1008 72 10000 4.88 235 06:28 21.05.2022
2009 Haze 29 1006 79 3000 2.57 200 02:26 21.05.2022
2010 Haze 29 1006 79 3000 2.57 230 23:47 20.05.2022
2011 Haze 29 1006 79 3000 3.6 250 22:42 20.05.2022
2012 Haze 29 1006 79 3000 3.6 240 22:23 20.05.2022
2013 Haze 29 1006 79 3000 3.6 240 21:32 20.05.2022
2014 Haze 30 1007 74 3000 3.6 240 20:53 20.05.2022
2015 Haze 30 1007 74 3000 4.63 220 19:57 20.05.2022
2016 Haze 30 1007 74 3000 4.12 250 19:24 20.05.2022
2017 Haze 30 1007 74 3000 4.63 250 18:28 20.05.2022
2018 Haze 30 1006 74 3000 4.12 240 16:51 20.05.2022
2019 Haze 30 1006 74 3000 6.17 230 15:58 20.05.2022
2020 Haze 30 1006 74 3000 6.17 230 15:40 20.05.2022
2021 Haze 31 1005 70 3000 5.14 240 14:29 20.05.2022
2022 Haze 31 1005 70 3000 5.66 230 13:54 20.05.2022
2023 Haze 32 1006 66 3000 6.17 250 11:22 20.05.2022
2024 Haze 31 1007 70 3500 4.63 240 09:51 20.05.2022
2025 Haze 31 1007 62 3500 5.14 260 08:41 20.05.2022
2026 Haze 31 1008 66 3000 4.12 270 06:46 20.05.2022
2027 Haze 31 1008 66 3000 5.14 270 06:21 20.05.2022
2028 Haze 30 1007 74 3000 4.63 260 04:22 20.05.2022
2029 Haze 30 1005 74 3500 5.14 240 00:24 20.05.2022
2030 Haze 30 1005 74 3500 4.63 230 22:44 19.05.2022
2031 Haze 30 1006 79 3500 3.09 240 21:53 19.05.2022
2032 Haze 30 1006 79 3500 4.63 220 21:25 19.05.2022
2033 Haze 30 1006 79 3500 5.14 240 20:59 19.05.2022
2034 Haze 30 1006 79 3500 4.63 240 20:21 19.05.2022
2035 Haze 30 1005 79 3500 4.63 250 19:34 19.05.2022
2036 Haze 30 1005 79 3500 5.14 240 17:59 19.05.2022
2037 Haze 30 1004 79 3500 5.14 240 16:29 19.05.2022
2038 Haze 31 1003 70 3500 5.14 270 14:52 19.05.2022
2039 Haze 31 1003 74 3500 4.63 280 14:21 19.05.2022
2040 Haze 32 1003 70 3500 5.14 280 12:35 19.05.2022
2041 Haze 32 1004 62 3500 5.66 270 11:25 19.05.2022
2042 Haze 32 1006 66 3500 5.66 270 08:59 19.05.2022
2043 Haze 32 1007 66 3500 3.6 230 07:48 19.05.2022
2044 Haze 30 1007 70 3000 2.06 290 04:50 19.05.2022
2045 Haze 29 1005 79 3000 1.54 310 01:58 19.05.2022
2046 Haze 29 1005 74 3000 3.09 280 23:53 18.05.2022
2047 Haze 29 1005 79 3000 3.09 310 22:46 18.05.2022
2048 Haze 29 1005 79 3000 3.09 310 22:46 18.05.2022
2049 Haze 29 1005 79 3000 3.6 270 21:47 18.05.2022
2050 Haze 29 1005 79 3000 2.57 270 21:25 18.05.2022
2051 Haze 29 1006 79 3000 3.6 250 20:24 18.05.2022
2052 Haze 30 1006 74 3000 3.6 260 19:39 18.05.2022
2053 Haze 30 1005 74 3000 3.09 320 18:21 18.05.2022
2054 Haze 30 1005 74 3000 4.12 300 17:41 18.05.2022
2055 Haze 30 1004 74 3000 3.6 300 17:23 18.05.2022
2056 Haze 30 1004 74 3000 4.12 300 16:31 18.05.2022
2057 Haze 31 1003 70 3000 3.6 270 15:40 18.05.2022
2058 Haze 31 1003 66 3000 6.69 280 14:35 18.05.2022
2059 Haze 32 1002 66 3000 5.14 280 13:22 18.05.2022
2060 Smoke 32 1003 62 3000 4.63 280 12:40 18.05.2022
2061 Smoke 32 1004 62 3000 5.66 270 11:34 18.05.2022
2062 Smoke 32 1004 62 3000 4.63 270 10:56 18.05.2022
2063 Smoke 33 1005 55 3000 3.6 300 08:53 18.05.2022
2064 Haze 32 1006 58 3000 3.6 260 07:32 18.05.2022
2065 Haze 30 1006 70 2500 3.09 270 05:34 18.05.2022
2066 Haze 29 1004 79 3000 0 0 00:52 18.05.2022
2067 Haze 29 1004 79 3000 1.54 230 00:21 18.05.2022
2068 Haze 30 1005 74 3000 3.6 270 21:39 17.05.2022
2069 Haze 30 1005 74 3000 3.6 270 21:19 17.05.2022
2070 Haze 30 1005 74 3000 3.6 260 19:52 17.05.2022
2071 Haze 30 1005 74 3000 3.09 230 19:27 17.05.2022
2072 Haze 30 1004 74 3000 3.6 250 17:50 17.05.2022
2073 Haze 30 1003 74 3000 3.6 270 16:58 17.05.2022
2074 Haze 30 1003 79 3000 4.12 280 16:29 17.05.2022
2075 Haze 31 1002 74 4000 6.17 270 15:24 17.05.2022
2076 Haze 31 1002 70 4000 5.66 280 14:30 17.05.2022
2077 Haze 32 1002 66 4000 6.17 260 13:32 17.05.2022
2078 Haze 32 1003 66 4000 6.17 260 11:37 17.05.2022
2079 Smoke 33 1005 58 3500 5.66 280 09:23 17.05.2022
2080 Smoke 34 1005 52 3000 5.14 270 08:25 17.05.2022
2081 Haze 32 1006 58 2500 3.6 250 06:46 17.05.2022
2082 Haze 30 1004 74 3500 2.57 300 03:20 17.05.2022
2083 Haze 30 1003 79 3500 2.57 280 00:36 17.05.2022
2084 Haze 30 1005 79 3500 2.57 240 22:42 16.05.2022
2085 Haze 30 1005 79 3500 4.12 250 21:41 16.05.2022
2086 Haze 30 1005 79 3500 4.12 260 20:47 16.05.2022
2087 Haze 30 1005 79 3500 3.09 290 19:43 16.05.2022
2088 Haze 30 1004 84 3500 4.63 300 18:20 16.05.2022
2089 Haze 30 1002 79 4000 5.14 290 15:50 16.05.2022
2090 Haze 32 1002 70 5000 5.14 280 13:56 16.05.2022
2091 Haze 32 1002 70 5000 4.63 280 13:23 16.05.2022
2092 Smoke 33 1004 58 5000 6.17 260 11:25 16.05.2022
2093 Haze 33 1006 58 4000 5.66 270 09:37 16.05.2022
2094 Haze 32 1007 66 4000 4.63 260 06:56 16.05.2022
2095 Haze 30 1006 74 3500 2.06 240 03:58 16.05.2022
2096 Haze 30 1006 79 3500 3.6 280 23:38 15.05.2022
2097 Haze 30 1006 79 3500 2.57 270 22:30 15.05.2022
2098 Clouds 29 1007 76 10000 3.49 281 21:46 15.05.2022
2099 Haze 30 1007 74 3500 3.6 260 20:57 15.05.2022
2100 Haze 30 1007 79 3500 3.6 270 19:52 15.05.2022
2101 Haze 30 1006 79 3500 4.12 280 17:52 15.05.2022
2102 Haze 31 1005 74 4000 5.14 280 16:29 15.05.2022
2103 Haze 32 1004 66 5000 5.66 270 13:58 15.05.2022
2104 Smoke 32 1004 70 5000 5.66 260 12:57 15.05.2022
2105 Haze 33 1005 62 5000 6.17 270 11:40 15.05.2022
2106 Haze 32 1006 66 4000 6.17 270 10:29 15.05.2022
2107 Haze 33 1007 62 3500 6.17 270 08:46 15.05.2022
2108 Haze 31 1008 70 3000 3.09 280 06:58 15.05.2022
2109 Haze 31 1007 70 3000 3.6 280 05:52 15.05.2022
2110 Haze 30 1004 79 3500 3.6 240 00:49 15.05.2022
2111 Haze 30 1004 74 3500 2.57 220 23:39 14.05.2022
2112 Haze 30 1005 74 3500 3.09 220 22:59 14.05.2022
2113 Haze 30 1005 74 3500 2.57 230 21:29 14.05.2022
2114 Haze 30 1006 74 3500 3.09 210 20:53 14.05.2022
2115 Haze 30 1006 74 3500 4.63 220 19:39 14.05.2022
2116 Haze 30 1006 79 3500 4.63 210 19:19 14.05.2022
2117 Haze 30 1006 74 3500 4.12 230 18:44 14.05.2022
2118 Haze 30 1005 74 3500 4.63 230 16:46 14.05.2022
2119 Haze 31 1004 70 4000 5.14 240 15:33 14.05.2022
2120 Haze 31 1003 70 5000 4.63 240 14:34 14.05.2022
2121 Haze 33 1003 62 5000 5.66 240 12:34 14.05.2022
2122 Haze 33 1004 58 5000 4.63 270 11:35 14.05.2022
2123 Smoke 32 1005 62 5000 4.63 250 10:21 14.05.2022
2124 Smoke 32 1005 66 5000 4.63 230 09:53 14.05.2022
2125 Smoke 32 1006 62 4000 3.6 290 08:49 14.05.2022
2126 Haze 32 1006 66 3500 3.6 220 06:41 14.05.2022
2127 Haze 29 1004 79 3500 2.57 210 02:39 14.05.2022
2128 Haze 29 1003 79 3500 2.57 230 23:44 13.05.2022
2129 Haze 29 1003 79 3500 3.09 240 22:58 13.05.2022
2130 Haze 30 1003 74 3500 4.12 240 22:27 13.05.2022
2131 Haze 30 1003 74 3500 3.6 240 21:52 13.05.2022
2132 Haze 30 1004 79 3500 4.12 250 20:46 13.05.2022
2133 Haze 30 1004 79 3500 3.09 220 20:27 13.05.2022
2134 Haze 30 1004 74 3500 3.6 250 19:28 13.05.2022
2135 Haze 30 1004 74 3500 4.12 270 17:51 13.05.2022
2136 Haze 30 1003 74 3500 4.12 260 17:28 13.05.2022
2137 Haze 30 1003 74 3500 4.12 250 16:20 13.05.2022
2138 Haze 31 1003 74 4000 4.12 260 15:29 13.05.2022
2139 Haze 32 1002 66 5000 3.6 240 13:48 13.05.2022
2140 Haze 32 1003 66 5000 6.17 220 12:32 13.05.2022
2141 Haze 32 1003 66 4000 5.14 220 11:22 13.05.2022
2142 Haze 33 1005 62 4000 5.66 230 09:34 13.05.2022
2143 Haze 33 1006 58 4000 6.17 230 08:44 13.05.2022
2144 Haze 33 1006 62 4000 5.66 230 07:48 13.05.2022
2145 Haze 31 1006 70 3500 5.66 230 06:33 13.05.2022
2146 Haze 31 1006 70 3500 5.66 230 06:33 13.05.2022
2147 Haze 31 1006 70 3500 5.66 230 06:33 13.05.2022
2148 Haze 30 1005 74 3000 3.6 240 03:29 13.05.2022
2149 Haze 29 1003 79 3000 3.09 240 00:24 13.05.2022
2150 Haze 30 1004 79 3000 3.6 260 22:45 12.05.2022
2151 Haze 30 1004 79 3000 5.14 270 21:56 12.05.2022
2152 Haze 30 1004 79 3000 5.14 270 21:56 12.05.2022
2153 Haze 30 1005 79 3000 4.63 270 20:29 12.05.2022
2154 Haze 30 1005 79 3500 5.14 240 18:59 12.05.2022
2155 Haze 30 1004 79 3500 5.14 250 17:24 12.05.2022
2156 Haze 30 1003 79 3500 4.63 250 16:18 12.05.2022
2157 Haze 31 1003 74 4000 6.17 250 14:41 12.05.2022
2158 Haze 31 1003 74 4000 6.17 260 13:46 12.05.2022
2159 Haze 32 1004 62 4000 5.66 240 10:52 12.05.2022
2160 Haze 32 1006 70 3500 4.12 240 09:30 12.05.2022
2161 Haze 32 1006 70 3500 5.66 230 08:51 12.05.2022
2162 Haze 33 1006 66 3000 4.12 220 07:40 12.05.2022
2163 Haze 31 1007 74 3000 4.63 210 06:34 12.05.2022
2164 Haze 30 1004 79 3000 2.57 210 02:58 12.05.2022
2165 Haze 29 1003 84 3000 2.57 230 00:36 12.05.2022
2166 Haze 30 1003 79 3000 4.12 240 22:39 11.05.2022
2167 Haze 30 1004 79 3000 4.12 230 21:52 11.05.2022
2168 Haze 30 1004 79 3000 3.09 230 21:24 11.05.2022
2169 Haze 30 1005 79 3000 4.63 260 18:58 11.05.2022
2170 Haze 30 1004 79 3000 5.14 240 16:55 11.05.2022
2171 Haze 30 1003 79 3500 4.63 240 15:38 11.05.2022
2172 Haze 31 1002 74 4000 5.14 260 14:39 11.05.2022
2173 Haze 31 1002 74 4000 5.66 230 14:19 11.05.2022
2174 Haze 32 1003 70 4000 5.66 280 11:54 11.05.2022
2175 Haze 32 1003 70 4000 5.66 240 11:23 11.05.2022
2176 Haze 32 1005 70 4000 5.14 250 08:46 11.05.2022
2177 Haze 30 1005 79 4000 3.09 270 05:31 11.05.2022
2178 Haze 29 1002 84 3500 1.54 300 01:23 11.05.2022
2179 Haze 30 1002 79 3500 1.54 350 22:32 10.05.2022
2180 Haze 30 1003 79 3500 2.57 290 21:58 10.05.2022
2181 Haze 30 1003 79 3500 2.06 310 20:58 10.05.2022
2182 Haze 30 1003 79 3500 3.6 280 20:19 10.05.2022
2183 Haze 30 1004 79 3500 3.6 280 18:27 10.05.2022
2184 Haze 30 1004 79 3500 3.6 270 17:36 10.05.2022
2185 Haze 30 1003 79 4000 6.17 270 15:42 10.05.2022
2186 Haze 31 1002 74 4000 5.14 280 12:48 10.05.2022
2187 Haze 32 1003 70 4000 6.17 280 11:51 10.05.2022
2188 Haze 32 1003 70 4000 6.17 280 11:21 10.05.2022
2189 Haze 32 1003 70 4000 7.2 280 10:54 10.05.2022
2190 Haze 32 1004 70 4000 6.17 260 09:27 10.05.2022
2191 Haze 32 1005 70 3000 4.63 280 07:32 10.05.2022
2192 Haze 30 1005 79 3000 2.57 320 04:34 10.05.2022
2193 Haze 30 1003 79 3500 2.06 350 01:36 10.05.2022
2194 Haze 30 1003 79 3500 3.09 300 23:37 09.05.2022
2195 Haze 30 1003 84 3500 3.6 290 22:29 09.05.2022
2196 Haze 30 1004 84 3500 4.12 280 21:21 09.05.2022
2197 Haze 30 1004 84 3500 4.12 280 19:52 09.05.2022
2198 Haze 30 1004 84 3500 5.14 280 17:59 09.05.2022
2199 Haze 30 1004 84 3500 4.12 280 16:55 09.05.2022
2200 Haze 30 1003 84 4000 5.66 280 15:54 09.05.2022
2201 Haze 31 1002 79 4000 5.14 290 15:34 09.05.2022
2202 Haze 31 1002 74 5000 5.14 270 14:33 09.05.2022
2203 Haze 31 1002 74 5000 4.12 280 13:51 09.05.2022
2204 Haze 32 1002 70 5000 4.63 270 12:32 09.05.2022
2205 Haze 32 1003 70 5000 4.63 270 11:43 09.05.2022
2206 Haze 32 1003 70 5000 5.66 270 10:45 09.05.2022
2207 Haze 32 1004 70 5000 4.63 280 09:39 09.05.2022
2208 Haze 32 1005 70 4000 4.12 280 07:56 09.05.2022
2209 Haze 30 1005 79 3500 1.54 260 04:33 09.05.2022
2210 Haze 30 1005 79 3500 1.54 260 04:33 09.05.2022
2211 Haze 30 1003 79 3500 2.57 0 00:22 09.05.2022
2212 Haze 30 1003 84 3500 2.57 310 22:58 08.05.2022
2213 Haze 30 1003 84 3500 3.09 300 22:27 08.05.2022
2214 Haze 30 1004 84 3500 3.09 300 20:41 08.05.2022
2215 Haze 30 1005 84 3500 3.09 290 19:53 08.05.2022
2216 Haze 30 1005 84 3500 2.57 300 19:27 08.05.2022
2217 Haze 30 1004 84 3500 3.09 180 18:25 08.05.2022
2218 Haze 30 1004 84 3500 4.12 290 17:21 08.05.2022
2219 Haze 31 1003 74 4000 5.66 300 15:43 08.05.2022
2220 Haze 31 1003 74 4000 4.63 300 15:20 08.05.2022
2221 Smoke 33 1003 66 5000 6.17 300 12:45 08.05.2022
2222 Haze 35 1004 55 4000 6.17 290 10:46 08.05.2022
2223 Haze 34 1005 66 4000 6.17 260 10:21 08.05.2022
2224 Haze 34 1005 66 4000 6.17 290 09:46 08.05.2022
2225 Smoke 33 1007 66 3000 5.66 240 07:41 08.05.2022
2226 Haze 30 1007 74 2500 0 0 04:56 08.05.2022
2227 Haze 29 1005 79 2500 2.06 60 03:20 08.05.2022
2228 Haze 29 1004 79 3000 0 0 00:31 08.05.2022
2229 Haze 29 1005 79 3000 1.54 30 23:54 07.05.2022
2230 Haze 29 1005 84 3000 2.06 20 22:58 07.05.2022
2231 Haze 30 1006 79 3000 2.06 30 22:34 07.05.2022
2232 Haze 30 1006 79 3000 2.06 30 21:44 07.05.2022
2233 Haze 30 1006 79 3000 2.06 350 21:20 07.05.2022
2234 Haze 30 1006 79 3000 2.57 310 19:59 07.05.2022
2235 Haze 30 1006 79 3000 2.06 300 18:38 07.05.2022
2236 Haze 31 1005 74 3000 5.66 300 16:19 07.05.2022
2237 Smoke 32 1005 66 3000 5.66 300 14:46 07.05.2022
2238 Haze 33 1006 66 4000 5.66 290 11:19 07.05.2022
2239 Haze 33 1007 70 3500 5.14 280 09:39 07.05.2022
2240 Haze 32 1008 74 3000 5.66 260 07:54 07.05.2022
2241 Haze 32 1009 70 3000 4.12 280 06:44 07.05.2022
2242 Haze 31 1009 74 3000 3.6 260 05:41 07.05.2022
2243 Haze 29 1008 84 2500 1.54 120 03:54 07.05.2022
2244 Haze 29 1006 84 3500 1.54 0 23:39 06.05.2022
2245 Haze 29 1007 84 3500 1.54 310 22:33 06.05.2022
2246 Haze 29 1007 84 3500 2.57 300 21:47 06.05.2022
2247 Haze 30 1008 79 3500 2.57 320 20:37 06.05.2022
2248 Haze 30 1007 79 3500 2.57 320 19:43 06.05.2022
2249 Haze 30 1007 79 3500 2.57 320 19:19 06.05.2022
2250 Haze 30 1007 79 3500 2.57 310 18:25 06.05.2022
2251 Haze 30 1007 79 3500 4.12 320 17:27 06.05.2022
2252 Haze 30 1006 79 3500 5.14 280 15:49 06.05.2022
2253 Haze 31 1005 74 4000 5.14 320 14:58 06.05.2022
2254 Smoke 32 1005 70 5000 5.14 280 13:31 06.05.2022
2255 Smoke 33 1006 62 4000 5.14 300 12:41 06.05.2022
2256 Smoke 33 1006 62 4000 6.17 290 11:58 06.05.2022
2257 Smoke 33 1007 62 3500 5.14 270 10:36 06.05.2022
2258 Smoke 33 1007 62 3500 6.17 280 09:46 06.05.2022
2259 Haze 34 1008 62 3500 5.14 280 08:52 06.05.2022
2260 Haze 32 1009 66 3000 4.63 260 07:27 06.05.2022
2261 Haze 31 1009 70 3000 3.09 160 06:24 06.05.2022
2262 Haze 29 1008 79 3000 2.06 50 02:54 06.05.2022
2263 Haze 29 1007 79 3000 2.06 40 01:57 06.05.2022
2264 Haze 29 1007 79 3500 2.06 290 22:45 05.05.2022
2265 Haze 29 1007 79 3500 2.06 290 22:45 05.05.2022
2266 Haze 29 1007 79 3500 3.6 290 21:45 05.05.2022
2267 Haze 29 1008 84 3500 2.57 330 20:27 05.05.2022
2268 Haze 30 1007 79 3500 2.57 330 18:36 05.05.2022
2269 Haze 30 1006 79 4000 3.6 310 16:40 05.05.2022
2270 Haze 32 1005 66 5000 6.17 290 14:53 05.05.2022
2271 Haze 33 1006 66 6000 6.17 300 13:25 05.05.2022
2272 Haze 33 1006 66 6000 6.17 280 12:54 05.05.2022
2273 Haze 33 1007 58 5000 5.66 280 10:53 05.05.2022
2274 Haze 32 1008 66 4000 7.2 260 09:40 05.05.2022
2275 Haze 32 1009 66 4000 4.12 260 07:45 05.05.2022
2276 Haze 30 1010 74 3000 1.54 30 05:42 05.05.2022
2277 Haze 29 1008 79 3000 2.06 320 02:18 05.05.2022
2278 Haze 29 1008 79 4000 2.06 300 01:35 05.05.2022
2279 Haze 29 1008 74 4000 2.06 300 23:55 04.05.2022
2280 Haze 30 1008 74 4000 1.54 300 22:50 04.05.2022
2281 Haze 30 1008 74 4000 2.06 280 21:59 04.05.2022
2282 Haze 30 1009 74 4000 3.09 260 21:29 04.05.2022
2283 Haze 30 1009 74 4000 2.57 240 20:42 04.05.2022
2284 Haze 30 1009 79 4000 3.09 270 19:56 04.05.2022
2285 Haze 30 1009 79 4000 3.09 260 19:31 04.05.2022
2286 Haze 30 1008 79 4000 3.6 260 18:22 04.05.2022
2287 Haze 30 1008 79 4000 4.12 290 17:59 04.05.2022
2288 Haze 31 1007 70 4000 5.14 300 15:57 04.05.2022
2289 Haze 31 1007 70 5000 4.63 280 15:30 04.05.2022
2290 Haze 32 1006 66 5000 6.69 270 14:22 04.05.2022
2291 Haze 32 1006 62 5000 6.17 290 13:50 04.05.2022
2292 Haze 33 1007 58 5000 6.69 270 12:34 04.05.2022
2293 Haze 33 1008 62 5000 6.69 270 10:57 04.05.2022
2294 Smoke 33 1009 58 4000 5.14 270 09:46 04.05.2022
2295 Haze 33 1010 58 4000 6.17 240 08:49 04.05.2022
2296 Haze 32 1010 62 3500 4.12 270 07:33 04.05.2022
2297 Haze 29 1008 79 3500 2.06 40 03:50 04.05.2022
2298 Haze 29 1007 79 3500 2.06 290 01:41 04.05.2022
2299 Haze 30 1007 79 3500 3.09 280 22:54 03.05.2022
2300 Haze 30 1007 79 3500 2.06 310 21:47 03.05.2022
2301 Haze 30 1007 79 3500 2.06 310 21:21 03.05.2022
2302 Haze 30 1007 79 3500 2.06 310 21:21 03.05.2022
2303 Haze 30 1008 79 3500 2.57 320 20:38 03.05.2022
2304 Haze 30 1007 79 4000 3.6 270 18:55 03.05.2022
2305 Haze 30 1007 79 4000 3.6 270 18:37 03.05.2022
2306 Haze 30 1007 79 4000 3.6 270 17:20 03.05.2022
2307 Haze 30 1007 79 4000 3.6 270 17:20 03.05.2022
2308 Haze 31 1006 74 4000 5.14 300 15:48 03.05.2022
2309 Haze 32 1006 70 5000 5.14 280 14:22 03.05.2022
2310 Smoke 33 1006 66 6000 5.14 270 12:31 03.05.2022
2311 Smoke 33 1006 62 6000 6.17 260 11:24 03.05.2022
2312 Haze 33 1007 62 5000 5.14 270 10:25 03.05.2022
2313 Haze 34 1008 59 4000 5.14 260 08:18 03.05.2022
2314 Haze 31 1009 74 4000 3.6 250 06:45 03.05.2022
2315 Haze 29 1006 84 3500 1.54 210 01:56 03.05.2022
2316 Haze 29 1006 84 3500 3.09 220 22:56 02.05.2022
2317 Haze 29 1006 84 3500 1.54 230 22:28 02.05.2022
2318 Haze 29 1006 84 3500 2.57 210 21:27 02.05.2022
2319 Haze 30 1007 79 3500 3.09 230 19:22 02.05.2022
2320 Haze 30 1006 79 3500 3.6 240 18:25 02.05.2022
2321 Haze 30 1006 79 3500 3.6 270 17:38 02.05.2022
2322 Haze 30 1005 79 3500 4.63 260 16:42 02.05.2022
2323 Haze 30 1005 79 4000 5.66 250 15:41 02.05.2022
2324 Haze 32 1005 70 5000 5.14 280 14:27 02.05.2022
2325 Haze 32 1005 70 5000 5.66 260 13:42 02.05.2022
2326 Haze 32 1005 66 5000 5.14 220 11:41 02.05.2022
2327 Haze 33 1007 66 5000 6.17 260 09:42 02.05.2022
2328 Haze 33 1007 66 4500 4.12 220 08:20 02.05.2022
2329 Haze 32 1008 70 3500 3.09 220 06:53 02.05.2022
2330 Haze 29 1005 84 3000 1.54 230 00:46 02.05.2022
2331 Haze 29 1005 84 3000 2.57 210 00:21 02.05.2022
2332 Haze 30 1005 79 3000 2.06 220 22:54 01.05.2022
2333 Haze 30 1006 79 3000 2.57 210 21:42 01.05.2022
2334 Haze 30 1006 79 3000 3.09 210 20:36 01.05.2022
2335 Haze 30 1007 79 3500 4.12 230 19:22 01.05.2022
2336 Haze 30 1006 84 4000 4.12 240 18:52 01.05.2022
2337 Haze 30 1006 79 4000 4.63 260 17:49 01.05.2022
2338 Haze 30 1005 84 4000 4.63 260 16:37 01.05.2022
2339 Haze 31 1005 79 4000 6.17 250 15:57 01.05.2022
2340 Haze 31 1004 79 5000 6.17 250 14:45 01.05.2022
2341 Clouds 32 1005 70 6000 5.66 250 12:40 01.05.2022
2342 Clouds 32 1006 66 6000 6.69 240 10:36 01.05.2022
2343 Haze 33 1007 66 4000 5.14 250 08:50 01.05.2022
2344 Haze 32 1008 66 3000 3.09 180 06:50 01.05.2022
2345 Clear 28 1007 76 10000 1.84 191 02:31 01.05.2022
2346 Haze 29 1005 84 3500 0 0 22:51 30.04.2022
2347 Haze 29 1006 84 3500 2.06 200 21:33 30.04.2022
2348 Haze 29 1006 84 3500 2.06 200 21:33 30.04.2022
2349 Haze 29 1006 84 3500 2.06 200 21:33 30.04.2022
2350 Haze 29 1007 84 3500 3.09 230 20:19 30.04.2022
2351 Haze 30 1007 79 3500 3.6 220 19:31 30.04.2022
2352 Haze 30 1006 79 3500 4.12 230 17:32 30.04.2022
2353 Haze 31 1006 74 4000 4.63 240 15:53 30.04.2022
2354 Haze 31 1005 74 5000 5.66 240 15:19 30.04.2022
2355 Haze 32 1005 62 5000 6.17 250 14:19 30.04.2022
2356 Smoke 33 1006 52 5000 6.17 240 11:59 30.04.2022
2357 Smoke 34 1007 52 5000 5.14 230 11:31 30.04.2022
2358 Smoke 34 1007 59 5000 5.14 220 10:25 30.04.2022
2359 Haze 34 1009 59 4000 5.14 230 08:25 30.04.2022
2360 Haze 30 1008 70 3000 2.06 200 04:58 30.04.2022
2361 Haze 29 1006 89 3000 1.54 40 00:25 30.04.2022
2362 Haze 30 1006 84 3000 2.57 340 22:58 29.04.2022
2363 Haze 30 1006 84 3500 2.57 340 22:21 29.04.2022
2364 Haze 30 1007 84 3500 2.06 310 21:26 29.04.2022
2365 Haze 30 1007 79 3500 0 0 20:24 29.04.2022
2366 Haze 30 1007 79 3500 0 0 19:28 29.04.2022
2367 Haze 31 1007 74 3500 0 0 17:37 29.04.2022
2368 Haze 31 1007 74 3500 2.06 320 16:43 29.04.2022
2369 Smoke 32 1006 62 4000 4.63 300 14:38 29.04.2022
2370 Haze 33 1006 55 5000 5.14 300 13:51 29.04.2022
2371 Haze 33 1006 70 5000 6.69 270 12:38 29.04.2022
2372 Haze 33 1008 70 5000 5.66 270 10:44 29.04.2022
2373 Haze 34 1010 66 3500 4.63 250 07:58 29.04.2022
2374 Haze 33 1011 66 3500 4.63 220 07:26 29.04.2022
2375 Haze 32 1011 74 3000 4.12 220 06:33 29.04.2022
2376 Haze 30 1009 84 3000 4.12 160 02:50 29.04.2022
2377 Haze 30 1009 89 3500 3.09 160 00:18 29.04.2022
2378 Haze 30 1009 84 3500 4.12 190 23:26 28.04.2022
2379 Haze 30 1009 84 3500 4.12 160 22:37 28.04.2022
2380 Haze 30 1009 84 3500 3.09 160 21:44 28.04.2022
2381 Haze 30 1009 84 4000 1.54 190 20:49 28.04.2022
2382 Haze 30 1009 84 4000 3.09 180 19:57 28.04.2022
2383 Haze 30 1009 84 4000 3.09 180 19:38 28.04.2022
2384 Haze 30 1009 84 4000 1.54 190 19:19 28.04.2022
2385 Haze 31 1008 74 4000 4.12 200 17:56 28.04.2022
2386 Haze 31 1007 74 4000 3.6 220 16:58 28.04.2022
2387 Haze 31 1007 74 4000 3.6 230 16:21 28.04.2022
2388 Haze 31 1006 70 4000 4.12 250 15:52 28.04.2022
2389 Haze 32 1006 62 4000 5.14 260 15:21 28.04.2022
2390 Haze 33 1005 66 5000 4.63 230 13:43 28.04.2022
2391 Smoke 33 1005 62 5000 5.14 210 12:32 28.04.2022
2392 Smoke 33 1006 62 5000 5.14 210 11:50 28.04.2022
2393 Smoke 35 1007 55 4000 5.14 230 10:29 28.04.2022
2394 Smoke 35 1007 59 4000 5.66 270 09:50 28.04.2022
2395 Smoke 38 1008 27 4000 3.6 240 07:44 28.04.2022
2396 Smoke 35 1008 34 3500 3.09 240 06:54 28.04.2022
2397 Smoke 34 1008 43 3000 2.57 110 05:54 28.04.2022
2398 Smoke 31 1007 58 3000 3.09 40 04:43 28.04.2022
2399 Smoke 30 1006 66 3000 1.54 210 03:28 28.04.2022
2400 Haze 31 1005 66 3500 3.09 330 23:43 27.04.2022
2401 Haze 31 1006 70 3500 2.06 310 22:25 27.04.2022
2402 Haze 31 1006 70 3500 2.06 290 21:47 27.04.2022
2403 Smoke 32 1006 58 3500 2.57 300 20:51 27.04.2022
2404 Smoke 33 1006 38 3500 3.09 320 20:32 27.04.2022
2405 Smoke 34 1006 31 3500 2.57 280 19:36 27.04.2022
2406 Smoke 34 1006 29 3500 3.09 320 18:45 27.04.2022
2407 Smoke 34 1005 31 3500 3.09 320 18:21 27.04.2022
2408 Smoke 34 1004 38 4000 2.57 340 16:21 27.04.2022
2409 Smoke 36 1003 34 6000 5.66 300 13:51 27.04.2022
2410 Smoke 37 1004 47 5000 6.17 310 11:39 27.04.2022
2411 Smoke 37 1004 47 5000 5.66 310 11:18 27.04.2022
2412 Smoke 36 1007 56 5000 5.14 290 08:53 27.04.2022
2413 Smoke 34 1008 38 4000 3.09 10 06:45 27.04.2022
2414 Haze 29 1007 65 4000 0 0 03:30 27.04.2022
2415 Haze 29 1006 70 4000 1.54 300 01:27 27.04.2022
2416 Haze 29 1006 74 4000 2.06 10 00:35 27.04.2022
2417 Haze 30 1006 74 4000 2.57 20 23:25 26.04.2022
2418 Haze 30 1007 70 4000 1.54 300 22:52 26.04.2022
2419 Haze 30 1007 74 4000 2.57 330 22:34 26.04.2022
2420 Haze 30 1007 74 4000 3.09 320 21:26 26.04.2022
2421 Haze 30 1008 74 4000 3.6 290 20:40 26.04.2022
2422 Haze 30 1008 74 4000 3.6 290 20:40 26.04.2022
2423 Haze 30 1008 74 4000 2.57 310 19:48 26.04.2022
2424 Haze 31 1008 70 4000 2.57 310 19:26 26.04.2022
2425 Haze 31 1008 66 4000 1.54 300 18:42 26.04.2022
2426 Haze 31 1007 66 4000 2.57 310 17:50 26.04.2022
2427 Haze 31 1006 70 4500 3.6 300 16:26 26.04.2022
2428 Smoke 32 1005 66 6000 5.66 270 13:58 26.04.2022
2429 Smoke 32 1006 66 6000 6.17 270 13:29 26.04.2022
2430 Smoke 33 1007 55 4000 5.66 270 11:32 26.04.2022
2431 Smoke 34 1008 46 4000 5.14 240 10:31 26.04.2022
2432 Smoke 34 1009 55 4000 5.14 210 08:47 26.04.2022
2433 Smoke 32 1010 55 3000 3.6 210 06:57 26.04.2022
2434 Haze 30 1009 70 3000 3.09 190 04:23 26.04.2022
2435 Haze 29 1006 65 4000 0 0 00:57 26.04.2022
2436 Haze 29 1006 65 4000 0 0 00:20 26.04.2022
2437 Smoke 31 1007 58 4000 2.06 310 22:19 25.04.2022
2438 Haze 30 1008 62 4000 3.09 260 21:33 25.04.2022
2439 Haze 31 1008 58 4000 1.54 310 20:34 25.04.2022
2440 Smoke 31 1008 62 4000 2.06 290 18:54 25.04.2022
2441 Smoke 32 1007 58 4000 2.57 300 17:43 25.04.2022
2442 Smoke 34 1006 40 4000 2.57 290 16:51 25.04.2022
2443 Smoke 35 1004 36 4000 6.17 310 15:23 25.04.2022
2444 Smoke 36 1004 26 4000 5.14 310 14:34 25.04.2022
2445 Smoke 37 1004 28 4000 5.66 310 13:30 25.04.2022
2446 Smoke 37 1005 34 4000 6.69 280 11:37 25.04.2022
2447 Smoke 38 1006 32 4000 6.69 290 10:20 25.04.2022
2448 Smoke 38 1008 20 4000 5.14 280 08:33 25.04.2022
2449 Smoke 34 1009 38 3000 2.06 300 06:27 25.04.2022
2450 Haze 29 1007 70 3000 1.03 0 03:44 25.04.2022
2451 Haze 29 1006 65 3500 2.06 100 00:33 25.04.2022
2452 Haze 29 1006 65 3500 0 0 23:51 24.04.2022
2453 Haze 29 1006 79 3500 3.09 20 22:41 24.04.2022
2454 Haze 30 1007 74 3500 2.57 340 22:18 24.04.2022
2455 Haze 30 1007 70 3500 0 0 21:24 24.04.2022
2456 Haze 30 1008 70 3500 2.06 110 20:48 24.04.2022
2457 Haze 31 1008 66 3500 1.54 330 20:22 24.04.2022
2458 Haze 31 1008 70 3500 0 0 19:19 24.04.2022
2459 Haze 30 1008 79 3500 2.06 350 18:20 24.04.2022
2460 Haze 31 1007 70 3500 2.57 330 17:27 24.04.2022
2461 Haze 30 1007 79 3500 3.6 320 16:58 24.04.2022
2462 Haze 30 1007 79 3500 3.6 310 16:30 24.04.2022
2463 Haze 30 1007 79 3500 3.6 310 16:30 24.04.2022
2464 Haze 31 1006 74 4000 3.6 290 15:53 24.04.2022
2465 Haze 31 1006 74 4000 5.66 270 14:57 24.04.2022
2466 Haze 31 1006 74 4000 5.14 290 13:45 24.04.2022
2467 Haze 31 1006 74 4000 6.17 250 13:23 24.04.2022
2468 Haze 32 1008 70 4000 6.69 240 11:55 24.04.2022
2469 Haze 32 1008 74 4000 6.69 230 11:22 24.04.2022
2470 Smoke 34 1010 59 4000 6.69 230 09:51 24.04.2022
2471 Haze 33 1011 58 3500 4.12 210 08:31 24.04.2022
2472 Haze 32 1011 70 3500 3.09 220 06:18 24.04.2022
2473 Haze 30 1009 79 3000 3.09 130 03:37 24.04.2022
2474 Haze 30 1008 79 3500 2.06 120 01:18 24.04.2022
2475 Haze 30 1008 84 3500 3.09 260 23:55 23.04.2022
2476 Haze 30 1008 84 3500 3.6 250 23:25 23.04.2022
2477 Haze 30 1008 84 3500 3.6 260 22:42 23.04.2022
2478 Haze 30 1008 84 3500 3.09 250 21:49 23.04.2022
2479 Haze 30 1008 84 3500 2.57 220 21:31 23.04.2022
2480 Haze 31 1009 74 3500 2.57 220 20:27 23.04.2022
2481 Haze 31 1009 70 3500 3.09 240 19:21 23.04.2022
2482 Haze 31 1009 66 3500 3.6 250 18:55 23.04.2022
2483 Haze 31 1009 70 3500 2.57 230 18:32 23.04.2022
2484 Haze 31 1008 70 3000 2.57 200 17:48 23.04.2022
2485 Haze 31 1008 70 3000 2.06 260 16:47 23.04.2022
2486 Haze 31 1007 79 3500 4.12 260 15:54 23.04.2022
2487 Haze 32 1006 70 4000 6.17 250 13:33 23.04.2022
2488 Smoke 34 1007 62 4000 4.63 260 11:59 23.04.2022
2489 Haze 34 1008 66 3000 6.17 270 10:40 23.04.2022
2490 Smoke 37 1009 47 3000 4.63 260 08:30 23.04.2022
2491 Haze 33 1009 62 2500 2.06 60 05:45 23.04.2022
2492 Haze 31 1008 79 3000 2.06 100 03:54 23.04.2022
2493 Haze 30 1007 84 3000 2.57 310 00:18 23.04.2022
2494 Haze 31 1007 66 3000 2.06 330 23:25 22.04.2022
2495 Haze 31 1008 62 3000 1.54 200 21:59 22.04.2022
2496 Haze 31 1008 62 3000 1.54 200 21:40 22.04.2022
2497 Haze 31 1009 70 3000 2.06 160 20:44 22.04.2022
2498 Haze 31 1009 70 3000 2.06 160 20:25 22.04.2022
2499 Haze 32 1009 62 3500 4.12 200 19:18 22.04.2022
2500 Smoke 34 1008 43 3500 5.14 170 18:34 22.04.2022
2501 Smoke 34 1007 46 3500 2.06 120 17:34 22.04.2022
2502 Smoke 35 1005 34 3500 4.63 310 16:30 22.04.2022
2503 Smoke 36 1005 30 4000 5.14 330 15:32 22.04.2022
2504 Smoke 36 1004 38 4000 5.66 310 14:41 22.04.2022
2505 Smoke 36 1004 38 4000 6.17 320 13:42 22.04.2022
2506 Smoke 37 1005 41 4000 5.14 290 12:55 22.04.2022
2507 Smoke 37 1005 41 4000 5.14 290 12:55 22.04.2022
2508 Smoke 36 1005 38 4000 5.66 290 11:41 22.04.2022
2509 Smoke 36 1006 46 3500 6.17 270 11:18 22.04.2022
2510 Smoke 36 1006 46 3500 6.17 270 10:47 22.04.2022
2511 Smoke 36 1006 41 3500 7.2 260 10:25 22.04.2022
2512 Smoke 36 1007 41 3000 5.66 280 09:42 22.04.2022
2513 Smoke 37 1008 41 3000 3.6 270 08:49 22.04.2022
2514 Smoke 34 1009 52 3000 2.57 110 06:54 22.04.2022
2515 Haze 30 1006 66 3000 2.57 340 01:41 22.04.2022
2516 Haze 30 1006 79 2500 3.6 340 23:39 21.04.2022
2517 Haze 30 1006 79 3000 4.12 340 22:52 21.04.2022
2518 Haze 30 1007 79 3000 3.09 330 21:49 21.04.2022
2519 Haze 31 1007 66 3000 2.06 310 20:34 21.04.2022
2520 Haze 31 1007 66 3000 2.57 340 19:36 21.04.2022
2521 Haze 31 1006 66 3000 2.06 320 18:32 21.04.2022
2522 Haze 32 1006 62 3000 2.06 310 17:47 21.04.2022
2523 Smoke 33 1005 52 3500 2.57 310 16:24 21.04.2022
2524 Smoke 33 1004 52 3500 4.12 320 15:19 21.04.2022
2525 Smoke 35 1003 43 3500 6.69 310 14:31 21.04.2022
2526 Smoke 38 1003 30 3500 5.14 310 13:22 21.04.2022
2527 Smoke 37 1003 36 3000 6.17 280 12:29 21.04.2022
2528 Smoke 38 1005 27 3500 4.12 300 10:19 21.04.2022
2529 Smoke 38 1007 19 3500 4.12 20 08:53 21.04.2022
2530 Smoke 35 1008 24 3500 2.06 40 06:55 21.04.2022
2531 Smoke 32 1007 40 3500 2.57 260 04:34 21.04.2022
2532 Smoke 31 1006 40 3500 1.54 300 03:24 21.04.2022
2533 Smoke 31 1006 37 3500 1.54 10 02:46 21.04.2022
2534 Smoke 31 1005 40 3500 0 0 00:43 21.04.2022
2535 Smoke 31 1006 37 3500 0 0 23:48 20.04.2022
2536 Smoke 32 1006 31 3500 0 0 23:21 20.04.2022
2537 Smoke 32 1006 29 3500 0 0 22:45 20.04.2022
2538 Smoke 32 1006 29 3500 2.06 350 22:18 20.04.2022
2539 Smoke 32 1007 43 3500 0 0 21:23 20.04.2022
2540 Haze 32 1008 55 3500 2.06 360 20:22 20.04.2022
2541 Haze 32 1008 55 3500 3.09 20 19:51 20.04.2022
2542 Haze 32 1008 58 3500 3.09 330 18:52 20.04.2022
2543 Haze 32 1007 62 3500 3.09 340 17:53 20.04.2022
2544 Haze 33 1006 55 3500 5.14 330 16:40 20.04.2022
2545 Haze 33 1006 58 4000 4.12 330 15:50 20.04.2022
2546 Haze 33 1006 66 5000 6.17 290 13:41 20.04.2022
2547 Haze 33 1007 70 4000 5.14 280 11:43 20.04.2022
2548 Haze 33 1007 66 4000 5.66 290 10:53 20.04.2022
2549 Haze 33 1009 66 4000 4.63 290 09:46 20.04.2022
2550 Haze 32 1010 70 3500 5.66 240 08:59 20.04.2022
2551 Haze 31 1010 74 3500 6.17 260 08:20 20.04.2022
2552 Smoke 32 1010 62 3500 3.09 260 06:49 20.04.2022
2553 Haze 28 1009 83 3000 2.57 80 03:34 20.04.2022
2554 Haze 28 1009 83 3000 0 0 00:22 20.04.2022
2555 Haze 28 1009 83 3000 0 0 23:35 19.04.2022
2556 Haze 28 1010 83 3500 2.06 340 22:24 19.04.2022
2557 Haze 29 1010 79 3500 3.6 350 21:55 19.04.2022
2558 Haze 29 1010 79 3500 2.57 330 21:19 19.04.2022
2559 Haze 29 1010 79 3500 2.06 350 20:41 19.04.2022
2560 Haze 29 1011 74 3500 2.57 350 19:52 19.04.2022
2561 Haze 29 1011 74 3500 2.57 320 18:47 19.04.2022
2562 Haze 30 1010 70 3500 1.54 320 17:32 19.04.2022
2563 Haze 29 1010 74 3500 3.09 310 16:43 19.04.2022
2564 Haze 29 1010 74 4000 4.12 300 16:22 19.04.2022
2565 Haze 30 1009 70 5000 5.14 310 14:48 19.04.2022
2566 Haze 31 1009 66 5000 4.63 290 13:49 19.04.2022
2567 Haze 32 1010 62 5000 5.14 290 12:50 19.04.2022
2568 Smoke 31 1010 58 6000 5.14 260 11:55 19.04.2022
2569 Smoke 32 1012 58 5000 5.66 260 10:25 19.04.2022
2570 Smoke 32 1012 58 5000 5.66 280 09:18 19.04.2022
2571 Haze 28 1012 83 3000 1.03 0 04:56 19.04.2022
2572 Haze 28 1011 83 3000 3.09 50 03:25 19.04.2022
2573 Haze 28 1009 83 3500 2.57 350 00:55 19.04.2022
2574 Haze 28 1009 83 3500 2.57 20 23:30 18.04.2022
2575 Haze 29 1010 74 3500 2.06 30 21:30 18.04.2022
2576 Haze 29 1010 74 3500 2.06 30 21:30 18.04.2022
2577 Haze 29 1010 74 3500 2.57 40 20:55 18.04.2022
2578 Haze 29 1010 74 3500 2.57 360 20:32 18.04.2022
2579 Haze 29 1010 74 3500 2.06 340 19:49 18.04.2022
2580 Haze 29 1010 74 4000 2.06 300 18:56 18.04.2022
2581 Haze 29 1009 74 4000 3.09 310 17:57 18.04.2022
2582 Haze 29 1009 74 4000 3.09 320 17:33 18.04.2022
2583 Haze 30 1009 70 4000 3.6 300 16:55 18.04.2022
2584 Haze 30 1009 66 4000 3.6 310 16:31 18.04.2022
2585 Haze 31 1008 62 5000 5.66 290 14:51 18.04.2022
2586 Smoke 31 1007 62 5000 6.17 260 13:36 18.04.2022
2587 Smoke 32 1008 48 5000 5.14 250 12:30 18.04.2022
2588 Smoke 32 1008 55 5000 6.69 260 11:34 18.04.2022
2589 Haze 32 1009 58 5000 4.63 270 10:31 18.04.2022
2590 Haze 31 1011 62 5000 4.63 240 09:31 18.04.2022
2591 Haze 31 1011 62 4000 3.6 290 07:54 18.04.2022
2592 Haze 29 1011 70 3500 2.57 220 05:41 18.04.2022
2593 Haze 27 1008 83 3500 0 0 00:47 18.04.2022
2594 Haze 28 1008 78 3500 0 0 22:41 17.04.2022
2595 Haze 28 1009 78 3500 2.06 240 21:46 17.04.2022
2596 Haze 29 1009 74 3500 3.09 220 21:24 17.04.2022
2597 Haze 29 1009 74 3500 1.54 230 20:41 17.04.2022
2598 Haze 29 1009 74 3500 2.06 310 19:38 17.04.2022
2599 Haze 29 1008 70 4000 3.6 290 17:48 17.04.2022
2600 Haze 29 1007 70 5000 4.63 300 16:27 17.04.2022
2601 Haze 30 1006 66 5000 6.17 280 15:26 17.04.2022
2602 Clear 31 1005 58 8000 6.17 280 14:19 17.04.2022
2603 Clear 32 1005 55 6000 6.17 260 12:59 17.04.2022
2604 Smoke 33 1006 49 6000 6.17 280 12:27 17.04.2022
2605 Smoke 33 1006 49 6000 6.17 280 12:27 17.04.2022
2606 Smoke 32 1007 58 5000 5.66 260 10:46 17.04.2022
2607 Haze 32 1007 62 5000 5.66 260 10:28 17.04.2022
2608 Haze 32 1008 62 4000 5.14 240 09:37 17.04.2022
2609 Haze 32 1008 62 4000 4.63 220 08:53 17.04.2022
2610 Haze 32 1009 58 4000 4.12 220 07:37 17.04.2022
2611 Haze 27 1008 89 2500 2.57 110 04:30 17.04.2022
2612 Haze 28 1006 78 3500 1.03 0 01:37 17.04.2022
2613 Haze 27 1006 83 3500 1.54 200 23:54 16.04.2022
2614 Haze 28 1006 78 3500 2.06 200 22:39 16.04.2022
2615 Haze 28 1007 83 3500 2.06 210 21:40 16.04.2022
2616 Haze 28 1007 83 3500 2.57 230 20:35 16.04.2022
2617 Haze 28 1007 83 3500 1.54 290 19:18 16.04.2022
2618 Haze 28 1006 83 3500 2.57 300 18:28 16.04.2022
2619 Haze 29 1005 79 4000 3.6 290 16:40 16.04.2022
2620 Haze 30 1004 70 5000 5.14 290 15:46 16.04.2022
2621 Haze 30 1004 70 5000 5.14 270 14:57 16.04.2022
2622 Smoke 31 1004 62 5000 6.17 260 13:58 16.04.2022
2623 Smoke 31 1004 62 5000 5.66 270 13:37 16.04.2022
2624 Smoke 31 1004 62 5000 5.66 270 13:37 16.04.2022
2625 Smoke 32 1005 55 5000 5.66 270 12:27 16.04.2022
2626 Smoke 32 1005 51 5000 6.69 270 11:18 16.04.2022
2627 Smoke 32 1007 51 4000 4.63 260 09:57 16.04.2022
2628 Smoke 32 1007 62 3000 4.63 250 08:59 16.04.2022
2629 Smoke 32 1008 62 3000 4.63 240 08:18 16.04.2022
2630 Smoke 31 1008 58 3000 3.09 240 06:59 16.04.2022
2631 Haze 27 1007 89 3000 2.06 130 03:36 16.04.2022
2632 Haze 27 1006 83 3000 0 0 00:31 16.04.2022
2633 Haze 28 1006 78 3000 1.54 220 23:27 15.04.2022
2634 Haze 28 1006 78 3000 2.06 240 22:37 15.04.2022
2635 Haze 28 1007 78 3000 2.06 250 21:58 15.04.2022
2636 Haze 28 1007 78 3000 2.06 210 21:18 15.04.2022
2637 Haze 29 1008 74 3500 2.06 210 20:27 15.04.2022
2638 Haze 29 1008 74 3500 1.54 300 19:40 15.04.2022
2639 Haze 29 1008 74 3500 2.06 280 18:54 15.04.2022
2640 Haze 29 1007 74 3500 2.06 310 18:25 15.04.2022
2641 Haze 29 1007 74 3500 3.09 300 17:48 15.04.2022
2642 Haze 29 1007 74 3500 3.6 290 17:21 15.04.2022
2643 Haze 30 1006 70 3500 2.57 300 16:23 15.04.2022
2644 Haze 31 1005 66 4000 3.6 320 15:24 15.04.2022
2645 Haze 31 1005 66 5000 6.17 280 13:42 15.04.2022
2646 Haze 31 1005 70 5000 6.69 280 12:43 15.04.2022
2647 Haze 32 1006 66 4000 6.17 260 11:59 15.04.2022
2648 Haze 32 1006 66 4000 5.14 270 11:40 15.04.2022
2649 Haze 33 1007 58 4000 5.66 240 10:45 15.04.2022
2650 Haze 33 1008 62 4000 4.63 270 09:50 15.04.2022
2651 Haze 33 1008 62 4000 4.12 250 09:21 15.04.2022
2652 Haze 32 1009 66 3500 4.12 280 07:53 15.04.2022
2653 Haze 31 1009 70 3500 3.09 240 06:46 15.04.2022
2654 Haze 29 1007 79 3000 3.09 260 03:47 15.04.2022
2655 Haze 29 1007 79 3000 3.09 200 23:32 14.04.2022
2656 Haze 29 1007 79 3000 2.06 210 22:50 14.04.2022
2657 Haze 29 1007 79 3000 2.57 220 22:32 14.04.2022
2658 Haze 29 1008 84 3000 2.06 190 21:59 14.04.2022
2659 Haze 29 1008 84 3000 2.06 240 21:32 14.04.2022
2660 Haze 29 1007 84 3500 3.09 220 19:24 14.04.2022
2661 Haze 29 1007 84 3500 3.09 230 18:31 14.04.2022
2662 Haze 29 1006 84 3500 3.09 230 17:44 14.04.2022
2663 Haze 30 1006 79 3500 3.6 240 16:49 14.04.2022
2664 Haze 30 1005 79 3500 3.6 260 15:48 14.04.2022
2665 Haze 32 1004 66 5000 5.14 270 13:49 14.04.2022
2666 Haze 32 1005 70 5000 5.14 270 13:18 14.04.2022
2667 Haze 32 1005 70 5000 5.66 270 12:32 14.04.2022
2668 Haze 32 1005 62 5000 4.12 220 11:36 14.04.2022
2669 Haze 32 1006 66 5000 4.12 260 10:57 14.04.2022
2670 Haze 32 1007 70 5000 5.66 240 10:29 14.04.2022
2671 Haze 32 1007 70 5000 5.14 260 09:26 14.04.2022
2672 Haze 32 1008 70 4000 3.09 230 07:52 14.04.2022
2673 Haze 30 1008 74 5000 1.54 240 05:23 14.04.2022
2674 Haze 29 1005 74 3000 2.06 270 23:50 13.04.2022
2675 Haze 30 1005 70 3000 2.06 290 22:29 13.04.2022
2676 Haze 30 1005 70 3000 2.06 300 21:42 13.04.2022
2677 Haze 30 1006 70 3000 2.57 310 20:35 13.04.2022
2678 Haze 31 1006 66 3000 2.06 310 19:46 13.04.2022
2679 Haze 31 1005 58 3000 1.54 290 18:36 13.04.2022
2680 Smoke 31 1005 58 3000 2.06 300 17:24 13.04.2022
2681 Smoke 31 1004 58 3000 2.57 310 16:49 13.04.2022
2682 Smoke 32 1004 55 4000 4.63 320 15:44 13.04.2022
2683 Smoke 32 1003 51 4000 4.63 320 15:23 13.04.2022
2684 Smoke 33 1003 46 4000 5.66 300 14:34 13.04.2022
2685 Smoke 34 1003 40 5000 6.17 300 13:37 13.04.2022
2686 Smoke 36 1003 30 5000 6.17 320 12:45 13.04.2022
2687 Smoke 34 1004 55 4000 5.66 270 11:25 13.04.2022
2688 Smoke 34 1005 52 4000 6.17 260 10:27 13.04.2022
2689 Smoke 35 1006 43 4000 5.14 250 08:45 13.04.2022
2690 Smoke 35 1007 29 4000 4.12 270 07:44 13.04.2022
2691 Smoke 34 1007 31 3500 2.06 40 06:47 13.04.2022
2692 Smoke 33 1007 38 3500 1.54 350 06:23 13.04.2022
2693 Haze 28 1004 78 3500 1.54 10 00:52 13.04.2022
2694 Haze 29 1004 74 3500 0 0 00:19 13.04.2022
2695 Haze 29 1005 74 3500 0 0 22:33 12.04.2022
2696 Haze 29 1006 74 3500 1.54 320 21:51 12.04.2022
2697 Haze 30 1006 70 3500 2.57 300 20:48 12.04.2022
2698 Haze 30 1006 70 3500 3.09 310 20:19 12.04.2022
2699 Haze 30 1006 70 3500 2.06 330 19:40 12.04.2022
2700 Haze 30 1006 74 3500 3.09 310 18:53 12.04.2022
2701 Haze 30 1006 74 3500 2.06 300 17:38 12.04.2022
2702 Haze 31 1005 62 4000 3.09 290 16:46 12.04.2022
2703 Smoke 32 1004 51 4000 5.66 320 15:34 12.04.2022
2704 Smoke 32 1004 55 4000 4.12 290 14:48 12.04.2022
2705 Smoke 33 1003 46 5000 5.66 310 13:45 12.04.2022
2706 Smoke 34 1004 40 5000 6.17 290 13:24 12.04.2022
2707 Smoke 34 1004 43 5000 7.72 280 12:18 12.04.2022
2708 Smoke 34 1005 49 5000 6.17 290 11:35 12.04.2022
2709 Smoke 33 1007 55 4000 4.63 250 09:47 12.04.2022
2710 Smoke 34 1007 49 4000 5.14 260 08:49 12.04.2022
2711 Smoke 33 1008 33 4000 2.57 330 06:47 12.04.2022
2712 Smoke 31 1008 45 3500 0 0 05:40 12.04.2022
2713 Haze 28 1006 74 3000 1.54 120 02:37 12.04.2022
2714 Haze 29 1006 65 3500 0 0 23:24 11.04.2022
2715 Haze 29 1007 65 3500 0 0 22:32 11.04.2022
2716 Haze 29 1007 65 3500 0 0 21:22 11.04.2022
2717 Haze 29 1008 65 3500 0 0 20:35 11.04.2022
2718 Haze 30 1008 62 3500 2.06 310 19:59 11.04.2022
2719 Haze 29 1008 70 3500 0 0 19:27 11.04.2022
2720 Haze 29 1008 70 3500 0 0 18:54 11.04.2022
2721 Haze 29 1008 74 3500 2.57 320 17:58 11.04.2022
2722 Haze 29 1007 79 3500 2.57 320 17:39 11.04.2022
2723 Haze 30 1007 74 3500 3.6 290 16:36 11.04.2022
2724 Haze 31 1006 62 5000 4.63 300 14:59 11.04.2022
2725 Smoke 31 1005 55 5000 5.66 270 13:36 11.04.2022
2726 Smoke 32 1005 45 5000 6.69 260 12:40 11.04.2022
2727 Smoke 33 1005 33 5000 6.17 270 12:21 11.04.2022
2728 Smoke 33 1007 43 4000 5.66 260 10:41 11.04.2022
2729 Smoke 33 1008 52 4000 5.66 270 09:57 11.04.2022
2730 Smoke 34 1009 55 3500 4.12 260 08:22 11.04.2022
2731 Haze 29 1009 84 2500 2.06 120 04:56 11.04.2022
2732 Haze 29 1007 79 3500 2.06 230 23:55 10.04.2022
2733 Haze 28 1008 83 3500 2.57 220 22:27 10.04.2022
2734 Haze 29 1008 79 3500 2.06 180 21:52 10.04.2022
2735 Haze 29 1008 79 3500 2.06 210 20:52 10.04.2022
2736 Haze 29 1009 79 3500 2.57 210 19:58 10.04.2022
2737 Haze 29 1009 79 3500 2.57 210 19:34 10.04.2022
2738 Haze 29 1009 79 3500 3.09 240 18:50 10.04.2022
2739 Haze 29 1009 79 3500 3.09 240 18:25 10.04.2022
2740 Haze 30 1008 74 3500 2.57 250 17:43 10.04.2022
2741 Haze 29 1008 79 3500 3.6 270 16:57 10.04.2022
2742 Haze 29 1007 84 4000 5.14 280 15:38 10.04.2022
2743 Haze 30 1006 79 5000 5.14 290 14:41 10.04.2022
2744 Haze 31 1006 74 5000 6.69 250 13:22 10.04.2022
2745 Haze 32 1007 70 4000 5.14 250 12:27 10.04.2022
2746 Haze 32 1007 66 3500 5.66 250 11:38 10.04.2022
2747 Haze 32 1008 66 3500 5.14 250 10:59 10.04.2022
2748 Haze 32 1008 70 3000 5.66 250 10:27 10.04.2022
2749 Haze 33 1009 62 3000 5.14 250 09:41 10.04.2022
2750 Haze 32 1010 70 3000 4.63 210 08:26 10.04.2022
2751 Haze 32 1010 70 3000 3.6 220 07:56 10.04.2022
2752 Haze 31 1011 74 2500 2.57 180 06:59 10.04.2022
2753 Haze 29 1009 84 2500 3.09 220 03:36 10.04.2022
2754 Haze 29 1009 84 2500 3.09 220 03:36 10.04.2022
2755 Haze 29 1008 84 3000 2.57 240 02:18 10.04.2022
2756 Haze 29 1007 84 3000 3.09 230 23:53 09.04.2022
2757 Haze 29 1008 84 3000 2.06 250 22:54 09.04.2022
2758 Haze 29 1008 84 3000 2.57 240 22:24 09.04.2022
2759 Haze 29 1008 84 3000 3.09 240 21:18 09.04.2022
2760 Haze 29 1009 84 3000 3.09 250 20:27 09.04.2022
2761 Haze 29 1009 84 3000 3.6 240 19:49 09.04.2022
2762 Haze 29 1009 84 3000 3.09 240 19:30 09.04.2022
2763 Haze 29 1008 84 3000 3.6 240 18:23 09.04.2022
2764 Haze 30 1008 74 3000 3.6 240 17:43 09.04.2022
2765 Haze 30 1008 84 3000 4.63 220 16:56 09.04.2022
2766 Haze 30 1008 84 3500 4.12 250 16:29 09.04.2022
2767 Haze 30 1007 79 3500 4.63 240 15:48 09.04.2022
2768 Haze 30 1007 79 4000 4.63 220 15:25 09.04.2022
2769 Haze 31 1007 74 4000 5.14 240 14:25 09.04.2022
2770 Haze 31 1007 74 5000 6.17 220 13:24 09.04.2022
2771 Haze 32 1007 70 5000 6.17 260 12:53 09.04.2022
2772 Haze 32 1007 70 5000 6.17 260 11:44 09.04.2022
2773 Smoke 33 1008 66 4000 6.17 240 10:41 09.04.2022
2774 Haze 33 1008 62 3500 5.66 250 10:18 09.04.2022
2775 Smoke 33 1009 66 3500 6.17 250 09:21 09.04.2022
2776 Haze 32 1010 66 3000 3.09 180 07:49 09.04.2022
2777 Haze 29 1009 84 3000 2.57 110 03:57 09.04.2022
2778 Haze 29 1007 79 3000 2.06 160 00:33 09.04.2022
2779 Haze 29 1008 84 3000 3.09 220 23:20 08.04.2022
2780 Haze 29 1008 84 3000 2.57 220 21:42 08.04.2022
2781 Haze 29 1009 84 3000 4.12 230 20:41 08.04.2022
2782 Haze 29 1009 84 3000 2.57 230 19:46 08.04.2022
2783 Haze 29 1009 84 3000 4.12 190 18:42 08.04.2022
2784 Haze 29 1009 84 3000 4.63 200 18:18 08.04.2022
2785 Haze 29 1008 84 3500 3.09 220 17:27 08.04.2022
2786 Haze 29 1008 84 3500 3.09 230 16:52 08.04.2022
2787 Haze 29 1008 84 3500 3.09 210 16:22 08.04.2022
2788 Haze 30 1007 79 3500 4.63 270 15:28 08.04.2022
2789 Haze 30 1006 79 3500 6.17 240 14:45 08.04.2022
2790 Haze 31 1006 74 3500 5.66 260 13:59 08.04.2022
2791 Haze 31 1006 74 3500 6.69 280 13:30 08.04.2022
2792 Haze 32 1006 70 3500 5.14 280 12:45 08.04.2022
2793 Haze 32 1007 70 3500 5.14 270 11:26 08.04.2022
2794 Haze 33 1009 66 3000 4.63 270 09:57 08.04.2022
2795 Haze 33 1009 66 2500 4.63 280 08:59 08.04.2022
2796 Haze 34 1010 59 2500 4.12 260 07:43 08.04.2022
2797 Haze 32 1011 70 2500 2.57 240 06:45 08.04.2022
2798 Haze 28 1009 89 3000 2.57 120 02:53 08.04.2022
2799 Haze 28 1008 89 3000 2.57 90 00:30 08.04.2022
2800 Haze 28 1008 89 3000 3.09 330 23:43 07.04.2022
2801 Haze 28 1008 89 3000 2.57 290 22:44 07.04.2022
2802 Haze 28 1008 89 3000 2.57 290 22:23 07.04.2022
2803 Haze 28 1009 89 3000 3.09 300 21:58 07.04.2022
2804 Haze 28 1009 94 3000 2.06 280 21:30 07.04.2022
2805 Haze 29 1009 84 3000 2.57 250 20:46 07.04.2022
2806 Haze 29 1010 84 3000 2.06 250 20:20 07.04.2022
2807 Haze 29 1009 89 3500 2.57 270 17:43 07.04.2022
2808 Haze 29 1009 89 3500 2.57 270 17:22 07.04.2022
2809 Haze 29 1009 89 3500 3.6 270 16:34 07.04.2022
2810 Haze 30 1008 84 3500 4.12 270 15:47 07.04.2022
2811 Haze 31 1008 70 5000 5.66 270 13:54 07.04.2022
2812 Smoke 31 1008 66 5000 5.14 270 13:24 07.04.2022
2813 Smoke 31 1008 66 5000 5.14 270 13:24 07.04.2022
2814 Haze 32 1008 58 4000 4.12 230 11:53 07.04.2022
2815 Haze 32 1009 58 3000 3.6 220 10:54 07.04.2022
2816 Haze 33 1011 66 2500 4.12 270 09:19 07.04.2022
2817 Haze 31 1012 70 2200 2.57 230 06:59 07.04.2022
2818 Haze 29 1012 84 2200 2.06 90 05:28 07.04.2022
2819 Haze 27 1010 89 3000 0 0 02:37 07.04.2022
2820 Haze 27 1010 89 3000 0 0 00:43 07.04.2022
2821 Haze 28 1010 89 3000 2.57 230 23:36 06.04.2022
2822 Haze 28 1011 89 3000 2.57 260 22:45 06.04.2022
2823 Haze 28 1011 89 3000 2.57 250 22:20 06.04.2022
2824 Haze 28 1012 89 3000 3.09 270 20:50 06.04.2022
2825 Haze 28 1012 89 3000 2.57 250 20:26 06.04.2022
2826 Haze 29 1012 84 3000 1.54 280 19:44 06.04.2022
2827 Haze 29 1011 84 3000 0 0 18:48 06.04.2022
2828 Haze 29 1011 84 3000 2.57 310 17:36 06.04.2022
2829 Haze 29 1010 79 3000 3.09 290 16:58 06.04.2022
2830 Haze 29 1010 84 3500 2.57 300 16:34 06.04.2022
2831 Haze 29 1010 84 4000 5.14 310 15:44 06.04.2022
2832 Haze 31 1009 70 4000 4.63 310 13:53 06.04.2022
2833 Haze 31 1009 70 5000 5.14 290 12:37 06.04.2022
2834 Haze 32 1010 66 4000 5.14 270 11:44 06.04.2022
2835 Smoke 32 1012 66 4000 6.17 250 10:37 06.04.2022
2836 Smoke 32 1012 66 4000 6.17 250 10:18 06.04.2022
2837 Smoke 32 1013 66 4000 4.63 240 09:25 06.04.2022
2838 Haze 32 1013 66 3500 3.6 200 08:25 06.04.2022
2839 Haze 31 1014 70 3000 3.09 220 06:45 06.04.2022
2840 Haze 29 1011 79 3000 1.54 190 01:44 06.04.2022
2841 Haze 29 1011 84 3000 2.06 210 23:50 05.04.2022
2842 Haze 29 1012 84 3500 3.09 200 21:59 05.04.2022
2843 Haze 29 1012 84 3500 0 0 21:18 05.04.2022
2844 Haze 29 1012 84 3500 2.06 230 20:24 05.04.2022
2845 Haze 29 1012 84 3500 2.57 230 18:45 05.04.2022
2846 Haze 29 1011 84 3500 2.06 260 17:30 05.04.2022
2847 Haze 29 1011 84 3500 2.57 290 16:44 05.04.2022
2848 Haze 29 1010 84 3500 4.63 260 15:52 05.04.2022
2849 Haze 30 1009 79 3500 4.63 280 15:31 05.04.2022
2850 Haze 31 1009 74 4000 5.14 280 13:59 05.04.2022
2851 Haze 31 1009 74 4000 4.63 280 12:41 05.04.2022
2852 Haze 32 1010 66 3500 5.66 260 11:43 05.04.2022
2853 Haze 32 1010 66 3500 5.66 260 11:25 05.04.2022
2854 Haze 32 1012 70 3000 3.09 300 09:41 05.04.2022
2855 Haze 32 1012 70 3000 4.12 270 08:51 05.04.2022
2856 Haze 29 1013 84 2500 3.09 190 05:28 05.04.2022
2857 Haze 28 1010 83 3000 2.06 250 23:51 04.04.2022
2858 Haze 28 1010 89 3500 2.06 230 22:41 04.04.2022
2859 Haze 28 1011 83 3500 1.54 210 21:52 04.04.2022
2860 Haze 29 1011 84 3500 3.09 210 21:21 04.04.2022
2861 Haze 29 1011 84 3500 3.09 210 20:48 04.04.2022
2862 Haze 29 1011 79 3500 2.57 220 19:39 04.04.2022
2863 Haze 29 1011 79 3500 2.57 230 18:59 04.04.2022
2864 Haze 29 1010 84 3500 3.09 230 17:54 04.04.2022
2865 Haze 29 1010 79 4000 3.6 270 16:36 04.04.2022
2866 Haze 29 1009 79 4500 4.12 260 15:34 04.04.2022
2867 Haze 30 1008 74 5000 5.14 260 14:58 04.04.2022
2868 Haze 30 1008 74 5000 5.14 250 14:40 04.04.2022
2869 Haze 30 1008 74 5000 5.14 270 13:21 04.04.2022
2870 Haze 31 1008 66 5000 6.17 240 11:49 04.04.2022
2871 Haze 31 1008 62 4000 5.14 230 11:28 04.04.2022
2872 Smoke 32 1010 66 3000 4.12 270 08:29 04.04.2022
2873 Haze 27 1009 83 3000 2.57 130 03:52 04.04.2022
2874 Haze 28 1008 78 3000 2.06 280 00:26 04.04.2022
2875 Haze 28 1009 83 3500 2.57 250 22:33 03.04.2022
2876 Haze 28 1009 83 3500 0 0 21:44 03.04.2022
2877 Haze 28 1009 78 3500 2.57 260 20:53 03.04.2022
2878 Haze 28 1009 78 3500 2.57 260 19:45 03.04.2022
2879 Haze 28 1009 78 3500 4.12 280 18:31 03.04.2022
2880 Haze 29 1009 74 3500 3.6 280 17:47 03.04.2022
2881 Haze 29 1008 70 3500 3.09 290 16:57 03.04.2022
2882 Haze 29 1008 70 3500 3.09 290 16:39 03.04.2022
2883 Smoke 31 1007 55 5000 5.66 290 14:39 03.04.2022
2884 Smoke 32 1007 45 5000 5.14 300 13:51 03.04.2022
2885 Smoke 32 1007 40 5000 6.17 290 12:41 03.04.2022
2886 Smoke 33 1008 38 4000 6.17 260 10:58 03.04.2022
2887 Smoke 32 1010 55 3500 5.14 260 09:38 03.04.2022
2888 Haze 31 1011 62 3500 4.12 230 08:33 03.04.2022
2889 Haze 27 1011 78 3000 2.06 140 04:42 03.04.2022
2890 Haze 27 1009 78 3000 1.54 20 01:53 03.04.2022
2891 Haze 27 1009 78 3500 2.06 320 23:21 02.04.2022
2892 Haze 27 1009 78 3500 2.06 290 22:18 02.04.2022
2893 Haze 27 1010 78 3500 2.57 250 21:46 02.04.2022
2894 Haze 28 1010 74 3500 3.09 250 21:18 02.04.2022
2895 Haze 28 1011 74 3500 1.54 0 19:54 02.04.2022
2896 Haze 28 1011 69 4000 2.57 250 18:23 02.04.2022
2897 Haze 28 1011 65 4000 2.57 240 17:53 02.04.2022
2898 Haze 29 1010 61 4000 3.6 270 16:29 02.04.2022
2899 Smoke 29 1009 61 4500 5.14 250 15:22 02.04.2022
2900 Smoke 30 1009 54 4000 5.14 260 14:51 02.04.2022
2901 Smoke 30 1008 54 4000 5.66 260 13:51 02.04.2022
2902 Smoke 30 1008 51 4000 5.14 280 13:19 02.04.2022
2903 Haze 31 1010 66 4000 5.14 260 11:33 02.04.2022
2904 Smoke 30 1011 66 3000 3.6 270 09:31 02.04.2022
2905 Haze 29 1012 70 2500 3.09 160 06:56 02.04.2022
2906 Haze 27 1010 78 2500 2.57 30 03:55 02.04.2022
2907 Haze 26 1008 89 3000 2.57 260 00:25 02.04.2022
2908 Haze 26 1008 89 3000 1.54 240 23:45 01.04.2022
2909 Haze 27 1010 89 3000 3.09 250 21:55 01.04.2022
2910 Haze 27 1010 89 3000 2.57 260 20:54 01.04.2022
2911 Haze 27 1010 89 3000 0 0 20:31 01.04.2022
2912 Haze 27 1010 89 3000 2.06 240 19:38 01.04.2022
2913 Haze 28 1010 78 3000 2.06 260 18:54 01.04.2022
2914 Haze 28 1010 78 3000 2.57 290 18:23 01.04.2022
2915 Haze 28 1009 78 3500 3.6 270 17:35 01.04.2022
2916 Haze 29 1008 74 3500 4.12 290 15:44 01.04.2022
2917 Smoke 30 1007 66 4000 5.66 270 14:39 01.04.2022
2918 Smoke 31 1007 58 3500 6.17 270 13:36 01.04.2022
2919 Smoke 33 1007 46 3500 4.63 270 12:33 01.04.2022
2920 Smoke 32 1007 48 3500 4.63 280 11:45 01.04.2022
2921 Smoke 32 1008 48 3500 6.69 260 10:34 01.04.2022
2922 Smoke 32 1010 48 3000 6.69 250 09:30 01.04.2022
2923 Smoke 32 1011 40 2500 3.09 290 07:19 01.04.2022
2924 Haze 26 1010 78 2100 0 0 04:56 01.04.2022
2925 Haze 26 1010 78 2100 0 0 04:37 01.04.2022
2926 Haze 25 1008 83 3000 0 0 02:19 01.04.2022
2927 Haze 25 1008 78 3000 0 0 00:46 01.04.2022
2928 Haze 27 1009 83 3000 2.57 360 22:23 31.03.2022
2929 Haze 27 1009 83 3000 2.57 10 21:37 31.03.2022
2930 Haze 27 1010 83 3000 0 0 20:50 31.03.2022
2931 Haze 27 1010 83 3000 1.54 300 20:28 31.03.2022
2932 Haze 28 1010 78 3000 3.09 290 19:18 31.03.2022
2933 Haze 28 1010 78 3000 2.06 290 18:31 31.03.2022
2934 Haze 28 1009 74 3500 2.06 270 16:46 31.03.2022
2935 Haze 29 1008 65 3500 2.57 270 15:54 31.03.2022
2936 Haze 29 1008 65 3500 4.12 270 15:23 31.03.2022
2937 Smoke 30 1008 62 4000 3.6 290 14:44 31.03.2022
2938 Smoke 32 1008 48 4000 5.66 260 13:28 31.03.2022
2939 Smoke 32 1008 48 4000 4.63 250 11:30 31.03.2022
2940 Haze 31 1009 62 3500 5.66 270 10:22 31.03.2022
2941 Haze 31 1010 70 3000 4.12 260 09:19 31.03.2022
2942 Haze 31 1011 70 2500 4.63 260 07:48 31.03.2022
2943 Haze 26 1008 89 3000 0 0 01:37 31.03.2022
2944 Haze 27 1008 89 3000 0 0 23:24 30.03.2022
2945 Haze 28 1009 83 3000 2.06 110 21:55 30.03.2022
2946 Haze 28 1009 83 3000 2.06 120 21:30 30.03.2022
2947 Haze 28 1009 89 3000 2.57 180 20:37 30.03.2022
2948 Haze 28 1009 89 3000 2.57 250 19:47 30.03.2022
2949 Haze 28 1009 89 3000 2.57 290 18:41 30.03.2022
2950 Smoke 29 1008 79 3000 4.12 280 17:51 30.03.2022
2951 Smoke 29 1008 74 4000 3.09 290 16:59 30.03.2022
2952 Smoke 30 1008 70 4000 3.09 280 16:39 30.03.2022
2953 Smoke 30 1007 58 4000 4.12 280 15:47 30.03.2022
2954 Smoke 31 1007 66 5000 6.17 260 14:35 30.03.2022
2955 Smoke 32 1007 58 5000 5.66 260 13:21 30.03.2022
2956 Smoke 33 1007 49 5000 5.14 270 12:22 30.03.2022
2957 Smoke 32 1008 58 5000 6.17 250 10:48 30.03.2022
2958 Smoke 32 1009 58 4000 5.66 270 09:43 30.03.2022
2959 Smoke 33 1010 52 4000 5.14 270 08:20 30.03.2022
2960 Smoke 32 1010 51 3000 3.09 260 06:50 30.03.2022
2961 Haze 29 1010 61 3000 0 0 05:40 30.03.2022
2962 Haze 27 1007 78 3000 1.54 150 01:48 30.03.2022
2963 Haze 28 1008 83 3000 0 0 22:39 29.03.2022
2964 Haze 28 1008 83 3000 2.06 310 21:48 29.03.2022
2965 Haze 28 1008 83 3000 1.54 300 21:20 29.03.2022
2966 Haze 28 1009 89 3000 4.12 300 20:25 29.03.2022
2967 Haze 29 1009 84 3000 2.57 300 19:31 29.03.2022
2968 Haze 29 1009 84 3000 3.09 310 18:53 29.03.2022
2969 Haze 30 1008 74 3000 3.09 290 17:48 29.03.2022
2970 Haze 30 1008 66 3000 3.6 270 17:18 29.03.2022
2971 Smoke 31 1007 48 4000 2.57 290 16:52 29.03.2022
2972 Smoke 33 1007 35 5000 4.63 300 15:20 29.03.2022
2973 Smoke 35 1006 34 5000 5.14 310 14:43 29.03.2022
2974 Smoke 36 1006 24 5000 4.63 310 13:34 29.03.2022
2975 Smoke 36 1007 30 4000 4.63 300 12:21 29.03.2022
2976 Smoke 34 1008 52 3500 5.14 250 10:59 29.03.2022
2977 Smoke 33 1009 52 3000 4.63 290 09:51 29.03.2022
2978 Haze 32 1010 66 2500 5.14 260 08:43 29.03.2022
2979 Haze 30 1010 70 2100 2.57 260 06:21 29.03.2022
2980 Haze 27 1008 78 3000 0 0 02:27 29.03.2022
2981 Haze 28 1008 78 3000 0 0 23:26 28.03.2022
2982 Haze 28 1008 78 3000 0 0 23:26 28.03.2022
2983 Haze 28 1008 78 3000 1.54 340 22:57 28.03.2022
2984 Haze 28 1009 83 3000 2.06 300 22:31 28.03.2022
2985 Haze 28 1009 83 3000 1.54 310 21:38 28.03.2022
2986 Haze 29 1010 84 3000 2.06 300 20:32 28.03.2022
2987 Haze 29 1010 84 3000 2.06 310 19:48 28.03.2022
2988 Haze 29 1010 84 3000 3.09 280 19:30 28.03.2022
2989 Haze 29 1010 79 3500 2.06 270 18:50 28.03.2022
2990 Haze 29 1009 79 3500 2.57 300 17:41 28.03.2022
2991 Haze 30 1009 70 4000 3.09 290 16:48 28.03.2022
2992 Smoke 32 1007 55 5000 4.63 300 14:56 28.03.2022
2993 Smoke 32 1007 55 5000 6.17 280 14:23 28.03.2022
2994 Haze 32 1007 62 4000 6.17 290 13:18 28.03.2022
2995 Haze 31 1008 70 4000 5.14 280 11:52 28.03.2022
2996 Haze 32 1009 70 3000 5.14 250 09:55 28.03.2022
2997 Haze 32 1010 70 3000 5.14 250 09:21 28.03.2022
2998 Smoke 32 1011 66 3000 4.12 280 08:23 28.03.2022
2999 Smoke 33 1012 58 3000 4.12 270 07:59 28.03.2022
3000 Haze 30 1012 74 2500 1.54 280 06:30 28.03.2022
3001 Haze 27 1009 89 3000 1.54 270 00:30 28.03.2022
3002 Haze 28 1010 89 3500 3.09 250 22:35 27.03.2022
3003 Haze 28 1011 89 3500 1.54 270 21:43 27.03.2022
3004 Haze 28 1011 89 3500 2.57 260 21:18 27.03.2022
3005 Haze 28 1012 89 3500 3.09 240 20:21 27.03.2022
3006 Haze 28 1012 89 3500 3.09 240 19:37 27.03.2022
3007 Haze 28 1011 89 3500 2.06 250 18:42 27.03.2022
3008 Haze 28 1011 89 3500 2.06 280 18:23 27.03.2022
3009 Haze 28 1011 89 3500 2.57 290 17:35 27.03.2022
3010 Haze 29 1009 74 3500 3.09 300 15:47 27.03.2022
3011 Smoke 31 1008 62 5000 5.66 290 13:57 27.03.2022
3012 Smoke 31 1008 58 5000 6.17 280 13:20 27.03.2022
3013 Smoke 32 1009 55 5000 6.17 270 11:33 27.03.2022
3014 Smoke 32 1011 62 3500 4.12 280 09:37 27.03.2022
3015 Haze 30 1013 66 3000 2.06 260 06:58 27.03.2022
3016 Haze 27 1011 83 3000 0 0 03:45 27.03.2022
3017 Haze 27 1010 83 3000 1.54 230 00:26 27.03.2022
3018 Haze 27 1010 83 3000 2.57 250 22:49 26.03.2022
3019 Haze 27 1010 89 3000 0 0 21:54 26.03.2022
3020 Haze 27 1011 83 3000 1.54 220 21:29 26.03.2022
3021 Haze 28 1012 83 3500 1.54 220 19:32 26.03.2022
3022 Haze 28 1012 83 3500 2.57 210 18:40 26.03.2022
3023 Haze 28 1012 83 3500 2.06 230 17:34 26.03.2022
3024 Haze 28 1011 83 4000 3.09 260 16:33 26.03.2022
3025 Haze 28 1010 83 4000 4.12 250 15:39 26.03.2022
3026 Smoke 30 1009 54 5000 6.17 270 13:56 26.03.2022
3027 Smoke 30 1009 48 5000 6.17 290 13:20 26.03.2022
3028 Smoke 30 1008 62 3500 6.17 280 11:48 26.03.2022
3029 Haze 32 1008 62 3500 5.14 270 10:48 26.03.2022
3030 Haze 32 1010 66 3000 4.63 250 08:48 26.03.2022
3031 Haze 31 1012 66 3000 2.57 260 06:38 26.03.2022
3032 Haze 29 1012 74 3000 2.57 270 05:29 26.03.2022
3033 Haze 28 1009 78 3000 2.06 280 00:54 26.03.2022
3034 Haze 28 1009 74 3000 2.06 240 22:21 25.03.2022
3035 Haze 28 1010 74 3500 1.54 240 20:57 25.03.2022
3036 Haze 28 1010 69 3500 2.06 150 20:24 25.03.2022
3037 Haze 29 1010 61 3500 1.54 220 19:18 25.03.2022
3038 Smoke 29 1011 61 3500 2.06 240 18:22 25.03.2022
3039 Smoke 29 1010 58 4000 2.06 240 17:28 25.03.2022
3040 Smoke 29 1010 54 4000 2.57 230 16:27 25.03.2022
3041 Smoke 29 1009 54 4000 2.57 260 15:26 25.03.2022
3042 Smoke 30 1007 54 5000 4.12 280 13:28 25.03.2022
3043 Smoke 31 1007 48 4000 4.63 280 10:49 25.03.2022
3044 Smoke 31 1008 51 3000 5.14 260 09:28 25.03.2022
3045 Smoke 31 1009 51 3000 5.14 280 08:43 25.03.2022
3046 Smoke 31 1009 58 3000 5.14 270 07:32 25.03.2022
3047 Smoke 31 1009 62 3000 2.06 260 06:29 25.03.2022
3048 Haze 27 1007 61 3000 0 0 02:28 25.03.2022
3049 Haze 28 1007 61 3000 0 0 22:56 24.03.2022
3050 Haze 28 1007 61 3000 2.06 340 21:56 24.03.2022
3051 Haze 28 1008 61 3000 3.09 290 20:45 24.03.2022
3052 Smoke 28 1008 61 3000 2.57 260 19:49 24.03.2022
3053 Smoke 28 1008 61 3000 2.57 260 19:49 24.03.2022
3054 Smoke 30 1008 42 3000 2.57 270 18:34 24.03.2022
3055 Smoke 30 1008 42 3000 2.57 260 17:32 24.03.2022
3056 Smoke 30 1007 45 3000 2.57 260 15:56 24.03.2022
3057 Smoke 30 1006 48 3000 3.09 250 14:51 24.03.2022
3058 Smoke 30 1006 48 3000 3.6 260 14:21 24.03.2022
3059 Smoke 31 1005 40 3000 3.09 260 13:31 24.03.2022
3060 Smoke 31 1005 40 3000 3.6 250 12:23 24.03.2022
3061 Smoke 31 1006 58 3000 5.14 220 10:32 24.03.2022
3062 Smoke 32 1006 55 3000 5.66 240 09:23 24.03.2022
3063 Smoke 34 1008 33 3000 2.57 260 07:42 24.03.2022
3064 Haze 29 1008 61 3000 0 0 04:43 24.03.2022
3065 Haze 28 1005 65 3000 2.57 260 23:38 23.03.2022
3066 Haze 29 1006 61 3000 0 0 22:18 23.03.2022
3067 Haze 29 1007 65 3000 3.6 250 21:20 23.03.2022
3068 Smoke 31 1007 33 3000 3.09 220 19:51 23.03.2022
3069 Smoke 31 1007 30 3000 2.06 170 19:25 23.03.2022
3070 Smoke 33 1007 22 3000 2.57 40 17:47 23.03.2022
3071 Smoke 33 1006 24 3000 5.14 340 16:55 23.03.2022
3072 Smoke 32 1005 31 3000 2.57 110 15:21 23.03.2022
3073 Smoke 32 1005 31 3000 4.63 340 14:41 23.03.2022
3074 Smoke 33 1004 29 3500 7.2 320 13:30 23.03.2022
3075 Smoke 35 1004 29 4000 8.23 280 10:37 23.03.2022
3076 Smoke 37 1008 12 4000 2.57 310 07:56 23.03.2022
3077 Smoke 34 1009 17 3500 1.54 0 05:40 23.03.2022
3078 Smoke 27 1006 39 3000 0 0 01:41 23.03.2022
3079 Smoke 28 1006 42 3000 1.54 310 00:24 23.03.2022
3080 Smoke 28 1007 54 3000 2.57 320 21:33 22.03.2022
3081 Smoke 29 1007 51 3000 2.06 320 20:55 22.03.2022
3082 Smoke 30 1007 39 3000 2.06 360 19:56 22.03.2022
3083 Smoke 30 1007 35 3000 3.09 330 19:25 22.03.2022
3084 Smoke 31 1008 29 3000 0 0 18:45 22.03.2022
3085 Smoke 32 1007 23 3000 2.57 20 17:42 22.03.2022
3086 Smoke 32 1006 27 3000 4.12 10 16:35 22.03.2022
3087 Smoke 32 1006 33 3000 2.57 40 15:37 22.03.2022
3088 Smoke 32 1006 33 3000 1.54 340 15:18 22.03.2022
3089 Smoke 32 1005 37 3500 2.06 330 14:41 22.03.2022
3090 Smoke 33 1005 38 3500 5.14 320 13:37 22.03.2022
3091 Smoke 33 1005 40 3500 6.17 290 11:52 22.03.2022
3092 Smoke 34 1005 36 3500 5.14 280 10:53 22.03.2022
3093 Smoke 33 1008 31 3500 3.09 290 08:43 22.03.2022
3094 Smoke 32 1009 31 3500 2.06 280 07:21 22.03.2022
3095 Smoke 28 1008 47 3000 2.06 150 03:55 22.03.2022
3096 Smoke 27 1006 57 3000 1.54 40 00:46 22.03.2022
3097 Smoke 28 1006 54 3000 3.6 330 22:46 21.03.2022
3098 Smoke 29 1007 51 3000 3.6 330 21:25 21.03.2022
3099 Smoke 29 1008 54 3000 2.06 300 20:43 21.03.2022
3100 Smoke 29 1008 54 3000 2.06 300 20:21 21.03.2022
3101 Haze 29 1008 61 3000 1.03 250 19:35 21.03.2022
3102 Haze 29 1008 61 3000 1.03 250 19:35 21.03.2022
3103 Haze 29 1008 61 3000 1.03 330 18:47 21.03.2022
3104 Haze 29 1008 70 3000 2.06 10 17:35 21.03.2022
3105 Haze 29 1008 70 3000 3.09 320 16:58 21.03.2022
3106 Haze 29 1007 70 3000 3.09 360 16:26 21.03.2022
3107 Haze 29 1007 70 3000 3.09 330 15:37 21.03.2022
3108 Haze 30 1006 62 3500 6.69 310 14:29 21.03.2022
3109 Haze 30 1006 66 4000 5.14 300 13:20 21.03.2022
3110 Haze 30 1006 66 4000 5.14 290 11:58 21.03.2022
3111 Haze 30 1006 66 4000 6.69 260 11:20 21.03.2022
3112 Smoke 31 1008 58 3000 4.63 270 09:42 21.03.2022
3113 Smoke 31 1010 55 2500 3.09 240 07:22 21.03.2022
3114 Haze 30 1010 62 3000 2.57 260 05:56 21.03.2022
3115 Haze 26 1007 83 3000 2.06 90 01:39 21.03.2022
3116 Haze 26 1007 89 3000 2.06 30 22:57 20.03.2022
3117 Haze 26 1007 89 3000 2.06 350 22:23 20.03.2022
3118 Haze 26 1007 89 3000 1.54 320 21:37 20.03.2022
3119 Haze 27 1008 83 3000 2.57 330 20:54 20.03.2022
3120 Haze 27 1008 83 3000 2.57 340 20:29 20.03.2022
3121 Haze 26 1008 89 3000 2.06 300 19:49 20.03.2022
3122 Haze 27 1008 89 3000 2.57 270 19:19 20.03.2022
3123 Haze 27 1008 89 3000 2.57 290 17:44 20.03.2022
3124 Haze 27 1008 89 3000 2.57 290 17:24 20.03.2022
3125 Haze 28 1007 78 3500 3.09 280 15:58 20.03.2022
3126 Haze 28 1006 78 4000 4.12 290 14:38 20.03.2022
3127 Haze 29 1006 74 4000 5.66 280 13:38 20.03.2022
3128 Haze 29 1006 79 4000 5.14 270 12:19 20.03.2022
3129 Haze 30 1007 70 3500 4.63 250 09:59 20.03.2022
3130 Haze 29 1009 74 3500 2.57 220 08:20 20.03.2022
3131 Haze 29 1009 70 3000 2.06 190 05:49 20.03.2022
3132 Haze 28 1007 69 3000 2.57 230 03:18 20.03.2022
3133 Haze 28 1006 78 3000 3.09 200 00:53 20.03.2022
3134 Haze 28 1005 74 3000 0 0 00:28 20.03.2022
3135 Haze 28 1006 65 3000 1.54 240 22:25 19.03.2022
3136 Haze 28 1007 69 3000 0 0 21:26 19.03.2022
3137 Haze 28 1007 69 3000 0 0 21:26 19.03.2022
3138 Haze 28 1007 69 3500 2.06 190 19:29 19.03.2022
3139 Haze 28 1007 69 3500 0 0 18:38 19.03.2022
3140 Haze 28 1007 69 3500 2.06 210 17:49 19.03.2022
3141 Haze 29 1006 61 3500 2.06 280 16:57 19.03.2022
3142 Smoke 29 1005 65 4000 3.6 290 15:29 19.03.2022
3143 Smoke 31 1004 51 5000 5.66 290 13:49 19.03.2022
3144 Smoke 31 1004 58 5000 6.17 280 12:56 19.03.2022
3145 Smoke 31 1004 62 5000 6.69 270 12:36 19.03.2022
3146 Smoke 31 1004 58 5000 8.23 250 11:45 19.03.2022
3147 Haze 31 1006 70 3000 5.66 260 09:23 19.03.2022
3148 Haze 30 1008 66 3000 2.57 230 05:44 19.03.2022
3149 Haze 27 1006 83 3000 0 0 02:33 19.03.2022
3150 Haze 27 1005 78 3000 1.54 170 23:52 18.03.2022
3151 Haze 28 1005 65 3000 0 0 22:58 18.03.2022
3152 Haze 28 1005 65 3000 2.57 210 22:22 18.03.2022
3153 Haze 29 1006 65 3000 0 0 20:31 18.03.2022
3154 Haze 29 1007 70 3000 2.57 320 19:45 18.03.2022
3155 Smoke 29 1007 70 3000 2.57 290 19:18 18.03.2022
3156 Smoke 31 1006 51 3500 5.66 250 16:59 18.03.2022
3157 Smoke 32 1005 40 3500 2.06 220 16:34 18.03.2022
3158 Smoke 36 1003 19 5000 5.66 330 14:29 18.03.2022
3159 Smoke 37 1003 16 5000 5.66 330 13:41 18.03.2022
3160 Smoke 37 1003 25 3500 7.2 300 11:43 18.03.2022
3161 Smoke 34 1005 46 3000 5.66 270 10:27 18.03.2022
3162 Smoke 33 1006 55 3000 5.14 250 08:50 18.03.2022
3163 Smoke 33 1008 46 2500 4.12 250 07:43 18.03.2022
3164 Smoke 30 1008 54 2200 1.54 200 05:20 18.03.2022
3165 Haze 27 1006 65 2500 2.06 90 01:55 18.03.2022
3166 Haze 28 1005 57 3000 2.06 330 00:20 18.03.2022
3167 Haze 29 1005 58 3000 1.54 320 22:54 17.03.2022
3168 Haze 29 1006 58 3000 2.06 330 22:20 17.03.2022
3169 Haze 29 1006 54 3000 2.06 310 21:46 17.03.2022
3170 Haze 29 1006 61 3000 2.57 290 20:58 17.03.2022
3171 Haze 29 1007 65 3000 1.54 340 20:29 17.03.2022
3172 Smoke 29 1007 65 3000 4.63 250 19:39 17.03.2022
3173 Smoke 30 1007 58 3000 2.06 300 18:55 17.03.2022
3174 Smoke 30 1007 54 3000 6.69 250 17:47 17.03.2022
3175 Smoke 33 1006 38 3000 2.06 30 16:29 17.03.2022
3176 Smoke 33 1006 38 3000 2.06 350 15:43 17.03.2022
3177 Smoke 33 1005 38 3000 4.63 340 15:21 17.03.2022
3178 Smoke 35 1004 31 3500 6.17 330 13:48 17.03.2022
3179 Smoke 35 1004 31 3000 8.23 320 12:47 17.03.2022
3180 Smoke 35 1004 29 3000 6.69 300 11:47 17.03.2022
3181 Smoke 36 1004 26 3000 5.66 320 11:22 17.03.2022
3182 Smoke 35 1006 41 3000 5.66 300 09:41 17.03.2022
3183 Smoke 34 1007 46 3000 4.63 250 08:21 17.03.2022
3184 Smoke 35 1009 31 2500 2.57 240 06:25 17.03.2022
3185 Smoke 33 1009 35 2500 1.54 250 05:25 17.03.2022
3186 Smoke 29 1005 48 3000 2.06 300 00:42 17.03.2022
3187 Smoke 28 1005 69 3000 2.57 290 22:59 16.03.2022
3188 Smoke 28 1005 69 3000 2.57 290 22:39 16.03.2022
3189 Smoke 29 1006 65 3000 3.09 340 22:19 16.03.2022
3190 Smoke 29 1006 58 3000 3.09 270 21:18 16.03.2022
3191 Smoke 29 1006 58 3000 3.09 270 21:18 16.03.2022
3192 Smoke 34 1007 18 3000 2.06 10 19:25 16.03.2022
3193 Smoke 34 1007 18 3000 2.57 350 18:43 16.03.2022
3194 Smoke 35 1007 17 3000 2.57 30 18:20 16.03.2022
3195 Smoke 35 1007 20 3000 3.09 20 17:37 16.03.2022
3196 Smoke 35 1007 20 3000 3.09 350 16:49 16.03.2022
3197 Smoke 36 1006 20 3500 4.12 340 15:35 16.03.2022
3198 Smoke 38 1004 17 3500 5.14 320 13:41 16.03.2022
3199 Smoke 38 1004 19 3500 6.17 300 12:59 16.03.2022
3200 Smoke 37 1004 25 3500 7.2 280 11:44 16.03.2022
3201 Smoke 37 1005 30 3500 5.14 280 11:18 16.03.2022
3202 Smoke 35 1006 38 3500 5.14 260 09:58 16.03.2022
3203 Smoke 35 1007 38 3500 4.12 260 08:37 16.03.2022
3204 Smoke 26 1008 53 2500 0 0 03:30 16.03.2022
3205 Smoke 29 1007 45 3000 1.03 0 23:39 15.03.2022
3206 Smoke 30 1007 45 3000 2.57 310 22:37 15.03.2022
3207 Smoke 30 1008 45 3000 2.57 310 21:33 15.03.2022
3208 Smoke 31 1008 37 3500 5.66 260 19:47 15.03.2022
3209 Smoke 35 1008 16 3500 2.57 360 18:38 15.03.2022
3210 Smoke 34 1008 24 3500 4.63 340 16:47 15.03.2022
3211 Smoke 34 1007 22 3500 6.17 340 16:18 15.03.2022
3212 Smoke 35 1006 21 3500 6.17 330 14:55 15.03.2022
3213 Smoke 36 1006 21 3500 4.12 320 14:30 15.03.2022
3214 Smoke 36 1005 23 3500 5.14 320 13:27 15.03.2022
3215 Smoke 37 1005 25 3000 6.69 280 11:56 15.03.2022
3216 Smoke 37 1005 25 3000 5.66 300 11:19 15.03.2022
3217 Smoke 36 1007 30 3000 3.6 240 09:31 15.03.2022
3218 Smoke 37 1009 22 2500 4.12 270 08:32 15.03.2022
3219 Smoke 36 1010 24 2500 2.57 270 07:44 15.03.2022
3220 Smoke 36 1011 19 2500 4.12 50 06:35 15.03.2022
3221 Smoke 27 1009 50 2500 0 0 02:36 15.03.2022
3222 Smoke 29 1008 45 3000 1.54 330 23:36 14.03.2022
3223 Smoke 29 1008 45 3000 1.54 350 23:18 14.03.2022
3224 Smoke 29 1009 32 3000 4.63 270 21:57 14.03.2022
3225 Smoke 31 1009 27 3000 0 0 21:20 14.03.2022
3226 Smoke 32 1010 23 3000 2.06 150 20:34 14.03.2022
3227 Smoke 32 1010 22 3000 0 0 19:47 14.03.2022
3228 Smoke 33 1010 22 3000 1.54 350 18:23 14.03.2022
3229 Smoke 32 1010 29 3000 2.57 10 17:43 14.03.2022
3230 Smoke 32 1010 33 3000 2.06 60 16:57 14.03.2022
3231 Smoke 33 1009 22 4000 4.12 330 15:29 14.03.2022
3232 Smoke 35 1008 17 5000 5.14 320 14:24 14.03.2022
3233 Smoke 38 1007 13 4000 5.14 280 11:36 14.03.2022
3234 Smoke 39 1008 14 4000 5.14 240 10:35 14.03.2022
3235 Smoke 39 1008 13 3500 4.63 220 09:38 14.03.2022
3236 Smoke 38 1009 12 3500 4.12 280 09:19 14.03.2022
3237 Smoke 39 1010 11 3500 3.6 60 08:46 14.03.2022
3238 Smoke 37 1012 12 3000 3.09 90 07:21 14.03.2022
3239 Smoke 30 1011 30 2500 2.06 190 04:27 14.03.2022
3240 Smoke 28 1010 39 3000 0 0 01:52 14.03.2022
3241 Smoke 28 1009 34 3000 2.06 190 00:38 14.03.2022
3242 Smoke 29 1009 32 3000 0 0 21:56 13.03.2022
3243 Smoke 30 1010 30 3000 0 0 21:27 13.03.2022
3244 Smoke 30 1010 28 3000 1.54 100 20:49 13.03.2022
3245 Smoke 30 1010 28 3000 1.54 50 20:26 13.03.2022
3246 Smoke 31 1010 23 3000 0 0 19:42 13.03.2022
3247 Smoke 31 1010 23 3000 0 0 19:23 13.03.2022
3248 Smoke 32 1010 20 3000 2.06 320 18:49 13.03.2022
3249 Smoke 33 1010 19 3000 3.09 330 18:26 13.03.2022
3250 Smoke 33 1010 19 3000 2.57 10 17:39 13.03.2022
3251 Smoke 33 1010 19 3000 0 0 16:48 13.03.2022
3252 Smoke 34 1009 17 3000 3.6 330 16:27 13.03.2022
3253 Smoke 34 1009 17 3000 4.12 350 15:43 13.03.2022
3254 Smoke 35 1008 17 3500 4.63 330 14:49 13.03.2022
3255 Smoke 36 1008 17 4000 5.66 320 13:29 13.03.2022
3256 Smoke 36 1007 19 4000 5.66 330 12:26 13.03.2022
3257 Smoke 37 1007 19 4000 6.17 310 11:45 13.03.2022
3258 Smoke 37 1008 16 3500 5.66 300 10:51 13.03.2022
3259 Smoke 37 1008 19 3500 4.63 300 10:30 13.03.2022
3260 Smoke 37 1009 25 3500 6.17 270 09:43 13.03.2022
3261 Smoke 37 1010 19 3500 5.14 300 08:51 13.03.2022
3262 Smoke 37 1010 19 3500 3.09 90 08:31 13.03.2022
3263 Smoke 35 1011 20 3500 3.09 90 07:37 13.03.2022
3264 Smoke 33 1012 25 2500 3.09 100 05:39 13.03.2022
3265 Haze 27 1009 61 2100 0 0 01:48 13.03.2022
3266 Haze 27 1008 74 2500 1.54 40 23:28 12.03.2022
3267 Haze 28 1009 69 3000 0 0 21:48 12.03.2022
3268 Haze 28 1010 69 3000 1.54 210 20:27 12.03.2022
3269 Haze 28 1010 74 3000 2.57 240 19:46 12.03.2022
3270 Haze 29 1010 61 3000 2.57 250 18:44 12.03.2022
3271 Haze 29 1010 61 3000 2.57 250 18:19 12.03.2022
3272 Smoke 31 1009 45 3000 2.06 30 16:32 12.03.2022
3273 Smoke 31 1009 45 3000 2.57 310 15:55 12.03.2022
3274 Smoke 31 1009 42 3000 3.09 300 15:22 12.03.2022
3275 Smoke 31 1008 55 3000 5.14 290 13:54 12.03.2022
3276 Smoke 33 1007 38 4000 4.12 230 12:33 12.03.2022
3277 Smoke 33 1007 38 4000 4.63 240 11:55 12.03.2022
3278 Smoke 34 1007 36 4000 4.63 240 11:34 12.03.2022
3279 Smoke 34 1008 36 4000 4.63 230 10:32 12.03.2022
3280 Smoke 36 1008 28 4000 4.12 230 09:44 12.03.2022
3281 Smoke 36 1010 20 3500 3.6 110 08:24 12.03.2022
3282 Smoke 34 1011 27 3000 1.54 40 06:44 12.03.2022
3283 Smoke 28 1009 42 3000 1.54 50 01:44 12.03.2022
3284 Smoke 28 1008 42 3000 2.06 90 23:46 11.03.2022
3285 Smoke 28 1008 44 3000 2.57 70 22:36 11.03.2022
3286 Smoke 28 1009 44 3000 2.06 70 21:24 11.03.2022
3287 Smoke 29 1009 42 3000 2.57 60 20:48 11.03.2022
3288 Smoke 29 1009 42 3000 3.6 80 20:26 11.03.2022
3289 Smoke 30 1010 42 3000 4.12 90 19:35 11.03.2022
3290 Smoke 31 1010 35 3000 5.14 90 18:33 11.03.2022
3291 Smoke 32 1010 37 3000 2.06 80 17:26 11.03.2022
3292 Smoke 32 1009 40 3000 3.09 50 16:25 11.03.2022
3293 Smoke 32 1008 40 3000 4.12 330 15:50 11.03.2022
3294 Smoke 33 1007 38 3500 4.12 310 13:45 11.03.2022
3295 Smoke 35 1006 29 3500 5.14 310 12:41 11.03.2022
3296 Smoke 35 1006 29 3500 5.14 310 12:19 11.03.2022
3297 Smoke 35 1007 31 3000 5.14 280 11:28 11.03.2022
3298 Smoke 36 1008 28 3000 6.17 250 09:36 11.03.2022
3299 Smoke 35 1010 31 3000 4.12 260 08:28 11.03.2022
3300 Smoke 36 1011 28 3000 3.09 280 07:48 11.03.2022
3301 Smoke 33 1012 33 2500 2.57 100 06:44 11.03.2022
3302 Smoke 29 1011 48 1800 2.06 200 04:44 11.03.2022
3303 Haze 28 1009 61 2500 0 0 01:48 11.03.2022
3304 Smoke 28 1009 65 2500 3.6 240 22:33 10.03.2022
3305 Smoke 29 1009 61 2500 1.54 310 21:58 10.03.2022
3306 Smoke 29 1009 58 2500 2.06 240 21:25 10.03.2022
3307 Smoke 30 1010 48 2500 0 0 20:37 10.03.2022
3308 Smoke 30 1010 48 3000 0 0 19:22 10.03.2022
3309 Smoke 30 1010 54 3000 2.06 330 17:55 10.03.2022
3310 Smoke 30 1010 54 3000 2.06 340 16:53 10.03.2022
3311 Smoke 32 1008 43 3000 4.12 330 15:34 10.03.2022
3312 Smoke 33 1007 40 3500 4.12 320 13:51 10.03.2022
3313 Smoke 34 1007 36 4000 6.17 280 12:43 10.03.2022
3314 Smoke 35 1007 31 3500 5.14 250 11:33 10.03.2022
3315 Smoke 34 1009 38 3000 4.63 270 09:54 10.03.2022
3316 Smoke 35 1010 26 2500 4.12 280 08:39 10.03.2022
3317 Smoke 30 1012 42 2500 2.57 90 05:48 10.03.2022
3318 Haze 27 1010 57 2200 2.06 40 03:22 10.03.2022
3319 Smoke 28 1009 57 2500 2.06 340 00:22 10.03.2022
3320 Smoke 28 1009 57 2500 0 0 22:43 09.03.2022
3321 Smoke 29 1009 51 2500 2.06 100 21:48 09.03.2022
3322 Smoke 29 1010 51 2500 2.57 120 20:53 09.03.2022
3323 Smoke 30 1010 42 2500 0 0 19:23 09.03.2022
3324 Smoke 31 1010 42 2500 2.06 340 17:28 09.03.2022
3325 Smoke 30 1010 45 2500 2.06 320 16:48 09.03.2022
3326 Smoke 31 1009 45 2500 3.6 320 15:41 09.03.2022
3327 Smoke 31 1009 48 2500 3.6 300 14:24 09.03.2022
3328 Smoke 31 1008 48 3000 4.63 310 13:38 09.03.2022
3329 Smoke 33 1007 43 4000 4.12 280 12:25 09.03.2022
3330 Smoke 33 1008 43 4000 4.63 290 11:46 09.03.2022
3331 Smoke 34 1008 36 3500 4.12 280 10:55 09.03.2022
3332 Smoke 36 1010 28 3000 3.09 70 09:28 09.03.2022
3333 Smoke 34 1011 31 3000 4.12 50 08:44 09.03.2022
3334 Smoke 30 1012 45 2500 2.57 60 05:56 09.03.2022
3335 Haze 27 1009 74 2500 1.54 340 00:58 09.03.2022
3336 Haze 27 1009 78 2500 0 0 23:48 08.03.2022
3337 Haze 27 1009 78 2500 2.57 290 22:46 08.03.2022
3338 Smoke 28 1009 51 3000 0 0 21:47 08.03.2022
3339 Smoke 29 1009 45 3000 0 0 21:19 08.03.2022
3340 Smoke 30 1010 45 3000 0 0 20:19 08.03.2022
3341 Smoke 30 1010 45 3000 2.06 90 18:57 08.03.2022
3342 Smoke 30 1010 45 3000 2.06 80 18:21 08.03.2022
3343 Smoke 31 1010 40 3000 3.09 340 16:40 08.03.2022
3344 Smoke 32 1008 43 3000 3.09 310 14:36 08.03.2022
3345 Smoke 33 1008 40 3000 3.6 320 13:39 08.03.2022
3346 Smoke 32 1007 45 3000 4.12 250 12:20 08.03.2022
3347 Smoke 33 1008 46 3000 4.12 260 11:42 08.03.2022
3348 Smoke 34 1009 33 3000 3.09 240 10:28 08.03.2022
3349 Smoke 34 1010 29 2500 3.09 90 08:56 08.03.2022
3350 Smoke 31 1012 37 2500 4.12 70 05:51 08.03.2022
3351 Smoke 28 1010 51 2500 3.09 30 01:53 08.03.2022
3352 Haze 28 1009 65 2500 3.6 290 22:41 07.03.2022
3353 Haze 28 1010 69 2500 1.54 320 21:36 07.03.2022
3354 Haze 28 1010 74 2500 3.6 280 20:56 07.03.2022
3355 Smoke 30 1011 48 2500 2.06 170 20:29 07.03.2022
3356 Smoke 30 1011 45 2500 1.54 140 19:48 07.03.2022
3357 Smoke 29 1011 54 2500 1.54 120 18:57 07.03.2022
3358 Smoke 30 1011 48 2500 1.54 100 18:29 07.03.2022
3359 Haze 29 1010 58 2500 1.03 0 17:24 07.03.2022
3360 Haze 29 1010 58 2500 0 0 16:41 07.03.2022
3361 Smoke 29 1009 58 2500 2.06 290 14:49 07.03.2022
3362 Smoke 30 1008 45 3000 5.14 280 12:34 07.03.2022
3363 Smoke 30 1008 54 3000 5.14 250 11:26 07.03.2022
3364 Smoke 31 1008 55 3000 4.12 250 10:30 07.03.2022
3365 Smoke 32 1010 40 2500 3.09 260 08:19 07.03.2022
3366 Smoke 27 1010 47 3000 1.54 270 02:25 07.03.2022
3367 Smoke 27 1009 57 3000 3.09 290 00:20 07.03.2022
3368 Smoke 28 1009 42 3000 0 0 23:22 06.03.2022
3369 Smoke 28 1010 51 3000 0 0 22:26 06.03.2022
3370 Smoke 27 1010 47 3000 0 0 21:24 06.03.2022
3371 Smoke 29 1010 39 3000 0 0 20:29 06.03.2022
3372 Smoke 30 1010 35 3000 0 0 19:39 06.03.2022
3373 Smoke 30 1011 32 3000 1.54 30 18:50 06.03.2022
3374 Smoke 30 1011 35 3000 1.54 40 17:46 06.03.2022
3375 Smoke 30 1011 32 3000 3.09 40 17:19 06.03.2022
3376 Smoke 30 1010 37 3000 2.06 350 16:28 06.03.2022
3377 Smoke 31 1009 35 3000 3.09 350 15:26 06.03.2022
3378 Smoke 31 1008 37 3000 4.12 300 14:42 06.03.2022
3379 Smoke 31 1008 40 3000 4.12 310 13:49 06.03.2022
3380 Smoke 31 1008 51 2500 3.6 280 12:40 06.03.2022
3381 Smoke 31 1008 58 2500 5.14 310 11:45 06.03.2022
3382 Smoke 36 1008 28 3000 5.66 260 10:40 06.03.2022
3383 Smoke 37 1009 28 3000 4.12 270 09:18 06.03.2022
3384 Smoke 36 1010 20 3000 4.12 250 08:28 06.03.2022
3385 Smoke 35 1011 23 2500 4.12 270 07:25 06.03.2022
3386 Haze 26 1009 57 3000 0 0 02:22 06.03.2022
3387 Smoke 26 1009 61 3000 0 0 00:36 06.03.2022
3388 Smoke 26 1009 57 3000 0 0 00:18 06.03.2022
3389 Smoke 26 1009 47 3000 2.57 280 23:19 05.03.2022
3390 Smoke 27 1009 41 3000 0 0 22:34 05.03.2022
3391 Smoke 27 1009 44 3000 0 0 21:29 05.03.2022
3392 Smoke 28 1010 36 3000 2.57 130 20:32 05.03.2022
3393 Smoke 29 1011 32 3000 2.06 160 19:19 05.03.2022
3394 Smoke 29 1011 32 3000 3.09 100 18:39 05.03.2022
3395 Smoke 30 1011 28 3000 2.57 30 17:34 05.03.2022
3396 Smoke 30 1011 28 3000 2.57 30 17:34 05.03.2022
3397 Smoke 29 1011 37 3000 3.09 20 16:19 05.03.2022
3398 Smoke 29 1010 39 3000 4.63 340 15:20 05.03.2022
3399 Smoke 29 1010 39 3000 4.63 340 15:20 05.03.2022
3400 Smoke 29 1010 45 3000 4.12 320 14:36 05.03.2022
3401 Smoke 30 1009 45 3500 4.63 300 13:42 05.03.2022
3402 Smoke 32 1009 37 4000 6.17 300 12:45 05.03.2022
3403 Smoke 33 1009 29 4000 5.14 250 11:21 05.03.2022
3404 Smoke 33 1009 31 3500 4.63 250 10:52 05.03.2022
3405 Smoke 32 1011 35 3000 4.12 260 09:33 05.03.2022
3406 Smoke 32 1011 37 3000 4.12 250 08:28 05.03.2022
3407 Smoke 34 1013 18 3000 3.09 190 07:22 05.03.2022
3408 Smoke 29 1013 32 2500 2.57 100 05:39 05.03.2022
3409 Smoke 25 1010 44 3000 0 0 00:49 05.03.2022
3410 Smoke 26 1010 34 3000 1.54 290 22:58 04.03.2022
3411 Smoke 26 1010 34 3000 1.54 290 22:38 04.03.2022
3412 Smoke 28 1011 30 3000 1.54 200 21:43 04.03.2022
3413 Smoke 28 1011 23 3000 0 0 20:45 04.03.2022
3414 Smoke 28 1012 24 3000 0 0 19:38 04.03.2022
3415 Smoke 29 1012 26 3000 0 0 18:58 04.03.2022
3416 Smoke 31 1012 16 3000 1.54 30 18:35 04.03.2022
3417 Smoke 29 1012 26 3000 3.6 30 17:29 04.03.2022
3418 Smoke 30 1011 28 3000 4.63 330 15:58 04.03.2022
3419 Smoke 30 1010 32 3000 4.12 320 15:27 04.03.2022
3420 Smoke 32 1010 29 4000 5.14 320 13:36 04.03.2022
3421 Smoke 33 1009 22 4000 3.6 310 12:48 04.03.2022
3422 Smoke 35 1010 21 5000 7.2 320 11:37 04.03.2022
3423 Smoke 35 1010 20 4000 6.69 300 10:26 04.03.2022
3424 Smoke 36 1011 14 3500 4.63 300 09:28 04.03.2022
3425 Smoke 36 1013 15 3500 2.57 360 07:49 04.03.2022
3426 Smoke 33 1014 19 3000 2.57 310 06:26 04.03.2022
3427 Smoke 28 1012 26 2500 1.54 20 02:52 04.03.2022
3428 Smoke 29 1011 28 2500 2.06 330 23:43 03.03.2022
3429 Smoke 28 1012 36 2500 0 0 22:18 03.03.2022
3430 Smoke 28 1012 42 2500 0 0 21:36 03.03.2022
3431 Smoke 28 1013 44 2500 0 0 20:50 03.03.2022
3432 Smoke 28 1013 39 2500 1.54 40 19:42 03.03.2022
3433 Smoke 30 1013 35 2500 4.12 330 18:44 03.03.2022
3434 Smoke 30 1013 37 2500 3.6 340 17:43 03.03.2022
3435 Smoke 31 1013 37 2500 2.06 20 17:24 03.03.2022
3436 Smoke 30 1011 42 2500 3.09 340 15:47 03.03.2022
3437 Smoke 30 1010 48 2500 1.54 290 14:52 03.03.2022
3438 Smoke 31 1010 42 2500 3.09 310 14:32 03.03.2022
3439 Smoke 33 1009 33 3000 6.17 310 12:44 03.03.2022
3440 Smoke 34 1009 29 3000 6.17 280 11:39 03.03.2022
3441 Smoke 33 1009 38 3000 5.14 270 10:40 03.03.2022
3442 Smoke 35 1012 20 2500 6.17 130 08:45 03.03.2022
3443 Smoke 34 1013 26 2500 4.63 50 06:58 03.03.2022
3444 Smoke 33 1013 27 2100 3.09 40 06:33 03.03.2022
3445 Smoke 25 1010 53 2500 0 0 01:21 03.03.2022
3446 Smoke 26 1010 50 2500 1.54 30 23:28 02.03.2022
3447 Smoke 26 1010 50 2500 0 0 22:49 02.03.2022
3448 Smoke 27 1011 47 2500 0 0 21:25 02.03.2022
3449 Smoke 28 1011 42 3000 0 0 20:40 02.03.2022
3450 Smoke 28 1012 44 3000 0 0 19:56 02.03.2022
3451 Smoke 28 1012 44 3000 0 0 19:56 02.03.2022
3452 Smoke 30 1012 37 3000 2.06 150 19:33 02.03.2022
3453 Smoke 29 1012 37 3000 0 0 18:44 02.03.2022
3454 Smoke 30 1012 32 3000 2.57 70 17:57 02.03.2022
3455 Smoke 31 1011 29 3000 2.06 40 17:21 02.03.2022
3456 Smoke 31 1011 29 3000 2.06 40 16:42 02.03.2022
3457 Smoke 32 1009 29 3000 4.12 330 14:43 02.03.2022
3458 Smoke 33 1009 31 3000 5.14 330 13:24 02.03.2022
3459 Smoke 32 1009 31 2500 6.17 320 12:42 02.03.2022
3460 Smoke 33 1009 35 2500 4.12 300 11:40 02.03.2022
3461 Smoke 33 1010 35 2500 6.17 300 11:21 02.03.2022
3462 Smoke 33 1011 38 2500 5.14 240 09:41 02.03.2022
3463 Smoke 33 1012 43 2500 5.14 260 08:54 02.03.2022
3464 Smoke 34 1013 26 2500 4.12 270 07:38 02.03.2022
3465 Smoke 33 1014 29 2500 3.09 30 06:51 02.03.2022
3466 Haze 25 1011 61 2500 0 0 01:32 02.03.2022
3467 Haze 24 1011 73 2500 0 0 23:49 01.03.2022
3468 Haze 25 1011 65 2500 0 0 22:45 01.03.2022
3469 Smoke 25 1011 69 2500 0 0 21:58 01.03.2022
3470 Smoke 26 1011 65 3000 0 0 21:24 01.03.2022
3471 Smoke 26 1012 57 3000 0 0 20:30 01.03.2022
3472 Smoke 26 1012 57 3000 0 0 20:30 01.03.2022
3473 Smoke 27 1013 54 3000 0 0 19:28 01.03.2022
3474 Smoke 27 1013 54 3000 2.06 330 18:49 01.03.2022
3475 Smoke 28 1013 51 3000 1.54 310 18:19 01.03.2022
3476 Smoke 28 1013 51 3000 2.06 330 17:19 01.03.2022
3477 Smoke 29 1012 42 3000 2.57 320 16:31 01.03.2022
3478 Smoke 29 1011 42 3500 2.06 320 15:38 01.03.2022
3479 Smoke 30 1011 39 3500 3.09 310 14:34 01.03.2022
3480 Smoke 30 1010 39 4000 4.63 290 13:52 01.03.2022
3481 Smoke 32 1010 35 4000 4.12 330 13:24 01.03.2022
3482 Smoke 32 1011 35 3000 4.63 320 12:30 01.03.2022
3483 Smoke 31 1011 40 3000 4.63 250 10:34 01.03.2022
3484 Smoke 32 1013 40 2500 4.12 280 08:41 01.03.2022
3485 Smoke 31 1014 42 2500 4.12 260 07:52 01.03.2022
3486 Smoke 29 1015 39 2200 0 0 05:54 01.03.2022
3487 Smoke 25 1012 53 2500 2.06 350 02:33 01.03.2022
3488 Smoke 25 1012 53 2500 0 0 00:34 01.03.2022
3489 Smoke 25 1012 57 2500 1.54 30 23:30 28.02.2022
3490 Smoke 25 1012 61 2500 3.09 340 22:18 28.02.2022
3491 Smoke 25 1013 61 2500 2.57 350 21:37 28.02.2022
3492 Smoke 27 1013 50 3000 2.57 310 19:56 28.02.2022
3493 Smoke 27 1013 50 3000 2.57 340 19:36 28.02.2022
3494 Smoke 27 1014 54 3000 3.09 340 18:43 28.02.2022
3495 Smoke 28 1013 44 3000 2.06 350 17:33 28.02.2022
3496 Smoke 28 1012 44 3000 0 0 16:34 28.02.2022
3497 Smoke 29 1011 42 3000 3.09 300 15:24 28.02.2022
3498 Smoke 31 1011 33 3000 3.6 290 14:32 28.02.2022
3499 Smoke 31 1010 30 3000 3.6 270 13:48 28.02.2022
3500 Smoke 33 1010 22 3000 4.12 300 12:48 28.02.2022
3501 Smoke 34 1010 18 3000 5.14 300 11:58 28.02.2022
3502 Smoke 33 1011 35 3000 5.14 260 10:49 28.02.2022
3503 Smoke 32 1011 37 3000 4.63 240 10:21 28.02.2022
3504 Smoke 31 1012 42 3000 4.63 270 09:33 28.02.2022
3505 Smoke 31 1013 40 3000 4.12 280 08:44 28.02.2022
3506 Smoke 31 1014 40 3000 2.57 270 07:35 28.02.2022
3507 Smoke 27 1014 39 2500 1.54 30 05:21 28.02.2022
3508 Smoke 25 1014 47 2500 1.54 100 04:27 28.02.2022
3509 Smoke 23 1011 49 3000 1.54 270 23:45 27.02.2022
3510 Smoke 23 1012 43 3000 3.6 300 22:36 27.02.2022
3511 Smoke 24 1012 43 3000 3.6 20 21:52 27.02.2022
3512 Smoke 25 1012 41 3500 4.12 340 21:27 27.02.2022
3513 Smoke 26 1012 36 3500 3.6 30 20:37 27.02.2022
3514 Smoke 27 1013 32 3500 2.57 40 19:58 27.02.2022
3515 Smoke 28 1013 30 3500 3.6 50 19:27 27.02.2022
3516 Smoke 28 1013 30 3500 3.6 50 19:27 27.02.2022
3517 Smoke 28 1013 32 3500 3.09 20 18:48 27.02.2022
3518 Smoke 29 1013 37 3500 2.57 350 17:57 27.02.2022
3519 Smoke 28 1013 44 3500 2.57 20 17:20 27.02.2022
3520 Smoke 29 1013 37 3500 3.6 330 16:22 27.02.2022
3521 Smoke 31 1011 35 4000 4.12 310 13:49 27.02.2022
3522 Smoke 32 1011 37 4000 3.6 290 12:35 27.02.2022
3523 Smoke 32 1011 37 3500 4.12 290 11:28 27.02.2022
3524 Smoke 32 1012 43 3000 5.14 260 10:24 27.02.2022
3525 Smoke 32 1013 43 3000 5.14 260 09:51 27.02.2022
3526 Smoke 32 1013 37 3000 4.63 240 09:21 27.02.2022
3527 Smoke 31 1014 42 3000 4.63 250 08:38 27.02.2022
3528 Smoke 27 1015 34 2500 2.06 280 05:41 27.02.2022
3529 Smoke 24 1013 46 2500 0 0 02:57 27.02.2022
3530 Smoke 25 1012 53 3000 2.06 310 23:36 26.02.2022
3531 Smoke 25 1012 36 3000 1.54 300 22:42 26.02.2022
3532 Smoke 26 1013 25 3000 2.06 350 21:26 26.02.2022
3533 Smoke 26 1013 44 3000 0 0 20:37 26.02.2022
3534 Smoke 25 1013 38 3000 0 0 20:37 26.02.2022
3535 Smoke 27 1013 24 3000 0 0 19:54 26.02.2022
3536 Smoke 28 1013 23 3000 0 0 19:33 26.02.2022
3537 Smoke 28 1014 28 3000 1.54 290 18:31 26.02.2022
3538 Smoke 28 1013 23 3000 2.06 350 17:31 26.02.2022
3539 Smoke 28 1013 28 3000 2.57 340 16:38 26.02.2022
3540 Smoke 28 1012 42 3500 3.09 310 15:28 26.02.2022
3541 Smoke 29 1012 39 3500 2.57 310 14:59 26.02.2022
3542 Smoke 29 1011 42 3500 4.12 310 14:41 26.02.2022
3543 Smoke 30 1011 39 4000 3.6 310 13:46 26.02.2022
3544 Smoke 32 1011 31 4000 3.6 330 12:53 26.02.2022
3545 Smoke 32 1011 33 4000 5.66 280 11:50 26.02.2022
3546 Smoke 32 1011 40 4000 5.66 290 11:25 26.02.2022
3547 Smoke 31 1013 51 3000 5.14 290 09:31 26.02.2022
3548 Smoke 31 1014 40 3000 5.14 280 08:26 26.02.2022
3549 Smoke 25 1014 50 2500 0 0 04:23 26.02.2022
3550 Smoke 25 1011 47 2500 0 0 23:50 25.02.2022
3551 Smoke 24 1011 57 2500 0 0 22:31 25.02.2022
3552 Haze 25 1012 57 2500 0 0 21:31 25.02.2022
3553 Haze 25 1012 61 2500 2.57 10 20:47 25.02.2022
3554 Haze 26 1012 57 2500 2.57 340 20:25 25.02.2022
3555 Haze 26 1013 65 2500 0 0 17:54 25.02.2022
3556 Smoke 27 1012 61 2500 2.57 330 16:48 25.02.2022
3557 Smoke 27 1012 61 2500 2.06 360 15:55 25.02.2022
3558 Smoke 27 1011 57 2500 2.57 300 15:23 25.02.2022
3559 Smoke 28 1011 51 2500 3.09 300 14:55 25.02.2022
3560 Smoke 29 1011 45 3500 4.12 320 14:24 25.02.2022
3561 Smoke 30 1011 39 3500 4.63 310 13:30 25.02.2022
3562 Smoke 31 1011 40 3500 5.66 280 12:21 25.02.2022
3563 Smoke 32 1011 35 3500 4.63 290 11:21 25.02.2022
3564 Smoke 32 1012 43 3000 5.66 260 10:23 25.02.2022
3565 Smoke 32 1012 40 3000 5.66 250 09:45 25.02.2022
3566 Smoke 31 1014 51 3000 5.66 250 08:22 25.02.2022
3567 Smoke 30 1015 42 2500 5.14 250 07:31 25.02.2022
3568 Smoke 28 1015 42 2200 1.54 200 05:42 25.02.2022
3569 Haze 23 1013 60 2500 0 0 02:46 25.02.2022
3570 Smoke 25 1012 50 3000 0 0 22:47 24.02.2022
3571 Smoke 25 1012 50 3000 0 0 21:51 24.02.2022
3572 Smoke 26 1013 44 3000 1.54 130 21:30 24.02.2022
3573 Smoke 27 1013 41 3000 1.54 30 20:47 24.02.2022
3574 Smoke 27 1013 54 3000 2.57 360 19:32 24.02.2022
3575 Smoke 28 1013 47 3000 2.57 340 18:21 24.02.2022
3576 Smoke 28 1013 47 3000 3.09 350 17:58 24.02.2022
3577 Smoke 28 1014 51 3000 2.06 320 17:33 24.02.2022
3578 Smoke 29 1013 45 3000 2.06 360 16:28 24.02.2022
3579 Smoke 29 1013 42 3000 1.03 0 15:44 24.02.2022
3580 Smoke 30 1012 39 3500 3.09 310 14:50 24.02.2022
3581 Smoke 30 1012 42 3500 3.09 310 14:19 24.02.2022
3582 Smoke 31 1012 37 3500 4.12 300 13:39 24.02.2022
3583 Smoke 31 1012 37 3500 4.12 300 13:39 24.02.2022
3584 Smoke 32 1011 40 3000 5.14 310 11:56 24.02.2022
3585 Smoke 31 1012 48 2500 5.14 240 10:39 24.02.2022
3586 Smoke 30 1014 58 2500 3.09 250 08:46 24.02.2022
3587 Smoke 29 1015 61 2500 3.09 270 08:22 24.02.2022
3588 Smoke 28 1016 57 2200 2.57 270 05:52 24.02.2022
3589 Haze 24 1012 83 3000 2.06 350 00:32 24.02.2022
3590 Haze 24 1013 73 3000 0 0 22:38 23.02.2022
3591 Haze 24 1013 64 3000 0 0 21:34 23.02.2022
3592 Haze 26 1013 61 3000 0 0 20:30 23.02.2022
3593 Smoke 26 1013 61 3000 0 0 19:44 23.02.2022
3594 Smoke 27 1013 57 3000 0 0 18:32 23.02.2022
3595 Smoke 28 1013 51 3000 2.06 350 17:21 23.02.2022
3596 Smoke 30 1011 42 4000 3.09 300 14:34 23.02.2022
3597 Smoke 32 1010 43 5000 4.63 300 12:37 23.02.2022
3598 Smoke 32 1010 43 5000 5.14 270 11:23 23.02.2022
3599 Smoke 32 1011 43 4000 5.66 250 10:31 23.02.2022
3600 Smoke 31 1012 48 3000 5.66 290 08:58 23.02.2022
3601 Smoke 30 1013 51 3000 5.66 240 07:57 23.02.2022
3602 Smoke 24 1013 57 2500 1.54 120 03:48 23.02.2022
3603 Haze 23 1011 64 3000 0 0 00:26 23.02.2022
3604 Haze 23 1011 68 3000 0 0 23:35 22.02.2022
3605 Smoke 23 1011 60 3000 0 0 22:31 22.02.2022
3606 Smoke 24 1012 60 3000 0 0 21:49 22.02.2022
3607 Smoke 24 1012 57 3000 0 0 21:28 22.02.2022
3608 Smoke 24 1012 57 3000 0 0 20:51 22.02.2022
3609 Smoke 24 1012 57 3000 0 0 20:29 22.02.2022
3610 Smoke 24 1012 57 3000 0 0 20:29 22.02.2022
3611 Haze 24 1013 64 3000 1.54 110 19:36 22.02.2022
3612 Haze 24 1013 64 3000 1.54 110 19:18 22.02.2022
3613 Haze 25 1013 78 3000 2.57 350 17:46 22.02.2022
3614 Haze 25 1012 78 3000 4.12 330 17:20 22.02.2022
3615 Haze 25 1011 78 3000 3.09 330 16:36 22.02.2022
3616 Haze 25 1011 83 3000 4.12 320 15:39 22.02.2022
3617 Haze 26 1010 73 4000 6.17 310 14:44 22.02.2022
3618 Smoke 30 1009 45 4000 5.66 290 12:23 22.02.2022
3619 Smoke 30 1009 48 3500 5.66 260 10:39 22.02.2022
3620 Smoke 31 1010 33 3500 4.63 270 08:40 22.02.2022
3621 Smoke 32 1012 20 3000 2.57 260 07:26 22.02.2022
3622 Smoke 25 1012 38 1700 0 0 04:31 22.02.2022
3623 Haze 22 1010 56 2500 2.06 100 01:44 22.02.2022
3624 Haze 22 1010 56 2500 2.06 100 01:44 22.02.2022
3625 Smoke 23 1010 60 3000 0 0 22:44 21.02.2022
3626 Smoke 24 1010 57 3000 0 0 21:31 21.02.2022
3627 Smoke 25 1011 57 3000 1.54 0 20:35 21.02.2022
3628 Smoke 26 1011 44 3000 1.54 10 18:46 21.02.2022
3629 Smoke 27 1010 44 3000 2.57 360 16:56 21.02.2022
3630 Smoke 27 1009 44 4000 3.6 300 14:52 21.02.2022
3631 Smoke 28 1009 39 4000 4.12 320 14:21 21.02.2022
3632 Smoke 29 1008 39 4000 5.66 300 12:59 21.02.2022
3633 Smoke 30 1008 37 4000 5.66 310 12:23 21.02.2022
3634 Smoke 31 1008 33 4000 5.66 290 10:58 21.02.2022
3635 Smoke 31 1009 37 3000 5.66 260 09:34 21.02.2022
3636 Smoke 25 1011 47 2500 1.54 100 04:52 21.02.2022
3637 Smoke 22 1009 60 3000 0 0 23:32 20.02.2022
3638 Smoke 24 1009 53 3000 0 0 22:20 20.02.2022
3639 Smoke 24 1010 57 3000 0 0 21:42 20.02.2022
3640 Smoke 24 1010 60 3000 0 0 20:53 20.02.2022
3641 Smoke 25 1010 53 3000 3.09 120 20:33 20.02.2022
3642 Smoke 25 1011 50 3000 1.54 30 19:31 20.02.2022
3643 Smoke 25 1011 50 3000 1.54 30 19:31 20.02.2022
3644 Smoke 26 1011 47 3000 2.06 350 18:50 20.02.2022
3645 Smoke 26 1011 50 3000 2.06 340 18:31 20.02.2022
3646 Smoke 26 1011 53 3000 2.06 340 17:47 20.02.2022
3647 Smoke 27 1009 54 3000 3.6 320 15:32 20.02.2022
3648 Smoke 27 1009 47 3000 3.6 300 14:41 20.02.2022
3649 Smoke 30 1008 37 4000 5.14 300 13:23 20.02.2022
3650 Smoke 30 1008 39 4000 5.14 290 12:25 20.02.2022
3651 Smoke 32 1009 37 4000 5.14 300 10:21 20.02.2022
3652 Smoke 31 1010 42 4000 4.63 290 09:53 20.02.2022
3653 Smoke 30 1012 39 3000 3.09 260 07:45 20.02.2022
3654 Haze 23 1010 73 3000 1.54 350 00:54 20.02.2022
3655 Haze 23 1010 78 3000 2.57 20 00:29 20.02.2022
3656 Haze 24 1011 78 3000 2.57 350 22:44 19.02.2022
3657 Haze 24 1011 78 3000 2.57 20 22:21 19.02.2022
3658 Haze 24 1012 88 3000 2.57 310 20:51 19.02.2022
3659 Haze 25 1012 83 3000 2.06 330 19:48 19.02.2022
3660 Haze 25 1012 83 3000 2.06 320 19:25 19.02.2022
3661 Haze 25 1012 78 3000 2.57 320 18:32 19.02.2022
3662 Haze 26 1012 65 3000 2.06 300 17:33 19.02.2022
3663 Smoke 27 1011 54 3000 0 0 16:22 19.02.2022
3664 Smoke 28 1010 44 3500 3.09 260 14:56 19.02.2022
3665 Smoke 28 1010 47 3500 4.12 280 14:37 19.02.2022
3666 Smoke 30 1010 42 3500 5.14 280 12:50 19.02.2022
3667 Smoke 30 1010 42 3500 4.63 260 11:37 19.02.2022
3668 Smoke 30 1011 48 3000 4.12 260 09:45 19.02.2022
3669 Smoke 29 1013 39 2500 3.09 270 06:54 19.02.2022
3670 Haze 23 1011 64 2500 0 0 02:52 19.02.2022
3671 Smoke 23 1009 60 3000 0 0 23:29 18.02.2022
3672 Smoke 23 1010 60 3000 0 0 21:49 18.02.2022
3673 Smoke 24 1010 60 3000 0 0 20:42 18.02.2022
3674 Smoke 24 1010 60 3000 0 0 19:52 18.02.2022
3675 Smoke 25 1010 57 4000 0 0 18:50 18.02.2022
3676 Smoke 26 1010 53 4000 2.06 340 18:20 18.02.2022
3677 Smoke 26 1010 47 4000 1.03 0 17:38 18.02.2022
3678 Smoke 27 1008 41 4000 3.09 280 14:50 18.02.2022
3679 Smoke 28 1008 34 5000 4.12 260 13:55 18.02.2022
3680 Smoke 29 1008 34 4000 3.6 280 12:53 18.02.2022
3681 Smoke 29 1008 34 4000 3.6 270 11:58 18.02.2022
3682 Smoke 29 1008 34 4000 3.6 270 11:58 18.02.2022
3683 Smoke 29 1008 34 4000 3.6 270 11:21 18.02.2022
3684 Smoke 29 1009 39 4000 3.6 290 09:52 18.02.2022
3685 Smoke 29 1011 37 2500 3.09 260 06:54 18.02.2022
3686 Haze 25 1011 73 2100 1.03 230 05:39 18.02.2022
3687 Haze 22 1007 78 3000 0 0 22:57 17.02.2022
3688 Haze 23 1008 73 4000 0 0 21:44 17.02.2022
3689 Haze 23 1008 73 4000 0 0 21:19 17.02.2022
3690 Haze 23 1008 68 4000 0 0 20:36 17.02.2022
3691 Haze 24 1008 69 4000 2.06 10 19:48 17.02.2022
3692 Haze 25 1008 61 4000 0 0 18:41 17.02.2022
3693 Haze 25 1008 61 4000 0 0 17:50 17.02.2022
3694 Smoke 25 1007 61 4000 1.54 300 16:20 17.02.2022
3695 Smoke 25 1006 57 4000 2.57 290 15:30 17.02.2022
3696 Smoke 26 1006 53 4000 4.12 260 14:25 17.02.2022
3697 Smoke 27 1005 57 5000 4.63 260 12:35 17.02.2022
3698 Smoke 27 1006 57 5000 4.63 260 11:21 17.02.2022
3699 Haze 28 1008 61 3500 3.6 280 08:45 17.02.2022
3700 Haze 20 1007 83 2500 0 0 00:31 17.02.2022
3701 Haze 21 1007 78 2500 0 0 22:59 16.02.2022
3702 Haze 21 1008 78 3000 0 0 21:25 16.02.2022
3703 Haze 22 1008 78 3000 0 0 19:43 16.02.2022
3704 Haze 23 1008 68 3000 2.06 330 18:38 16.02.2022
3705 Haze 23 1008 68 3000 0 0 17:46 16.02.2022
3706 Haze 24 1007 64 3000 3.09 310 15:36 16.02.2022
3707 Haze 24 1007 64 4000 3.09 300 14:57 16.02.2022
3708 Smoke 27 1006 61 5000 6.17 280 12:35 16.02.2022
3709 Smoke 27 1006 65 5000 6.17 270 11:55 16.02.2022
3710 Smoke 27 1006 61 5000 6.69 250 11:24 16.02.2022
3711 Smoke 27 1007 61 5000 5.14 300 10:30 16.02.2022
3712 Haze 26 1012 61 3500 5.66 280 06:57 16.02.2022
3713 Haze 24 1011 69 2500 1.54 320 04:43 16.02.2022
3714 Haze 21 1009 68 3000 0 0 23:44 15.02.2022
3715 Haze 22 1010 68 3000 1.54 330 22:28 15.02.2022
3716 Smoke 22 1010 64 3000 1.54 0 21:46 15.02.2022
3717 Smoke 22 1010 64 3000 0 0 21:27 15.02.2022
3718 Smoke 23 1010 56 3000 0 0 20:55 15.02.2022
3719 Smoke 22 1010 60 3000 1.54 0 19:57 15.02.2022
3720 Smoke 23 1011 56 3000 1.54 0 18:52 15.02.2022
3721 Smoke 23 1011 53 3000 0 0 18:20 15.02.2022
3722 Smoke 24 1011 53 3000 1.54 360 17:49 15.02.2022
3723 Smoke 24 1010 53 3500 2.57 320 16:32 15.02.2022
3724 Smoke 24 1010 57 4000 3.6 310 15:26 15.02.2022
3725 Smoke 27 1009 47 5000 5.14 300 13:27 15.02.2022
3726 Smoke 28 1009 36 5000 4.63 300 11:58 15.02.2022
3727 Smoke 27 1009 44 5000 5.14 300 10:59 15.02.2022
3728 Smoke 27 1011 57 4000 5.14 310 09:31 15.02.2022
3729 Smoke 27 1013 54 3500 5.14 300 06:52 15.02.2022
3730 Haze 23 1012 73 2500 2.57 350 03:55 15.02.2022
3731 Haze 24 1010 64 2500 2.57 330 22:36 14.02.2022
3732 Smoke 24 1011 57 2500 1.54 20 21:35 14.02.2022
3733 Smoke 25 1011 61 3000 3.09 310 20:37 14.02.2022
3734 Smoke 25 1011 38 3000 1.54 220 19:34 14.02.2022
3735 Smoke 26 1011 36 3000 0 0 18:42 14.02.2022
3736 Smoke 26 1011 38 3500 0 0 17:58 14.02.2022
3737 Smoke 26 1011 36 3500 1.54 50 17:25 14.02.2022
3738 Smoke 27 1010 32 3500 3.09 340 16:19 14.02.2022
3739 Smoke 29 1009 28 5000 6.69 360 13:54 14.02.2022
3740 Smoke 30 1009 28 5000 5.66 330 13:26 14.02.2022
3741 Smoke 31 1009 25 5000 5.66 320 12:33 14.02.2022
3742 Smoke 31 1009 25 5000 5.66 300 11:54 14.02.2022
3743 Smoke 31 1009 25 5000 5.66 300 11:54 14.02.2022
3744 Smoke 31 1009 25 4000 6.17 300 10:43 14.02.2022
3745 Smoke 31 1011 23 3500 4.12 280 08:45 14.02.2022
3746 Smoke 30 1012 30 3000 3.09 40 07:31 14.02.2022
3747 Haze 23 1009 78 2200 0 0 01:18 14.02.2022
3748 Haze 23 1010 83 2500 0 0 22:42 13.02.2022
3749 Haze 24 1010 78 2500 0 0 22:24 13.02.2022
3750 Haze 24 1010 73 2500 0 0 21:32 13.02.2022
3751 Haze 25 1011 69 2500 1.54 10 20:35 13.02.2022
3752 Haze 25 1011 69 2500 0 0 19:31 13.02.2022
3753 Haze 25 1011 73 2500 2.06 40 18:49 13.02.2022
3754 Haze 25 1011 73 2500 2.57 30 18:28 13.02.2022
3755 Haze 26 1009 61 2500 3.6 310 15:54 13.02.2022
3756 Haze 26 1009 65 2500 3.09 320 15:24 13.02.2022
3757 Smoke 27 1008 61 3000 5.14 300 14:31 13.02.2022
3758 Smoke 29 1007 45 3000 5.66 270 12:51 13.02.2022
3759 Smoke 32 1008 33 3000 4.12 280 11:44 13.02.2022
3760 Smoke 30 1008 48 3000 5.66 240 10:33 13.02.2022
3761 Smoke 30 1009 51 2800 5.14 260 09:46 13.02.2022
3762 Smoke 30 1011 39 2200 2.06 280 07:49 13.02.2022
3763 Haze 23 1010 64 2500 0 0 00:35 13.02.2022
3764 Smoke 24 1010 57 2500 0 0 23:42 12.02.2022
3765 Smoke 24 1010 57 2500 0 0 22:33 12.02.2022
3766 Smoke 24 1011 53 2500 0 0 21:30 12.02.2022
3767 Smoke 25 1011 47 2500 0 0 20:47 12.02.2022
3768 Smoke 25 1012 50 2500 2.06 80 19:35 12.02.2022
3769 Smoke 26 1012 47 2500 2.06 100 18:53 12.02.2022
3770 Smoke 25 1012 53 2500 0 0 18:35 12.02.2022
3771 Smoke 26 1012 47 2500 3.6 340 17:20 12.02.2022
3772 Smoke 27 1011 41 2500 2.06 330 16:29 12.02.2022
3773 Smoke 27 1011 41 2500 3.09 310 15:51 12.02.2022
3774 Smoke 27 1010 47 3000 3.09 300 14:44 12.02.2022
3775 Smoke 28 1010 42 3000 4.63 330 14:24 12.02.2022
3776 Smoke 30 1010 37 3000 5.66 280 11:18 12.02.2022
3777 Smoke 31 1011 37 3000 5.14 260 09:51 12.02.2022
3778 Smoke 31 1011 40 3000 4.63 270 09:27 12.02.2022
3779 Smoke 32 1012 27 3000 4.63 270 08:45 12.02.2022
3780 Smoke 28 1014 34 2500 4.12 60 05:40 12.02.2022
3781 Smoke 25 1013 41 2500 3.6 50 04:33 12.02.2022
3782 Smoke 23 1012 53 2500 2.57 100 02:18 12.02.2022
3783 Smoke 24 1011 50 2500 0 0 22:55 11.02.2022
3784 Smoke 25 1011 47 3000 0 0 22:20 11.02.2022
3785 Smoke 25 1012 44 3000 0 0 20:52 11.02.2022
3786 Smoke 26 1012 41 3000 0 0 19:50 11.02.2022
3787 Smoke 26 1012 41 3000 3.09 350 19:27 11.02.2022
3788 Smoke 27 1013 36 3000 3.6 360 18:28 11.02.2022
3789 Smoke 28 1012 34 3000 3.09 350 17:26 11.02.2022
3790 Smoke 29 1012 32 3000 5.66 20 16:26 11.02.2022
3791 Smoke 29 1011 39 3000 3.09 320 14:59 11.02.2022
3792 Smoke 29 1011 42 3500 3.09 330 14:37 11.02.2022
3793 Smoke 29 1011 42 3500 4.12 330 14:18 11.02.2022
3794 Smoke 29 1010 39 4000 4.12 330 13:40 11.02.2022
3795 Smoke 30 1010 39 4000 5.66 310 12:20 11.02.2022
3796 Smoke 33 1010 31 4000 4.63 300 10:30 11.02.2022
3797 Smoke 32 1011 27 4000 4.63 120 09:22 11.02.2022
3798 Smoke 31 1012 30 4000 3.6 110 08:28 11.02.2022
3799 Smoke 29 1013 32 3500 4.12 60 07:39 11.02.2022
3800 Smoke 24 1012 38 3000 5.14 90 02:40 11.02.2022
3801 Smoke 25 1011 38 3000 5.66 90 02:20 11.02.2022
3802 Smoke 26 1011 38 2500 4.12 30 23:40 10.02.2022
3803 Haze 24 1012 57 2500 1.54 70 21:55 10.02.2022
3804 Haze 24 1012 57 2500 1.54 70 21:35 10.02.2022
3805 Smoke 24 1012 60 2500 0 0 20:48 10.02.2022
3806 Smoke 24 1013 60 2500 0 0 19:49 10.02.2022
3807 Smoke 24 1013 60 2500 0 0 19:20 10.02.2022
3808 Smoke 25 1013 57 2500 2.57 330 17:53 10.02.2022
3809 Smoke 26 1012 53 2500 3.09 340 17:21 10.02.2022
3810 Smoke 26 1012 57 2500 3.6 330 16:30 10.02.2022
3811 Smoke 27 1011 50 1900 3.09 320 15:37 10.02.2022
3812 Smoke 27 1011 50 1900 3.09 320 15:18 10.02.2022
3813 Smoke 28 1011 42 1800 2.57 340 14:33 10.02.2022
3814 Smoke 29 1010 39 4000 6.17 320 13:34 10.02.2022
3815 Smoke 29 1010 45 4000 5.14 320 12:53 10.02.2022
3816 Smoke 30 1010 42 4000 5.66 310 11:48 10.02.2022
3817 Smoke 30 1010 39 3500 5.66 290 11:28 10.02.2022
3818 Smoke 31 1011 35 3500 5.66 310 10:21 10.02.2022
3819 Smoke 31 1012 33 3500 5.14 280 09:37 10.02.2022
3820 Smoke 29 1013 34 3500 4.12 50 08:21 10.02.2022
3821 Smoke 26 1015 41 3000 3.09 40 06:19 10.02.2022
3822 Haze 22 1012 56 3000 1.54 0 02:28 10.02.2022
3823 Haze 21 1011 64 3000 0 0 00:51 10.02.2022
3824 Haze 22 1011 60 3000 0 0 00:30 10.02.2022
3825 Haze 22 1011 60 3000 0 0 00:30 10.02.2022
3826 Haze 21 1011 68 3000 0 0 23:53 09.02.2022
3827 Haze 22 1012 78 3000 0 0 22:51 09.02.2022
3828 Haze 22 1012 78 3000 0 0 22:30 09.02.2022
3829 Haze 22 1012 73 3000 0 0 21:45 09.02.2022
3830 Haze 22 1013 73 3000 0 0 21:24 09.02.2022
3831 Smoke 23 1013 68 3000 0 0 20:41 09.02.2022
3832 Smoke 23 1013 68 3000 0 0 20:21 09.02.2022
3833 Smoke 24 1013 57 3000 1.54 30 19:39 09.02.2022
3834 Haze 24 1014 64 3000 2.57 20 18:30 09.02.2022
3835 Haze 24 1013 73 3000 3.6 350 16:54 09.02.2022
3836 Smoke 25 1013 61 3000 3.09 330 15:56 09.02.2022
3837 Smoke 25 1012 61 3000 3.09 310 15:22 09.02.2022
3838 Smoke 27 1011 50 5000 5.66 310 12:42 09.02.2022
3839 Smoke 27 1011 57 5000 5.14 300 11:20 09.02.2022
3840 Smoke 27 1012 57 4000 4.63 290 10:33 09.02.2022
3841 Smoke 27 1012 57 3500 4.63 280 09:45 09.02.2022
3842 Smoke 27 1013 57 3500 4.63 280 09:20 09.02.2022
3843 Smoke 27 1013 61 3500 4.63 300 08:43 09.02.2022
3844 Haze 24 1015 73 2500 3.6 90 05:37 09.02.2022
3845 Haze 21 1014 88 2200 3.09 80 03:51 09.02.2022
3846 Haze 21 1012 83 2500 1.54 100 01:33 09.02.2022
3847 Haze 22 1012 78 2500 0 0 23:42 08.02.2022
3848 Haze 22 1012 78 2500 1.54 30 22:53 08.02.2022
3849 Haze 22 1013 78 2500 0 0 22:27 08.02.2022
3850 Haze 23 1013 73 2500 0 0 21:58 08.02.2022
3851 Haze 23 1013 73 3000 1.54 320 21:22 08.02.2022
3852 Haze 23 1013 73 3000 1.54 300 20:56 08.02.2022
3853 Haze 23 1013 73 3000 1.54 320 20:31 08.02.2022
3854 Haze 24 1014 69 3000 2.06 300 18:55 08.02.2022
3855 Haze 24 1014 69 3000 3.09 280 17:50 08.02.2022
3856 Haze 24 1014 64 3000 2.06 250 16:55 08.02.2022
3857 Haze 24 1013 69 3000 3.09 290 15:45 08.02.2022
3858 Haze 24 1012 69 4000 3.09 310 14:57 08.02.2022
3859 Haze 25 1011 65 5000 2.57 290 13:39 08.02.2022
3860 Haze 26 1011 61 5000 5.66 280 12:21 08.02.2022
3861 Haze 26 1012 65 5000 6.69 260 10:47 08.02.2022
3862 Haze 26 1012 65 5000 6.17 260 09:47 08.02.2022
3863 Haze 26 1014 65 5000 5.14 280 08:34 08.02.2022
3864 Haze 25 1016 69 3500 3.6 360 05:46 08.02.2022
3865 Haze 23 1015 78 3000 1.54 10 04:40 08.02.2022
3866 Haze 23 1015 78 3000 1.54 10 04:22 08.02.2022
3867 Haze 22 1014 83 3000 0 0 03:36 08.02.2022
3868 Haze 21 1014 83 3000 0 0 03:18 08.02.2022
3869 Haze 21 1013 83 3000 0 0 02:59 08.02.2022
3870 Haze 21 1013 83 3000 0 0 02:36 08.02.2022
3871 Haze 22 1013 78 3000 0 0 02:18 08.02.2022
3872 Haze 22 1013 78 3000 2.06 10 01:44 08.02.2022
3873 Haze 22 1013 78 3000 2.06 10 01:25 08.02.2022
3874 Haze 21 1013 83 3000 0 0 00:55 08.02.2022
3875 Haze 22 1013 83 3000 2.06 360 00:19 08.02.2022
3876 Haze 22 1013 83 3000 1.54 350 23:43 07.02.2022
3877 Haze 22 1013 83 3000 2.06 20 23:18 07.02.2022
3878 Haze 22 1013 83 3000 2.06 20 22:59 07.02.2022
3879 Haze 22 1013 83 3000 2.57 10 22:18 07.02.2022
3880 Haze 22 1014 83 3000 0 0 21:49 07.02.2022
3881 Haze 22 1014 83 3000 2.06 330 21:27 07.02.2022
3882 Haze 22 1014 83 3000 0 0 20:41 07.02.2022
3883 Haze 23 1014 83 3000 2.06 330 20:18 07.02.2022
3884 Haze 23 1014 83 3000 0 0 19:46 07.02.2022
3885 Haze 23 1015 83 3000 0 0 18:24 07.02.2022
3886 Haze 23 1014 78 3000 2.57 310 16:53 07.02.2022
3887 Haze 23 1014 83 3000 3.09 300 16:21 07.02.2022
3888 Haze 23 1014 78 3000 3.6 300 15:48 07.02.2022
3889 Smoke 25 1012 57 4000 5.14 300 13:39 07.02.2022
3890 Smoke 25 1012 57 4000 5.14 300 13:21 07.02.2022
3891 Smoke 26 1012 50 4000 4.63 270 11:58 07.02.2022
3892 Smoke 26 1012 50 4000 4.63 270 11:38 07.02.2022
3893 Smoke 26 1012 57 4000 5.14 250 10:53 07.02.2022
3894 Smoke 26 1013 61 4000 5.66 250 10:33 07.02.2022
3895 Smoke 27 1013 57 3500 6.17 280 09:53 07.02.2022
3896 Smoke 26 1013 65 3000 6.17 270 09:18 07.02.2022
3897 Smoke 26 1014 65 3000 6.17 280 08:44 07.02.2022
3898 Smoke 27 1015 57 3000 3.09 290 07:34 07.02.2022
3899 Haze 26 1016 65 3000 2.57 340 06:34 07.02.2022
3900 Haze 23 1015 88 2100 1.54 50 04:18 07.02.2022
3901 Haze 22 1014 94 2500 0 0 00:54 07.02.2022
3902 Haze 23 1014 88 2500 0 0 23:50 06.02.2022
3903 Haze 23 1014 88 2500 1.54 300 23:19 06.02.2022
3904 Haze 23 1014 88 2500 0 0 22:37 06.02.2022
3905 Haze 23 1014 88 2500 0 0 21:37 06.02.2022
3906 Haze 23 1014 88 2500 0 0 20:58 06.02.2022
3907 Haze 23 1014 88 2500 0 0 20:36 06.02.2022
3908 Haze 24 1015 83 2500 1.54 340 19:46 06.02.2022
3909 Haze 24 1015 83 3000 2.57 300 18:52 06.02.2022
3910 Haze 24 1015 83 3000 1.54 320 18:26 06.02.2022
3911 Haze 24 1015 78 3000 3.09 280 17:29 06.02.2022
3912 Haze 25 1015 73 3000 2.57 310 16:50 06.02.2022
3913 Haze 25 1014 73 3000 3.09 290 15:50 06.02.2022
3914 Haze 25 1013 73 3000 4.12 300 15:28 06.02.2022
3915 Haze 26 1013 65 3000 3.09 300 14:52 06.02.2022
3916 Smoke 27 1012 54 3500 3.6 310 13:53 06.02.2022
3917 Smoke 27 1012 54 3500 5.14 290 13:20 06.02.2022
3918 Smoke 28 1011 47 3500 5.14 260 11:44 06.02.2022
3919 Smoke 30 1011 37 3500 4.63 250 10:33 06.02.2022
3920 Smoke 29 1012 42 3500 4.63 260 09:29 06.02.2022
3921 Smoke 32 1013 25 3500 1.54 100 08:41 06.02.2022
3922 Smoke 26 1014 44 2500 2.57 30 06:27 06.02.2022
3923 Smoke 24 1014 50 2200 3.6 40 05:27 06.02.2022
3924 Haze 21 1012 68 2500 0 0 02:25 06.02.2022
3925 Haze 21 1012 56 3000 1.54 30 00:30 06.02.2022
3926 Haze 22 1012 56 3000 1.54 320 23:27 05.02.2022
3927 Smoke 22 1012 60 3000 0 0 21:43 05.02.2022
3928 Smoke 23 1012 53 3000 1.54 290 20:39 05.02.2022
3929 Smoke 23 1012 53 3000 1.54 290 20:19 05.02.2022
3930 Smoke 24 1012 46 3000 2.06 320 19:41 05.02.2022
3931 Haze 23 1013 60 3000 2.57 20 18:26 05.02.2022
3932 Haze 24 1012 60 3000 2.57 340 17:34 05.02.2022
3933 Smoke 24 1011 60 3000 3.09 340 15:43 05.02.2022
3934 Smoke 25 1011 53 3000 3.09 330 15:25 05.02.2022
3935 Smoke 27 1010 44 3500 5.66 290 13:25 05.02.2022
3936 Smoke 27 1010 47 3500 3.6 300 12:42 05.02.2022
3937 Smoke 27 1010 41 4000 5.14 270 11:29 05.02.2022
3938 Smoke 27 1010 41 4000 4.63 280 10:43 05.02.2022
3939 Smoke 28 1011 36 3500 5.14 260 09:49 05.02.2022
3940 Smoke 28 1012 34 3000 3.09 270 08:34 05.02.2022
3941 Smoke 26 1013 38 2500 1.54 330 06:58 05.02.2022
3942 Smoke 25 1013 38 2500 1.54 10 06:27 05.02.2022
3943 Smoke 20 1010 52 2500 2.57 100 02:31 05.02.2022
3944 Haze 20 1010 60 2500 2.06 90 01:18 05.02.2022
3945 Haze 20 1010 56 2500 1.54 120 00:36 05.02.2022
3946 Haze 20 1010 64 2500 0 0 23:33 04.02.2022
3947 Smoke 21 1010 60 2500 0 0 22:37 04.02.2022
3948 Smoke 21 1011 56 2500 0 0 21:36 04.02.2022
3949 Smoke 21 1011 56 2500 0 0 21:18 04.02.2022
3950 Smoke 22 1011 53 2500 0 0 20:29 04.02.2022
3951 Smoke 23 1012 64 2500 2.57 350 18:35 04.02.2022
3952 Smoke 24 1011 53 3000 2.57 320 16:20 04.02.2022
3953 Smoke 25 1010 44 3000 2.57 310 15:18 04.02.2022
3954 Smoke 25 1009 50 3000 3.6 280 14:26 04.02.2022
3955 Smoke 26 1009 41 4000 4.63 260 12:43 04.02.2022
3956 Smoke 26 1009 41 4000 4.63 290 11:44 04.02.2022
3957 Smoke 27 1010 41 4000 4.63 240 10:51 04.02.2022
3958 Smoke 27 1011 36 3500 4.63 270 09:31 04.02.2022
3959 Smoke 27 1013 39 3000 4.12 230 07:44 04.02.2022
3960 Haze 22 1011 68 2500 2.06 20 03:28 04.02.2022
3961 Haze 23 1010 68 3000 0 0 02:33 04.02.2022
3962 Haze 24 1009 69 3000 3.6 310 23:34 03.02.2022
3963 Haze 24 1010 69 3000 3.09 310 22:48 03.02.2022
3964 Haze 24 1010 73 3000 2.06 330 21:51 03.02.2022
3965 Haze 24 1010 73 3000 0 0 21:18 03.02.2022
3966 Haze 24 1011 73 3000 2.06 290 20:21 03.02.2022
3967 Haze 25 1011 69 3000 2.06 280 19:36 03.02.2022
3968 Haze 25 1011 69 3000 3.09 260 18:50 03.02.2022
3969 Haze 25 1011 73 3000 2.06 210 17:51 03.02.2022
3970 Haze 25 1011 73 3000 2.06 220 16:46 03.02.2022
3971 Haze 25 1010 73 3000 4.12 240 14:55 03.02.2022
3972 Haze 26 1010 73 4000 4.63 250 13:19 03.02.2022
3973 Haze 27 1009 65 4000 4.63 240 11:44 03.02.2022
3974 Smoke 28 1011 47 4000 4.63 240 08:55 03.02.2022
3975 Haze 27 1013 61 3000 5.14 260 07:40 03.02.2022
3976 Mist 21 1010 88 1600 0 0 00:34 03.02.2022
3977 Mist 21 1010 94 1500 0 0 23:47 02.02.2022
3978 Mist 21 1011 94 1700 0 0 22:38 02.02.2022
3979 Mist 22 1012 94 1800 0 0 21:42 02.02.2022
3980 Mist 22 1012 94 1800 0 0 21:24 02.02.2022
3981 Mist 22 1012 94 2200 2.06 270 20:19 02.02.2022
3982 Mist 22 1012 88 2200 1.54 260 19:45 02.02.2022
3983 Mist 22 1013 88 2500 2.06 260 18:53 02.02.2022
3984 Haze 22 1013 88 2500 2.57 260 18:23 02.02.2022
3985 Haze 24 1012 69 2500 2.06 200 17:20 02.02.2022
3986 Haze 24 1012 69 2500 2.06 200 17:20 02.02.2022
3987 Haze 24 1012 64 2500 1.54 290 16:48 02.02.2022
3988 Smoke 26 1010 61 3000 3.09 300 14:21 02.02.2022
3989 Haze 28 1009 61 3000 4.63 290 12:26 02.02.2022
3990 Haze 28 1009 61 3000 4.63 300 11:42 02.02.2022
3991 Smoke 28 1009 54 3000 6.17 280 11:23 02.02.2022
3992 Smoke 28 1012 51 2500 4.63 250 07:59 02.02.2022
3993 Haze 20 1010 77 2500 0 0 01:36 02.02.2022
3994 Haze 22 1011 78 3000 0 0 21:59 01.02.2022
3995 Haze 23 1011 78 3000 0 0 20:49 01.02.2022
3996 Haze 23 1012 78 3000 1.54 250 18:55 01.02.2022
3997 Smoke 25 1011 61 3000 2.06 320 16:44 01.02.2022
3998 Smoke 25 1010 57 3000 1.54 310 15:30 01.02.2022
3999 Smoke 28 1009 47 3500 5.14 290 12:49 01.02.2022
4000 Smoke 29 1009 48 4000 5.14 290 11:48 01.02.2022
4001 Smoke 29 1011 42 2500 5.66 250 08:34 01.02.2022
4002 Smoke 19 1011 59 2500 0 0 23:54 31.01.2022
4003 Smoke 19 1011 59 2500 0 0 23:54 31.01.2022
4004 Smoke 20 1011 60 2500 0 0 23:36 31.01.2022
4005 Smoke 19 1011 59 2500 0 0 23:36 31.01.2022
4006 Smoke 20 1012 56 2500 0 0 22:30 31.01.2022
4007 Smoke 22 1012 53 2500 0 0 21:34 31.01.2022
4008 Smoke 22 1012 53 2500 0 0 20:34 31.01.2022
4009 Smoke 23 1013 49 2500 0 0 19:46 31.01.2022
4010 Smoke 24 1013 50 2500 0 0 18:31 31.01.2022
4011 Smoke 23 1013 53 2500 0 0 17:55 31.01.2022
4012 Smoke 25 1012 47 2500 1.54 320 16:58 31.01.2022
4013 Smoke 25 1012 47 2500 2.57 290 15:46 31.01.2022
4014 Smoke 27 1011 47 3500 3.6 300 14:27 31.01.2022
4015 Smoke 30 1010 28 3500 4.63 290 12:55 31.01.2022
4016 Smoke 30 1010 32 3500 3.6 280 12:36 31.01.2022
4017 Smoke 29 1010 32 3000 3.6 250 10:58 31.01.2022
4018 Smoke 30 1011 37 3000 5.14 240 10:37 31.01.2022
4019 Smoke 30 1011 32 3000 4.12 250 09:35 31.01.2022
4020 Smoke 30 1012 37 2500 5.14 250 08:53 31.01.2022
4021 Smoke 30 1013 26 2500 1.54 310 08:20 31.01.2022
4022 Smoke 28 1014 30 2500 2.57 20 06:53 31.01.2022
4023 Smoke 25 1014 38 2500 0 0 05:24 31.01.2022
4024 Smoke 22 1011 60 3000 0 0 23:37 30.01.2022
4025 Smoke 22 1011 60 3000 0 0 22:30 30.01.2022
4026 Smoke 22 1011 64 3000 0 0 21:44 30.01.2022
4027 Smoke 22 1011 64 3000 0 0 21:44 30.01.2022
4028 Smoke 23 1012 56 3000 0 0 21:22 30.01.2022
4029 Smoke 24 1012 46 3000 0 0 20:50 30.01.2022
4030 Smoke 24 1012 46 3000 0 0 20:30 30.01.2022
4031 Smoke 24 1012 50 3000 0 0 19:54 30.01.2022
4032 Smoke 25 1013 44 3000 0 0 18:51 30.01.2022
4033 Smoke 26 1013 41 3000 0 0 18:21 30.01.2022
4034 Smoke 26 1012 44 3500 0 0 17:30 30.01.2022
4035 Smoke 27 1012 41 3500 1.54 330 16:42 30.01.2022
4036 Smoke 27 1012 41 3500 1.54 330 16:22 30.01.2022
4037 Smoke 27 1012 41 3500 1.54 330 16:22 30.01.2022
4038 Smoke 27 1011 41 3500 2.06 300 15:54 30.01.2022
4039 Smoke 27 1011 41 3500 2.06 300 15:54 30.01.2022
4040 Smoke 27 1011 44 3500 2.06 290 15:32 30.01.2022
4041 Smoke 27 1011 44 3500 3.09 270 14:47 30.01.2022
4042 Smoke 30 1010 35 4000 2.57 300 13:44 30.01.2022
4043 Smoke 31 1010 30 4000 3.6 300 12:44 30.01.2022
4044 Smoke 31 1011 40 3500 4.63 260 10:39 30.01.2022
4045 Smoke 31 1011 35 3500 4.12 260 09:58 30.01.2022
4046 Smoke 32 1012 31 3500 4.63 260 09:21 30.01.2022
4047 Smoke 30 1014 28 3500 2.57 50 07:57 30.01.2022
4048 Smoke 21 1013 49 2500 0 0 02:44 30.01.2022
4049 Smoke 20 1013 52 2500 1.54 100 01:52 30.01.2022
4050 Smoke 21 1013 52 2500 0 0 23:46 29.01.2022
4051 Smoke 23 1013 43 2500 1.54 30 22:48 29.01.2022
4052 Smoke 23 1014 40 2500 0 0 21:28 29.01.2022
4053 Smoke 23 1015 46 3000 0 0 20:50 29.01.2022
4054 Smoke 25 1015 31 3000 0 0 19:47 29.01.2022
4055 Smoke 25 1015 31 3000 1.54 20 19:29 29.01.2022
4056 Smoke 25 1015 31 3000 1.54 90 18:39 29.01.2022
4057 Smoke 26 1015 31 3000 1.54 40 17:46 29.01.2022
4058 Smoke 26 1015 29 3000 3.6 180 16:43 29.01.2022
4059 Smoke 27 1013 32 3500 5.14 340 15:20 29.01.2022
4060 Smoke 28 1012 39 4000 3.6 320 13:47 29.01.2022
4061 Smoke 29 1012 32 4000 4.12 310 13:26 29.01.2022
4062 Smoke 30 1012 25 4000 3.6 290 12:42 29.01.2022
4063 Smoke 31 1012 25 4000 3.6 290 11:39 29.01.2022
4064 Smoke 31 1013 23 3500 2.06 200 10:31 29.01.2022
4065 Smoke 28 1016 32 3000 2.57 80 07:57 29.01.2022
4066 Smoke 23 1013 40 3000 4.12 50 01:37 29.01.2022
4067 Smoke 22 1013 46 3000 0.51 60 00:31 29.01.2022
4068 Smoke 23 1013 43 3000 3.09 50 23:29 28.01.2022
4069 Smoke 22 1013 46 3000 2.57 50 22:46 28.01.2022
4070 Smoke 22 1013 46 3000 0 0 22:18 28.01.2022
4071 Smoke 24 1014 41 3000 0 0 20:41 28.01.2022
4072 Smoke 25 1015 33 3000 1.54 30 19:53 28.01.2022
4073 Smoke 26 1015 31 3000 4.12 10 18:51 28.01.2022
4074 Smoke 26 1014 34 3000 3.6 20 17:52 28.01.2022
4075 Smoke 27 1013 39 3000 4.12 340 15:46 28.01.2022
4076 Smoke 27 1013 39 4000 4.12 340 14:46 28.01.2022
4077 Smoke 30 1012 30 5000 4.12 290 12:40 28.01.2022
4078 Smoke 30 1012 26 4000 4.63 270 11:38 28.01.2022
4079 Smoke 30 1012 26 4000 4.63 270 11:38 28.01.2022
4080 Smoke 31 1012 23 4000 1.54 110 10:22 28.01.2022
4081 Smoke 31 1013 23 4000 1.54 140 09:45 28.01.2022
4082 Smoke 28 1015 34 3000 4.12 60 07:40 28.01.2022
4083 Smoke 25 1015 38 2500 3.6 80 05:30 28.01.2022
4084 Smoke 22 1014 46 2500 4.12 40 03:48 28.01.2022
4085 Smoke 22 1013 43 2500 3.09 40 02:23 28.01.2022
4086 Smoke 23 1012 40 2500 4.12 40 01:35 28.01.2022
4087 Smoke 23 1011 43 2500 2.57 50 23:47 27.01.2022
4088 Haze 23 1012 46 2500 3.6 40 21:58 27.01.2022
4089 Haze 22 1012 53 2500 3.09 40 21:32 27.01.2022
4090 Haze 23 1012 49 2500 1.54 60 20:55 27.01.2022
4091 Haze 23 1012 56 2500 0 0 19:35 27.01.2022
4092 Smoke 24 1013 60 3000 1.54 350 17:58 27.01.2022
4093 Smoke 25 1012 50 3000 2.06 330 15:43 27.01.2022
4094 Smoke 27 1010 44 4000 4.12 290 13:39 27.01.2022
4095 Smoke 27 1010 44 4000 5.14 290 12:46 27.01.2022
4096 Smoke 28 1010 39 4000 4.63 250 10:59 27.01.2022
4097 Smoke 30 1012 30 3500 2.57 120 09:27 27.01.2022
4098 Smoke 28 1013 34 3000 3.09 110 08:38 27.01.2022
4099 Smoke 26 1014 36 3000 4.12 100 07:23 27.01.2022
4100 Smoke 21 1012 49 2200 0 0 02:59 27.01.2022
4101 Haze 20 1011 60 1900 0 0 23:52 26.01.2022
4102 Haze 21 1011 64 1800 0 0 22:27 26.01.2022
4103 Haze 22 1011 64 2100 0 0 21:41 26.01.2022
4104 Haze 22 1012 64 2100 1.54 0 20:42 26.01.2022
4105 Haze 21 1012 64 2100 0 0 20:23 26.01.2022
4106 Haze 22 1012 60 2100 0 0 19:28 26.01.2022
4107 Smoke 22 1012 60 2200 1.54 230 18:46 26.01.2022
4108 Smoke 23 1012 53 2500 0 0 17:52 26.01.2022
4109 Smoke 23 1012 56 2500 0 0 17:24 26.01.2022
4110 Smoke 24 1012 53 2500 2.06 20 16:40 26.01.2022
4111 Smoke 24 1012 53 2500 2.06 340 15:50 26.01.2022
4112 Smoke 24 1010 53 2500 2.06 320 14:23 26.01.2022
4113 Smoke 27 1010 41 3000 4.63 310 11:56 26.01.2022
4114 Smoke 28 1010 39 3000 5.66 270 10:45 26.01.2022
4115 Smoke 29 1011 34 3000 4.12 250 09:49 26.01.2022
4116 Smoke 27 1012 34 3000 3.6 120 08:32 26.01.2022
4117 Smoke 22 1014 43 2500 4.63 50 05:42 26.01.2022
4118 Smoke 19 1011 52 2200 0 0 23:59 25.01.2022
4119 Smoke 20 1011 49 2200 0 0 23:28 25.01.2022
4120 Smoke 20 1011 49 2200 0 0 22:48 25.01.2022
4121 Smoke 21 1011 46 2200 2.57 30 22:18 25.01.2022
4122 Smoke 21 1011 49 2100 1.54 60 21:22 25.01.2022
4123 Smoke 21 1012 73 2100 0 0 20:44 25.01.2022
4124 Smoke 22 1012 49 2100 2.06 30 19:53 25.01.2022
4125 Smoke 22 1012 49 2100 2.06 30 19:53 25.01.2022
4126 Smoke 22 1012 53 2100 2.57 120 18:43 25.01.2022
4127 Smoke 22 1012 53 2100 3.6 20 17:45 25.01.2022
4128 Smoke 23 1012 49 2200 2.57 340 16:47 25.01.2022
4129 Smoke 23 1012 49 2200 2.57 350 16:21 25.01.2022
4130 Smoke 23 1012 49 2200 3.09 350 15:38 25.01.2022
4131 Smoke 24 1011 50 2500 3.09 320 14:58 25.01.2022
4132 Smoke 25 1010 47 3500 4.12 300 13:46 25.01.2022
4133 Smoke 27 1010 32 3000 3.6 250 10:58 25.01.2022
4134 Smoke 25 1012 36 2500 3.09 90 08:38 25.01.2022
4135 Smoke 23 1013 35 2500 2.06 50 07:29 25.01.2022
4136 Smoke 23 1014 35 2500 2.57 70 06:50 25.01.2022
4137 Smoke 20 1014 40 2500 3.09 50 05:22 25.01.2022
4138 Smoke 17 1011 55 3000 0 0 23:37 24.01.2022
4139 Smoke 18 1011 59 3000 0 0 23:19 24.01.2022
4140 Smoke 18 1012 55 3000 0 0 22:59 24.01.2022
4141 Smoke 18 1012 52 3000 0 0 22:41 24.01.2022
4142 Smoke 18 1012 55 3000 0 0 21:54 24.01.2022
4143 Smoke 18 1012 52 3000 0 0 21:29 24.01.2022
4144 Smoke 19 1013 48 3000 2.06 350 20:30 24.01.2022
4145 Smoke 19 1013 48 3000 3.09 360 19:52 24.01.2022
4146 Smoke 19 1013 48 3000 2.57 10 19:30 24.01.2022
4147 Smoke 20 1013 42 3000 2.57 10 18:19 24.01.2022
4148 Smoke 20 1013 40 3000 3.6 350 17:24 24.01.2022
4149 Smoke 21 1013 37 3000 4.12 340 16:55 24.01.2022
4150 Smoke 21 1013 37 3000 3.6 340 16:19 24.01.2022
4151 Smoke 21 1012 40 3000 3.6 320 14:43 24.01.2022
4152 Smoke 22 1011 35 4000 4.63 310 13:24 24.01.2022
4153 Smoke 23 1010 33 4000 5.14 330 12:23 24.01.2022
4154 Smoke 23 1011 28 3000 2.06 320 10:46 24.01.2022
4155 Smoke 23 1012 25 3000 4.63 30 09:48 24.01.2022
4156 Smoke 22 1013 33 2500 4.63 60 08:41 24.01.2022
4157 Smoke 21 1015 32 2500 5.14 50 06:41 24.01.2022
4158 Smoke 18 1011 45 2500 2.06 50 01:31 24.01.2022
4159 Smoke 19 1011 45 2500 2.06 40 00:38 24.01.2022
4160 Smoke 19 1011 45 2500 2.06 50 00:20 24.01.2022
4161 Smoke 19 1012 55 2500 3.09 10 22:37 23.01.2022
4162 Smoke 20 1012 52 2500 3.09 360 21:50 23.01.2022
4163 Smoke 20 1012 45 2500 3.6 320 21:26 23.01.2022
4164 Smoke 21 1012 43 2500 3.6 300 20:45 23.01.2022
4165 Smoke 21 1012 60 2500 2.57 30 19:52 23.01.2022
4166 Smoke 21 1013 60 2500 2.57 10 18:52 23.01.2022
4167 Smoke 21 1013 60 2500 2.57 10 17:49 23.01.2022
4168 Smoke 21 1013 60 2500 2.57 10 16:48 23.01.2022
4169 Smoke 21 1013 56 2500 3.6 330 15:18 23.01.2022
4170 Smoke 22 1012 53 2100 5.66 330 14:31 23.01.2022
4171 Smoke 22 1012 53 2100 5.66 330 14:31 23.01.2022
4172 Dust 22 1011 53 2500 4.12 300 13:22 23.01.2022
4173 Dust 22 1011 53 2500 4.12 300 12:36 23.01.2022
4174 Dust 22 1010 53 2500 5.14 330 12:18 23.01.2022
4175 Dust 23 1010 53 2500 4.63 310 11:23 23.01.2022
4176 Smoke 23 1011 53 2100 4.12 310 10:43 23.01.2022
4177 Smoke 23 1011 53 2100 4.12 310 10:19 23.01.2022
4178 Smoke 23 1012 53 1200 5.14 320 08:59 23.01.2022
4179 Haze 23 1013 56 1300 4.12 10 05:58 23.01.2022
4180 Haze 23 1009 68 2100 2.57 340 01:54 23.01.2022
4181 Haze 24 1009 57 2500 4.63 10 01:34 23.01.2022
4182 Smoke 24 1009 43 2500 5.66 300 00:31 23.01.2022
4183 Smoke 24 1009 50 2500 5.66 300 23:57 22.01.2022
4184 Haze 24 1009 60 2500 5.14 300 22:46 22.01.2022
4185 Clouds 25 1009 65 2500 6.17 300 21:38 22.01.2022
4186 Haze 24 1010 73 2500 4.12 270 20:23 22.01.2022
4187 Haze 24 1010 73 2500 3.09 260 19:27 22.01.2022
4188 Haze 25 1010 69 2500 3.09 290 18:29 22.01.2022
4189 Haze 25 1010 65 2500 3.6 300 17:41 22.01.2022
4190 Haze 25 1010 65 2500 3.6 300 16:57 22.01.2022
4191 Haze 25 1010 69 2500 3.6 310 15:55 22.01.2022
4192 Haze 25 1010 69 2500 3.6 310 15:37 22.01.2022
4193 Haze 27 1008 69 2500 4.63 280 13:59 22.01.2022
4194 Drizzle 27 1008 69 4000 6.17 260 12:58 22.01.2022
4195 Haze 27 1008 69 4000 3.6 260 12:30 22.01.2022
4196 Haze 27 1008 69 4000 6.17 260 11:57 22.01.2022
4197 Haze 27 1009 69 3000 5.14 260 10:38 22.01.2022
4198 Haze 27 1009 69 3000 5.14 260 10:19 22.01.2022
4199 Haze 28 1010 65 2500 7.2 250 08:54 22.01.2022
4200 Haze 27 1011 69 2500 6.69 250 08:31 22.01.2022
4201 Haze 24 1013 83 1600 2.06 100 05:20 22.01.2022
4202 Haze 22 1010 94 2500 0 0 01:58 22.01.2022
4203 Haze 22 1009 94 2500 3.09 100 23:49 21.01.2022
4204 Haze 23 1010 88 3000 0 0 22:58 21.01.2022
4205 Haze 23 1011 88 3000 0 0 20:46 21.01.2022
4206 Haze 24 1012 78 3000 1.54 350 19:20 21.01.2022
4207 Haze 25 1012 65 3000 0 0 17:48 21.01.2022
4208 Haze 25 1011 78 3000 2.57 290 15:48 21.01.2022
4209 Smoke 25 1010 78 3500 2.57 300 14:41 21.01.2022
4210 Smoke 27 1010 65 5000 4.12 300 12:43 21.01.2022
4211 Smoke 28 1010 65 5000 6.17 280 11:29 21.01.2022
4212 Smoke 28 1011 61 4000 5.14 290 10:27 21.01.2022
4213 Smoke 28 1012 65 3000 5.14 280 08:58 21.01.2022
4214 Smoke 28 1013 61 3000 2.57 300 07:48 21.01.2022
4215 Haze 22 1011 78 2500 0 0 01:48 21.01.2022
4216 Haze 23 1011 78 3000 0 0 22:47 20.01.2022
4217 Haze 23 1011 78 3000 0 0 21:49 20.01.2022
4218 Haze 23 1011 78 3000 0 0 21:25 20.01.2022
4219 Haze 24 1011 69 3000 1.54 350 19:47 20.01.2022
4220 Haze 24 1012 69 3000 1.54 310 19:18 20.01.2022
4221 Smoke 25 1012 65 3000 2.57 310 17:37 20.01.2022
4222 Smoke 25 1011 61 3000 2.57 310 16:19 20.01.2022
4223 Smoke 26 1011 50 3000 3.09 310 15:29 20.01.2022
4224 Smoke 26 1010 44 3000 3.6 310 14:20 20.01.2022
4225 Smoke 28 1009 47 4000 4.12 290 12:49 20.01.2022
4226 Smoke 28 1009 51 4000 5.14 270 12:29 20.01.2022
4227 Smoke 28 1010 54 4000 4.12 220 11:19 20.01.2022
4228 Smoke 29 1010 54 3500 4.63 260 10:18 20.01.2022
4229 Smoke 28 1012 57 3000 5.14 240 08:51 20.01.2022
4230 Smoke 28 1014 47 2500 2.06 360 06:57 20.01.2022
4231 Smoke 22 1011 60 2500 0 0 00:40 20.01.2022
4232 Smoke 23 1011 53 2500 0 0 22:39 19.01.2022
4233 Smoke 24 1012 50 2500 2.06 350 21:36 19.01.2022
4234 Haze 24 1013 53 2500 3.09 10 20:58 19.01.2022
4235 Haze 25 1013 50 2500 2.57 350 20:40 19.01.2022
4236 Haze 24 1013 69 2500 2.06 20 18:59 19.01.2022
4237 Haze 25 1013 65 2500 2.06 330 17:51 19.01.2022
4238 Haze 26 1013 57 2500 2.57 310 17:18 19.01.2022
4239 Smoke 26 1012 53 3000 2.57 300 15:35 19.01.2022
4240 Smoke 29 1011 39 3000 4.63 330 13:26 19.01.2022
4241 Smoke 30 1011 39 3000 3.6 290 11:59 19.01.2022
4242 Smoke 30 1011 39 3000 3.6 290 11:38 19.01.2022
4243 Smoke 30 1013 42 3000 5.14 240 09:49 19.01.2022
4244 Smoke 30 1013 42 3000 4.63 260 09:22 19.01.2022
4245 Smoke 26 1016 53 2100 0 0 05:29 19.01.2022
4246 Smoke 23 1013 60 2500 0 0 00:22 19.01.2022
4247 Smoke 23 1013 60 2500 0 0 23:18 18.01.2022
4248 Smoke 23 1014 60 2500 0 0 21:50 18.01.2022
4249 Smoke 24 1014 53 2500 0 0 20:38 18.01.2022
4250 Smoke 25 1015 47 3000 0 0 19:51 18.01.2022
4251 Smoke 26 1015 41 3000 0 0 19:33 18.01.2022
4252 Smoke 26 1015 44 3000 2.06 310 18:23 18.01.2022
4253 Smoke 26 1015 50 3000 2.06 10 17:32 18.01.2022
4254 Smoke 26 1014 47 3000 3.09 340 16:22 18.01.2022
4255 Smoke 27 1013 47 3000 3.09 320 15:25 18.01.2022
4256 Smoke 27 1013 54 3000 3.09 300 14:23 18.01.2022
4257 Smoke 31 1012 40 3000 4.63 300 11:45 18.01.2022
4258 Smoke 30 1013 54 3000 5.66 250 10:30 18.01.2022
4259 Smoke 30 1015 51 2500 4.63 260 08:36 18.01.2022
4260 Smoke 31 1016 45 2500 2.06 60 07:45 18.01.2022
4261 Haze 24 1015 78 2200 0 0 00:42 18.01.2022
4262 Haze 25 1015 69 2500 2.06 150 22:47 17.01.2022
4263 Haze 24 1015 73 2500 0 0 21:50 17.01.2022
4264 Haze 25 1016 69 2500 0 0 21:29 17.01.2022
4265 Smoke 26 1016 65 2500 2.06 10 19:37 17.01.2022
4266 Smoke 27 1017 61 2500 1.54 360 18:26 17.01.2022
4267 Smoke 27 1017 61 2500 2.06 350 17:22 17.01.2022
4268 Smoke 27 1016 61 2500 2.06 330 16:22 17.01.2022
4269 Smoke 28 1015 57 2500 2.06 330 14:58 17.01.2022
4270 Smoke 29 1014 54 2500 2.06 300 14:32 17.01.2022
4271 Smoke 30 1013 51 3000 3.09 280 13:19 17.01.2022
4272 Smoke 30 1013 48 3000 3.09 300 12:27 17.01.2022
4273 Smoke 31 1013 45 3000 4.12 270 11:33 17.01.2022
4274 Smoke 31 1014 48 3000 4.12 270 10:21 17.01.2022
4275 Smoke 30 1015 45 3000 3.09 120 08:44 17.01.2022
4276 Smoke 29 1017 48 2500 3.09 90 07:21 17.01.2022
4277 Haze 23 1014 64 2500 3.09 90 01:52 17.01.2022
4278 Haze 24 1013 60 2500 3.6 90 00:43 17.01.2022
4279 Smoke 25 1014 57 3000 3.09 80 21:22 16.01.2022
4280 Smoke 26 1014 57 3000 4.12 40 20:28 16.01.2022
4281 Haze 26 1014 61 3000 0 0 18:46 16.01.2022
4282 Haze 26 1014 61 3000 2.06 80 17:50 16.01.2022
4283 Smoke 26 1014 57 3000 0 0 16:55 16.01.2022
4284 Smoke 27 1013 54 3000 3.6 350 15:43 16.01.2022
4285 Smoke 28 1012 54 3000 2.06 320 14:29 16.01.2022
4286 Smoke 28 1012 54 3000 2.06 320 14:29 16.01.2022
4287 Smoke 29 1012 48 3500 3.6 320 13:33 16.01.2022
4288 Smoke 31 1011 40 3500 4.12 270 12:21 16.01.2022
4289 Smoke 32 1011 35 3500 3.09 270 11:27 16.01.2022
4290 Smoke 31 1012 35 4000 2.06 100 10:27 16.01.2022
4291 Smoke 31 1013 35 4000 0 0 09:57 16.01.2022
4292 Smoke 31 1013 37 3500 5.14 80 09:23 16.01.2022
4293 Smoke 31 1014 37 3500 3.6 90 08:53 16.01.2022
4294 Smoke 26 1016 50 2500 4.12 70 05:52 16.01.2022
4295 Haze 23 1012 56 2500 0 0 00:19 16.01.2022
4296 Haze 23 1012 60 2500 2.06 50 22:49 15.01.2022
4297 Haze 24 1013 57 2500 2.57 40 21:21 15.01.2022
4298 Haze 24 1013 57 2500 2.57 40 21:21 15.01.2022
4299 Haze 24 1013 64 2500 0 0 20:44 15.01.2022
4300 Haze 24 1013 64 2500 0 0 20:21 15.01.2022
4301 Haze 23 1013 68 2500 0 0 19:26 15.01.2022
4302 Haze 25 1013 61 2500 3.09 340 17:58 15.01.2022
4303 Haze 25 1013 65 2500 2.57 330 16:43 15.01.2022
4304 Haze 26 1012 65 3000 2.57 330 14:36 15.01.2022
4305 Smoke 28 1011 54 4000 3.6 290 12:38 15.01.2022
4306 Smoke 29 1010 45 4000 3.6 260 11:20 15.01.2022
4307 Smoke 30 1012 37 3000 3.6 50 09:45 15.01.2022
4308 Haze 21 1012 78 2100 2.57 90 01:27 15.01.2022
4309 Haze 22 1012 78 2100 0 0 22:40 14.01.2022
4310 Haze 22 1013 78 2200 3.09 360 20:54 14.01.2022
4311 Haze 22 1013 78 2200 2.06 10 20:23 14.01.2022
4312 Haze 23 1013 78 2200 2.06 330 19:49 14.01.2022
4313 Haze 23 1013 73 2200 2.06 210 18:33 14.01.2022
4314 Haze 24 1012 64 2500 2.57 320 16:57 14.01.2022
4315 Haze 24 1012 60 2500 1.54 300 16:38 14.01.2022
4316 Haze 25 1011 65 2500 2.06 330 14:50 14.01.2022
4317 Haze 25 1011 65 2500 3.09 320 14:20 14.01.2022
4318 Smoke 26 1010 61 2500 4.12 300 12:47 14.01.2022
4319 Smoke 27 1010 57 2500 4.12 310 11:51 14.01.2022
4320 Smoke 27 1011 57 2500 5.14 260 10:24 14.01.2022
4321 Smoke 26 1012 65 2100 5.14 270 08:52 14.01.2022
4322 Smoke 27 1014 54 2100 0 0 07:29 14.01.2022
4323 Haze 21 1012 78 2100 2.24 75 02:20 14.01.2022
4324 Haze 22 1011 78 2100 0 0 23:40 13.01.2022
4325 Haze 22 1011 78 2100 0 0 21:46 13.01.2022
4326 Haze 22 1011 78 2200 0 0 21:27 13.01.2022
4327 Haze 23 1012 73 2500 2.57 290 19:44 13.01.2022
4328 Haze 23 1012 73 2500 2.06 260 19:23 13.01.2022
4329 Haze 23 1013 68 2500 2.06 350 18:36 13.01.2022
4330 Haze 23 1012 68 2500 3.09 330 16:48 13.01.2022
4331 Haze 24 1011 69 2500 4.12 330 15:38 13.01.2022
4332 Haze 24 1011 69 2500 4.12 330 15:18 13.01.2022
4333 Haze 25 1010 61 2500 3.6 280 13:28 13.01.2022
4334 Smoke 26 1010 57 2500 5.14 270 10:39 13.01.2022
4335 Smoke 26 1011 57 2500 3.09 100 09:23 13.01.2022
4336 Smoke 27 1013 50 2500 3.09 60 08:28 13.01.2022
4337 Smoke 26 1013 53 2500 2.57 120 07:58 13.01.2022
4338 Smoke 25 1013 57 2500 3.09 110 07:18 13.01.2022
4339 Smoke 22 1014 68 2200 4.12 100 05:20 13.01.2022
4340 Haze 20 1013 77 1800 3.09 30 03:34 13.01.2022
4341 Haze 20 1011 73 2500 2.57 120 01:38 13.01.2022
4342 Haze 20 1011 83 2500 0 0 23:53 12.01.2022
4343 Haze 21 1011 78 2500 0 0 23:33 12.01.2022
4344 Haze 21 1012 73 2500 0 0 21:59 12.01.2022
4345 Haze 21 1013 73 2500 0 0 21:39 12.01.2022
4346 Haze 21 1013 73 2500 0 0 21:18 12.01.2022
4347 Haze 22 1013 68 2500 1.54 300 20:41 12.01.2022
4348 Haze 22 1014 68 2500 1.54 0 18:48 12.01.2022
4349 Haze 22 1014 73 2500 0 0 17:54 12.01.2022
4350 Haze 23 1013 64 2500 2.57 350 16:43 12.01.2022
4351 Haze 24 1012 69 2500 3.09 310 14:49 12.01.2022
4352 Haze 24 1012 69 2500 4.12 320 14:19 12.01.2022
4353 Smoke 25 1011 57 3000 4.63 290 12:57 12.01.2022
4354 Smoke 26 1012 50 3000 4.12 260 09:48 12.01.2022
4355 Smoke 26 1014 47 2500 2.06 110 07:57 12.01.2022
4356 Smoke 25 1014 50 2500 0 0 07:33 12.01.2022
4357 Smoke 18 1013 59 3000 2.06 20 02:20 12.01.2022
4358 Haze 19 1012 63 3000 2.06 350 23:26 11.01.2022
4359 Haze 19 1012 63 3000 3.09 360 22:39 11.01.2022
4360 Haze 20 1012 60 3000 2.57 10 22:18 11.01.2022
4361 Haze 21 1014 60 3000 2.57 340 20:40 11.01.2022
4362 Haze 21 1014 64 3000 2.57 10 19:35 11.01.2022
4363 Haze 22 1014 64 3000 1.54 320 17:54 11.01.2022
4364 Haze 23 1014 60 3000 1.54 330 16:40 11.01.2022
4365 Haze 23 1014 64 3000 2.06 30 16:40 11.01.2022
4366 Haze 23 1014 60 3000 1.54 330 16:18 11.01.2022
4367 Haze 24 1013 60 3000 2.57 310 14:53 11.01.2022
4368 Haze 24 1013 60 3000 2.57 310 14:34 11.01.2022
4369 Smoke 24 1012 60 3000 4.12 320 13:52 11.01.2022
4370 Smoke 25 1012 53 3000 4.12 320 13:28 11.01.2022
4371 Smoke 25 1012 53 2500 4.12 270 12:34 11.01.2022
4372 Smoke 25 1012 57 2500 4.63 280 10:40 11.01.2022
4373 Smoke 26 1014 47 2500 3.6 260 08:26 11.01.2022
4374 Haze 20 1015 68 1800 1.54 120 04:28 11.01.2022
4375 Haze 19 1012 77 2200 2.57 90 00:27 11.01.2022
4376 Haze 19 1012 77 2200 3.09 110 23:39 10.01.2022
4377 Smoke 20 1013 68 2500 2.06 90 22:42 10.01.2022
4378 Smoke 20 1013 64 2500 0 0 22:18 10.01.2022
4379 Smoke 20 1013 64 2500 2.57 100 21:36 10.01.2022
4380 Smoke 21 1014 56 2500 0 0 21:18 10.01.2022
4381 Smoke 20 1014 60 2500 0 0 20:54 10.01.2022
4382 Smoke 20 1014 64 2500 0 0 20:19 10.01.2022
4383 Smoke 21 1014 56 3000 2.06 350 19:39 10.01.2022
4384 Smoke 21 1014 56 3000 2.06 350 19:19 10.01.2022
4385 Smoke 21 1014 56 3000 1.54 340 18:47 10.01.2022
4386 Smoke 21 1014 56 3000 3.09 340 16:51 10.01.2022
4387 Smoke 22 1014 49 3500 4.12 340 16:33 10.01.2022
4388 Smoke 22 1013 53 4000 4.63 330 14:49 10.01.2022
4389 Smoke 23 1012 49 4500 3.6 300 13:35 10.01.2022
4390 Smoke 24 1012 43 5000 6.17 310 11:57 10.01.2022
4391 Smoke 24 1012 43 5000 7.2 280 10:50 10.01.2022
4392 Smoke 25 1013 38 4000 3.6 280 09:40 10.01.2022
4393 Smoke 22 1016 40 2500 1.03 0 05:52 10.01.2022
4394 Smoke 20 1015 45 2500 0 0 04:48 10.01.2022
4395 Smoke 19 1013 48 3000 0 0 01:22 10.01.2022
4396 Smoke 18 1013 55 3000 0 0 00:22 10.01.2022
4397 Smoke 19 1013 55 3000 1.54 40 22:48 09.01.2022
4398 Smoke 19 1013 55 3000 1.54 40 22:21 09.01.2022
4399 Smoke 20 1014 49 3000 0 0 21:42 09.01.2022
4400 Smoke 20 1014 49 3000 0 0 21:22 09.01.2022
4401 Smoke 20 1014 49 3000 0 0 20:49 09.01.2022
4402 Smoke 20 1014 45 3000 2.06 30 20:29 09.01.2022
4403 Smoke 20 1015 45 3000 3.6 350 19:44 09.01.2022
4404 Smoke 20 1015 45 3000 3.6 350 19:22 09.01.2022
4405 Smoke 21 1015 46 3000 3.09 10 18:49 09.01.2022
4406 Smoke 21 1015 46 3000 3.09 10 18:30 09.01.2022
4407 Smoke 22 1015 43 3000 4.63 340 17:30 09.01.2022
4408 Rain 22 1015 49 3000 4.63 330 16:51 09.01.2022
4409 Smoke 22 1014 56 4000 4.12 330 15:56 09.01.2022
4410 Smoke 23 1014 49 4000 3.6 320 15:34 09.01.2022
4411 Smoke 23 1014 49 4000 4.63 320 14:40 09.01.2022
4412 Smoke 24 1013 46 5000 4.12 330 13:50 09.01.2022
4413 Smoke 26 1012 38 5000 5.14 300 12:44 09.01.2022
4414 Smoke 26 1012 38 5000 4.63 300 11:48 09.01.2022
4415 Smoke 26 1012 36 5000 4.12 290 10:49 09.01.2022
4416 Smoke 26 1013 36 5000 2.57 310 09:42 09.01.2022
4417 Haze 26 1015 34 5000 3.09 340 08:31 09.01.2022
4418 Haze 21 1014 73 2500 3.6 350 02:48 09.01.2022
4419 Haze 22 1013 73 2500 1.54 10 01:21 09.01.2022
4420 Haze 23 1013 73 2500 1.54 40 23:38 08.01.2022
4421 Haze 23 1013 68 2500 2.57 340 22:59 08.01.2022
4422 Haze 23 1013 73 2500 3.09 350 22:19 08.01.2022
4423 Haze 23 1013 68 2500 3.6 20 21:25 08.01.2022
4424 Haze 23 1014 73 2500 2.57 40 20:41 08.01.2022
4425 Haze 23 1014 73 2500 2.57 40 20:19 08.01.2022
4426 Haze 23 1014 78 2500 2.06 350 18:34 08.01.2022
4427 Haze 24 1014 73 2500 3.6 340 17:22 08.01.2022
4428 Clouds 24 1014 73 2500 3.09 350 15:52 08.01.2022
4429 Haze 24 1013 73 2500 3.6 330 14:44 08.01.2022
4430 Haze 24 1012 83 2500 4.63 300 13:25 08.01.2022
4431 Haze 26 1012 69 2500 4.63 300 11:25 08.01.2022
4432 Haze 26 1012 73 2500 3.6 310 10:25 08.01.2022
4433 Haze 26 1012 73 2500 3.09 300 09:48 08.01.2022
4434 Clouds 26 1015 73 2200 2.06 150 07:50 08.01.2022
4435 Haze 24 1013 88 2200 2.06 110 02:50 08.01.2022
4436 Haze 24 1012 88 2200 2.06 70 00:41 08.01.2022
4437 Haze 24 1012 88 2200 2.57 120 22:47 07.01.2022
4438 Haze 24 1013 88 2200 0 0 21:18 07.01.2022
4439 Haze 25 1013 83 2500 2.06 120 20:19 07.01.2022
4440 Haze 26 1013 73 2500 0 0 19:23 07.01.2022
4441 Haze 26 1014 73 2500 0 0 18:44 07.01.2022
4442 Haze 26 1014 73 2500 2.57 230 17:28 07.01.2022
4443 Haze 26 1013 73 2500 2.06 240 16:39 07.01.2022
4444 Haze 27 1012 74 2200 3.6 230 14:29 07.01.2022
4445 Haze 27 1011 74 2500 4.12 240 13:41 07.01.2022
4446 Haze 28 1011 65 2500 5.14 240 12:49 07.01.2022
4447 Haze 28 1011 65 2500 5.14 240 12:49 07.01.2022
4448 Haze 28 1011 65 2200 5.14 220 09:42 07.01.2022
4449 Haze 23 1012 83 1800 1.54 120 02:56 07.01.2022
4450 Haze 23 1012 83 2200 2.57 100 01:55 07.01.2022
4451 Haze 23 1011 83 2200 2.06 90 01:28 07.01.2022
4452 Haze 23 1011 83 2200 2.06 90 01:28 07.01.2022
4453 Haze 23 1011 83 2200 2.57 100 00:59 07.01.2022
4454 Haze 24 1011 78 2200 1.54 90 00:28 07.01.2022
4455 Haze 24 1012 78 2200 2.06 50 21:34 06.01.2022
4456 Haze 24 1012 83 2200 2.06 100 20:22 06.01.2022
4457 Haze 24 1013 83 2200 2.57 110 19:45 06.01.2022
4458 Haze 25 1013 73 2200 1.54 40 18:59 06.01.2022
4459 Haze 25 1013 73 2200 1.54 30 17:41 06.01.2022
4460 Haze 26 1013 73 2500 3.09 330 16:57 06.01.2022
4461 Haze 26 1013 73 2500 2.06 320 15:49 06.01.2022
4462 Haze 26 1012 78 2500 4.12 340 15:27 06.01.2022
4463 Haze 26 1012 78 2500 4.12 310 14:55 06.01.2022
4464 Haze 26 1012 78 2500 3.6 310 14:18 06.01.2022
4465 Smoke 27 1011 65 3000 4.63 290 12:56 06.01.2022
4466 Smoke 29 1011 54 3000 4.12 270 11:43 06.01.2022
4467 Smoke 29 1011 51 3000 4.12 250 11:23 06.01.2022
4468 Smoke 29 1012 58 2500 5.14 260 08:59 06.01.2022
4469 Haze 24 1013 83 2200 2.06 30 01:51 06.01.2022
4470 Haze 25 1012 83 2000 1.54 270 23:40 05.01.2022
4471 Mist 24 1013 88 1900 0 0 22:59 05.01.2022
4472 Mist 24 1013 88 1900 0 0 22:40 05.01.2022
4473 Mist 25 1013 83 1900 1.54 130 21:54 05.01.2022
4474 Mist 25 1013 83 1900 2.06 110 21:21 05.01.2022
4475 Mist 25 1013 88 2100 2.06 360 20:21 05.01.2022
4476 Mist 25 1014 88 2100 2.06 20 19:27 05.01.2022
4477 Haze 26 1014 78 2200 2.57 20 17:50 05.01.2022
4478 Haze 27 1014 74 2200 0 0 16:56 05.01.2022
4479 Haze 27 1013 74 2200 3.09 310 15:46 05.01.2022
4480 Mist 27 1012 78 1800 3.6 280 14:28 05.01.2022
4481 Haze 28 1012 69 2200 3.09 280 13:33 05.01.2022
4482 Smoke 29 1011 58 2200 4.63 260 11:46 05.01.2022
4483 Smoke 30 1014 48 1800 3.09 180 08:20 05.01.2022
4484 Haze 28 1015 65 1500 0 0 06:36 05.01.2022
4485 Haze 25 1013 78 2100 0 0 00:59 05.01.2022
4486 Haze 25 1013 78 2100 0 0 23:38 04.01.2022
4487 Haze 25 1013 78 2100 0 0 23:18 04.01.2022
4488 Haze 25 1013 78 2100 0 0 21:32 04.01.2022
4489 Haze 26 1014 69 2100 0 0 20:27 04.01.2022
4490 Haze 27 1015 69 2100 2.06 20 18:35 04.01.2022
4491 Haze 27 1014 65 2200 1.54 340 17:18 04.01.2022
4492 Haze 27 1013 65 1800 0 0 16:31 04.01.2022
4493 Haze 28 1013 61 2100 2.06 310 14:58 04.01.2022
4494 Haze 28 1012 61 2100 2.06 310 14:36 04.01.2022
4495 Smoke 29 1012 58 2200 3.6 290 13:55 04.01.2022
4496 Smoke 31 1010 42 2500 4.63 240 11:44 04.01.2022
4497 Smoke 31 1012 48 2500 3.6 250 10:18 04.01.2022
4498 Smoke 31 1013 48 2500 3.09 290 08:49 04.01.2022
4499 Smoke 28 1016 54 2100 2.06 130 06:28 04.01.2022
4500 Haze 25 1013 69 2500 2.06 60 00:42 04.01.2022
4501 Haze 25 1013 69 2500 0 0 23:49 03.01.2022
4502 Haze 26 1014 61 2500 0 0 22:22 03.01.2022
4503 Haze 26 1014 61 2500 0 0 21:38 03.01.2022
4504 Haze 26 1015 65 2500 0 0 20:41 03.01.2022
4505 Haze 26 1015 61 2500 0 0 18:55 03.01.2022
4506 Smoke 27 1015 57 2500 0 0 18:30 03.01.2022
4507 Smoke 28 1015 57 2500 2.06 10 17:21 03.01.2022
4508 Haze 28 1015 57 2500 1.54 350 16:53 03.01.2022
4509 Smoke 28 1013 57 2500 3.09 300 14:31 03.01.2022
4510 Smoke 29 1012 58 2500 4.63 270 12:52 03.01.2022
4511 Smoke 30 1012 54 2500 5.14 270 11:50 03.01.2022
4512 Smoke 30 1012 48 2500 4.63 250 10:52 03.01.2022
4513 Smoke 32 1013 37 3000 2.57 160 09:28 03.01.2022
4514 Smoke 32 1013 37 3000 2.57 160 09:28 03.01.2022
4515 Smoke 31 1015 40 3000 4.12 110 07:54 03.01.2022
4516 Haze 25 1014 69 2100 2.06 150 03:22 03.01.2022
4517 Haze 25 1013 69 2500 0 0 23:24 02.01.2022
4518 Haze 25 1013 73 2500 2.06 40 22:56 02.01.2022
4519 Haze 25 1013 73 2500 0 0 21:58 02.01.2022
4520 Haze 25 1014 69 2500 0 0 20:50 02.01.2022
4521 Haze 26 1014 69 2500 0 0 20:30 02.01.2022
4522 Haze 26 1014 65 2500 0 0 19:31 02.01.2022
4523 Haze 27 1014 61 2500 2.06 20 18:56 02.01.2022
4524 Smoke 27 1014 61 2500 0 0 17:57 02.01.2022
4525 Smoke 27 1014 61 2500 0 0 17:39 02.01.2022
4526 Smoke 28 1014 57 2500 1.54 330 17:20 02.01.2022
4527 Smoke 28 1014 57 2500 1.54 350 16:28 02.01.2022
4528 Smoke 29 1013 48 2500 4.12 340 14:44 02.01.2022
4529 Smoke 30 1012 51 3000 3.09 300 13:37 02.01.2022
4530 Smoke 31 1012 48 3000 4.12 290 12:32 02.01.2022
4531 Smoke 31 1012 51 3000 3.6 280 11:49 02.01.2022
4532 Smoke 31 1012 48 3000 5.14 240 10:53 02.01.2022
4533 Smoke 32 1013 40 3000 1.03 250 09:57 02.01.2022
4534 Smoke 30 1016 45 2500 3.09 90 07:34 02.01.2022
4535 Haze 25 1015 61 2100 2.06 90 02:56 02.01.2022
4536 Haze 24 1014 73 2200 0 0 23:42 01.01.2022
4537 Haze 24 1014 73 2200 0 0 23:24 01.01.2022
4538 Haze 24 1015 73 2200 0 0 22:25 01.01.2022
4539 Haze 25 1015 69 2500 0 0 21:45 01.01.2022
4540 Haze 24 1015 78 2500 0 0 21:21 01.01.2022
4541 Haze 25 1015 69 2500 2.06 60 20:25 01.01.2022
4542 Haze 26 1016 65 2500 0 0 19:34 01.01.2022
4543 Haze 26 1016 65 2500 1.54 40 18:51 01.01.2022
4544 Smoke 27 1016 61 3000 1.54 330 17:38 01.01.2022
4545 Smoke 27 1015 57 3000 2.57 350 16:34 01.01.2022
4546 Smoke 27 1015 57 3000 2.57 350 16:34 01.01.2022
4547 Smoke 28 1015 54 3000 3.09 360 15:37 01.01.2022
4548 Smoke 28 1014 54 3000 3.09 330 14:25 01.01.2022
4549 Smoke 29 1014 48 3500 2.06 300 13:36 01.01.2022
4550 Smoke 31 1014 37 4000 4.12 280 12:25 01.01.2022
4551 Smoke 31 1014 42 3500 4.12 270 11:25 01.01.2022
4552 Smoke 31 1014 45 3500 3.6 280 10:56 01.01.2022
4553 Smoke 31 1015 42 3000 0 0 09:48 01.01.2022
4554 Smoke 31 1016 42 3000 2.57 100 08:35 01.01.2022
4555 Smoke 29 1017 48 2500 3.09 20 07:56 01.01.2022
4556 Smoke 29 1017 48 2500 3.09 20 07:37 01.01.2022
4557 Smoke 27 1018 57 2500 3.6 90 06:43 01.01.2022
4558 Haze 25 1018 61 2200 3.09 70 04:39 01.01.2022
4559 Haze 24 1017 64 2200 2.57 40 03:52 01.01.2022
4560 Smoke 24 1015 60 2500 3.09 50 23:55 31.12.2021
4561 Haze 25 1016 57 2500 2.57 60 22:24 31.12.2021
4562 Haze 25 1016 61 2500 0 0 21:39 31.12.2021
4563 Haze 26 1017 57 2500 2.06 50 19:48 31.12.2021
4564 Haze 26 1017 57 2500 0 0 19:28 31.12.2021
4565 Haze 27 1017 57 2500 3.6 10 17:56 31.12.2021
4566 Haze 27 1017 57 2500 2.57 40 17:26 31.12.2021
4567 Haze 27 1016 61 2500 2.57 10 16:52 31.12.2021
4568 Haze 27 1016 61 2500 2.57 340 16:18 31.12.2021
4569 Smoke 28 1015 54 3000 2.57 20 15:45 31.12.2021
4570 Smoke 28 1015 54 3000 2.57 20 15:26 31.12.2021
4571 Smoke 28 1015 54 3000 2.57 20 15:26 31.12.2021
4572 Smoke 29 1015 48 3000 2.06 350 14:39 31.12.2021
4573 Smoke 30 1014 42 3000 3.09 30 13:51 31.12.2021
4574 Smoke 31 1013 42 3500 3.09 50 12:51 31.12.2021
4575 Smoke 31 1013 40 3500 2.57 30 12:21 31.12.2021
4576 Smoke 31 1013 40 3500 3.6 330 11:42 31.12.2021
4577 Smoke 31 1014 42 3500 3.6 40 10:55 31.12.2021
4578 Smoke 31 1014 42 3500 3.6 100 10:28 31.12.2021
4579 Smoke 31 1014 42 3500 2.57 70 09:34 31.12.2021
4580 Smoke 30 1016 42 3000 3.09 30 08:52 31.12.2021
4581 Smoke 29 1017 48 2500 3.09 100 07:59 31.12.2021
4582 Haze 25 1017 61 2200 4.63 110 04:55 31.12.2021
4583 Haze 23 1014 64 2200 3.09 70 23:18 30.12.2021
4584 Haze 24 1014 60 2200 3.6 90 22:32 30.12.2021
4585 Haze 24 1015 60 2200 5.14 80 21:39 30.12.2021
4586 Haze 24 1015 60 2200 4.12 90 21:19 30.12.2021
4587 Haze 24 1015 60 2200 3.09 80 20:40 30.12.2021
4588 Haze 24 1015 60 2200 4.12 80 19:56 30.12.2021
4589 Haze 24 1016 60 2200 1.54 60 19:31 30.12.2021
4590 Haze 25 1016 61 2200 4.12 40 18:28 30.12.2021
4591 Haze 26 1015 61 2500 2.57 50 16:53 30.12.2021
4592 Haze 26 1015 61 2500 2.06 30 15:54 30.12.2021
4593 Haze 26 1015 65 2500 2.06 360 15:21 30.12.2021
4594 Haze 26 1014 69 3000 2.57 320 14:36 30.12.2021
4595 Haze 28 1013 57 3500 4.63 280 13:26 30.12.2021
4596 Smoke 30 1012 42 4000 2.06 70 11:58 30.12.2021
4597 Smoke 30 1012 42 3000 2.57 70 10:40 30.12.2021
4598 Smoke 29 1013 45 3000 2.57 80 09:50 30.12.2021
4599 Smoke 26 1016 50 2500 4.63 100 07:25 30.12.2021
4600 Smoke 25 1016 50 2200 5.14 100 06:32 30.12.2021
4601 Haze 22 1015 64 2200 2.06 50 03:41 30.12.2021
4602 Haze 22 1014 64 2500 2.57 30 02:32 30.12.2021
4603 Haze 23 1013 60 2500 4.12 50 23:40 29.12.2021
4604 Haze 23 1014 60 2500 3.09 50 22:59 29.12.2021
4605 Haze 23 1014 60 2500 3.09 30 22:18 29.12.2021
4606 Haze 23 1014 64 2500 1.54 20 21:19 29.12.2021
4607 Haze 24 1014 64 2500 0 0 20:30 29.12.2021
4608 Haze 24 1014 64 2500 0 0 20:30 29.12.2021
4609 Haze 24 1015 64 2500 1.54 350 19:43 29.12.2021
4610 Haze 24 1015 69 2500 2.57 340 18:44 29.12.2021
4611 Haze 24 1015 69 2500 2.06 10 17:53 29.12.2021
4612 Haze 24 1015 73 2500 3.09 360 17:27 29.12.2021
4613 Rain 25 1014 69 2500 1.54 340 16:23 29.12.2021
4614 Haze 25 1013 69 3000 2.06 340 15:42 29.12.2021
4615 Haze 26 1012 61 3000 3.6 310 13:53 29.12.2021
4616 Smoke 27 1012 57 4000 4.12 290 12:36 29.12.2021
4617 Smoke 28 1012 51 4000 4.63 290 11:27 29.12.2021
4618 Smoke 30 1013 32 3500 2.06 50 09:56 29.12.2021
4619 Smoke 29 1015 39 3000 3.6 40 07:51 29.12.2021
4620 Haze 26 1016 50 2500 2.57 80 06:38 29.12.2021
4621 Haze 25 1016 53 2500 0 0 05:59 29.12.2021
4622 Haze 25 1016 53 2500 0 0 05:36 29.12.2021
4623 Haze 22 1013 64 2500 2.06 340 02:40 29.12.2021
4624 Haze 22 1012 64 2500 2.06 10 00:22 29.12.2021
4625 Haze 22 1012 64 2500 1.54 360 23:34 28.12.2021
4626 Haze 23 1013 60 2500 3.09 340 22:42 28.12.2021
4627 Haze 23 1013 60 2500 3.09 340 22:24 28.12.2021
4628 Haze 23 1013 64 2500 2.57 340 21:37 28.12.2021
4629 Haze 23 1013 68 2500 2.06 360 20:39 28.12.2021
4630 Haze 24 1014 64 2500 1.54 340 19:24 28.12.2021
4631 Haze 24 1014 64 2500 3.6 340 18:37 28.12.2021
4632 Haze 25 1014 61 2500 3.09 10 17:59 28.12.2021
4633 Haze 26 1014 69 2200 3.6 20 16:34 28.12.2021
4634 Haze 27 1013 65 2200 2.57 20 15:50 28.12.2021
4635 Haze 26 1013 69 2200 1.54 340 15:21 28.12.2021
4636 Smoke 26 1013 73 2200 1.54 290 14:48 28.12.2021
4637 Smoke 26 1012 69 2200 2.57 290 14:21 28.12.2021
4638 Smoke 28 1012 51 2500 3.09 280 13:42 28.12.2021
4639 Smoke 28 1012 51 2500 3.09 280 13:42 28.12.2021
4640 Smoke 28 1012 51 2500 3.09 280 13:24 28.12.2021
4641 Smoke 29 1012 45 2500 4.63 290 12:49 28.12.2021
4642 Smoke 29 1012 45 2500 4.63 320 11:36 28.12.2021
4643 Smoke 28 1014 51 2500 3.6 300 08:35 28.12.2021
4644 Smoke 28 1015 54 2100 2.57 240 06:42 28.12.2021
4645 Haze 23 1013 78 2200 1.54 50 23:44 27.12.2021
4646 Haze 23 1013 78 2200 1.54 350 23:23 27.12.2021
4647 Haze 24 1013 69 2200 1.54 10 21:42 27.12.2021
4648 Haze 24 1013 73 2200 0 0 21:21 27.12.2021
4649 Haze 25 1014 73 2200 0 0 20:23 27.12.2021
4650 Haze 25 1014 73 2200 0 0 19:41 27.12.2021
4651 Haze 25 1015 69 2200 1.54 290 18:52 27.12.2021
4652 Haze 26 1014 65 2500 2.06 340 17:49 27.12.2021
4653 Haze 26 1014 69 2500 1.54 330 16:55 27.12.2021
4654 Smoke 27 1013 57 3000 1.54 340 15:52 27.12.2021
4655 Smoke 27 1012 61 3000 2.06 290 14:33 27.12.2021
4656 Smoke 29 1012 51 3000 2.06 320 13:40 27.12.2021
4657 Smoke 30 1012 51 3500 3.09 310 12:40 27.12.2021
4658 Smoke 30 1012 48 2500 3.09 260 10:32 27.12.2021
4659 Smoke 30 1013 48 2500 3.09 230 09:57 27.12.2021
4660 Smoke 31 1014 40 2500 2.06 20 08:39 27.12.2021
4661 Smoke 29 1016 48 2200 1.54 20 07:32 27.12.2021
4662 Mist 22 1014 83 2100 0 0 02:24 27.12.2021
4663 Mist 21 1013 88 2200 0 0 23:58 26.12.2021
4664 Mist 21 1013 88 2200 0 0 23:40 26.12.2021
4665 Mist 22 1013 88 2200 0 0 22:36 26.12.2021
4666 Mist 22 1014 83 2200 0 0 20:59 26.12.2021
4667 Haze 23 1015 78 2500 0 0 19:49 26.12.2021
4668 Haze 25 1016 69 2500 1.54 10 18:25 26.12.2021
4669 Haze 25 1016 73 2500 2.57 40 17:30 26.12.2021
4670 Haze 26 1014 69 2500 3.09 340 14:32 26.12.2021
4671 Haze 27 1013 65 3000 4.12 300 13:43 26.12.2021
4672 Haze 27 1013 65 3000 4.12 300 13:20 26.12.2021
4673 Smoke 28 1013 54 3000 3.6 280 12:33 26.12.2021
4674 Smoke 29 1013 54 2500 5.14 270 10:43 26.12.2021
4675 Smoke 29 1014 54 2200 2.57 280 09:28 26.12.2021
4676 Smoke 28 1015 57 2100 4.12 270 08:44 26.12.2021
4677 Smoke 28 1015 51 2100 0 0 07:59 26.12.2021
4678 Mist 21 1013 88 2100 0 0 01:30 26.12.2021
4679 Mist 21 1013 88 2200 0 0 23:58 25.12.2021
4680 Haze 22 1013 83 2200 1.54 90 23:28 25.12.2021
4681 Haze 23 1013 83 2200 1.54 110 22:28 25.12.2021
4682 Haze 22 1013 88 2200 0 0 21:18 25.12.2021
4683 Haze 24 1014 78 2500 0 0 19:28 25.12.2021
4684 Haze 24 1014 78 2500 0 0 18:57 25.12.2021
4685 Haze 24 1014 78 2500 1.54 50 18:21 25.12.2021
4686 Haze 25 1014 69 2500 2.57 330 16:46 25.12.2021
4687 Haze 26 1014 69 2500 3.6 20 15:26 25.12.2021
4688 Haze 26 1013 69 2500 3.09 320 13:43 25.12.2021
4689 Smoke 28 1012 61 2500 3.09 330 12:18 25.12.2021
4690 Smoke 28 1012 51 3000 5.66 250 10:32 25.12.2021
4691 Smoke 28 1013 51 3000 4.63 260 09:48 25.12.2021
4692 Haze 24 1016 73 2100 0 0 05:39 25.12.2021
4693 Mist 21 1013 94 2500 0 0 01:31 25.12.2021
4694 Mist 22 1012 88 2500 0 0 23:55 24.12.2021
4695 Haze 23 1013 83 3000 2.06 160 20:53 24.12.2021
4696 Haze 24 1014 78 3000 1.54 10 19:25 24.12.2021
4697 Haze 24 1014 78 3000 2.06 360 18:23 24.12.2021
4698 Haze 25 1014 73 3000 2.06 330 16:40 24.12.2021
4699 Haze 25 1013 73 3000 2.57 300 15:49 24.12.2021
4700 Haze 25 1013 73 3000 2.57 300 15:20 24.12.2021
4701 Haze 25 1013 73 4000 2.57 320 14:31 24.12.2021
4702 Haze 26 1012 69 4000 3.6 310 13:45 24.12.2021
4703 Haze 26 1012 65 4000 4.12 310 12:55 24.12.2021
4704 Haze 26 1012 65 4000 4.12 310 12:35 24.12.2021
4705 Haze 27 1012 65 3000 4.63 280 11:42 24.12.2021
4706 Haze 27 1012 57 3000 5.14 270 11:24 24.12.2021
4707 Smoke 27 1012 57 3000 4.63 270 10:33 24.12.2021
4708 Smoke 27 1013 50 3000 4.63 280 08:40 24.12.2021
4709 Smoke 27 1014 57 2500 4.63 250 07:58 24.12.2021
4710 Smoke 27 1014 54 2200 0 0 06:44 24.12.2021
4711 Haze 21 1011 83 2500 0 0 00:22 24.12.2021
4712 Haze 21 1011 83 2500 0 0 23:49 23.12.2021
4713 Haze 23 1012 73 2500 0 0 22:51 23.12.2021
4714 Haze 23 1012 73 2500 2.06 350 22:24 23.12.2021
4715 Haze 23 1012 73 2500 0 0 21:39 23.12.2021
4716 Haze 24 1013 73 2500 2.06 20 20:30 23.12.2021
4717 Haze 24 1013 73 2500 1.54 340 19:28 23.12.2021
4718 Haze 25 1013 69 2500 0 0 18:18 23.12.2021
4719 Haze 25 1014 69 2500 2.06 320 17:45 23.12.2021
4720 Haze 26 1013 65 2500 2.06 340 16:27 23.12.2021
4721 Haze 26 1013 61 2500 1.54 340 15:40 23.12.2021
4722 Haze 26 1013 61 2500 2.06 360 15:22 23.12.2021
4723 Smoke 26 1012 61 2500 2.57 310 14:40 23.12.2021
4724 Smoke 27 1011 57 3000 3.09 300 13:31 23.12.2021
4725 Smoke 29 1011 45 3000 3.09 290 11:49 23.12.2021
4726 Smoke 28 1011 44 2500 3.09 260 09:53 23.12.2021
4727 Smoke 28 1011 44 2500 3.09 260 09:53 23.12.2021
4728 Smoke 28 1012 44 2500 4.63 250 09:34 23.12.2021
4729 Smoke 28 1013 44 2500 4.63 250 08:28 23.12.2021
4730 Smoke 26 1014 50 1800 1.54 10 05:39 23.12.2021
4731 Haze 22 1013 73 2100 0 0 02:56 23.12.2021
4732 Haze 23 1012 78 2500 0 0 22:53 22.12.2021
4733 Haze 24 1012 64 2500 0 0 22:19 22.12.2021
4734 Haze 24 1012 73 2500 0 0 21:36 22.12.2021
4735 Haze 24 1012 73 2500 0 0 21:18 22.12.2021
4736 Haze 24 1012 69 2500 0 0 20:40 22.12.2021
4737 Haze 24 1013 64 2500 0 0 19:57 22.12.2021
4738 Haze 25 1013 65 2500 1.54 360 18:55 22.12.2021
4739 Haze 26 1013 69 2500 2.06 340 17:38 22.12.2021
4740 Haze 26 1013 69 2100 0 0 16:25 22.12.2021
4741 Haze 27 1011 61 2100 2.57 310 14:33 22.12.2021
4742 Smoke 28 1011 57 2100 3.6 270 12:55 22.12.2021
4743 Smoke 29 1011 54 2100 4.12 270 11:50 22.12.2021
4744 Smoke 29 1011 58 2100 4.12 250 09:53 22.12.2021
4745 Smoke 30 1012 48 2100 3.6 260 08:34 22.12.2021
4746 Haze 26 1015 61 1600 2.06 110 05:56 22.12.2021
4747 Haze 25 1015 69 1600 2.57 110 05:37 22.12.2021
4748 Haze 25 1015 69 1600 2.57 110 05:19 22.12.2021
4749 Haze 23 1014 78 1600 1.54 140 04:40 22.12.2021
4750 Haze 23 1014 78 1600 0 0 03:54 22.12.2021
4751 Haze 22 1014 83 1600 0 0 03:31 22.12.2021
4752 Haze 23 1013 78 2100 0 0 23:49 21.12.2021
4753 Haze 24 1013 69 2100 1.54 120 22:42 21.12.2021
4754 Haze 24 1014 69 2100 0 0 22:24 21.12.2021
4755 Haze 24 1014 69 2100 0 0 21:42 21.12.2021
4756 Haze 24 1014 69 2200 1.54 110 20:44 21.12.2021
4757 Haze 25 1015 65 2200 0 0 20:20 21.12.2021
4758 Haze 25 1015 65 2200 0 0 20:20 21.12.2021
4759 Haze 25 1015 69 2500 0 0 19:40 21.12.2021
4760 Haze 25 1016 69 2500 1.54 40 18:33 21.12.2021
4761 Haze 26 1016 69 2500 2.06 350 17:59 21.12.2021
4762 Haze 26 1016 69 2500 1.54 330 17:40 21.12.2021
4763 Haze 26 1015 69 2500 3.09 310 15:46 21.12.2021
4764 Haze 27 1014 65 2200 2.57 310 14:29 21.12.2021
4765 Smoke 28 1013 57 2500 3.6 290 13:42 21.12.2021
4766 Smoke 29 1013 45 2500 4.12 270 12:39 21.12.2021
4767 Smoke 30 1012 45 2100 5.14 260 10:52 21.12.2021
4768 Smoke 31 1013 33 2100 2.06 230 09:56 21.12.2021
4769 Smoke 30 1014 37 2000 2.06 130 08:57 21.12.2021
4770 Smoke 29 1015 42 2000 2.06 110 07:45 21.12.2021
4771 Smoke 29 1016 42 2000 2.57 100 07:24 21.12.2021
4772 Haze 24 1016 64 1500 2.06 120 04:37 21.12.2021
4773 Haze 22 1014 78 2100 2.57 120 02:31 21.12.2021
4774 Haze 23 1013 73 2200 2.06 40 23:55 20.12.2021
4775 Haze 23 1014 78 2500 0 0 22:44 20.12.2021
4776 Haze 23 1014 78 2500 0 0 22:25 20.12.2021
4777 Haze 24 1014 73 2500 2.06 110 21:28 20.12.2021
4778 Haze 25 1015 69 2500 2.06 110 20:55 20.12.2021
4779 Haze 25 1015 69 2500 2.06 150 20:32 20.12.2021
4780 Haze 25 1015 65 2500 1.54 10 19:38 20.12.2021
4781 Haze 25 1015 65 2500 1.54 10 19:20 20.12.2021
4782 Haze 26 1016 61 2500 3.09 50 18:33 20.12.2021
4783 Haze 26 1016 61 2500 3.09 40 17:51 20.12.2021
4784 Haze 26 1015 61 2500 2.57 340 16:47 20.12.2021
4785 Smoke 27 1015 57 2200 3.6 340 16:25 20.12.2021
4786 Smoke 27 1014 61 2200 4.12 340 15:40 20.12.2021
4787 Smoke 27 1013 61 1800 3.09 330 14:40 20.12.2021
4788 Smoke 31 1012 42 2200 2.57 300 12:41 20.12.2021
4789 Smoke 31 1013 33 3000 2.06 70 10:51 20.12.2021
4790 Smoke 30 1014 32 3000 3.09 60 09:44 20.12.2021
4791 Smoke 30 1014 39 2500 2.57 20 08:56 20.12.2021
4792 Smoke 30 1015 39 2500 2.57 100 08:38 20.12.2021
4793 Smoke 29 1016 39 2200 3.6 90 07:44 20.12.2021
4794 Smoke 27 1017 44 2200 4.12 100 06:39 20.12.2021
4795 Haze 21 1015 68 2500 2.57 120 02:32 20.12.2021
4796 Haze 24 1014 64 2500 2.57 60 23:37 19.12.2021
4797 Haze 23 1014 73 2500 2.06 50 22:44 19.12.2021
4798 Haze 24 1015 69 2500 2.57 80 21:44 19.12.2021
4799 Haze 24 1015 69 2500 2.06 110 21:25 19.12.2021
4800 Haze 24 1015 73 2500 0 0 20:24 19.12.2021
4801 Haze 25 1016 65 2500 2.06 90 19:43 19.12.2021
4802 Haze 25 1016 65 2500 1.54 0 18:50 19.12.2021
4803 Haze 26 1016 61 2500 2.06 50 18:20 19.12.2021
4804 Haze 26 1016 65 2500 2.57 10 17:45 19.12.2021
4805 Haze 26 1015 69 2500 1.54 10 16:46 19.12.2021
4806 Haze 26 1015 69 2500 1.54 10 16:46 19.12.2021
4807 Haze 27 1015 61 2500 3.09 350 15:56 19.12.2021
4808 Haze 27 1014 61 2500 3.09 340 15:25 19.12.2021
4809 Haze 27 1014 61 2500 2.57 350 14:48 19.12.2021
4810 Smoke 29 1013 45 3000 3.6 300 13:38 19.12.2021
4811 Smoke 29 1013 51 3000 3.6 280 12:59 19.12.2021
4812 Smoke 30 1013 42 3000 3.6 280 12:32 19.12.2021
4813 Smoke 30 1013 45 3000 4.63 260 11:39 19.12.2021
4814 Clear 27 1013 46 10000 2.97 301 10:51 19.12.2021
4815 Clear 27 1014 43 10000 1.41 281 10:23 19.12.2021
4816 Smoke 31 1015 35 2500 3.09 120 08:55 19.12.2021
4817 Smoke 28 1017 44 2200 3.6 70 07:35 19.12.2021
4818 Haze 23 1015 64 2500 0 0 02:30 19.12.2021
4819 Haze 24 1014 69 2500 0 0 00:55 19.12.2021
4820 Haze 25 1013 69 2500 1.54 110 23:21 18.12.2021
4821 Haze 25 1014 69 2500 1.54 60 22:29 18.12.2021
4822 Haze 25 1014 69 2500 0 0 21:51 18.12.2021
4823 Haze 25 1014 65 2500 2.06 120 21:30 18.12.2021
4824 Haze 25 1014 69 2500 0 0 20:43 18.12.2021
4825 Haze 26 1015 65 2500 2.57 10 19:50 18.12.2021
4826 Haze 26 1015 69 2500 2.06 30 18:26 18.12.2021
4827 Haze 26 1015 69 2500 0 0 17:50 18.12.2021
4828 Haze 26 1015 69 2200 2.57 30 16:55 18.12.2021
4829 Haze 27 1015 65 2200 2.57 340 16:21 18.12.2021
4830 Haze 27 1014 61 2200 2.57 350 15:25 18.12.2021
4831 Haze 28 1013 61 2100 2.06 310 14:19 18.12.2021
4832 Smoke 29 1012 54 2200 4.12 280 12:21 18.12.2021
4833 Smoke 30 1013 51 2200 5.14 260 10:43 18.12.2021
4834 Smoke 31 1014 48 2200 3.6 290 09:32 18.12.2021
4835 Smoke 29 1015 45 2000 2.06 40 08:37 18.12.2021
4836 Smoke 29 1016 45 1800 2.57 120 07:42 18.12.2021
4837 Mist 23 1014 78 2200 0 0 01:48 18.12.2021
4838 Mist 23 1013 83 2200 0 0 00:23 18.12.2021
4839 Mist 23 1013 83 2200 0 0 23:35 17.12.2021
4840 Mist 24 1014 78 2200 0 0 21:54 17.12.2021
4841 Mist 24 1015 78 2500 0 0 20:50 17.12.2021
4842 Haze 25 1015 73 2500 1.54 190 20:21 17.12.2021
4843 Haze 25 1015 69 2500 0 0 18:50 17.12.2021
4844 Haze 26 1015 65 2500 1.54 350 18:19 17.12.2021
4845 Haze 26 1015 69 2500 2.06 70 17:20 17.12.2021
4846 Haze 26 1015 65 2500 2.57 340 16:29 17.12.2021
4847 Haze 27 1014 65 2500 2.06 350 15:51 17.12.2021
4848 Haze 27 1014 65 2500 1.54 340 15:18 17.12.2021
4849 Haze 27 1013 65 2500 2.57 290 14:34 17.12.2021
4850 Haze 29 1012 58 2500 3.09 320 12:38 17.12.2021
4851 Haze 29 1012 58 2500 3.09 290 11:18 17.12.2021
4852 Haze 29 1013 61 2100 5.66 250 09:52 17.12.2021
4853 Haze 29 1014 61 1800 4.12 270 08:58 17.12.2021
4854 Haze 29 1015 61 1800 3.09 250 08:19 17.12.2021
4855 Haze 25 1017 69 1800 2.57 50 05:21 17.12.2021
4856 Haze 23 1015 78 1600 0 0 02:51 17.12.2021
4857 Haze 23 1014 88 2200 0 0 22:52 16.12.2021
4858 Haze 24 1014 83 2200 0 0 22:22 16.12.2021
4859 Haze 24 1015 78 2200 0 0 21:44 16.12.2021
4860 Haze 24 1015 78 2500 0 0 20:48 16.12.2021
4861 Haze 24 1015 78 2500 0 0 20:22 16.12.2021
4862 Haze 25 1015 73 2500 2.06 350 19:31 16.12.2021
4863 Haze 25 1015 73 2500 0 0 18:36 16.12.2021
4864 Haze 26 1015 69 2500 0 0 17:48 16.12.2021
4865 Haze 26 1015 69 2500 2.06 330 16:37 16.12.2021
4866 Haze 26 1015 69 2500 2.06 330 16:18 16.12.2021
4867 Haze 27 1013 65 2100 3.09 320 13:47 16.12.2021
4868 Smoke 29 1012 58 2100 3.6 290 12:30 16.12.2021
4869 Smoke 29 1012 58 2500 4.63 260 11:19 16.12.2021
4870 Smoke 29 1012 58 2500 4.63 260 10:44 16.12.2021
4871 Smoke 29 1013 58 2500 4.63 270 09:50 16.12.2021
4872 Haze 28 1016 57 2100 2.06 10 07:18 16.12.2021
4873 Haze 27 1016 57 2100 2.06 70 06:18 16.12.2021
4874 Haze 22 1013 83 2100 1.54 110 23:59 15.12.2021
4875 Haze 23 1013 78 2100 0 0 23:18 15.12.2021
4876 Haze 24 1013 69 2200 2.06 120 22:21 15.12.2021
4877 Haze 24 1013 69 2200 2.06 120 22:21 15.12.2021
4878 Haze 24 1014 69 2100 0 0 21:44 15.12.2021
4879 Haze 24 1014 69 2100 0 0 21:24 15.12.2021
4880 Haze 24 1014 69 2200 0 0 19:54 15.12.2021
4881 Haze 24 1014 69 2200 0 0 19:19 15.12.2021
4882 Haze 25 1015 65 2200 2.06 340 18:24 15.12.2021
4883 Haze 25 1014 65 2200 1.54 320 17:46 15.12.2021
4884 Haze 25 1014 65 2500 2.57 340 17:21 15.12.2021
4885 Haze 26 1013 65 2500 2.57 330 15:49 15.12.2021
4886 Haze 26 1013 65 2500 2.06 310 15:31 15.12.2021
4887 Haze 27 1013 65 2500 2.57 330 14:59 15.12.2021
4888 Haze 27 1012 61 2500 3.09 310 13:45 15.12.2021
4889 Smoke 28 1011 54 2500 3.6 290 11:52 15.12.2021
4890 Smoke 29 1012 58 2500 5.14 260 10:22 15.12.2021
4891 Smoke 28 1014 57 2200 4.63 260 08:27 15.12.2021
4892 Smoke 26 1015 61 1700 1.54 0 05:54 15.12.2021
4893 Haze 23 1012 68 2300 2.06 90 00:39 15.12.2021
4894 Haze 23 1012 68 2500 0 0 23:31 14.12.2021
4895 Smoke 24 1012 60 2500 0 0 22:45 14.12.2021
4896 Smoke 24 1013 57 2500 0 0 21:47 14.12.2021
4897 Smoke 25 1014 57 2500 1.54 350 20:23 14.12.2021
4898 Smoke 25 1014 61 2500 2.06 20 19:37 14.12.2021
4899 Smoke 25 1014 61 2500 1.54 330 18:39 14.12.2021
4900 Smoke 26 1014 57 2500 2.06 10 17:57 14.12.2021
4901 Smoke 26 1014 57 2500 3.6 330 16:49 14.12.2021
4902 Smoke 26 1014 61 2500 3.6 340 16:30 14.12.2021
4903 Smoke 27 1012 61 2500 4.12 320 14:32 14.12.2021
4904 Smoke 28 1012 44 3000 3.09 300 13:22 14.12.2021
4905 Smoke 30 1011 37 3000 4.63 300 11:51 14.12.2021
4906 Smoke 30 1011 37 3000 5.14 270 11:22 14.12.2021
4907 Smoke 30 1012 37 3000 5.14 280 09:55 14.12.2021
4908 Smoke 30 1012 37 3000 3.09 260 09:19 14.12.2021
4909 Smoke 31 1014 35 3000 4.12 330 08:22 14.12.2021
4910 Smoke 30 1014 39 2500 0 0 07:39 14.12.2021
4911 Haze 24 1013 60 3000 0 0 00:35 14.12.2021
4912 Haze 24 1013 60 3000 0 0 22:33 13.12.2021
4913 Smoke 25 1013 50 3000 1.54 150 21:49 13.12.2021
4914 Smoke 25 1013 50 3000 3.09 100 20:58 13.12.2021
4915 Smoke 25 1014 53 3000 2.06 130 20:29 13.12.2021
4916 Smoke 25 1014 50 3000 3.09 120 19:51 13.12.2021
4917 Smoke 27 1014 41 3000 2.06 50 17:55 13.12.2021
4918 Smoke 27 1014 41 3000 3.6 80 17:19 13.12.2021
4919 Smoke 28 1013 39 3000 3.09 360 15:49 13.12.2021
4920 Smoke 28 1013 39 3500 4.12 330 14:55 13.12.2021
4921 Smoke 30 1012 37 4000 4.12 330 13:38 13.12.2021
4922 Smoke 30 1011 35 3000 4.63 330 12:41 13.12.2021
4923 Smoke 31 1012 37 3000 4.63 310 11:54 13.12.2021
4924 Smoke 31 1012 42 2500 1.54 290 11:35 13.12.2021
4925 Smoke 32 1012 37 2500 2.06 280 10:41 13.12.2021
4926 Smoke 32 1013 40 2500 0 0 08:52 13.12.2021
4927 Smoke 31 1015 42 2500 2.06 20 07:37 13.12.2021
4928 Haze 28 1016 57 2500 2.06 40 05:23 13.12.2021
4929 Haze 26 1013 73 2500 0 0 00:42 13.12.2021
4930 Haze 27 1013 69 2200 0 0 21:59 12.12.2021
4931 Haze 27 1013 69 2200 0 0 21:33 12.12.2021
4932 Haze 27 1014 65 2500 0 0 19:38 12.12.2021
4933 Haze 28 1014 61 2500 2.57 300 18:28 12.12.2021
4934 Haze 28 1014 61 2500 1.54 280 16:58 12.12.2021
4935 Haze 28 1014 61 2500 2.57 330 16:27 12.12.2021
4936 Haze 28 1014 65 2200 1.54 0 15:41 12.12.2021
4937 Haze 28 1013 65 2200 2.57 320 15:21 12.12.2021
4938 Smoke 29 1013 58 2200 3.09 300 14:28 12.12.2021
4939 Smoke 31 1012 48 2500 3.6 330 12:56 12.12.2021
4940 Smoke 31 1012 42 2500 3.09 300 12:26 12.12.2021
4941 Smoke 32 1011 45 2500 4.12 270 11:43 12.12.2021
4942 Smoke 32 1012 43 3000 4.63 250 10:56 12.12.2021
4943 Smoke 33 1012 33 3000 3.09 120 10:22 12.12.2021
4944 Smoke 32 1013 37 3000 2.57 130 08:54 12.12.2021
4945 Smoke 30 1015 45 2500 3.6 90 07:31 12.12.2021
4946 Smoke 29 1016 45 2200 3.6 120 05:56 12.12.2021
4947 Haze 27 1016 57 2200 1.54 90 04:55 12.12.2021
4948 Haze 25 1014 73 2500 0 0 02:58 12.12.2021
4949 Haze 26 1013 73 2500 0 0 23:31 11.12.2021
4950 Haze 26 1014 73 2500 0 0 22:22 11.12.2021
4951 Haze 26 1014 73 2500 0 0 21:51 11.12.2021
4952 Haze 27 1015 69 2500 1.54 110 20:29 11.12.2021
4953 Haze 27 1015 65 2500 2.06 140 19:21 11.12.2021
4954 Haze 27 1015 69 2500 2.06 160 18:51 11.12.2021
4955 Haze 28 1015 65 2500 1.03 0 18:19 11.12.2021
4956 Haze 28 1015 65 2500 3.09 350 17:20 11.12.2021
4957 Haze 28 1015 61 2500 3.6 340 15:52 11.12.2021
4958 Haze 29 1014 61 2500 3.09 330 15:18 11.12.2021
4959 Smoke 31 1012 48 3500 3.09 320 12:49 11.12.2021
4960 Smoke 32 1012 43 3500 3.09 260 11:24 11.12.2021
4961 Smoke 33 1012 33 3500 2.06 350 09:45 11.12.2021
4962 Smoke 31 1015 45 2500 4.12 80 07:49 11.12.2021
4963 Haze 26 1013 57 2500 3.6 90 02:20 11.12.2021
4964 Haze 26 1012 69 2500 0 0 23:50 10.12.2021
4965 Haze 26 1012 69 2500 0 0 23:18 10.12.2021
4966 Haze 26 1013 73 2500 0 0 21:56 10.12.2021
4967 Haze 27 1014 69 2500 1.54 90 20:57 10.12.2021
4968 Haze 28 1015 65 2500 0 0 19:21 10.12.2021
4969 Haze 28 1015 65 2500 0 0 17:59 10.12.2021
4970 Haze 28 1015 65 2500 4.12 10 16:56 10.12.2021
4971 Haze 28 1014 69 2500 3.09 10 16:28 10.12.2021
4972 Haze 28 1014 65 2500 3.09 350 15:40 10.12.2021
4973 Haze 29 1013 58 2500 4.12 340 15:21 10.12.2021
4974 Haze 30 1013 62 2500 2.57 330 13:51 10.12.2021
4975 Haze 30 1012 62 2500 4.12 330 13:26 10.12.2021
4976 Smoke 31 1012 58 3000 3.6 330 12:36 10.12.2021
4977 Smoke 34 1012 36 3500 0 0 11:28 10.12.2021
4978 Smoke 33 1012 38 3500 3.09 130 10:26 10.12.2021
4979 Smoke 33 1014 40 3000 2.57 30 08:52 10.12.2021
4980 Smoke 31 1016 42 2500 4.12 110 06:50 10.12.2021
4981 Haze 25 1014 69 2100 0 0 02:48 10.12.2021
4982 Haze 25 1014 69 2100 0 0 02:48 10.12.2021
4983 Haze 25 1013 73 2100 1.54 140 00:32 10.12.2021
4984 Haze 25 1013 73 2100 2.06 130 23:22 09.12.2021
4985 Haze 26 1014 73 2100 0 0 22:26 09.12.2021
4986 Haze 25 1014 78 2100 0 0 21:59 09.12.2021
4987 Haze 26 1014 73 2100 2.06 150 21:18 09.12.2021
4988 Haze 26 1015 73 2100 1.54 0 20:22 09.12.2021
4989 Haze 26 1015 73 2100 1.54 10 19:21 09.12.2021
4990 Haze 27 1015 69 2100 2.06 40 18:48 09.12.2021
4991 Haze 27 1015 69 2100 2.57 340 17:52 09.12.2021
4992 Haze 28 1015 65 2100 3.6 350 17:26 09.12.2021
4993 Haze 28 1015 65 2200 4.12 340 16:55 09.12.2021
4994 Smoke 28 1014 61 2200 2.06 330 15:46 09.12.2021
4995 Haze 29 1014 54 2500 3.6 320 14:48 09.12.2021
4996 Smoke 30 1013 58 2500 3.6 320 13:23 09.12.2021
4997 Smoke 31 1013 51 2500 3.6 290 12:40 09.12.2021
4998 Smoke 32 1012 48 3000 4.12 290 11:24 09.12.2021
4999 Smoke 33 1013 38 3000 0 0 09:44 09.12.2021
5000 Haze 31 1015 45 2500 3.6 100 06:50 09.12.2021
5001 Haze 26 1014 61 2100 2.57 110 03:41 09.12.2021
5002 Haze 26 1012 69 2500 0 0 23:45 08.12.2021
5003 Haze 26 1012 69 2500 2.06 40 23:21 08.12.2021
5004 Haze 26 1012 69 2500 1.54 110 22:49 08.12.2021
5005 Haze 26 1012 73 2500 1.54 140 21:46 08.12.2021
5006 Haze 26 1013 69 2500 0 0 21:27 08.12.2021
5007 Haze 27 1013 61 2500 2.57 50 19:59 08.12.2021
5008 Haze 27 1013 65 2500 3.6 40 19:36 08.12.2021
5009 Haze 27 1013 65 2500 2.57 40 18:53 08.12.2021
5010 Haze 27 1013 69 2500 2.57 20 17:47 08.12.2021
5011 Haze 28 1013 69 1700 2.06 320 15:58 08.12.2021
5012 Haze 29 1012 61 1700 2.06 340 15:29 08.12.2021
5013 Haze 29 1012 61 1800 3.09 340 14:40 08.12.2021
5014 Smoke 31 1011 55 3000 4.63 230 12:32 08.12.2021
5015 Smoke 33 1011 33 3000 3.09 130 10:32 08.12.2021
5016 Smoke 32 1011 37 2500 3.6 110 09:25 08.12.2021
5017 Smoke 30 1013 45 2200 3.6 100 07:26 08.12.2021
5018 Haze 27 1014 54 2200 4.12 80 04:57 08.12.2021
5019 Smoke 27 1011 57 2500 3.09 30 23:34 07.12.2021
5020 Smoke 27 1011 57 2500 3.09 70 21:55 07.12.2021
5021 Haze 26 1012 69 2500 2.57 70 21:23 07.12.2021
5022 Haze 27 1012 65 2500 1.54 70 20:24 07.12.2021
5023 Haze 28 1012 61 2500 1.54 150 18:47 07.12.2021
5024 Haze 29 1013 58 2500 2.57 60 17:53 07.12.2021
5025 Haze 28 1013 65 2500 1.03 0 17:20 07.12.2021
5026 Haze 28 1012 74 1700 1.54 320 16:31 07.12.2021
5027 Haze 28 1012 74 1700 3.6 330 15:34 07.12.2021
5028 Smoke 29 1011 65 1800 2.57 320 14:30 07.12.2021
5029 Smoke 31 1011 51 2200 3.09 340 12:56 07.12.2021
5030 Smoke 31 1011 51 2200 3.09 340 12:56 07.12.2021
5031 Smoke 33 1010 43 2200 3.6 290 12:21 07.12.2021
5032 Smoke 33 1011 35 2500 2.57 80 10:43 07.12.2021
5033 Smoke 31 1012 45 2500 4.12 120 08:42 07.12.2021
5034 Smoke 28 1015 54 2200 4.12 120 06:21 07.12.2021
5035 Smoke 28 1015 54 2200 3.6 120 05:42 07.12.2021
5036 Haze 26 1011 69 2200 2.57 30 23:58 06.12.2021
5037 Haze 25 1011 78 2200 1.54 80 22:58 06.12.2021
5038 Haze 25 1011 78 2500 2.06 90 22:38 06.12.2021
5039 Haze 25 1012 78 2100 2.06 100 21:54 06.12.2021
5040 Haze 26 1012 78 2100 2.57 150 20:44 06.12.2021
5041 Haze 26 1012 73 2200 0 0 20:26 06.12.2021
5042 Haze 27 1013 69 2200 1.54 20 19:23 06.12.2021
5043 Haze 27 1013 69 2200 2.57 20 18:29 06.12.2021
5044 Haze 28 1013 65 2200 2.57 10 17:51 06.12.2021
5045 Haze 28 1013 65 2200 2.57 40 16:56 06.12.2021
5046 Haze 28 1012 65 1700 3.09 10 15:45 06.12.2021
5047 Haze 29 1011 65 2000 2.57 30 13:47 06.12.2021
5048 Haze 29 1010 65 2500 4.12 290 12:40 06.12.2021
5049 Haze 30 1010 62 3500 4.12 310 11:54 06.12.2021
5050 Smoke 31 1012 45 3000 1.54 30 09:35 06.12.2021
5051 Smoke 30 1014 45 2500 0 0 06:43 06.12.2021
5052 Mist 24 1011 88 2500 2.06 60 23:52 05.12.2021
5053 Haze 25 1012 78 2500 1.54 50 21:52 05.12.2021
5054 Haze 25 1012 83 2500 1.54 60 21:24 05.12.2021
5055 Haze 25 1013 83 2500 1.54 30 20:19 05.12.2021
5056 Haze 26 1013 83 2500 2.06 60 19:49 05.12.2021
5057 Haze 26 1013 83 2500 1.54 40 19:21 05.12.2021
5058 Haze 26 1013 78 2500 0 0 18:20 05.12.2021
5059 Haze 27 1013 74 3000 0 0 17:49 05.12.2021
5060 Haze 27 1013 74 3000 2.06 50 16:52 05.12.2021
5061 Smoke 28 1013 69 3000 2.57 330 16:27 05.12.2021
5062 Smoke 28 1012 65 3000 1.54 310 15:58 05.12.2021
5063 Smoke 27 1012 65 3000 3.09 240 14:45 05.12.2021
5064 Smoke 28 1011 65 3000 3.09 250 14:26 05.12.2021
5065 Smoke 29 1011 51 3500 3.6 250 13:28 05.12.2021
5066 Smoke 30 1010 54 4000 4.63 240 12:40 05.12.2021
5067 Smoke 30 1010 54 4000 4.63 240 12:21 05.12.2021
5068 Haze 29 1010 58 4000 4.63 250 11:35 05.12.2021
5069 Smoke 30 1011 58 5000 4.63 250 10:19 05.12.2021
5070 Smoke 31 1012 45 3000 4.12 170 08:45 05.12.2021
5071 Fog 24 1014 100 500 2.57 130 04:56 05.12.2021
5072 Mist 25 1012 94 1800 2.06 80 01:23 05.12.2021
5073 Mist 25 1012 94 2200 0 0 22:24 04.12.2021
5074 Haze 25 1012 94 2500 0 0 21:36 04.12.2021
5075 Haze 25 1012 94 2500 0 0 20:32 04.12.2021
5076 Haze 26 1013 89 2500 0 0 19:33 04.12.2021
5077 Haze 27 1013 83 3000 0 0 18:23 04.12.2021
5078 Haze 27 1013 83 3000 2.06 190 17:45 04.12.2021
5079 Haze 27 1013 83 3000 1.54 0 17:20 04.12.2021
5080 Haze 27 1013 83 3000 0 0 16:42 04.12.2021
5081 Haze 27 1012 83 3000 0 0 16:24 04.12.2021
5082 Haze 29 1010 70 3500 3.09 280 12:44 04.12.2021
5083 Haze 30 1010 66 2500 4.63 240 11:34 04.12.2021
5084 Haze 30 1010 70 2500 4.12 250 10:57 04.12.2021
5085 Haze 30 1011 62 2500 2.06 250 09:40 04.12.2021
5086 Haze 30 1012 58 2500 2.57 160 08:28 04.12.2021
5087 Mist 26 1013 83 1700 1.54 130 04:43 04.12.2021
5088 Haze 24 1011 88 2200 0 0 00:49 04.12.2021
5089 Haze 25 1011 94 2500 0 0 23:33 03.12.2021
5090 Haze 25 1011 94 2500 1.54 30 22:51 03.12.2021
5091 Haze 25 1011 88 2500 0 0 21:54 03.12.2021
5092 Haze 25 1011 88 2500 0 0 21:20 03.12.2021
5093 Haze 25 1012 88 2500 0 0 20:42 03.12.2021
5094 Haze 26 1012 83 2500 2.06 300 19:21 03.12.2021
5095 Haze 27 1013 83 2500 1.54 30 18:22 03.12.2021
5096 Haze 26 1013 89 2500 0 0 17:30 03.12.2021
5097 Haze 28 1010 78 3000 3.09 290 13:38 03.12.2021
5098 Haze 28 1009 69 3000 3.09 250 12:30 03.12.2021
5099 Haze 29 1009 65 3000 3.09 260 11:19 03.12.2021
5100 Haze 29 1010 70 2500 4.63 280 09:21 03.12.2021
5101 Haze 29 1012 70 3000 2.06 190 07:44 03.12.2021
5102 Haze 28 1013 69 2500 3.09 140 06:41 03.12.2021
5103 Haze 24 1010 88 2500 0 0 00:49 03.12.2021
5104 Haze 23 1009 94 2500 0 0 23:54 02.12.2021
5105 Haze 24 1009 88 2500 0 0 23:34 02.12.2021
5106 Haze 24 1010 88 2500 0 0 21:41 02.12.2021
5107 Haze 24 1010 88 2500 0 0 20:46 02.12.2021
5108 Haze 24 1011 88 2500 1.54 40 20:26 02.12.2021
5109 Haze 24 1011 88 2500 2.57 90 19:23 02.12.2021
5110 Haze 24 1011 88 2500 2.57 50 17:21 02.12.2021
5111 Mist 25 1010 94 2100 3.09 40 15:41 02.12.2021
5112 Mist 25 1010 94 2100 3.09 40 15:41 02.12.2021
5113 Drizzle 25 1009 94 2100 2.06 60 14:57 02.12.2021
5114 Mist 25 1008 94 2100 3.6 40 13:45 02.12.2021
5115 Rain 25 1008 94 2100 1.54 40 12:50 02.12.2021
5116 Haze 25 1008 88 2200 0 0 11:53 02.12.2021
5117 Haze 26 1009 69 2500 4.63 100 09:28 02.12.2021
5118 Haze 25 1010 69 2500 3.6 100 08:20 02.12.2021
5119 Clouds 19 1009 94 2200 4.12 90 01:58 02.12.2021
5120 Rain 19 1009 94 2200 4.12 80 00:50 02.12.2021
5121 Rain 19 1009 94 2100 4.63 70 22:34 01.12.2021
5122 Rain 19 1010 94 2200 3.6 70 21:55 01.12.2021
5123 Rain 20 1011 88 1200 6.69 70 20:35 01.12.2021
5124 Rain 20 1011 88 2500 6.17 50 19:51 01.12.2021
5125 Rain 20 1012 94 2100 4.63 80 19:21 01.12.2021
5126 Rain 20 1012 94 2200 3.09 40 17:42 01.12.2021
5127 Rain 21 1012 94 1600 3.09 40 16:38 01.12.2021
5128 Rain 21 1010 94 1200 5.14 60 14:49 01.12.2021
5129 Rain 21 1010 94 1200 6.69 60 13:44 01.12.2021
5130 Rain 21 1010 94 1200 2.06 50 11:42 01.12.2021
5131 Rain 22 1011 94 800 4.12 60 10:42 01.12.2021
5132 Clouds 22 1012 94 1600 2.57 40 08:55 01.12.2021
5133 Clouds 22 1012 94 1800 2.06 40 08:26 01.12.2021
5134 Rain 22 1013 83 1800 3.09 90 07:33 01.12.2021
5135 Rain 24 1012 69 2200 4.63 110 04:20 01.12.2021
5136 Rain 26 1011 57 2500 2.06 60 03:39 01.12.2021
5137 Smoke 27 1009 54 3000 3.09 60 00:51 01.12.2021
5138 Haze 27 1010 57 3000 2.06 40 23:37 30.11.2021
5139 Haze 27 1010 57 3000 2.57 40 22:48 30.11.2021
5140 Haze 28 1011 57 3000 2.06 60 20:59 30.11.2021
5141 Haze 28 1011 57 3000 2.57 50 20:34 30.11.2021
5142 Haze 28 1011 57 3000 2.06 50 19:53 30.11.2021
5143 Smoke 28 1012 57 3000 1.54 40 19:30 30.11.2021
5144 Smoke 29 1012 54 3000 2.57 40 18:33 30.11.2021
5145 Smoke 29 1012 54 3000 0 0 16:34 30.11.2021
5146 Smoke 30 1009 51 3000 0 0 14:35 30.11.2021
5147 Smoke 31 1009 48 3000 2.06 130 13:52 30.11.2021
5148 Smoke 31 1009 45 3000 2.06 130 13:25 30.11.2021
5149 Smoke 32 1009 43 3000 2.57 130 12:45 30.11.2021
5150 Smoke 33 1009 40 3000 3.6 130 11:27 30.11.2021
5151 Smoke 33 1009 38 3500 3.6 110 10:53 30.11.2021
5152 Smoke 33 1009 38 3500 2.06 90 10:30 30.11.2021
5153 Smoke 32 1011 40 3000 3.09 80 08:51 30.11.2021
5154 Smoke 31 1012 42 3000 2.57 70 08:20 30.11.2021
5155 Smoke 31 1013 40 3000 2.57 50 07:40 30.11.2021
5156 Smoke 26 1011 50 3000 2.06 80 02:29 30.11.2021
5157 Smoke 26 1011 50 3000 2.06 40 01:40 30.11.2021
5158 Smoke 25 1011 57 3000 2.06 130 23:57 29.11.2021
5159 Smoke 26 1011 53 3000 0 0 23:22 29.11.2021
5160 Smoke 27 1011 50 3000 2.06 30 22:48 29.11.2021
5161 Smoke 28 1011 47 3000 2.06 30 22:29 29.11.2021
5162 Smoke 27 1011 54 3000 2.06 90 21:22 29.11.2021
5163 Smoke 27 1012 54 3000 3.09 30 20:57 29.11.2021
5164 Smoke 27 1012 57 3000 2.57 30 20:29 29.11.2021
5165 Smoke 28 1012 54 3000 3.6 20 19:54 29.11.2021
5166 Smoke 28 1012 57 3000 2.57 40 19:33 29.11.2021
5167 Clouds 28 1012 57 10000 3.72 73 18:48 29.11.2021
5168 Clouds 28 1012 60 10000 2.8 18 17:22 29.11.2021
5169 Clouds 28 1012 60 10000 2.8 18 16:59 29.11.2021
5170 Clouds 28 1012 61 10000 3.85 339 16:29 29.11.2021
5171 Clouds 28 1012 61 10000 3.85 339 15:32 29.11.2021
5172 Clouds 28 1012 59 10000 4.51 328 14:42 29.11.2021
5173 Clouds 28 1011 58 10000 4.02 326 13:32 29.11.2021
5174 Clouds 29 1010 53 10000 2.22 327 12:28 29.11.2021
5175 Clouds 29 1010 53 10000 2.13 329 11:35 29.11.2021
5176 Clouds 30 1010 50 10000 0.82 343 10:32 29.11.2021
5177 Smoke 33 1011 38 3500 4.63 70 09:24 29.11.2021
5178 Smoke 30 1014 35 3000 5.14 70 06:19 29.11.2021
5179 Smoke 23 1012 53 3000 2.06 130 01:40 29.11.2021
5180 Smoke 25 1011 44 3000 0 0 00:39 29.11.2021
5181 Smoke 24 1012 50 3000 0 0 23:43 28.11.2021
5182 Smoke 25 1012 47 3000 0 0 22:47 28.11.2021
5183 Smoke 26 1012 41 3000 2.57 120 21:42 28.11.2021
5184 Smoke 26 1012 44 3000 0 0 21:19 28.11.2021
5185 Smoke 26 1013 47 3000 0 0 19:58 28.11.2021
5186 Smoke 26 1013 57 3000 0 0 18:45 28.11.2021
5187 Smoke 27 1013 50 3000 2.06 70 18:27 28.11.2021
5188 Smoke 27 1013 54 3000 2.06 60 17:54 28.11.2021
5189 Haze 27 1013 57 3000 2.06 70 17:31 28.11.2021
5190 Smoke 28 1012 57 3000 3.6 20 16:28 28.11.2021
5191 Smoke 28 1012 57 3000 4.63 20 15:58 28.11.2021
5192 Smoke 29 1012 54 3000 3.09 10 15:24 28.11.2021
5193 Smoke 29 1011 54 3000 3.09 360 14:44 28.11.2021
5194 Smoke 32 1010 31 3500 3.6 30 12:58 28.11.2021
5195 Smoke 32 1010 31 3500 3.6 30 12:37 28.11.2021
5196 Smoke 33 1010 27 3000 4.12 80 10:54 28.11.2021
5197 Smoke 33 1011 29 3000 4.63 70 10:20 28.11.2021
5198 Smoke 33 1011 29 3000 4.12 140 09:37 28.11.2021
5199 Smoke 29 1014 45 2500 5.14 110 06:30 28.11.2021
5200 Haze 27 1011 78 2500 0 0 23:37 27.11.2021
5201 Haze 28 1012 65 3000 0 0 20:44 27.11.2021
5202 Haze 29 1012 65 3000 0 0 18:57 27.11.2021
5203 Haze 30 1012 54 2500 1.54 330 16:56 27.11.2021
5204 Haze 30 1011 58 2500 3.09 340 15:56 27.11.2021
5205 Smoke 31 1010 58 2500 2.57 290 13:47 27.11.2021
5206 Smoke 33 1009 46 2500 4.12 300 12:31 27.11.2021
5207 Smoke 34 1009 33 2500 2.06 340 10:42 27.11.2021
5208 Smoke 35 1009 31 2500 3.6 50 09:53 27.11.2021
5209 Smoke 34 1010 33 2500 2.57 50 08:43 27.11.2021
5210 Haze 29 1013 61 2200 3.09 80 05:18 27.11.2021
5211 Haze 27 1011 69 2500 2.06 50 01:55 27.11.2021
5212 Haze 27 1010 69 2500 2.57 90 23:35 26.11.2021
5213 Haze 28 1011 65 2500 0 0 22:25 26.11.2021
5214 Haze 28 1011 61 2500 1.54 10 21:37 26.11.2021
5215 Haze 29 1011 58 2500 1.54 10 20:53 26.11.2021
5216 Haze 29 1011 58 2500 2.06 340 20:19 26.11.2021
5217 Rain 29 1012 61 2500 1.54 30 19:47 26.11.2021
5218 Haze 29 1012 61 2500 1.54 30 18:39 26.11.2021
5219 Haze 30 1012 62 2500 3.09 330 17:23 26.11.2021
5220 Smoke 30 1012 66 2500 2.06 330 15:57 26.11.2021
5221 Smoke 31 1010 58 2500 3.09 320 13:36 26.11.2021
5222 Smoke 33 1009 52 2500 3.6 290 12:40 26.11.2021
5223 Smoke 34 1010 46 2500 3.6 270 10:38 26.11.2021
5224 Smoke 35 1011 36 3000 1.54 110 08:59 26.11.2021
5225 Smoke 35 1011 36 3000 1.54 110 08:39 26.11.2021
5226 Smoke 34 1012 36 3000 2.57 120 08:19 26.11.2021
5227 Smoke 32 1013 51 2500 3.09 80 06:28 26.11.2021
5228 Haze 30 1013 62 2500 0 0 04:52 26.11.2021
5229 Haze 27 1012 74 2500 2.57 110 03:26 26.11.2021
5230 Haze 28 1010 65 3000 1.54 130 23:28 25.11.2021
5231 Haze 28 1010 65 3000 0 0 21:51 25.11.2021
5232 Smoke 29 1011 61 3000 1.54 10 20:40 25.11.2021
5233 Smoke 29 1011 61 3000 2.06 20 18:49 25.11.2021
5234 Smoke 30 1012 58 3000 2.57 20 17:59 25.11.2021
5235 Smoke 30 1012 58 3000 3.09 20 17:26 25.11.2021
5236 Smoke 30 1012 58 3000 2.57 360 16:38 25.11.2021
5237 Smoke 31 1011 55 3000 2.06 340 15:58 25.11.2021
5238 Smoke 31 1010 51 3500 3.6 330 14:21 25.11.2021
5239 Smoke 33 1009 52 3000 4.12 320 12:48 25.11.2021
5240 Smoke 34 1009 52 3000 4.63 290 11:55 25.11.2021
5241 Smoke 34 1009 55 3000 3.6 240 10:25 25.11.2021
5242 Smoke 33 1013 52 2500 2.06 130 06:36 25.11.2021
5243 Haze 28 1011 74 2200 0 0 02:54 25.11.2021
5244 Haze 28 1010 78 2500 2.06 110 23:39 24.11.2021
5245 Haze 29 1010 79 2500 0 0 22:28 24.11.2021
5246 Rain 29 1010 79 2500 0 0 21:45 24.11.2021
5247 Haze 29 1010 79 2500 0 0 21:19 24.11.2021
5248 Haze 29 1010 79 2500 0 0 20:26 24.11.2021
5249 Haze 30 1011 74 2500 0 0 18:58 24.11.2021
5250 Haze 30 1011 74 2500 0 0 18:18 24.11.2021
5251 Haze 31 1010 70 2500 2.57 10 16:20 24.11.2021
5252 Haze 32 1009 66 2500 3.6 340 14:56 24.11.2021
5253 Haze 32 1009 66 2500 2.57 320 14:21 24.11.2021
5254 Haze 33 1008 62 2500 4.12 330 12:51 24.11.2021
5255 Haze 34 1007 62 3000 5.14 300 11:22 24.11.2021
5256 Haze 34 1008 62 3000 5.14 300 10:52 24.11.2021
5257 Haze 34 1008 62 2500 4.63 300 10:34 24.11.2021
5258 Haze 35 1010 55 2200 3.09 130 08:35 24.11.2021
5259 Haze 33 1011 62 2500 2.57 90 07:31 24.11.2021
5260 Mist 28 1011 89 1000 1.54 210 03:59 24.11.2021
5261 Mist 27 1010 94 1500 3.09 30 02:44 24.11.2021
5262 Clouds 28 1009 80 10000 2.9 12 23:33 23.11.2021
5263 Clouds 28 1009 80 10000 2.92 16 22:37 23.11.2021
5264 Clouds 28 1009 80 10000 2.85 7 21:45 23.11.2021
5265 Rain 28 1010 80 10000 2.94 348 20:22 23.11.2021
5266 Haze 29 1011 84 3000 1.54 340 19:22 23.11.2021
5267 Haze 29 1011 84 3000 0 0 18:33 23.11.2021
5268 Haze 29 1011 84 3000 2.57 330 17:30 23.11.2021
5269 Haze 29 1011 84 3000 3.09 300 16:35 23.11.2021
5270 Haze 29 1010 84 3000 3.09 310 15:26 23.11.2021
5271 Haze 29 1009 84 3000 4.12 310 14:44 23.11.2021
5272 Haze 30 1008 79 4000 4.63 290 12:53 23.11.2021
5273 Haze 32 1008 66 4000 5.66 260 10:28 23.11.2021
5274 Haze 32 1009 66 4000 5.66 260 09:45 23.11.2021
5275 Smoke 32 1011 55 4000 3.09 330 07:56 23.11.2021
5276 Haze 29 1012 79 2500 2.06 50 04:53 23.11.2021
5277 Haze 27 1011 89 2500 0 0 03:29 23.11.2021
5278 Haze 27 1010 89 3000 2.06 60 23:35 22.11.2021
5279 Haze 28 1010 83 3000 2.57 90 22:57 22.11.2021
5280 Haze 28 1010 83 3000 1.54 80 22:30 22.11.2021
5281 Haze 28 1011 83 3000 2.06 100 21:44 22.11.2021
5282 Haze 28 1011 83 3000 0 0 21:19 22.11.2021
5283 Haze 28 1011 83 3000 1.54 20 20:26 22.11.2021
5284 Haze 28 1012 83 3000 0 0 19:20 22.11.2021
5285 Haze 29 1012 74 3000 0 0 18:40 22.11.2021
5286 Haze 29 1012 74 3000 2.06 290 17:46 22.11.2021
5287 Haze 29 1012 74 3000 1.54 310 16:31 22.11.2021
5288 Haze 29 1011 74 3000 1.54 290 15:29 22.11.2021
5289 Haze 30 1009 66 5000 3.09 280 12:48 22.11.2021
5290 Smoke 31 1009 58 5000 3.6 230 11:28 22.11.2021
5291 Smoke 31 1010 55 4000 3.09 230 10:19 22.11.2021
5292 Haze 30 1011 74 2500 0 0 08:43 22.11.2021
5293 Haze 29 1012 74 2500 0 0 07:33 22.11.2021
5294 Haze 26 1010 94 2500 0 0 00:50 22.11.2021
5295 Haze 26 1009 94 2500 1.54 110 23:20 21.11.2021
5296 Haze 26 1010 94 2500 2.57 110 22:42 21.11.2021
5297 Rain 26 1011 94 2200 1.54 80 20:44 21.11.2021
5298 Thunderstorm 26 1011 94 2200 2.06 100 20:26 21.11.2021
5299 Rain 26 1011 94 2500 0 0 18:53 21.11.2021
5300 Thunderstorm 26 1011 100 2200 3.6 180 17:52 21.11.2021
5301 Thunderstorm 26 1011 100 2200 3.6 180 17:29 21.11.2021
5302 Haze 29 1009 79 3000 4.12 180 14:49 21.11.2021
5303 Haze 29 1008 79 3000 3.09 190 14:18 21.11.2021
5304 Haze 30 1007 74 4000 3.6 210 12:55 21.11.2021
5305 Smoke 30 1007 74 5000 6.17 220 12:19 21.11.2021
5306 Smoke 31 1006 74 5000 6.69 220 11:36 21.11.2021
5307 Smoke 33 1007 52 5000 2.06 130 10:19 21.11.2021
5308 Smoke 32 1007 55 5000 4.12 130 09:45 21.11.2021
5309 Smoke 33 1008 52 5000 4.63 150 08:31 21.11.2021
5310 Smoke 33 1008 52 5000 4.63 150 07:52 21.11.2021
5311 Smoke 32 1008 51 5000 2.57 130 06:26 21.11.2021
5312 Smoke 32 1008 55 5000 2.57 150 05:41 21.11.2021
5313 Haze 29 1006 70 4000 3.09 90 03:22 21.11.2021
5314 Haze 29 1006 70 3000 3.6 40 02:55 21.11.2021
5315 Haze 29 1005 70 3000 4.63 50 01:25 21.11.2021
5316 Haze 29 1005 70 3000 4.63 70 00:42 21.11.2021
5317 Haze 30 1005 66 3000 2.57 130 22:30 20.11.2021
5318 Haze 30 1005 66 3000 2.57 90 21:32 20.11.2021
5319 Haze 30 1006 74 3000 1.54 100 19:56 20.11.2021
5320 Haze 31 1006 62 3000 3.6 80 18:45 20.11.2021
5321 Haze 31 1006 66 3000 2.06 80 18:23 20.11.2021
5322 Haze 31 1006 66 3000 1.54 30 17:22 20.11.2021
5323 Haze 31 1004 62 3000 3.09 350 14:57 20.11.2021
5324 Drizzle 32 1004 62 3000 3.6 340 14:28 20.11.2021
5325 Haze 32 1003 58 4000 5.14 330 13:53 20.11.2021
5326 Smoke 35 1002 46 5000 1.54 20 11:46 20.11.2021
5327 Smoke 34 1003 46 4000 3.6 130 09:58 20.11.2021
5328 Smoke 33 1004 49 4000 3.09 130 08:43 20.11.2021
5329 Smoke 33 1006 49 2500 5.14 100 06:50 20.11.2021
5330 Haze 31 1007 58 2500 3.6 70 05:18 20.11.2021
5331 Haze 30 1006 66 2500 4.12 60 04:49 20.11.2021
5332 Haze 28 1003 78 3000 2.06 50 00:43 20.11.2021
5333 Haze 28 1003 78 3000 0 0 00:18 20.11.2021
5334 Mist 28 1004 78 3000 4.12 110 22:54 19.11.2021
5335 Mist 28 1004 83 3000 1.54 70 21:36 19.11.2021
5336 Mist 29 1005 84 3000 2.57 110 20:48 19.11.2021
5337 Mist 29 1005 84 3000 0 0 20:29 19.11.2021
5338 Haze 29 1005 79 3000 0 0 19:47 19.11.2021
5339 Haze 30 1005 74 3000 0 0 18:49 19.11.2021
5340 Haze 30 1005 74 3000 0 0 17:45 19.11.2021
5341 Haze 29 1005 79 3000 0 0 16:47 19.11.2021
5342 Haze 29 1005 84 3000 2.57 320 15:31 19.11.2021
5343 Haze 30 1003 79 3500 4.63 260 12:43 19.11.2021
5344 Haze 32 1003 66 3500 4.63 280 10:26 19.11.2021
5345 Smoke 33 1005 55 3500 1.54 110 08:39 19.11.2021
5346 Smoke 33 1006 55 3000 2.06 120 07:33 19.11.2021
5347 Haze 27 1007 78 2500 4.63 90 04:24 19.11.2021
5348 Haze 26 1006 89 3000 2.57 90 01:24 19.11.2021
5349 Haze 27 1006 83 3000 2.57 70 23:44 18.11.2021
5350 Haze 27 1007 78 3000 2.57 90 21:48 18.11.2021
5351 Haze 27 1007 78 3000 2.06 130 20:48 18.11.2021
5352 Haze 27 1008 78 3000 3.09 120 20:29 18.11.2021
5353 Haze 27 1008 78 2500 3.09 80 19:43 18.11.2021
5354 Haze 28 1008 83 2500 3.09 40 18:41 18.11.2021
5355 Haze 28 1008 83 2500 3.09 40 18:20 18.11.2021
5356 Haze 28 1009 83 2500 2.06 130 17:44 18.11.2021
5357 Haze 28 1008 89 2500 3.09 130 16:44 18.11.2021
5358 Haze 29 1007 84 3000 2.57 10 15:25 18.11.2021
5359 Haze 29 1006 84 2500 3.09 270 13:29 18.11.2021
5360 Haze 31 1006 70 4000 4.63 260 12:33 18.11.2021
5361 Haze 31 1005 70 4000 5.66 260 11:41 18.11.2021
5362 Haze 31 1005 70 4000 5.66 260 11:23 18.11.2021
5363 Haze 32 1006 62 4000 4.63 260 09:34 18.11.2021
5364 Haze 34 1009 52 3000 1.54 90 07:34 18.11.2021
5365 Haze 31 1010 70 2500 2.57 170 05:48 18.11.2021
5366 Haze 30 1010 79 2500 1.54 120 04:54 18.11.2021
5367 Haze 28 1008 89 2500 0 0 01:22 18.11.2021
5368 Haze 27 1007 94 2500 0 0 22:49 17.11.2021
5369 Haze 27 1008 94 2500 0 0 22:20 17.11.2021
5370 Haze 27 1008 94 2500 0 0 21:38 17.11.2021
5371 Haze 27 1008 94 2500 0 0 20:56 17.11.2021
5372 Clouds 27 1009 94 2500 3.6 180 18:27 17.11.2021
5373 Rain 28 1009 89 2500 1.54 160 17:27 17.11.2021
5374 Clouds 28 1007 89 2500 2.06 220 14:51 17.11.2021
5375 Drizzle 31 1006 66 3000 3.6 260 12:41 17.11.2021
5376 Haze 32 1006 58 3000 3.09 290 11:44 17.11.2021
5377 Haze 33 1006 58 3000 4.63 280 10:29 17.11.2021
5378 Smoke 33 1006 58 3000 4.63 250 09:24 17.11.2021
5379 Smoke 34 1008 49 3000 4.12 100 07:44 17.11.2021
5380 Haze 28 1008 94 2500 3.6 250 03:51 17.11.2021
5381 Haze 29 1006 74 2500 2.06 20 01:45 17.11.2021
5382 Haze 29 1006 61 2500 3.09 120 23:26 16.11.2021
5383 Haze 30 1006 58 3000 4.12 70 21:27 16.11.2021
5384 Haze 31 1007 55 3000 3.09 60 20:18 16.11.2021
5385 Haze 31 1007 58 3000 2.57 40 18:54 16.11.2021
5386 Haze 31 1007 58 3000 2.06 30 18:35 16.11.2021
5387 Haze 31 1007 58 2500 2.06 330 17:43 16.11.2021
5388 Haze 31 1007 62 2500 3.09 340 16:49 16.11.2021
5389 Haze 31 1006 66 2500 3.09 350 15:56 16.11.2021
5390 Smoke 32 1006 58 2500 2.57 340 15:29 16.11.2021
5391 Smoke 33 1004 49 3000 2.57 30 12:34 16.11.2021
5392 Smoke 35 1005 41 3000 2.57 120 09:49 16.11.2021
5393 Smoke 35 1006 43 3000 4.12 90 08:48 16.11.2021
5394 Smoke 33 1007 49 2500 5.14 70 07:34 16.11.2021
5395 Haze 30 1007 58 2200 3.6 60 04:45 16.11.2021
5396 Haze 28 1005 74 2100 1.54 70 23:23 15.11.2021
5397 Haze 28 1005 74 2200 1.54 40 22:39 15.11.2021
5398 Haze 28 1005 74 2200 2.06 70 21:54 15.11.2021
5399 Haze 29 1006 70 2200 1.54 120 21:29 15.11.2021
5400 Haze 29 1006 70 2200 1.03 0 20:29 15.11.2021
5401 Haze 30 1007 62 2200 2.57 330 18:53 15.11.2021
5402 Haze 31 1007 58 2200 2.06 350 16:56 15.11.2021
5403 Haze 31 1006 62 2100 5.66 350 15:48 15.11.2021
5404 Haze 31 1006 62 2100 5.66 350 15:29 15.11.2021
5405 Haze 31 1005 62 2200 2.57 330 13:49 15.11.2021
5406 Haze 32 1004 62 2200 4.63 270 12:18 15.11.2021
5407 Smoke 33 1005 58 1800 4.12 270 09:30 15.11.2021
5408 Smoke 34 1006 49 2500 1.54 50 08:37 15.11.2021
5409 Haze 32 1008 55 1800 2.06 80 06:21 15.11.2021
5410 Haze 28 1006 69 2500 1.54 90 00:33 15.11.2021
5411 Haze 28 1007 74 2500 0 0 22:39 14.11.2021
5412 Haze 29 1008 70 2500 2.06 250 21:18 14.11.2021
5413 Haze 30 1008 58 2500 0 0 19:18 14.11.2021
5414 Smoke 30 1009 58 2500 2.06 10 18:54 14.11.2021
5415 Smoke 30 1009 58 2500 2.06 10 18:36 14.11.2021
5416 Smoke 30 1009 58 2500 2.57 340 18:18 14.11.2021
5417 Rain 30 1009 58 2500 3.09 30 17:57 14.11.2021
5418 Smoke 30 1009 58 2500 3.09 30 17:39 14.11.2021
5419 Smoke 30 1009 58 2500 3.6 10 17:21 14.11.2021
5420 Smoke 30 1009 58 2500 2.57 40 16:52 14.11.2021
5421 Smoke 31 1008 55 2500 3.09 10 16:22 14.11.2021
5422 Smoke 31 1008 55 2500 3.09 340 15:52 14.11.2021
5423 Smoke 31 1008 55 2500 2.57 340 15:19 14.11.2021
5424 Smoke 30 1007 58 2500 4.12 330 14:37 14.11.2021
5425 Smoke 31 1007 55 2500 3.6 320 14:18 14.11.2021
5426 Smoke 31 1006 58 2500 3.6 320 13:40 14.11.2021
5427 Smoke 33 1006 49 3000 4.12 300 12:53 14.11.2021
5428 Smoke 33 1006 49 3000 4.63 290 12:21 14.11.2021
5429 Smoke 33 1006 49 3000 4.63 260 10:54 14.11.2021
5430 Smoke 34 1007 46 3000 4.63 260 10:31 14.11.2021
5431 Smoke 35 1007 43 3000 3.09 230 09:22 14.11.2021
5432 Smoke 35 1008 49 3000 2.57 290 08:46 14.11.2021
5433 Smoke 30 1010 51 2200 2.06 80 04:46 14.11.2021
5434 Haze 28 1007 61 2500 2.57 80 22:28 13.11.2021
5435 Haze 28 1007 61 2500 2.57 30 21:59 13.11.2021
5436 Haze 28 1008 61 2500 1.54 50 21:30 13.11.2021
5437 Smoke 29 1008 58 2500 2.06 120 20:26 13.11.2021
5438 Smoke 29 1009 54 2500 2.06 340 18:54 13.11.2021
5439 Smoke 30 1009 51 3000 3.09 340 18:28 13.11.2021
5440 Smoke 30 1009 51 3000 2.57 20 17:32 13.11.2021
5441 Smoke 30 1008 51 3000 4.12 340 15:45 13.11.2021
5442 Smoke 30 1007 48 3000 4.12 330 14:41 13.11.2021
5443 Smoke 31 1007 51 3500 3.6 350 13:46 13.11.2021
5444 Smoke 32 1006 48 3500 3.6 300 12:41 13.11.2021
5445 Smoke 33 1006 49 3500 3.6 300 11:46 13.11.2021
5446 Smoke 35 1006 36 3500 4.12 330 11:18 13.11.2021
5447 Smoke 35 1007 36 3000 3.09 60 10:32 13.11.2021
5448 Smoke 35 1007 36 3000 3.6 80 09:43 13.11.2021
5449 Smoke 35 1007 36 3000 1.54 30 09:22 13.11.2021
5450 Smoke 34 1008 38 2500 3.09 20 08:42 13.11.2021
5451 Smoke 33 1010 38 2500 2.57 100 07:26 13.11.2021
5452 Smoke 28 1010 39 2200 2.57 70 04:40 13.11.2021
5453 Smoke 27 1009 39 2300 2.57 40 02:41 13.11.2021
5454 Clouds 26 1008 46 10000 3.32 72 23:33 12.11.2021
5455 Smoke 28 1008 36 3000 2.57 40 21:54 12.11.2021
5456 Smoke 28 1008 36 3000 2.06 30 20:46 12.11.2021
5457 Smoke 29 1009 37 2500 3.6 40 19:32 12.11.2021
5458 Smoke 28 1009 44 2500 2.57 30 18:57 12.11.2021
5459 Smoke 29 1009 45 2500 1.54 50 18:18 12.11.2021
5460 Smoke 29 1009 45 2500 1.54 50 18:18 12.11.2021
5461 Smoke 30 1008 42 3000 3.09 350 15:55 12.11.2021
5462 Smoke 31 1007 37 3000 4.12 340 13:27 12.11.2021
5463 Smoke 34 1006 31 3000 4.63 250 11:24 12.11.2021
5464 Smoke 34 1006 21 3000 2.06 100 10:20 12.11.2021
5465 Smoke 34 1006 21 3000 2.06 100 10:20 12.11.2021
5466 Smoke 33 1008 19 2500 3.6 80 08:55 12.11.2021
5467 Smoke 31 1011 22 2500 3.6 70 06:37 12.11.2021
5468 Smoke 25 1008 33 3000 1.54 110 00:21 12.11.2021
5469 Smoke 25 1008 33 3000 3.09 70 23:27 11.11.2021
5470 Smoke 25 1008 36 3000 2.57 140 22:21 11.11.2021
5471 Smoke 27 1008 29 3000 2.06 110 21:26 11.11.2021
5472 Smoke 28 1009 28 3000 4.63 80 19:56 11.11.2021
5473 Smoke 28 1009 30 3000 3.6 60 18:40 11.11.2021
5474 Smoke 28 1009 34 3000 3.6 60 17:41 11.11.2021
5475 Smoke 30 1008 51 3000 1.54 350 15:41 11.11.2021
5476 Smoke 30 1008 48 2500 2.06 340 14:39 11.11.2021
5477 Smoke 30 1007 45 2500 2.06 310 14:21 11.11.2021
5478 Smoke 32 1007 27 3500 2.57 30 13:35 11.11.2021
5479 Smoke 34 1006 18 3500 4.12 30 12:27 11.11.2021
5480 Smoke 34 1007 20 3000 4.12 90 09:59 11.11.2021
5481 Smoke 33 1008 21 3000 5.66 60 09:23 11.11.2021
5482 Smoke 32 1010 23 3000 4.63 60 07:33 11.11.2021
5483 Smoke 25 1009 41 3000 3.6 70 00:40 11.11.2021
5484 Smoke 25 1009 41 3000 3.09 120 22:46 10.11.2021
5485 Smoke 26 1009 38 3000 3.09 60 21:54 10.11.2021
5486 Smoke 26 1009 41 3000 2.06 60 20:57 10.11.2021
5487 Smoke 27 1010 41 3000 3.09 70 20:33 10.11.2021
5488 Smoke 26 1010 50 3000 2.06 80 19:45 10.11.2021
5489 Smoke 28 1011 51 3000 2.06 80 17:39 10.11.2021
5490 Smoke 29 1011 45 3000 4.12 190 16:21 10.11.2021
5491 Smoke 30 1009 48 3000 3.6 330 14:25 10.11.2021
5492 Smoke 33 1008 25 3500 2.57 330 13:40 10.11.2021
5493 Smoke 33 1008 24 3500 4.63 40 12:39 10.11.2021
5494 Smoke 34 1009 21 3500 4.63 50 09:41 10.11.2021
5495 Smoke 33 1010 24 3500 5.14 80 08:44 10.11.2021
5496 Smoke 31 1013 29 2800 4.63 90 07:00 10.11.2021
5497 Smoke 29 1013 34 2200 4.63 100 05:58 10.11.2021
5498 Smoke 28 1013 36 2200 3.6 80 04:59 10.11.2021
5499 Smoke 26 1010 44 3000 3.09 70 22:45 09.11.2021
5500 Smoke 27 1011 44 3000 3.09 70 21:46 09.11.2021
5501 Smoke 27 1011 47 3000 3.09 80 20:20 09.11.2021
5502 Smoke 28 1012 51 3000 0 0 18:59 09.11.2021
5503 Smoke 29 1012 45 3000 2.57 110 17:24 09.11.2021
5504 Smoke 30 1011 45 3000 2.57 350 15:38 09.11.2021
5505 Smoke 30 1010 51 4000 4.63 260 13:59 09.11.2021
5506 Smoke 33 1009 35 4000 4.63 340 12:50 09.11.2021
5507 Smoke 34 1009 24 4000 5.14 90 11:38 09.11.2021
5508 Smoke 34 1009 24 4000 4.12 80 10:43 09.11.2021
5509 Smoke 34 1010 26 3000 5.14 70 09:24 09.11.2021
5510 Smoke 33 1011 27 2500 6.17 90 08:18 09.11.2021
5511 Smoke 30 1013 35 2500 3.6 90 05:45 09.11.2021
5512 Haze 24 1011 60 2500 2.06 140 02:19 09.11.2021
5513 Haze 24 1011 60 2500 2.06 130 01:39 09.11.2021
5514 Haze 26 1010 65 2500 3.09 30 23:35 08.11.2021
5515 Haze 26 1010 69 2500 0 0 22:48 08.11.2021
5516 Haze 26 1010 69 2500 3.09 90 21:46 08.11.2021
5517 Haze 26 1010 69 2500 3.09 90 21:46 08.11.2021
5518 Haze 26 1011 73 3000 2.57 100 20:47 08.11.2021
5519 Haze 27 1011 69 3000 0 0 19:48 08.11.2021
5520 Haze 28 1012 61 3000 0 0 17:55 08.11.2021
5521 Haze 28 1011 65 2500 2.06 330 16:21 08.11.2021
5522 Haze 29 1010 61 3000 4.12 300 14:58 08.11.2021
5523 Haze 29 1010 61 3000 4.12 300 14:37 08.11.2021
5524 Smoke 30 1009 54 3500 4.12 270 13:24 08.11.2021
5525 Smoke 31 1009 42 3500 5.66 260 11:56 08.11.2021
5526 Smoke 31 1009 48 3500 5.14 260 10:50 08.11.2021
5527 Smoke 34 1009 29 3500 3.6 140 09:37 08.11.2021
5528 Smoke 34 1010 31 3500 2.57 100 08:53 08.11.2021
5529 Smoke 33 1011 33 3500 3.09 130 07:28 08.11.2021
5530 Haze 27 1011 61 2500 2.06 130 03:48 08.11.2021
5531 Haze 27 1010 65 2500 3.09 110 03:26 08.11.2021
5532 Haze 27 1008 74 2500 0 0 23:46 07.11.2021
5533 Haze 28 1009 65 2500 2.57 100 21:46 07.11.2021
5534 Haze 29 1009 61 2500 0 0 20:52 07.11.2021
5535 Haze 29 1010 65 2500 2.06 30 19:30 07.11.2021
5536 Haze 29 1010 65 2500 1.54 150 18:22 07.11.2021
5537 Haze 29 1010 70 2500 2.57 20 16:50 07.11.2021
5538 Haze 30 1009 62 2500 2.57 350 15:48 07.11.2021
5539 Haze 30 1008 54 2500 2.06 330 14:29 07.11.2021
5540 Haze 31 1008 51 2500 2.57 300 13:26 07.11.2021
5541 Smoke 31 1007 55 3000 4.12 310 11:42 07.11.2021
5542 Smoke 32 1008 45 3000 3.09 170 09:52 07.11.2021
5543 Smoke 31 1009 48 3000 3.09 100 07:54 07.11.2021
5544 Haze 27 1008 69 3000 2.57 50 02:38 07.11.2021
5545 Haze 27 1007 69 3000 2.57 60 23:37 06.11.2021
5546 Haze 26 1007 73 3000 2.06 60 22:47 06.11.2021
5547 Haze 26 1008 73 3000 1.54 150 21:33 06.11.2021
5548 Drizzle 27 1009 69 3000 3.6 120 20:50 06.11.2021
5549 Haze 27 1010 69 3000 3.09 100 18:56 06.11.2021
5550 Haze 29 1009 65 3000 2.06 80 16:47 06.11.2021
5551 Haze 29 1009 65 3000 2.06 80 16:47 06.11.2021
5552 Haze 29 1009 65 3000 2.06 80 16:47 06.11.2021
5553 Haze 29 1009 65 3000 2.06 80 16:47 06.11.2021
5554 Haze 29 1008 61 2500 3.09 360 15:20 06.11.2021
5555 Haze 30 1008 66 3000 2.06 340 13:38 06.11.2021
5556 Haze 31 1007 62 3000 3.09 330 11:53 06.11.2021
5557 Smoke 32 1008 58 2500 4.12 300 09:25 06.11.2021
5558 Haze 28 1011 78 2500 3.6 90 04:59 06.11.2021
5559 Haze 27 1009 83 2500 2.06 60 02:36 06.11.2021
5560 Haze 27 1009 83 2500 1.54 160 23:37 05.11.2021
5561 Drizzle 27 1009 78 2500 0 0 22:34 05.11.2021
5562 Drizzle 27 1009 78 2500 2.06 60 21:26 05.11.2021
5563 Haze 27 1010 78 2500 2.06 130 20:20 05.11.2021
5564 Haze 28 1010 74 2500 3.09 120 19:48 05.11.2021
5565 Thunderstorm 29 1010 70 2500 2.06 170 18:40 05.11.2021
5566 Thunderstorm 30 1010 66 2500 3.09 150 17:28 05.11.2021
5567 Haze 31 1009 62 3000 2.06 30 15:38 05.11.2021
5568 Smoke 31 1007 58 3500 4.12 270 13:38 05.11.2021
5569 Smoke 33 1006 55 3500 5.14 260 11:27 05.11.2021
5570 Smoke 35 1009 43 4000 2.57 150 08:40 05.11.2021
5571 Smoke 34 1010 46 4000 3.6 120 07:39 05.11.2021
5572 Smoke 32 1011 51 3000 3.09 100 05:33 05.11.2021
5573 Haze 28 1010 69 2200 2.06 100 02:26 05.11.2021
5574 Smoke 28 1008 69 2000 1.54 100 00:51 05.11.2021
5575 Smoke 27 1008 74 2000 2.06 100 23:23 04.11.2021
5576 Smoke 28 1009 69 2000 0 0 22:19 04.11.2021
5577 Smoke 28 1009 69 2000 0 0 21:38 04.11.2021
5578 Smoke 28 1010 69 2000 0 0 20:50 04.11.2021
5579 Smoke 28 1010 74 2000 0 0 20:22 04.11.2021
5580 Smoke 28 1010 74 2000 0 0 19:47 04.11.2021
5581 Smoke 29 1011 65 2000 1.54 140 18:44 04.11.2021
5582 Smoke 30 1010 54 2200 0 0 17:54 04.11.2021
5583 Smoke 30 1010 54 2500 2.06 40 16:47 04.11.2021
5584 Smoke 31 1008 51 3000 2.57 330 14:42 04.11.2021
5585 Smoke 32 1007 45 3000 4.12 310 12:32 04.11.2021
5586 Smoke 34 1009 40 3000 4.63 270 09:37 04.11.2021
5587 Smoke 35 1010 38 3000 0 0 08:31 04.11.2021
5588 Smoke 33 1011 40 2500 3.09 80 07:34 04.11.2021
5589 Smoke 30 1012 45 2500 2.57 60 04:47 04.11.2021
5590 Smoke 28 1009 51 3000 3.09 80 22:53 03.11.2021
5591 Smoke 29 1010 48 3000 3.09 80 21:49 03.11.2021
5592 Smoke 29 1010 48 3000 2.57 70 21:30 03.11.2021
5593 Smoke 29 1010 51 3000 2.06 30 20:36 03.11.2021
5594 Smoke 29 1011 51 3000 1.03 0 19:58 03.11.2021
5595 Smoke 30 1011 48 3000 2.57 50 18:57 03.11.2021
5596 Smoke 30 1011 51 3000 1.03 0 18:23 03.11.2021
5597 Smoke 30 1011 51 3000 2.06 340 17:36 03.11.2021
5598 Smoke 30 1010 54 3000 2.57 20 16:26 03.11.2021
5599 Smoke 31 1010 48 3000 2.06 10 15:43 03.11.2021
5600 Smoke 32 1008 48 3000 3.09 330 13:57 03.11.2021
5601 Smoke 35 1008 34 3500 3.6 30 11:59 03.11.2021
5602 Smoke 35 1008 34 3000 3.6 50 11:25 03.11.2021
5603 Smoke 35 1008 34 3000 1.54 20 10:46 03.11.2021
5604 Smoke 35 1010 31 3000 4.63 70 09:31 03.11.2021
5605 Smoke 34 1011 33 3000 5.14 110 08:23 03.11.2021
5606 Smoke 33 1011 35 3000 4.12 80 07:39 03.11.2021
5607 Smoke 31 1013 40 3000 4.12 80 05:35 03.11.2021
5608 Smoke 28 1011 54 2500 3.09 30 02:50 03.11.2021
5609 Haze 28 1009 61 3000 3.6 40 23:56 02.11.2021
5610 Haze 28 1009 65 3000 3.09 50 22:47 02.11.2021
5611 Haze 28 1010 69 3000 0 0 21:39 02.11.2021
5612 Haze 29 1010 65 3000 0 0 20:33 02.11.2021
5613 Haze 29 1011 65 3000 0 0 19:53 02.11.2021
5614 Haze 30 1011 62 3000 0 0 19:18 02.11.2021
5615 Haze 30 1011 62 3000 0 0 18:26 02.11.2021
5616 Haze 30 1011 62 3000 0 0 18:26 02.11.2021
5617 Haze 30 1011 62 3000 3.09 40 17:42 02.11.2021
5618 Smoke 31 1011 58 3000 0 0 16:31 02.11.2021
5619 Smoke 31 1010 58 3000 1.03 0 15:48 02.11.2021
5620 Smoke 31 1009 55 3000 2.57 330 14:30 02.11.2021
5621 Smoke 33 1008 46 3000 2.57 320 13:28 02.11.2021
5622 Smoke 33 1008 49 3000 3.6 310 12:43 02.11.2021
5623 Smoke 34 1008 43 3000 4.12 280 11:38 02.11.2021
5624 Smoke 34 1008 40 3000 3.6 270 10:53 02.11.2021
5625 Smoke 34 1008 43 3000 4.12 270 10:28 02.11.2021
5626 Smoke 34 1010 38 3000 2.57 120 08:44 02.11.2021
5627 Smoke 33 1012 43 2500 4.12 140 06:57 02.11.2021
5628 Haze 27 1011 65 1700 3.6 70 03:51 02.11.2021
5629 Haze 28 1010 69 2500 2.06 30 02:24 02.11.2021
5630 Haze 28 1009 65 3000 0 0 22:55 01.11.2021
5631 Haze 28 1009 65 3000 0 0 21:26 01.11.2021
5632 Smoke 29 1010 58 3000 0 0 20:39 01.11.2021
5633 Smoke 29 1010 54 3000 0 0 19:57 01.11.2021
5634 Smoke 29 1010 58 3000 0 0 19:30 01.11.2021
5635 Smoke 29 1011 58 3000 0 0 18:22 01.11.2021
5636 Smoke 29 1011 54 3000 0 0 17:35 01.11.2021
5637 Smoke 30 1011 54 3000 1.54 70 16:50 01.11.2021
5638 Smoke 31 1010 48 3000 2.06 340 15:55 01.11.2021
5639 Smoke 30 1010 51 3000 1.54 290 15:26 01.11.2021
5640 Smoke 30 1010 51 3000 2.06 310 14:43 01.11.2021
5641 Smoke 30 1009 51 3000 2.06 270 14:22 01.11.2021
5642 Smoke 31 1009 45 3500 2.06 290 13:49 01.11.2021
5643 Smoke 32 1009 45 3500 3.6 250 12:27 01.11.2021
5644 Smoke 32 1009 51 3000 4.12 250 10:36 01.11.2021
5645 Smoke 32 1009 51 3000 5.14 250 09:35 01.11.2021
5646 Smoke 34 1011 38 3000 2.06 110 07:49 01.11.2021
5647 Smoke 33 1012 43 2500 1.54 90 06:31 01.11.2021
5648 Haze 28 1011 57 2000 1.54 30 03:44 01.11.2021
5649 Haze 27 1010 65 2500 2.57 90 00:37 01.11.2021
5650 Haze 27 1010 65 2200 2.57 110 22:31 31.10.2021
5651 Rain 28 1011 61 2500 2.06 120 20:46 31.10.2021
5652 Smoke 29 1012 54 3000 1.54 230 18:57 31.10.2021
5653 Smoke 29 1012 54 3000 1.54 230 18:37 31.10.2021
5654 Smoke 30 1012 51 3000 1.54 0 17:23 31.10.2021
5655 Smoke 30 1012 48 3000 1.54 310 15:48 31.10.2021
5656 Smoke 31 1010 45 3000 3.09 310 13:58 31.10.2021
5657 Smoke 32 1010 43 3000 3.09 300 12:49 31.10.2021
5658 Smoke 32 1010 43 3000 4.63 270 11:40 31.10.2021
5659 Smoke 33 1010 38 3000 5.14 270 10:42 31.10.2021
5660 Smoke 34 1011 38 3000 4.12 300 09:21 31.10.2021
5661 Smoke 34 1011 38 3000 4.12 300 09:21 31.10.2021
5662 Smoke 33 1013 35 3000 2.57 120 07:20 31.10.2021
5663 Rain 28 1011 39 3000 3.09 60 00:54 31.10.2021
5664 Smoke 27 1012 50 3000 2.57 40 22:45 30.10.2021
5665 Smoke 28 1012 51 3000 0 0 21:35 30.10.2021
5666 Smoke 28 1013 54 3000 2.06 90 20:33 30.10.2021
5667 Smoke 29 1013 48 3500 2.06 30 18:43 30.10.2021
5668 Smoke 30 1012 42 3500 3.09 350 16:53 30.10.2021
5669 Smoke 31 1011 42 4000 3.09 320 14:50 30.10.2021
5670 Smoke 32 1011 43 4000 3.6 310 13:39 30.10.2021
5671 Smoke 32 1011 43 4000 3.6 330 13:21 30.10.2021
5672 Smoke 34 1011 29 4000 1.54 60 11:58 30.10.2021
5673 Smoke 34 1011 29 4000 1.54 60 11:39 30.10.2021
5674 Smoke 34 1012 27 3500 1.54 100 10:32 30.10.2021
5675 Smoke 33 1014 27 3500 3.09 70 08:52 30.10.2021
5676 Smoke 31 1015 27 3500 6.17 70 07:19 30.10.2021
5677 Smoke 28 1014 30 3500 5.66 80 05:39 30.10.2021
5678 Smoke 27 1012 34 3000 4.12 60 00:45 30.10.2021
5679 Smoke 27 1013 32 3000 5.66 70 22:39 29.10.2021
5680 Smoke 27 1013 32 3000 5.66 80 22:20 29.10.2021
5681 Smoke 28 1014 32 3000 4.63 80 20:45 29.10.2021
5682 Smoke 28 1014 34 3000 5.14 60 19:56 29.10.2021
5683 Smoke 29 1014 34 3000 3.09 30 18:33 29.10.2021
5684 Smoke 30 1013 42 3500 2.57 350 16:51 29.10.2021
5685 Smoke 32 1012 27 5000 4.12 310 14:36 29.10.2021
5686 Smoke 34 1011 20 5000 4.12 40 11:44 29.10.2021
5687 Smoke 34 1012 22 4000 4.63 70 10:35 29.10.2021
5688 Smoke 33 1014 22 3500 3.6 70 08:35 29.10.2021
5689 Smoke 28 1011 42 3000 4.63 80 00:37 29.10.2021
5690 Smoke 29 1011 45 3000 4.63 70 23:19 28.10.2021
5691 Smoke 29 1012 45 3000 5.14 70 22:18 28.10.2021
5692 Smoke 29 1012 51 3000 4.12 40 20:54 28.10.2021
5693 Smoke 29 1012 51 3000 2.57 30 19:50 28.10.2021
5694 Smoke 29 1012 61 3000 4.12 10 18:23 28.10.2021
5695 Smoke 30 1012 58 3000 3.6 340 17:18 28.10.2021
5696 Smoke 31 1011 51 3000 5.14 340 15:48 28.10.2021
5697 Smoke 32 1010 43 4000 3.6 320 14:23 28.10.2021
5698 Smoke 34 1010 31 5000 4.63 350 13:24 28.10.2021
5699 Smoke 34 1010 29 4500 3.6 330 12:41 28.10.2021
5700 Smoke 34 1010 29 4000 4.12 330 10:57 28.10.2021
5701 Smoke 34 1011 33 3500 3.6 50 09:39 28.10.2021
5702 Smoke 34 1012 36 3500 5.14 90 09:20 28.10.2021
5703 Smoke 33 1012 35 3500 4.12 120 08:35 28.10.2021
5704 Smoke 32 1013 37 3000 3.6 90 07:40 28.10.2021
5705 Smoke 27 1010 54 3000 0 0 00:21 28.10.2021
5706 Haze 27 1011 61 3000 2.06 80 22:31 27.10.2021
5707 Smoke 28 1011 57 3000 0 0 21:34 27.10.2021
5708 Smoke 28 1012 57 3000 0 0 20:53 27.10.2021
5709 Smoke 29 1012 54 3000 2.06 210 20:34 27.10.2021
5710 Rain 29 1012 54 3000 1.54 20 19:42 27.10.2021
5711 Smoke 29 1012 54 3000 3.09 10 18:53 27.10.2021
5712 Smoke 31 1010 45 3000 3.09 360 16:38 27.10.2021
5713 Smoke 31 1010 45 3000 4.12 340 16:18 27.10.2021
5714 Smoke 31 1010 45 4000 4.63 330 15:21 27.10.2021
5715 Smoke 35 1009 28 5000 4.63 60 12:51 27.10.2021
5716 Smoke 34 1010 36 4000 3.6 210 10:59 27.10.2021
5717 Smoke 35 1011 29 3000 2.06 80 10:00 27.10.2021
5718 Smoke 34 1012 33 3000 3.09 110 08:58 27.10.2021
5719 Smoke 32 1013 40 3000 2.57 100 07:36 27.10.2021
5720 Smoke 29 1013 54 2500 2.57 120 05:34 27.10.2021
5721 Haze 26 1010 73 3000 0 0 00:58 27.10.2021
5722 Haze 26 1010 73 3000 0 0 00:33 27.10.2021
5723 Haze 28 1010 61 3000 0 0 23:51 26.10.2021
5724 Haze 28 1010 65 3000 0 0 22:42 26.10.2021
5725 Haze 28 1011 61 3000 0 0 22:19 26.10.2021
5726 Haze 28 1011 65 3000 2.57 140 20:51 26.10.2021
5727 Smoke 30 1012 58 3000 1.54 130 19:33 26.10.2021
5728 Smoke 30 1012 58 3000 0 0 18:52 26.10.2021
5729 Haze 30 1010 66 3000 2.57 340 16:58 26.10.2021
5730 Haze 30 1010 66 3000 2.06 310 15:34 26.10.2021
5731 Smoke 33 1008 49 4000 4.63 270 11:49 26.10.2021
5732 Smoke 33 1009 49 3500 5.14 260 10:42 26.10.2021
5733 Smoke 33 1012 40 3000 3.09 100 08:24 26.10.2021
5734 Haze 31 1013 55 3000 3.6 90 07:21 26.10.2021
5735 Haze 26 1010 83 2500 1.54 10 23:51 25.10.2021
5736 Haze 27 1010 78 2500 0 0 22:55 25.10.2021
5737 Haze 27 1011 78 2500 1.54 340 22:21 25.10.2021
5738 Haze 27 1011 78 2500 2.06 10 21:40 25.10.2021
5739 Haze 28 1012 69 2500 3.09 340 20:19 25.10.2021
5740 Haze 28 1012 74 3000 2.06 360 19:42 25.10.2021
5741 Haze 28 1012 74 3000 3.09 10 19:20 25.10.2021
5742 Haze 28 1012 74 3000 3.09 30 18:22 25.10.2021
5743 Haze 29 1011 70 3500 3.09 340 16:38 25.10.2021
5744 Haze 29 1010 70 4000 3.6 320 14:45 25.10.2021
5745 Smoke 31 1010 58 5000 3.6 270 12:31 25.10.2021
5746 Smoke 32 1011 55 5000 4.12 290 10:30 25.10.2021
5747 Smoke 32 1013 48 4000 4.12 360 08:54 25.10.2021
5748 Haze 28 1015 74 3500 4.12 20 06:26 25.10.2021
5749 Haze 26 1013 78 3000 2.57 30 02:44 25.10.2021
5750 Haze 26 1012 83 3000 1.54 60 00:48 25.10.2021
5751 Haze 27 1012 74 3000 1.54 20 23:47 24.10.2021
5752 Haze 27 1012 74 3000 1.54 20 23:47 24.10.2021
5753 Haze 27 1012 74 3000 1.54 30 23:19 24.10.2021
5754 Haze 27 1013 74 3000 2.06 10 22:37 24.10.2021
5755 Haze 27 1013 74 3000 0 0 22:18 24.10.2021
5756 Haze 28 1014 69 3000 0 0 20:46 24.10.2021
5757 Haze 28 1014 69 3000 0 0 20:27 24.10.2021
5758 Haze 28 1014 69 3000 0 0 19:22 24.10.2021
5759 Haze 28 1014 69 3000 2.06 310 18:27 24.10.2021
5760 Haze 28 1013 69 3000 2.57 300 17:29 24.10.2021
5761 Haze 29 1012 65 3500 2.57 310 15:49 24.10.2021
5762 Clouds 30 1011 62 6000 5.14 290 13:58 24.10.2021
5763 Clouds 31 1011 51 6000 5.14 270 12:41 24.10.2021
5764 Clouds 31 1012 62 6000 5.66 260 11:43 24.10.2021
5765 Clouds 31 1012 62 6000 5.14 260 10:55 24.10.2021
5766 Smoke 31 1013 62 5000 3.6 270 09:59 24.10.2021
5767 Haze 28 1015 74 2500 1.54 30 05:35 24.10.2021
5768 Haze 27 1012 78 3500 2.06 360 00:53 24.10.2021
5769 Haze 27 1012 74 3500 2.06 360 23:34 23.10.2021
5770 Haze 28 1013 69 3500 2.06 10 21:58 23.10.2021
5771 Haze 28 1013 69 3500 2.06 330 19:54 23.10.2021
5772 Haze 28 1014 74 3000 3.09 340 18:59 23.10.2021
5773 Haze 28 1013 74 3500 3.6 340 18:26 23.10.2021
5774 Haze 28 1013 78 3500 2.57 350 17:43 23.10.2021
5775 Haze 29 1012 74 3500 3.6 330 16:22 23.10.2021
5776 Haze 30 1011 70 5000 3.6 300 14:22 23.10.2021
5777 Haze 27 1013 83 2200 0 0 03:33 23.10.2021
5778 Haze 27 1012 83 2500 2.57 10 00:19 23.10.2021
5779 Haze 28 1012 74 3000 2.06 330 22:53 22.10.2021
5780 Haze 29 1013 74 3000 0 0 19:53 22.10.2021
5781 Haze 29 1013 74 3000 2.57 290 18:41 22.10.2021
5782 Haze 29 1013 74 3000 2.06 310 17:43 22.10.2021
5783 Haze 31 1011 66 3500 2.57 310 15:25 22.10.2021
5784 Smoke 33 1010 49 4000 4.12 290 13:48 22.10.2021
5785 Smoke 36 1010 28 4000 3.09 260 11:24 22.10.2021
5786 Smoke 35 1011 29 4000 0 0 10:41 22.10.2021
5787 Smoke 35 1012 31 4000 3.6 20 09:56 22.10.2021
5788 Smoke 34 1013 36 3500 2.57 80 08:36 22.10.2021
5789 Haze 32 1014 51 3500 2.57 360 07:22 22.10.2021
5790 Haze 27 1012 78 2500 1.54 50 02:57 22.10.2021
5791 Haze 28 1011 74 2500 0 0 23:55 21.10.2021
5792 Haze 28 1011 74 2500 0 0 23:35 21.10.2021
5793 Haze 28 1012 74 2500 2.57 90 21:52 21.10.2021
5794 Haze 29 1012 70 2500 1.54 120 20:40 21.10.2021
5795 Haze 28 1012 74 2500 2.06 90 20:18 21.10.2021
5796 Haze 29 1012 74 3000 2.06 30 19:29 21.10.2021
5797 Haze 29 1012 74 3000 2.06 340 18:45 21.10.2021
5798 Haze 29 1012 74 3000 0 0 18:18 21.10.2021
5799 Haze 30 1012 66 3000 0 0 17:37 21.10.2021
5800 Haze 30 1011 66 3000 3.09 320 15:49 21.10.2021
5801 Smoke 31 1011 62 3500 3.6 290 15:20 21.10.2021
5802 Smoke 31 1011 62 3500 3.6 290 14:38 21.10.2021
5803 Smoke 32 1010 55 4000 4.63 270 13:19 21.10.2021
5804 Smoke 33 1011 49 4000 5.14 250 11:24 21.10.2021
5805 Smoke 32 1014 45 3000 3.6 50 08:34 21.10.2021
5806 Smoke 31 1015 51 2500 3.09 30 07:28 21.10.2021
5807 Haze 26 1013 78 2500 0 0 03:29 21.10.2021
5808 Haze 27 1012 69 3500 1.54 30 23:25 20.10.2021
5809 Haze 27 1012 74 3500 1.54 310 21:52 20.10.2021
5810 Haze 27 1013 74 3500 2.06 20 21:30 20.10.2021
5811 Haze 28 1013 69 3500 2.06 350 20:54 20.10.2021
5812 Haze 28 1013 69 3500 2.57 360 20:28 20.10.2021
5813 Haze 28 1013 69 3500 0 0 19:51 20.10.2021
5814 Haze 28 1013 69 4000 2.06 350 18:54 20.10.2021
5815 Haze 29 1013 65 4000 3.09 340 17:45 20.10.2021
5816 Haze 29 1012 61 4000 4.63 330 15:39 20.10.2021
5817 Smoke 33 1012 55 5000 5.14 300 10:43 20.10.2021
5818 Haze 32 1014 51 4000 1.54 350 08:53 20.10.2021
5819 Haze 26 1012 89 3000 0 0 03:21 20.10.2021
5820 Haze 27 1011 83 3000 1.54 60 00:47 20.10.2021
5821 Haze 27 1011 83 3000 1.54 10 23:59 19.10.2021
5822 Haze 28 1012 78 3500 0 0 21:43 19.10.2021
5823 Haze 28 1012 74 3500 1.54 30 20:54 19.10.2021
5824 Haze 28 1012 78 3500 2.06 340 20:25 19.10.2021
5825 Haze 29 1012 74 3500 0 0 19:41 19.10.2021
5826 Haze 29 1012 74 3500 1.54 320 19:19 19.10.2021
5827 Haze 29 1012 74 4000 2.57 330 17:58 19.10.2021
5828 Haze 29 1011 74 4000 2.57 300 15:48 19.10.2021
5829 Haze 29 1010 74 5000 3.09 300 15:20 19.10.2021
5830 Smoke 30 1010 66 6000 4.12 300 14:27 19.10.2021
5831 Clouds 30 1009 70 6000 5.14 270 13:35 19.10.2021
5832 Clouds 31 1010 58 6000 4.63 260 11:36 19.10.2021
5833 Smoke 31 1010 62 6000 5.66 270 10:23 19.10.2021
5834 Smoke 31 1012 62 5000 4.12 270 08:58 19.10.2021
5835 Haze 30 1012 62 4000 2.06 240 06:50 19.10.2021
5836 Haze 27 1009 89 3000 1.54 100 00:26 19.10.2021
5837 Haze 27 1009 83 3000 2.06 120 23:50 18.10.2021
5838 Rain 28 1009 78 3000 0 0 23:20 18.10.2021
5839 Haze 28 1009 78 3000 0 0 22:53 18.10.2021
5840 Rain 29 1009 74 3000 0 0 21:44 18.10.2021
5841 Haze 29 1009 70 3000 0 0 20:42 18.10.2021
5842 Haze 29 1009 70 3000 1.54 280 20:18 18.10.2021
5843 Haze 29 1009 70 3000 2.57 310 19:30 18.10.2021
5844 Haze 29 1009 70 3000 2.57 300 18:57 18.10.2021
5845 Haze 30 1007 70 3500 4.63 280 15:56 18.10.2021
5846 Haze 31 1006 62 4000 5.14 280 14:28 18.10.2021
5847 Haze 32 1006 66 4000 7.2 270 10:55 18.10.2021
5848 Haze 32 1007 66 4000 6.17 270 09:31 18.10.2021
5849 Haze 30 1007 74 3000 5.66 280 05:32 18.10.2021
5850 Haze 28 1005 83 3000 2.57 230 23:45 17.10.2021
5851 Haze 29 1005 74 3000 1.54 210 21:58 17.10.2021
5852 Haze 29 1005 74 3000 1.54 210 21:40 17.10.2021
5853 Haze 29 1006 74 3000 2.57 250 20:40 17.10.2021
5854 Haze 29 1006 70 3000 3.09 250 19:43 17.10.2021
5855 Haze 29 1006 70 3000 2.57 260 19:25 17.10.2021
5856 Haze 30 1005 66 3000 3.09 270 17:47 17.10.2021
5857 Haze 30 1003 66 3000 4.12 270 15:56 17.10.2021
5858 Smoke 30 1002 70 3500 5.14 280 14:35 17.10.2021
5859 Smoke 31 1002 62 3000 3.6 300 13:56 17.10.2021
5860 Haze 31 1002 62 3500 5.14 250 12:38 17.10.2021
5861 Haze 32 1002 66 3500 6.17 250 10:59 17.10.2021
5862 Smoke 32 1003 58 3500 5.14 250 09:56 17.10.2021
5863 Smoke 32 1005 51 2500 2.57 290 07:42 17.10.2021
5864 Haze 28 1002 74 3000 0 0 01:44 17.10.2021
5865 Haze 27 1002 74 3000 0 0 00:27 17.10.2021
5866 Haze 28 1002 65 3000 0 0 22:35 16.10.2021
5867 Smoke 29 1003 54 3000 1.54 0 20:36 16.10.2021
5868 Smoke 30 1003 51 3000 2.06 360 19:58 16.10.2021
5869 Smoke 30 1003 51 3000 2.06 360 19:39 16.10.2021
5870 Smoke 30 1004 54 3000 2.57 350 19:18 16.10.2021
5871 Smoke 30 1004 54 3000 2.57 340 18:43 16.10.2021
5872 Smoke 30 1004 54 3000 2.06 20 18:22 16.10.2021
5873 Smoke 30 1004 54 3000 3.09 340 17:30 16.10.2021
5874 Smoke 30 1002 54 3000 2.57 320 15:40 16.10.2021
5875 Smoke 34 1001 40 5000 4.12 300 12:45 16.10.2021
5876 Smoke 34 1001 40 4500 4.12 300 10:57 16.10.2021
5877 Smoke 35 1003 34 4000 2.57 300 08:57 16.10.2021
5878 Smoke 28 1002 57 3000 0 0 01:37 16.10.2021
5879 Smoke 29 1001 51 3000 0 0 00:29 16.10.2021
5880 Smoke 28 1002 65 3000 0 0 23:25 15.10.2021
5881 Smoke 30 1002 48 3000 2.06 40 22:20 15.10.2021
5882 Smoke 30 1002 51 3000 0 0 21:40 15.10.2021
5883 Smoke 30 1003 51 3000 2.57 40 20:54 15.10.2021
5884 Smoke 30 1003 54 3000 2.06 110 20:22 15.10.2021
5885 Smoke 31 1004 48 3000 0 0 19:20 15.10.2021
5886 Haze 31 1003 55 3500 3.09 10 18:21 15.10.2021
5887 Smoke 33 1002 55 4000 3.09 350 15:46 15.10.2021
5888 Smoke 35 1001 36 5000 3.09 350 14:22 15.10.2021
5889 Smoke 36 1001 32 5000 3.6 40 12:25 15.10.2021
5890 Smoke 36 1001 34 4000 2.57 20 11:18 15.10.2021
5891 Smoke 36 1002 30 4000 1.54 260 10:31 15.10.2021
5892 Smoke 34 1005 43 4000 3.09 20 07:37 15.10.2021
5893 Haze 29 1005 70 2500 2.06 90 04:46 15.10.2021
5894 Haze 29 1002 79 2500 0 0 00:23 15.10.2021
5895 Haze 30 1003 79 2500 2.06 30 23:25 14.10.2021
5896 Haze 30 1003 79 2500 2.06 40 22:22 14.10.2021
5897 Haze 30 1004 84 2500 0 0 21:37 14.10.2021
5898 Haze 31 1004 74 2500 0 0 20:21 14.10.2021
5899 Haze 31 1005 74 2500 2.57 10 19:46 14.10.2021
5900 Haze 31 1005 74 2200 2.06 330 18:40 14.10.2021
5901 Haze 31 1005 74 2200 2.06 330 18:40 14.10.2021
5902 Haze 32 1005 70 2200 2.57 220 16:59 14.10.2021
5903 Haze 32 1004 70 2200 2.57 330 16:32 14.10.2021
5904 Haze 33 1004 62 3000 3.09 310 14:55 14.10.2021
5905 Haze 33 1003 62 3000 3.6 290 14:27 14.10.2021
5906 Haze 33 1003 62 3000 4.63 300 13:34 14.10.2021
5907 Haze 35 1004 52 3000 6.17 290 11:35 14.10.2021
5908 Haze 34 1005 59 3000 3.6 250 09:28 14.10.2021
5909 Clouds 29 1007 69 10000 2.08 88 06:21 14.10.2021
5910 Clouds 28 1005 75 10000 2.75 107 00:43 14.10.2021
5911 Haze 30 1005 84 2200 2.06 120 22:42 13.10.2021
5912 Haze 30 1005 84 2200 0 0 21:37 13.10.2021
5913 Haze 30 1006 84 2500 0 0 20:45 13.10.2021
5914 Haze 31 1006 79 2500 1.54 150 19:39 13.10.2021
5915 Haze 31 1006 79 2500 2.06 90 18:47 13.10.2021
5916 Haze 31 1006 79 2500 2.06 50 17:28 13.10.2021
5917 Haze 32 1004 74 3000 3.6 300 14:55 13.10.2021
5918 Haze 32 1004 70 3000 3.6 290 14:34 13.10.2021
5919 Haze 33 1003 66 3000 4.63 250 12:48 13.10.2021
5920 Haze 32 1004 70 3000 4.63 250 11:38 13.10.2021
5921 Haze 33 1005 66 3000 4.63 250 10:21 13.10.2021
5922 Haze 32 1007 62 3000 3.09 110 07:54 13.10.2021
5923 Haze 28 1008 83 1600 1.03 0 05:40 13.10.2021
5924 Haze 27 1005 83 2500 1.54 150 02:22 13.10.2021
5925 Haze 27 1005 74 2500 2.06 100 23:51 12.10.2021
5926 Haze 27 1005 74 2500 2.06 20 23:27 12.10.2021
5927 Haze 27 1006 78 2500 2.57 120 22:41 12.10.2021
5928 Haze 27 1006 78 2500 3.09 80 20:55 12.10.2021
5929 Haze 28 1006 74 2500 2.06 80 20:31 12.10.2021
5930 Haze 28 1006 69 2500 2.57 120 19:45 12.10.2021
5931 Thunderstorm 28 1007 69 3000 2.57 60 18:26 12.10.2021
5932 Thunderstorm 28 1007 74 3000 7.2 110 17:35 12.10.2021
5933 Haze 29 1007 79 3000 5.14 90 16:35 12.10.2021
5934 Haze 31 1005 84 3000 4.63 290 15:35 12.10.2021
5935 Haze 31 1005 74 4000 3.09 310 14:25 12.10.2021
5936 Haze 31 1004 74 4000 4.12 300 13:41 12.10.2021
5937 Haze 33 1004 75 3500 5.66 260 11:36 12.10.2021
5938 Haze 32 1005 74 2500 4.63 240 09:41 12.10.2021
5939 Haze 32 1006 74 2500 2.57 260 08:35 12.10.2021
5940 Haze 30 1008 79 2500 0 0 06:46 12.10.2021
5941 Haze 28 1007 83 2200 2.06 90 05:29 12.10.2021
5942 Haze 27 1007 89 2200 1.54 90 04:29 12.10.2021
5943 Haze 26 1005 94 2100 2.57 100 00:18 12.10.2021
5944 Haze 26 1005 94 2100 2.06 90 23:37 11.10.2021
5945 Haze 26 1006 100 2500 2.06 120 22:55 11.10.2021
5946 Haze 26 1006 94 2500 2.06 100 21:41 11.10.2021
5947 Haze 27 1007 89 2500 0 0 20:32 11.10.2021
5948 Haze 26 1007 100 2500 1.54 90 19:36 11.10.2021
5949 Rain 27 1008 89 2500 1.54 120 18:24 11.10.2021
5950 Thunderstorm 27 1007 89 2500 0 0 16:48 11.10.2021
5951 Thunderstorm 26 1006 94 2500 0 0 16:28 11.10.2021
5952 Thunderstorm 27 1006 89 2100 4.12 110 15:45 11.10.2021
5953 Thunderstorm 27 1006 89 2100 4.63 110 14:54 11.10.2021
5954 Haze 29 1005 74 4000 4.63 30 14:22 11.10.2021
5955 Haze 31 1004 79 5000 4.63 290 13:36 11.10.2021
5956 Haze 31 1004 74 5000 4.63 240 11:25 11.10.2021
5957 Haze 32 1006 70 4000 5.66 260 09:47 11.10.2021
5958 Haze 32 1008 66 4000 1.54 70 08:40 11.10.2021
5959 Haze 27 1006 94 2500 0 0 01:47 11.10.2021
5960 Haze 27 1006 94 2500 0 0 01:20 11.10.2021
5961 Haze 27 1006 89 2500 1.54 60 00:42 11.10.2021
5962 Haze 27 1006 89 2500 1.54 100 23:35 10.10.2021
5963 Haze 27 1007 89 2500 1.54 120 21:51 10.10.2021
5964 Haze 27 1008 89 2500 0 0 21:26 10.10.2021
5965 Haze 27 1008 89 2500 1.54 120 20:41 10.10.2021
5966 Haze 27 1008 89 2500 2.06 80 20:20 10.10.2021
5967 Haze 27 1009 89 2500 2.06 130 19:51 10.10.2021
5968 Haze 27 1009 89 2500 2.06 110 19:31 10.10.2021
5969 Haze 27 1009 89 2500 2.57 100 18:24 10.10.2021
5970 Thunderstorm 26 1007 94 2100 3.6 300 15:54 10.10.2021
5971 Rain 30 1007 84 2500 3.6 300 15:36 10.10.2021
5972 Haze 30 1006 79 5000 4.12 250 13:42 10.10.2021
5973 Haze 30 1006 79 5000 5.66 250 12:44 10.10.2021
5974 Haze 30 1006 79 5000 4.12 250 12:22 10.10.2021
5975 Haze 31 1008 70 4000 4.12 270 10:33 10.10.2021
5976 Haze 31 1009 74 4000 4.12 280 09:22 10.10.2021
5977 Haze 31 1009 66 4000 2.06 250 08:51 10.10.2021
5978 Haze 30 1010 70 3000 3.09 120 06:36 10.10.2021
5979 Haze 26 1008 94 2500 2.06 90 02:23 10.10.2021
5980 Haze 26 1008 89 2500 2.57 90 00:54 10.10.2021
5981 Haze 27 1008 83 2500 2.06 100 23:52 09.10.2021
5982 Haze 27 1008 83 2500 2.06 100 23:52 09.10.2021
5983 Haze 27 1009 83 2500 2.06 150 22:26 09.10.2021
5984 Haze 27 1009 89 2500 2.57 100 21:30 09.10.2021
5985 Haze 27 1009 89 2500 2.57 100 21:30 09.10.2021
5986 Haze 27 1010 89 2500 1.54 80 20:19 09.10.2021
5987 Haze 27 1010 89 2500 2.06 100 19:41 09.10.2021
5988 Haze 27 1010 83 2500 2.57 120 18:45 09.10.2021
5989 Haze 27 1009 83 2500 2.06 90 17:51 09.10.2021
5990 Thunderstorm 29 1008 74 3000 5.66 30 16:20 09.10.2021
5991 Haze 31 1007 70 5000 5.14 260 13:49 09.10.2021
5992 Haze 31 1006 70 5000 4.63 250 13:31 09.10.2021
5993 Haze 31 1006 74 5000 5.66 250 12:23 09.10.2021
5994 Haze 32 1007 66 5000 4.12 240 10:44 09.10.2021
5995 Haze 32 1008 66 5000 4.12 240 10:19 09.10.2021
5996 Haze 30 1010 74 4000 3.09 190 08:33 09.10.2021
5997 Haze 30 1010 74 4000 4.63 190 07:54 09.10.2021
5998 Haze 29 1010 84 3000 3.6 190 06:29 09.10.2021
5999 Haze 28 1008 89 3000 2.06 120 04:31 09.10.2021
6000 Haze 28 1008 89 3000 2.06 90 02:44 09.10.2021
6001 Haze 28 1007 89 3000 1.54 90 00:23 09.10.2021
6002 Haze 28 1007 89 3000 0 0 23:31 08.10.2021
6003 Haze 28 1007 89 3000 1.54 120 22:46 08.10.2021
6004 Haze 28 1007 94 3000 2.57 100 21:44 08.10.2021
6005 Haze 29 1008 89 3000 2.06 160 19:49 08.10.2021
6006 Thunderstorm 29 1008 89 3000 2.57 140 18:23 08.10.2021
6007 Clouds 29 1007 89 3000 1.54 160 16:55 08.10.2021
6008 Haze 30 1007 84 3000 2.57 220 16:24 08.10.2021
6009 Haze 30 1006 84 4000 4.12 240 14:57 08.10.2021
6010 Haze 31 1005 74 4000 4.63 210 13:46 08.10.2021
6011 Haze 32 1005 66 4000 6.17 230 11:42 08.10.2021
6012 Haze 32 1006 70 5000 6.17 220 10:42 08.10.2021
6013 Haze 31 1007 74 5000 5.14 250 09:47 08.10.2021
6014 Haze 28 1007 89 3000 2.06 140 04:20 08.10.2021
6015 Haze 28 1005 94 2500 2.57 160 23:25 07.10.2021
6016 Haze 28 1005 94 2500 4.12 180 22:35 07.10.2021
6017 Haze 29 1006 89 2200 1.54 140 21:29 07.10.2021
6018 Haze 29 1007 89 2200 2.06 110 20:39 07.10.2021
6019 Haze 28 1007 83 2200 2.57 110 19:32 07.10.2021
6020 Haze 28 1006 94 2500 2.57 110 18:41 07.10.2021
6021 Haze 30 1006 89 2500 0 0 17:33 07.10.2021
6022 Thunderstorm 29 1006 94 2500 4.12 340 16:42 07.10.2021
6023 Haze 30 1004 89 2500 1.54 0 14:55 07.10.2021
6024 Rain 31 1003 79 4000 4.63 260 13:43 07.10.2021
6025 Haze 32 1003 74 4000 5.14 240 12:54 07.10.2021
6026 Haze 34 1005 59 4000 4.12 270 10:59 07.10.2021
6027 Haze 34 1005 59 4000 4.12 270 10:40 07.10.2021
6028 Smoke 35 1005 59 4000 2.57 140 09:43 07.10.2021
6029 Smoke 35 1006 59 3000 2.57 90 08:54 07.10.2021
6030 Haze 33 1007 66 3000 3.09 80 07:58 07.10.2021
6031 Haze 33 1007 66 3000 3.09 80 07:38 07.10.2021
6032 Haze 31 1007 74 3000 2.57 60 06:38 07.10.2021
6033 Haze 26 1005 89 2500 0 0 00:48 07.10.2021
6034 Haze 26 1005 94 2500 2.06 20 23:20 06.10.2021
6035 Haze 25 1005 94 2500 0 0 22:31 06.10.2021
6036 Haze 25 1005 88 2500 3.09 60 21:26 06.10.2021
6037 Haze 25 1006 88 2500 2.57 50 20:28 06.10.2021
6038 Thunderstorm 25 1008 94 2500 2.57 80 18:59 06.10.2021
6039 Thunderstorm 26 1008 100 2500 3.09 120 17:26 06.10.2021
6040 Thunderstorm 30 1006 84 1600 4.12 150 15:37 06.10.2021
6041 Haze 33 1004 62 3000 5.14 280 14:43 06.10.2021
6042 Haze 33 1003 62 4000 4.63 290 13:24 06.10.2021
6043 Haze 33 1003 66 4000 5.66 280 12:47 06.10.2021
6044 Haze 34 1003 62 4000 4.63 280 12:25 06.10.2021
6045 Haze 34 1004 62 4000 5.14 280 11:23 06.10.2021
6046 Haze 35 1006 55 4000 2.57 110 09:40 06.10.2021
6047 Haze 34 1007 55 4000 1.54 110 08:59 06.10.2021
6048 Haze 33 1007 62 4000 2.57 150 08:30 06.10.2021
6049 Haze 31 1008 70 3000 3.6 100 05:56 06.10.2021
6050 Haze 28 1006 78 2500 1.54 90 02:19 06.10.2021
6051 Haze 28 1006 83 2500 3.09 20 00:24 06.10.2021
6052 Haze 28 1006 89 2500 3.09 50 23:51 05.10.2021
6053 Haze 28 1006 89 2500 3.09 60 23:30 05.10.2021
6054 Haze 28 1007 89 2500 2.06 80 22:31 05.10.2021
6055 Haze 28 1007 94 2500 1.54 70 21:57 05.10.2021
6056 Haze 29 1007 89 2500 0 0 21:20 05.10.2021
6057 Haze 29 1008 89 2500 0 0 20:26 05.10.2021
6058 Haze 29 1009 89 2500 0 0 19:51 05.10.2021
6059 Haze 29 1009 89 2500 0 0 19:24 05.10.2021
6060 Haze 29 1008 89 2500 0 0 18:21 05.10.2021
6061 Thunderstorm 31 1006 79 2100 2.57 340 15:33 05.10.2021
6062 Haze 32 1005 74 5000 5.66 340 13:49 05.10.2021
6063 Haze 32 1005 74 5000 5.14 300 13:23 05.10.2021
6064 Haze 32 1005 74 5000 5.66 310 12:34 05.10.2021
6065 Haze 33 1005 70 4000 5.14 310 11:41 05.10.2021
6066 Haze 33 1006 70 4000 3.6 310 10:34 05.10.2021
6067 Haze 32 1008 70 3000 3.6 40 07:59 05.10.2021
6068 Haze 28 1007 89 3000 1.54 10 01:46 05.10.2021
6069 Haze 29 1007 84 3000 2.06 20 22:56 04.10.2021
6070 Haze 29 1008 84 3000 0 0 21:27 04.10.2021
6071 Thunderstorm 30 1008 79 3000 1.54 40 18:51 04.10.2021
6072 Thunderstorm 30 1007 79 3000 3.6 300 17:29 04.10.2021
6073 Haze 30 1005 79 4000 5.14 310 15:33 04.10.2021
6074 Haze 31 1005 74 4000 5.14 300 14:46 04.10.2021
6075 Haze 31 1005 74 5000 5.66 300 14:18 04.10.2021
6076 Haze 32 1004 70 5000 5.66 320 13:31 04.10.2021
6077 Haze 32 1004 74 5000 5.66 310 12:50 04.10.2021
6078 Haze 32 1005 70 4000 5.14 330 11:33 04.10.2021
6079 Haze 33 1006 66 3500 4.63 260 10:47 04.10.2021
6080 Haze 33 1007 62 3000 3.09 30 09:44 04.10.2021
6081 Haze 32 1008 70 3000 3.09 320 07:53 04.10.2021
6082 Haze 31 1009 79 2500 2.57 70 06:50 04.10.2021
6083 Haze 29 1007 89 3000 0 0 22:51 03.10.2021
6084 Haze 29 1007 89 3000 0 0 21:56 03.10.2021
6085 Haze 29 1008 89 3000 1.54 80 21:31 03.10.2021
6086 Haze 30 1008 84 3000 1.54 140 20:45 03.10.2021
6087 Haze 29 1008 89 3000 0 40 19:46 03.10.2021
6088 Haze 30 1008 84 3000 0 0 18:29 03.10.2021
6089 Haze 30 1008 84 3000 2.57 330 17:37 03.10.2021
6090 Haze 31 1006 74 3500 3.09 320 15:29 03.10.2021
6091 Haze 32 1006 66 4000 4.12 300 14:30 03.10.2021
6092 Haze 32 1005 70 4000 4.63 300 13:35 03.10.2021
6093 Haze 32 1005 70 4000 4.63 270 12:47 03.10.2021
6094 Haze 32 1006 74 3500 5.14 280 11:37 03.10.2021
6095 Haze 32 1008 70 3500 4.63 260 09:58 03.10.2021
6096 Haze 29 1009 84 2500 2.06 310 05:38 03.10.2021
6097 Haze 28 1007 94 3000 2.06 340 22:52 02.10.2021
6098 Haze 28 1008 94 3000 2.06 350 21:59 02.10.2021
6099 Haze 28 1008 94 3000 2.06 330 20:33 02.10.2021
6100 Haze 29 1008 89 3000 1.54 320 18:56 02.10.2021
6101 Haze 29 1008 89 3500 3.09 340 18:20 02.10.2021
6102 Haze 29 1008 89 3500 2.06 320 17:37 02.10.2021
6103 Haze 29 1007 89 3500 3.09 330 16:39 02.10.2021
6104 Haze 30 1010 79 3000 0 0 07:51 02.10.2021
6105 Haze 28 1008 89 3000 1.54 170 15:37 30.09.2021
6106 Clouds 30 1007 79 3000 4.63 190 13:57 30.09.2021
6107 Haze 30 1007 84 3000 4.12 200 11:54 30.09.2021
6108 Haze 30 1007 79 3000 4.12 160 10:55 30.09.2021
6109 Haze 30 1007 84 3000 4.12 180 10:25 30.09.2021
6110 Drizzle 28 1009 89 2500 2.06 160 08:31 30.09.2021
6111 Haze 28 1009 89 3000 3.6 160 07:35 30.09.2021
6112 Haze 27 1008 94 3000 2.57 110 05:25 30.09.2021
6113 Haze 26 1006 100 2500 2.06 100 02:19 30.09.2021
6114 Drizzle 26 1005 100 2500 2.06 120 00:30 30.09.2021
6115 Clouds 27 1006 94 1500 2.57 120 22:41 29.09.2021
6116 Haze 27 1006 100 2100 2.57 100 21:28 29.09.2021
6117 Haze 27 1006 100 2100 2.06 140 20:30 29.09.2021
6118 Drizzle 27 1007 94 2100 2.06 130 19:56 29.09.2021
6119 Clouds 27 1007 94 2100 2.06 120 18:54 29.09.2021
6120 Clouds 28 1006 89 2500 2.57 180 17:55 29.09.2021
6121 Haze 28 1005 89 3000 3.6 200 16:55 29.09.2021
6122 Haze 28 1004 89 3000 3.6 200 16:21 29.09.2021
6123 Haze 29 1003 84 3000 4.63 200 14:42 29.09.2021
6124 Haze 29 1003 84 3000 4.63 210 14:18 29.09.2021
6125 Clouds 30 1003 79 4000 4.63 210 13:27 29.09.2021
6126 Haze 30 1002 79 4000 4.12 200 12:36 29.09.2021
6127 Haze 30 1003 79 3000 5.14 200 10:50 29.09.2021
6128 Rain 27 1004 94 3000 3.6 210 09:58 29.09.2021
6129 Haze 27 1004 94 3000 3.6 210 09:36 29.09.2021
6130 Rain 29 1005 84 2500 4.63 200 07:39 29.09.2021
6131 Drizzle 26 1003 100 2500 3.6 240 04:39 29.09.2021
6132 Haze 27 1002 94 2500 2.06 200 23:36 28.09.2021
6133 Haze 27 1003 100 2500 2.57 210 22:24 28.09.2021
6134 Drizzle 27 1003 100 2500 3.6 210 21:45 28.09.2021
6135 Rain 27 1004 100 2500 3.6 220 20:44 28.09.2021
6136 Clouds 27 1004 100 2500 3.09 240 19:47 28.09.2021
6137 Rain 27 1004 100 2500 2.06 220 18:51 28.09.2021
6138 Drizzle 27 1004 100 2500 2.57 210 18:18 28.09.2021
6139 Rain 27 1003 94 2500 3.6 230 16:41 28.09.2021
6140 Drizzle 26 1002 100 2500 4.63 220 14:52 28.09.2021
6141 Rain 26 1001 100 2100 6.17 230 13:22 28.09.2021
6142 Thunderstorm 25 1001 100 2100 6.17 220 12:22 28.09.2021
6143 Thunderstorm 25 1001 100 1600 4.12 240 11:47 28.09.2021
6144 Thunderstorm 25 1002 100 1000 5.66 240 11:23 28.09.2021
6145 Clouds 27 1002 94 1800 5.66 220 10:21 28.09.2021
6146 Haze 30 1003 74 4000 5.66 240 09:25 28.09.2021
6147 Haze 29 1004 84 4000 4.12 220 08:43 28.09.2021
6148 Haze 28 1004 89 4000 4.12 220 07:49 28.09.2021
6149 Drizzle 28 1005 89 2500 2.57 160 06:23 28.09.2021
6150 Haze 26 1002 100 2500 1.54 90 01:29 28.09.2021
6151 Haze 26 1002 100 2500 1.54 150 00:28 28.09.2021
6152 Haze 26 1002 100 2500 3.09 100 23:44 27.09.2021
6153 Haze 26 1002 100 2500 1.54 100 23:23 27.09.2021
6154 Haze 27 1003 94 3000 2.06 110 22:20 27.09.2021
6155 Haze 27 1004 89 3000 0 0 20:49 27.09.2021
6156 Haze 27 1004 89 3000 0 0 20:23 27.09.2021
6157 Haze 27 1005 89 3000 0 0 19:30 27.09.2021
6158 Haze 27 1005 89 3000 0 0 18:52 27.09.2021
6159 Haze 27 1005 89 3000 0 0 18:52 27.09.2021
6160 Haze 27 1005 89 3000 0 0 17:36 27.09.2021
6161 Haze 27 1004 89 2500 1.54 300 16:53 27.09.2021
6162 Haze 27 1003 94 3000 3.6 250 15:46 27.09.2021
6163 Haze 27 1003 94 3000 3.6 240 15:27 27.09.2021
6164 Haze 27 1002 89 2500 4.12 260 13:35 27.09.2021
6165 Haze 26 1002 94 2200 0 0 12:22 27.09.2021
6166 Clouds 26 1004 94 1000 4.63 270 10:48 27.09.2021
6167 Haze 29 1004 84 2500 2.57 160 09:38 27.09.2021
6168 Haze 27 1006 94 2500 2.06 80 06:37 27.09.2021
6169 Clouds 25 1004 100 1500 0 0 03:31 27.09.2021
6170 Haze 26 1004 94 3000 0 0 23:42 26.09.2021
6171 Haze 26 1005 94 3000 0 0 21:55 26.09.2021
6172 Haze 26 1006 94 3000 1.54 120 21:27 26.09.2021
6173 Haze 27 1006 89 3000 2.57 220 20:25 26.09.2021
6174 Haze 27 1006 89 3000 0 0 19:54 26.09.2021
6175 Haze 27 1006 89 3000 2.06 110 19:25 26.09.2021
6176 Haze 27 1006 89 3000 2.06 110 19:25 26.09.2021
6177 Haze 27 1006 89 3000 2.06 110 19:25 26.09.2021
6178 Haze 27 1006 89 3000 2.06 110 19:25 26.09.2021
6179 Haze 27 1006 89 3000 2.06 110 19:25 26.09.2021
6180 Haze 27 1006 89 3000 2.06 110 19:25 26.09.2021
6181 Haze 27 1006 89 3000 3.09 120 18:41 26.09.2021
6182 Haze 27 1006 89 3000 2.57 110 17:38 26.09.2021
6183 Haze 27 1006 83 3000 2.06 110 17:20 26.09.2021
6184 Haze 27 1005 83 3000 1.54 100 16:22 26.09.2021
6185 Haze 27 1004 83 3000 3.09 20 15:27 26.09.2021
6186 Haze 29 1004 79 3500 1.54 300 14:20 26.09.2021
6187 Haze 29 1004 79 3500 1.54 300 13:42 26.09.2021
6188 Haze 28 1004 83 4000 3.09 340 12:31 26.09.2021
6189 Haze 29 1004 74 5000 3.09 280 11:56 26.09.2021
6190 Haze 28 1005 78 5000 3.6 360 11:23 26.09.2021
6191 Haze 29 1006 74 4000 4.12 280 09:50 26.09.2021
6192 Haze 29 1006 79 4000 4.63 290 08:41 26.09.2021
6193 Haze 27 1005 94 2200 1.54 120 00:29 26.09.2021
6194 Haze 27 1005 94 2200 1.54 120 23:46 25.09.2021
6195 Haze 28 1007 83 3000 2.06 110 22:39 25.09.2021
6196 Haze 28 1007 83 3000 1.54 210 22:19 25.09.2021
6197 Haze 28 1007 83 3000 1.54 210 21:45 25.09.2021
6198 Haze 28 1007 83 3000 2.06 260 20:52 25.09.2021
6199 Haze 28 1008 83 3000 2.06 260 19:40 25.09.2021
6200 Haze 28 1008 83 3000 3.09 280 18:28 25.09.2021
6201 Haze 28 1008 83 3000 3.09 280 18:28 25.09.2021
6202 Haze 28 1007 83 3000 4.12 270 17:45 25.09.2021
6203 Haze 29 1006 74 6000 5.14 280 14:39 25.09.2021
6204 Haze 30 1005 74 6000 5.66 240 13:55 25.09.2021
6205 Haze 30 1005 74 6000 4.12 260 12:46 25.09.2021
6206 Haze 30 1006 70 6000 5.14 270 11:27 25.09.2021
6207 Haze 30 1007 70 5000 3.6 280 10:19 25.09.2021
6208 Haze 30 1008 74 4000 2.57 260 09:21 25.09.2021
6209 Haze 29 1009 84 2500 1.54 250 07:48 25.09.2021
6210 Haze 27 1007 94 3000 2.06 130 00:52 25.09.2021
6211 Haze 28 1008 83 3500 1.54 130 22:18 24.09.2021
6212 Haze 28 1008 83 3500 2.06 250 21:34 24.09.2021
6213 Haze 28 1008 83 3500 2.57 220 20:32 24.09.2021
6214 Haze 28 1008 83 4000 2.06 260 19:32 24.09.2021
6215 Haze 28 1008 83 4000 2.06 260 19:32 24.09.2021
6216 Haze 28 1008 83 4000 2.57 280 18:21 24.09.2021
6217 Haze 28 1008 78 4000 2.57 260 17:53 24.09.2021
6218 Haze 28 1008 83 4000 2.57 270 17:34 24.09.2021
6219 Haze 28 1006 83 5000 2.57 230 15:50 24.09.2021
6220 Haze 30 1005 74 5000 5.14 250 13:27 24.09.2021
6221 Haze 30 1005 74 4000 4.63 270 12:43 24.09.2021
6222 Haze 30 1005 74 4000 4.12 260 12:25 24.09.2021
6223 Haze 30 1006 79 4000 4.63 250 10:56 24.09.2021
6224 Haze 30 1007 74 3500 3.6 240 09:55 24.09.2021
6225 Haze 29 1008 79 3500 5.14 230 08:23 24.09.2021
6226 Haze 28 1008 89 3500 4.12 220 07:30 24.09.2021
6227 Haze 27 1008 94 2500 0 0 05:57 24.09.2021
6228 Haze 27 1008 94 2500 2.57 110 04:51 24.09.2021
6229 Haze 27 1006 94 3000 3.09 100 22:38 23.09.2021
6230 Haze 28 1007 89 3000 1.54 0 21:59 23.09.2021
6231 Haze 28 1007 89 3000 1.54 0 21:20 23.09.2021
6232 Haze 28 1007 89 3000 1.54 0 21:20 23.09.2021
6233 Haze 28 1008 83 3000 1.54 260 20:32 23.09.2021
6234 Haze 29 1008 79 3000 3.09 230 18:55 23.09.2021
6235 Haze 29 1007 79 3000 3.6 260 16:47 23.09.2021
6236 Haze 29 1005 79 3000 4.12 270 15:19 23.09.2021
6237 Haze 29 1005 79 3500 4.63 270 14:52 23.09.2021
6238 Haze 30 1004 74 3500 4.12 280 13:36 23.09.2021
6239 Haze 30 1004 79 3500 5.14 270 13:18 23.09.2021
6240 Haze 30 1004 74 3500 5.14 260 12:45 23.09.2021
6241 Haze 29 1004 74 4000 3.6 260 12:21 23.09.2021
6242 Haze 30 1005 74 4000 5.14 260 10:41 23.09.2021
6243 Haze 30 1005 79 4000 5.14 250 10:19 23.09.2021
6244 Haze 30 1006 74 4000 4.63 240 09:47 23.09.2021
6245 Clouds 28 1007 89 2500 1.54 0 06:25 23.09.2021
6246 Haze 26 1004 100 2500 1.54 140 00:25 23.09.2021
6247 Drizzle 27 1005 94 2500 2.06 130 22:54 22.09.2021
6248 Drizzle 27 1005 94 2500 0 0 22:22 22.09.2021
6249 Haze 27 1005 94 3000 0 0 21:44 22.09.2021
6250 Haze 27 1006 94 3000 1.54 150 20:58 22.09.2021
6251 Haze 27 1006 94 3000 2.06 150 20:27 22.09.2021
6252 Haze 27 1006 94 3000 2.06 80 19:27 22.09.2021
6253 Haze 27 1006 94 3000 0 0 18:35 22.09.2021
6254 Clouds 26 1006 81 10000 1.48 185 17:33 22.09.2021
6255 Clouds 26 1006 81 10000 0.85 220 15:52 22.09.2021
6256 Haze 28 1004 89 3000 4.63 280 14:37 22.09.2021
6257 Clouds 27 1004 89 2500 0 0 13:24 22.09.2021
6258 Haze 29 1005 84 3000 3.09 290 11:20 22.09.2021
6259 Haze 29 1007 84 3000 3.09 310 09:35 22.09.2021
6260 Rain 29 1007 84 3000 4.63 290 08:51 22.09.2021
6261 Haze 29 1007 84 3000 4.12 290 07:41 22.09.2021
6262 Clouds 29 1007 84 3000 6.69 280 06:54 22.09.2021
6263 Haze 28 1007 89 3000 5.66 280 05:49 22.09.2021
6264 Haze 29 1006 89 2500 4.12 290 05:18 22.09.2021
6265 Haze 28 1005 89 2500 3.6 270 03:34 22.09.2021
6266 Haze 27 1005 94 2500 3.09 310 00:19 22.09.2021
6267 Haze 26 1006 100 2500 0 0 22:28 21.09.2021
6268 Haze 26 1007 100 2500 0 0 21:31 21.09.2021
6269 Rain 27 1008 85 10000 3.22 278 19:38 21.09.2021
6270 Rain 26 1008 100 2200 2.57 100 19:20 21.09.2021
6271 Haze 26 1007 94 2500 0 0 16:59 21.09.2021
6272 Haze 26 1006 94 2500 0 0 16:27 21.09.2021
6273 Drizzle 25 1006 100 2200 3.09 320 15:31 21.09.2021
6274 Clouds 25 1006 100 500 6.17 290 14:56 21.09.2021
6275 Rain 25 1005 100 2100 5.14 290 13:40 21.09.2021
6276 Rain 26 1005 94 2100 4.12 260 12:58 21.09.2021
6277 Clouds 28 1006 79 10000 4.42 264 11:19 21.09.2021
6278 Haze 28 1007 89 2500 6.17 260 09:54 21.09.2021
6279 Haze 29 1009 79 3000 4.12 280 07:51 21.09.2021
6280 Haze 28 1009 94 2500 3.6 270 06:18 21.09.2021
6281 Thunderstorm 28 1007 94 2500 4.63 250 23:58 20.09.2021
6282 Clouds 28 1008 94 2100 2.57 220 21:58 20.09.2021
6283 Haze 28 1008 89 3000 3.09 230 21:32 20.09.2021
6284 Haze 28 1009 89 3000 4.12 240 20:27 20.09.2021
6285 Haze 29 1009 84 3000 3.09 240 19:28 20.09.2021
6286 Haze 29 1008 84 3000 4.12 240 17:39 20.09.2021
6287 Haze 29 1007 84 3000 4.12 250 16:33 20.09.2021
6288 Rain 29 1007 84 3000 4.12 260 15:49 20.09.2021
6289 Haze 29 1007 84 3500 4.63 270 15:22 20.09.2021
6290 Haze 29 1006 84 4000 5.14 270 13:43 20.09.2021
6291 Clouds 30 1006 79 3500 5.14 260 12:35 20.09.2021
6292 Haze 29 1007 74 4000 5.66 250 11:19 20.09.2021
6293 Haze 29 1009 84 4000 6.69 250 09:57 20.09.2021
6294 Haze 30 1009 84 4000 5.66 230 09:36 20.09.2021
6295 Haze 29 1010 89 3000 3.6 230 08:58 20.09.2021
6296 Rain 27 1010 94 2500 2.57 160 06:51 20.09.2021
6297 Clouds 26 1008 100 2500 2.57 120 23:45 19.09.2021
6298 Haze 26 1009 94 2500 2.06 130 22:21 19.09.2021
6299 Rain 27 1010 94 2500 1.54 120 21:39 19.09.2021
6300 Haze 27 1010 94 2500 2.06 130 20:34 19.09.2021
6301 Clouds 27 1010 94 2200 2.06 110 19:22 19.09.2021
6302 Clouds 27 1010 94 2200 0 0 18:29 19.09.2021
6303 Clouds 26 1010 100 2100 0 0 17:22 19.09.2021
6304 Haze 27 1009 94 3500 3.09 160 15:55 19.09.2021
6305 Haze 27 1008 94 3500 3.09 190 15:29 19.09.2021
6306 Clouds 27 1008 94 2500 3.6 220 14:46 19.09.2021
6307 Haze 30 1008 79 5000 5.14 250 13:21 19.09.2021
6308 Haze 30 1008 79 5000 5.14 250 12:50 19.09.2021
6309 Haze 30 1008 74 5000 5.66 250 11:27 19.09.2021
6310 Haze 31 1009 74 5000 5.14 220 10:35 19.09.2021
6311 Haze 31 1010 70 5000 6.17 200 09:39 19.09.2021
6312 Haze 31 1010 70 5000 4.63 210 08:31 19.09.2021
6313 Haze 29 1011 84 3000 4.12 180 06:41 19.09.2021
6314 Haze 28 1008 83 3000 2.06 220 23:38 18.09.2021
6315 Haze 28 1009 89 3000 2.06 180 21:59 18.09.2021
6316 Haze 28 1009 83 3000 3.09 220 20:52 18.09.2021
6317 Haze 28 1009 94 3000 4.63 230 20:32 18.09.2021
6318 Haze 28 1009 89 3000 3.09 220 19:39 18.09.2021
6319 Haze 28 1009 89 3000 3.6 210 19:20 18.09.2021
6320 Haze 28 1009 83 3000 4.12 230 18:32 18.09.2021
6321 Haze 29 1008 79 3000 4.63 230 17:31 18.09.2021
6322 Haze 28 1007 83 4000 4.12 220 16:20 18.09.2021
6323 Haze 30 1006 74 5000 6.17 230 13:49 18.09.2021
6324 Haze 30 1006 79 5000 5.14 220 13:29 18.09.2021
6325 Haze 30 1006 79 5000 5.66 220 12:49 18.09.2021
6326 Haze 30 1006 74 5000 6.17 200 11:40 18.09.2021
6327 Haze 31 1008 70 5000 3.6 230 10:32 18.09.2021
6328 Haze 31 1008 70 4000 4.12 220 09:27 18.09.2021
6329 Haze 30 1008 74 3000 3.6 220 08:57 18.09.2021
6330 Clouds 26 1008 84 10000 4.07 186 03:51 18.09.2021
6331 Clouds 26 1006 83 10000 4.18 207 00:41 18.09.2021
6332 Clouds 26 1006 83 10000 3.97 211 23:48 17.09.2021
6333 Clouds 26 1006 83 10000 3.96 213 22:37 17.09.2021
6334 Haze 28 1007 78 3000 1.54 210 22:18 17.09.2021
6335 Haze 28 1007 83 3000 2.06 200 20:47 17.09.2021
6336 Haze 28 1007 83 3000 3.6 220 19:22 17.09.2021
6337 Haze 28 1006 83 3000 3.09 220 17:20 17.09.2021
6338 Haze 28 1006 78 3000 4.12 210 16:24 17.09.2021
6339 Haze 30 1004 70 4000 4.12 210 12:37 17.09.2021
6340 Haze 30 1006 74 3500 5.14 210 10:42 17.09.2021
6341 Haze 30 1007 74 3000 6.17 220 08:45 17.09.2021
6342 Haze 29 1008 79 3000 5.14 230 06:50 17.09.2021
6343 Haze 27 1004 83 2500 2.57 220 00:59 17.09.2021
6344 Haze 27 1005 89 2500 2.57 210 23:23 16.09.2021
6345 Haze 27 1005 89 2500 0 0 22:25 16.09.2021
6346 Drizzle 28 1006 83 2500 0 0 21:41 16.09.2021
6347 Drizzle 28 1006 83 2500 0 0 21:20 16.09.2021
6348 Haze 28 1006 83 3000 3.09 200 20:18 16.09.2021
6349 Haze 28 1006 83 3000 3.09 220 18:20 16.09.2021
6350 Haze 28 1006 83 3000 3.6 210 17:32 16.09.2021
6351 Haze 29 1004 79 3500 6.69 230 14:55 16.09.2021
6352 Haze 29 1004 74 3000 6.17 220 13:56 16.09.2021
6353 Clouds 29 1004 79 3000 4.12 230 12:49 16.09.2021
6354 Haze 29 1004 70 3500 6.69 220 12:28 16.09.2021
6355 Haze 30 1005 66 4000 6.17 240 11:25 16.09.2021
6356 Haze 30 1006 66 3500 7.72 230 10:33 16.09.2021
6357 Haze 30 1006 74 3500 6.69 220 09:53 16.09.2021
6358 Haze 30 1007 74 3500 5.66 210 08:42 16.09.2021
6359 Haze 30 1007 74 2500 6.69 200 07:22 16.09.2021
6360 Haze 29 1007 79 2500 5.14 210 06:43 16.09.2021
6361 Haze 27 1006 83 2500 6.69 210 04:55 16.09.2021
6362 Haze 27 1004 89 2500 3.09 190 01:27 16.09.2021
6363 Haze 28 1004 83 2500 4.12 220 23:45 15.09.2021
6364 Haze 28 1005 83 2500 5.66 210 22:47 15.09.2021
6365 Drizzle 28 1005 89 3000 4.12 200 21:44 15.09.2021
6366 Haze 28 1006 83 3000 4.63 200 21:25 15.09.2021
6367 Haze 28 1006 89 3000 3.6 190 19:53 15.09.2021
6368 Haze 28 1006 89 3000 3.09 210 19:21 15.09.2021
6369 Haze 28 1005 83 3000 3.6 200 17:57 15.09.2021
6370 Haze 28 1004 83 3000 4.63 190 16:55 15.09.2021
6371 Haze 29 1004 79 4000 4.12 220 15:34 15.09.2021
6372 Haze 29 1003 79 4000 5.14 210 14:44 15.09.2021
6373 Haze 29 1003 79 4000 4.12 220 13:51 15.09.2021
6374 Haze 29 1003 84 3500 3.6 220 13:30 15.09.2021
6375 Haze 30 1003 79 3500 5.14 240 12:44 15.09.2021
6376 Haze 31 1004 74 3000 5.66 220 11:52 15.09.2021
6377 Haze 30 1004 79 3000 5.66 230 11:31 15.09.2021
6378 Haze 30 1004 79 3500 5.14 210 10:55 15.09.2021
6379 Haze 29 1005 79 3500 6.17 210 09:28 15.09.2021
6380 Haze 29 1005 79 3000 6.17 240 07:48 15.09.2021
6381 Haze 28 1004 89 2500 5.66 220 04:24 15.09.2021
6382 Haze 27 1003 94 2500 2.57 220 22:59 14.09.2021
6383 Haze 27 1004 94 2500 1.54 210 21:41 14.09.2021
6384 Haze 27 1004 89 2500 2.57 260 20:39 14.09.2021
6385 Haze 26 1005 94 2500 3.6 270 19:41 14.09.2021
6386 Haze 26 1004 94 2500 4.12 250 17:40 14.09.2021
6387 Haze 26 1004 94 2500 4.12 250 17:40 14.09.2021
6388 Haze 27 1003 94 2500 4.63 250 16:58 14.09.2021
6389 Haze 27 1002 94 2500 6.17 250 15:30 14.09.2021
6390 Clouds 28 1002 89 2500 4.63 270 14:31 14.09.2021
6391 Clouds 29 1002 84 3000 5.14 250 11:52 14.09.2021
6392 Haze 30 1002 79 3000 6.17 290 10:54 14.09.2021
6393 Haze 30 1003 79 3000 6.17 240 09:50 14.09.2021
6394 Haze 30 1004 79 3000 5.14 230 08:39 14.09.2021
6395 Haze 29 1004 84 2500 4.12 240 06:24 14.09.2021
6396 Clouds 28 1001 89 2500 7.72 250 23:57 13.09.2021
6397 Haze 28 1002 94 2500 4.63 250 22:46 13.09.2021
6398 Haze 28 1002 89 2500 5.66 260 22:23 13.09.2021
6399 Haze 28 1002 89 2500 5.66 260 22:23 13.09.2021
6400 Clouds 28 1002 94 2100 4.63 250 21:45 13.09.2021
6401 Haze 28 1003 89 2500 3.6 240 20:50 13.09.2021
6402 Haze 28 1003 94 2500 6.69 250 18:46 13.09.2021
6403 Rain 28 1002 94 2500 7.2 240 17:49 13.09.2021
6404 Haze 28 1002 94 2500 6.17 240 16:50 13.09.2021
6405 Haze 28 1001 89 2500 3.6 240 15:30 13.09.2021
6406 Haze 27 1000 94 2500 5.66 260 12:26 13.09.2021
6407 Haze 27 1001 94 2500 5.14 270 10:58 13.09.2021
6408 Rain 27 1002 94 1200 4.63 280 09:36 13.09.2021
6409 Clouds 26 1001 100 2200 6.17 260 04:57 13.09.2021
6410 Haze 28 1000 94 2500 4.63 260 23:41 12.09.2021
6411 Rain 28 1001 94 2200 6.17 260 22:25 12.09.2021
6412 Clouds 27 1002 100 2200 4.63 250 21:37 12.09.2021
6413 Clouds 27 1002 94 2200 3.09 280 20:29 12.09.2021
6414 Clouds 27 1002 94 1800 4.12 210 19:51 12.09.2021
6415 Clouds 26 1003 100 2500 3.6 190 19:19 12.09.2021
6416 Clouds 26 1002 100 1800 2.06 160 18:20 12.09.2021
6417 Haze 27 1001 94 3000 2.06 210 16:31 12.09.2021
6418 Haze 26 1000 94 2500 0 0 14:54 12.09.2021
6419 Haze 29 1000 84 3000 3.09 220 13:20 12.09.2021
6420 Haze 28 1001 94 3000 2.06 260 11:31 12.09.2021
6421 Clouds 26 1003 100 1800 4.63 290 09:27 12.09.2021
6422 Haze 28 1003 94 2500 5.14 280 08:37 12.09.2021
6423 Haze 27 1001 94 2500 2.57 220 01:50 12.09.2021
6424 Rain 26 1002 94 2200 2.57 170 23:28 11.09.2021
6425 Haze 26 1003 100 2500 2.06 210 21:50 11.09.2021
6426 Haze 27 1003 94 2500 2.06 230 20:31 11.09.2021
6427 Haze 27 1004 89 2500 4.63 250 19:21 11.09.2021
6428 Drizzle 26 1003 94 2500 5.14 270 17:34 11.09.2021
6429 Clouds 28 1002 89 2100 5.14 220 15:48 11.09.2021
6430 Haze 28 1002 89 3000 3.6 240 13:33 11.09.2021
6431 Haze 28 1002 94 2500 3.6 230 12:50 11.09.2021
6432 Rain 27 1003 94 1500 7.2 240 11:19 11.09.2021
6433 Clouds 29 1004 89 1500 4.12 230 09:38 11.09.2021
6434 Haze 28 1005 94 3000 4.63 220 07:45 11.09.2021
6435 Haze 27 1005 100 2500 4.63 230 06:50 11.09.2021
6436 Haze 28 1003 89 2500 3.09 220 23:37 10.09.2021
6437 Haze 28 1004 89 2500 4.63 220 22:24 10.09.2021
6438 Haze 28 1005 89 2500 5.66 210 21:54 10.09.2021
6439 Haze 28 1006 89 2500 5.14 250 19:58 10.09.2021
6440 Haze 28 1005 89 2500 6.17 240 18:27 10.09.2021
6441 Haze 28 1004 89 2500 3.6 240 16:51 10.09.2021
6442 Clouds 28 1003 94 2500 4.12 270 14:41 10.09.2021
6443 Haze 30 1004 84 4000 5.66 240 12:22 10.09.2021
6444 Haze 29 1007 84 3000 5.14 230 08:48 10.09.2021
6445 Haze 28 1007 89 3000 3.6 230 07:50 10.09.2021
6446 Haze 28 1006 83 2500 3.6 230 02:27 10.09.2021
6447 Haze 28 1007 89 2500 3.6 230 22:31 09.09.2021
6448 Haze 28 1007 89 2500 5.66 220 21:45 09.09.2021
6449 Haze 28 1007 89 2500 5.66 220 21:45 09.09.2021
6450 Haze 28 1007 89 2500 4.12 230 20:46 09.09.2021
6451 Haze 28 1008 89 2500 5.14 230 19:54 09.09.2021
6452 Haze 28 1007 89 2500 7.2 240 18:31 09.09.2021
6453 Haze 27 1006 94 2500 5.14 220 16:40 09.09.2021
6454 Haze 28 1005 89 2500 3.6 230 15:42 09.09.2021
6455 Haze 30 1005 79 3000 5.14 240 12:53 09.09.2021
6456 Haze 30 1005 79 3000 4.12 250 11:45 09.09.2021
6457 Haze 30 1006 79 3000 5.66 240 09:50 09.09.2021
6458 Haze 29 1007 89 3000 5.14 230 08:47 09.09.2021
6459 Clouds 29 1007 84 2500 6.17 220 06:26 09.09.2021
6460 Haze 26 1004 94 2200 3.09 250 02:36 09.09.2021
6461 Haze 26 1004 94 2200 3.09 250 02:36 09.09.2021
6462 Drizzle 26 1004 100 2000 3.09 230 22:42 08.09.2021
6463 Drizzle 26 1005 94 2000 3.6 220 21:31 08.09.2021
6464 Drizzle 26 1005 94 2500 5.14 240 19:56 08.09.2021
6465 Clouds 26 1005 94 2100 5.14 230 19:22 08.09.2021
6466 Haze 27 1005 94 2500 3.6 230 18:29 08.09.2021
6467 Haze 27 1005 94 2500 5.14 240 17:56 08.09.2021
6468 Haze 27 1003 100 2500 5.66 230 16:32 08.09.2021
6469 Clouds 29 1002 84 3500 8.23 260 14:26 08.09.2021
6470 Haze 29 1001 84 3500 5.14 250 12:47 08.09.2021
6471 Haze 29 1001 84 3500 5.14 240 12:27 08.09.2021
6472 Haze 29 1002 89 3500 7.2 240 11:30 08.09.2021
6473 Haze 28 1002 89 3500 4.12 240 10:38 08.09.2021
6474 Haze 28 1002 89 3500 4.12 240 10:20 08.09.2021
6475 Clouds 27 1003 100 3000 7.2 250 08:36 08.09.2021
6476 Rain 28 1003 94 3000 4.12 210 07:35 08.09.2021
6477 Drizzle 27 1003 94 3000 1.54 180 05:34 08.09.2021
6478 Haze 25 1001 100 2500 0 0 22:46 07.09.2021
6479 Rain 25 1002 100 2500 0 0 21:52 07.09.2021
6480 Thunderstorm 25 1004 100 2200 0 0 19:54 07.09.2021
6481 Thunderstorm 26 1003 100 1800 3.09 20 18:45 07.09.2021
6482 Thunderstorm 26 1003 100 1000 5.14 350 17:49 07.09.2021
6483 Haze 27 1002 94 2500 1.54 300 16:38 07.09.2021
6484 Rain 27 1001 94 2100 3.6 340 15:36 07.09.2021
6485 Rain 28 1001 94 3000 2.57 300 14:42 07.09.2021
6486 Haze 28 1001 94 2500 2.57 280 12:43 07.09.2021
6487 Clouds 28 1002 94 2500 1.54 250 11:45 07.09.2021
6488 Haze 29 1002 89 3500 3.09 220 10:41 07.09.2021
6489 Haze 29 1004 84 3000 0 0 08:34 07.09.2021
6490 Clouds 27 1005 94 2500 1.54 170 07:23 07.09.2021
6491 Clouds 27 1004 100 2500 0 0 05:41 07.09.2021
6492 Thunderstorm 27 1003 94 2500 1.54 90 02:36 07.09.2021
6493 Haze 27 1003 94 2500 1.54 90 00:46 07.09.2021
6494 Haze 27 1004 94 2500 2.06 320 23:34 06.09.2021
6495 Haze 27 1004 100 2500 3.6 340 22:53 06.09.2021
6496 Rain 27 1004 100 2200 2.06 310 22:33 06.09.2021
6497 Haze 28 1005 94 2500 0 0 20:56 06.09.2021
6498 Haze 28 1006 89 3000 2.06 320 19:31 06.09.2021
6499 Rain 28 1005 89 3000 2.57 310 18:48 06.09.2021
6500 Haze 28 1005 89 3000 3.09 300 18:23 06.09.2021
6501 Haze 28 1005 89 3000 3.09 290 17:36 06.09.2021
6502 Haze 28 1003 89 4000 3.6 290 15:52 06.09.2021
6503 Haze 29 1002 84 4000 4.12 290 13:48 06.09.2021
6504 Haze 30 1002 84 4000 5.66 270 12:47 06.09.2021
6505 Haze 29 1004 84 4000 2.57 280 10:48 06.09.2021
6506 Haze 29 1006 84 2500 4.63 270 08:35 06.09.2021
6507 Haze 27 1006 94 2500 2.57 130 04:48 06.09.2021
6508 Haze 27 1005 94 2500 2.06 140 23:35 05.09.2021
6509 Haze 27 1005 94 2200 1.54 70 22:50 05.09.2021
6510 Haze 27 1006 94 2200 2.57 100 21:58 05.09.2021
6511 Haze 27 1006 94 2200 1.54 90 21:31 05.09.2021
6512 Haze 27 1006 94 2200 1.54 90 21:30 05.09.2021
6513 Haze 27 1006 100 2200 1.54 90 20:21 05.09.2021
6514 Haze 28 1006 94 2500 2.06 120 18:42 05.09.2021
6515 Drizzle 28 1005 89 2500 2.06 230 17:31 05.09.2021
6516 Drizzle 28 1005 89 2500 2.06 230 17:30 05.09.2021
6517 Haze 28 1004 94 2500 2.06 330 15:28 05.09.2021
6518 Drizzle 26 1004 94 2500 3.09 230 14:19 05.09.2021
6519 Haze 29 1004 84 3000 4.63 280 12:29 05.09.2021
6520 Haze 30 1005 74 3500 3.6 280 10:48 05.09.2021
6521 Haze 30 1005 79 3500 6.17 260 10:23 05.09.2021
6522 Haze 30 1006 84 3500 6.69 260 09:21 05.09.2021
6523 Haze 29 1006 84 2500 4.12 260 07:48 05.09.2021
6524 Haze 26 1004 94 2500 2.06 90 00:51 05.09.2021
6525 Haze 26 1004 94 2500 2.06 100 00:22 05.09.2021
6526 Haze 26 1005 94 2500 1.54 130 23:35 04.09.2021
6527 Haze 26 1005 100 2500 1.54 130 22:35 04.09.2021
6528 Haze 26 1005 100 2500 0 0 21:56 04.09.2021
6529 Clouds 26 1006 100 2500 2.06 130 19:41 04.09.2021
6530 Rain 26 1006 100 2500 0 0 18:43 04.09.2021
6531 Clouds 26 1005 94 1600 4.63 280 16:22 04.09.2021
6532 Haze 27 1003 94 2500 3.6 290 13:18 04.09.2021
6533 Clouds 29 1005 84 2500 6.69 240 11:19 04.09.2021
6534 Haze 30 1006 74 4000 4.63 250 09:19 04.09.2021
6535 Haze 26 1007 94 2500 2.06 150 05:50 04.09.2021
6536 Drizzle 26 1004 100 2200 1.54 130 00:25 04.09.2021
6537 Haze 26 1005 100 2500 2.57 130 23:31 03.09.2021
6538 Haze 26 1006 94 3000 2.57 100 21:59 03.09.2021
6539 Haze 26 1006 94 3000 2.06 100 21:34 03.09.2021
6540 Haze 26 1007 94 2500 2.06 90 20:42 03.09.2021
6541 Haze 26 1007 94 2200 2.57 100 19:50 03.09.2021
6542 Clouds 27 1006 94 2200 2.57 110 18:59 03.09.2021
6543 Haze 27 1006 94 3000 2.06 210 17:47 03.09.2021
6544 Haze 27 1005 94 3000 1.54 160 16:34 03.09.2021
6545 Haze 27 1004 94 3000 3.09 230 14:53 03.09.2021
6546 Clouds 26 1004 100 1200 5.14 290 11:59 03.09.2021
6547 Haze 29 1005 84 4000 5.66 240 10:27 03.09.2021
6548 Haze 29 1006 89 4000 4.12 210 08:44 03.09.2021
6549 Haze 28 1006 94 3000 4.12 180 07:43 03.09.2021
6550 Haze 26 1004 100 2500 3.09 100 01:39 03.09.2021
6551 Haze 27 1005 94 2500 2.06 160 22:57 02.09.2021
6552 Haze 27 1006 89 2500 1.54 170 21:31 02.09.2021
6553 Haze 27 1007 94 2500 3.6 220 19:55 02.09.2021
6554 Haze 27 1006 89 3000 3.6 220 17:32 02.09.2021
6555 Haze 28 1005 89 3000 4.63 220 15:50 02.09.2021
6556 Clouds 28 1004 89 3000 5.14 220 13:57 02.09.2021
6557 Haze 28 1004 78 4000 3.6 230 12:42 02.09.2021
6558 Clouds 28 1005 83 3000 3.6 260 11:34 02.09.2021
6559 Haze 30 1006 79 3000 4.63 220 09:40 02.09.2021
6560 Clouds 29 1007 79 2500 6.17 210 07:47 02.09.2021
6561 Haze 30 1007 79 3000 5.14 220 07:18 02.09.2021
6562 Haze 30 1007 79 3000 5.14 220 07:18 02.09.2021
6563 Haze 26 1005 94 2500 2.57 170 02:54 02.09.2021
6564 Haze 26 1005 94 2500 3.6 160 01:55 02.09.2021
6565 Haze 27 1005 94 2500 2.57 150 01:23 02.09.2021
6566 Haze 27 1005 89 2500 2.57 200 23:37 01.09.2021
6567 Drizzle 27 1005 94 2200 2.06 200 22:39 01.09.2021
6568 Haze 27 1006 94 2500 0 0 21:35 01.09.2021
6569 Haze 27 1006 94 2500 1.54 200 20:29 01.09.2021
6570 Haze 27 1007 89 2500 1.54 180 18:33 01.09.2021
6571 Clouds 27 1006 89 2500 2.06 260 17:38 01.09.2021
6572 Drizzle 26 1005 94 2500 2.57 220 16:47 01.09.2021
6573 Clouds 28 1004 83 3000 4.63 220 15:27 01.09.2021
6574 Haze 27 1005 89 4000 4.63 200 11:50 01.09.2021
6575 Clouds 28 1005 83 3500 4.12 280 10:59 01.09.2021
6576 Haze 29 1006 84 3000 4.63 240 08:47 01.09.2021
6577 Haze 29 1007 84 3000 5.14 240 07:51 01.09.2021
6578 Rain 27 1005 94 2500 5.14 270 03:27 01.09.2021
6579 Rain 26 1004 100 2000 2.06 210 22:38 31.08.2021
6580 Rain 26 1005 100 500 5.14 100 21:23 31.08.2021
6581 Drizzle 26 1006 100 2000 3.09 100 19:45 31.08.2021
6582 Haze 26 1005 100 2500 2.57 170 18:28 31.08.2021
6583 Drizzle 26 1005 100 2200 1.54 180 17:36 31.08.2021
6584 Rain 26 1004 100 2000 2.06 180 16:52 31.08.2021
6585 Rain 26 1004 100 2000 2.57 180 16:24 31.08.2021
6586 Clouds 26 1003 94 1700 3.09 290 13:20 31.08.2021
6587 Haze 26 1004 94 2100 2.57 330 11:27 31.08.2021
6588 Rain 26 1004 100 1800 1.54 310 10:52 31.08.2021
6589 Rain 25 1005 100 1500 2.06 320 09:44 31.08.2021
6590 Rain 26 1006 100 500 3.09 300 08:38 31.08.2021
6591 Rain 26 1006 100 1500 4.12 280 05:58 31.08.2021
6592 Rain 26 1004 94 2500 3.6 210 02:39 31.08.2021
6593 Haze 26 1005 94 1500 3.09 240 23:35 30.08.2021
6594 Haze 26 1005 94 2500 1.54 100 21:43 30.08.2021
6595 Haze 26 1006 94 2500 1.54 170 20:49 30.08.2021
6596 Haze 27 1006 89 2500 2.57 200 20:19 30.08.2021
6597 Haze 27 1006 83 2500 2.57 110 19:29 30.08.2021
6598 Haze 27 1006 83 2500 2.57 110 19:29 30.08.2021
6599 Rain 26 1006 89 2500 1.54 110 18:30 30.08.2021
6600 Haze 27 1005 83 2500 3.09 110 17:44 30.08.2021
6601 Rain 26 1005 83 2500 1.54 190 16:20 30.08.2021
6602 Haze 26 1004 89 2200 3.09 30 15:23 30.08.2021
6603 Haze 30 1003 74 3000 3.6 310 13:28 30.08.2021
6604 Haze 30 1003 74 3000 4.12 310 12:24 30.08.2021
6605 Haze 29 1005 79 2500 2.57 280 08:58 30.08.2021
6606 Haze 29 1004 79 3000 3.09 280 22:27 29.08.2021
6607 Haze 29 1005 79 3000 2.57 270 21:32 29.08.2021
6608 Haze 29 1005 79 3000 2.57 240 19:59 29.08.2021
6609 Haze 29 1005 79 3000 2.06 280 19:18 29.08.2021
6610 Haze 29 1004 79 3000 1.54 300 17:42 29.08.2021
6611 Haze 29 1002 79 3000 2.06 300 15:47 29.08.2021
6612 Haze 29 1002 79 3000 3.09 300 14:18 29.08.2021
6613 Haze 30 1002 70 3000 4.12 290 13:33 29.08.2021
6614 Haze 31 1002 70 3000 5.14 280 12:31 29.08.2021
6615 Haze 30 1003 74 3000 5.14 270 11:45 29.08.2021
6616 Haze 30 1003 74 3000 4.63 290 10:52 29.08.2021
6617 Haze 30 1003 74 3000 4.12 300 10:32 29.08.2021
6618 Haze 29 1004 84 2500 3.6 300 09:50 29.08.2021
6619 Clouds 26 1005 94 2200 1.54 200 06:55 29.08.2021
6620 Haze 28 1002 83 3000 0 0 00:20 29.08.2021
6621 Haze 28 1003 83 3000 3.09 250 20:55 28.08.2021
6622 Haze 29 1004 79 3000 3.09 230 19:53 28.08.2021
6623 Haze 29 1004 79 3500 3.09 250 18:27 28.08.2021
6624 Haze 29 1003 74 3500 3.6 220 17:48 28.08.2021
6625 Haze 29 1003 79 3500 4.12 250 16:58 28.08.2021
6626 Haze 29 1002 79 5000 4.12 290 15:32 28.08.2021
6627 Haze 30 1002 70 6000 4.12 280 14:19 28.08.2021
6628 Haze 30 1001 70 6000 4.63 260 13:43 28.08.2021
6629 Clouds 31 1002 70 6000 5.66 240 12:41 28.08.2021
6630 Clouds 31 1002 66 6000 5.66 260 11:51 28.08.2021
6631 Clouds 31 1003 66 6000 4.63 250 10:29 28.08.2021
6632 Smoke 31 1004 58 4500 3.09 270 08:38 28.08.2021
6633 Haze 29 1004 74 3000 2.06 300 06:23 28.08.2021
6634 Haze 28 1003 83 3000 0 0 22:26 27.08.2021
6635 Haze 28 1004 83 3000 0 0 20:56 27.08.2021
6636 Haze 29 1004 79 3000 1.54 250 20:19 27.08.2021
6637 Haze 29 1005 79 3500 2.57 280 18:46 27.08.2021
6638 Haze 29 1005 79 3500 2.57 280 18:28 27.08.2021
6639 Haze 29 1004 79 3500 3.6 270 16:49 27.08.2021
6640 Haze 30 1003 70 5000 4.63 250 15:21 27.08.2021
6641 Haze 30 1003 70 4000 5.14 240 14:38 27.08.2021
6642 Haze 30 1003 79 4000 4.12 250 12:28 27.08.2021
6643 Haze 31 1004 66 4000 5.14 270 11:24 27.08.2021
6644 Haze 31 1005 70 4000 5.14 240 10:41 27.08.2021
6645 Haze 30 1005 74 4000 4.63 240 09:26 27.08.2021
6646 Haze 29 1006 84 3500 0 0 08:39 27.08.2021
6647 Haze 28 1006 89 3000 2.57 150 05:52 27.08.2021
6648 Haze 27 1003 94 3000 0 0 00:50 27.08.2021
6649 Haze 27 1003 94 3000 2.06 160 00:28 27.08.2021
6650 Haze 27 1004 94 3000 2.57 150 22:28 26.08.2021
6651 Haze 27 1004 94 3000 1.54 160 21:57 26.08.2021
6652 Haze 28 1005 83 3000 2.57 160 19:54 26.08.2021
6653 Haze 28 1005 83 3000 0 0 18:42 26.08.2021
6654 Haze 28 1005 83 3000 1.54 240 17:28 26.08.2021
6655 Haze 28 1004 78 3000 2.06 220 16:31 26.08.2021
6656 Haze 29 1004 74 4000 3.09 270 15:37 26.08.2021
6657 Haze 30 1004 70 4000 4.12 260 13:28 26.08.2021
6658 Haze 30 1004 66 3000 4.12 260 12:47 26.08.2021
6659 Haze 27 1005 89 3000 1.54 10 11:49 26.08.2021
6660 Clouds 30 1005 74 4000 5.66 240 09:40 26.08.2021
6661 Haze 30 1006 79 4000 6.17 260 08:27 26.08.2021
6662 Haze 28 1004 89 3000 2.57 270 00:46 26.08.2021
6663 Haze 27 1005 89 3000 2.06 230 22:46 25.08.2021
6664 Haze 28 1005 89 3000 2.06 220 22:26 25.08.2021
6665 Haze 27 1006 94 3000 2.06 220 20:58 25.08.2021
6666 Haze 28 1006 89 3000 3.09 220 20:31 25.08.2021
6667 Haze 28 1007 89 3000 2.06 190 19:52 25.08.2021
6668 Haze 28 1006 83 2500 0 0 18:18 25.08.2021
6669 Haze 29 1005 79 4000 4.12 260 15:59 25.08.2021
6670 Haze 29 1005 79 5000 4.63 240 15:39 25.08.2021
6671 Haze 29 1005 79 5000 4.12 260 14:47 25.08.2021
6672 Haze 29 1005 74 5000 5.14 250 13:54 25.08.2021
6673 Smoke 30 1005 74 6000 5.14 240 12:40 25.08.2021
6674 Smoke 31 1006 70 6000 4.63 210 11:21 25.08.2021
6675 Smoke 29 1007 79 6000 3.6 220 10:18 25.08.2021
6676 Haze 29 1007 79 5000 5.14 230 09:40 25.08.2021
6677 Haze 30 1008 74 3000 5.14 250 08:38 25.08.2021
6678 Haze 30 1008 74 3000 2.57 230 07:32 25.08.2021
6679 Haze 27 1006 94 3000 1.54 90 01:26 25.08.2021
6680 Haze 28 1007 83 4000 2.06 220 23:40 24.08.2021
6681 Haze 28 1008 83 4000 1.54 250 21:21 24.08.2021
6682 Haze 28 1008 83 4000 2.57 230 20:23 24.08.2021
6683 Haze 28 1009 83 3500 1.54 220 19:44 24.08.2021
6684 Haze 28 1008 83 4000 3.6 240 17:56 24.08.2021
6685 Haze 29 1007 79 4000 3.6 250 17:22 24.08.2021
6686 Haze 29 1007 79 4000 3.6 260 16:24 24.08.2021
6687 Haze 30 1006 74 6000 5.14 270 13:55 24.08.2021
6688 Haze 31 1006 66 5000 5.14 250 12:45 24.08.2021
6689 Haze 30 1007 74 5000 5.66 250 11:24 24.08.2021
6690 Haze 30 1008 79 5000 5.14 230 10:47 24.08.2021
6691 Haze 30 1008 74 5000 5.14 260 10:25 24.08.2021
6692 Haze 31 1009 66 4000 4.63 220 08:39 24.08.2021
6693 Haze 29 1008 84 3000 2.57 230 06:35 24.08.2021
6694 Haze 27 1008 94 3000 2.57 100 03:49 24.08.2021
6695 Rain 27 1007 94 3000 2.06 110 23:57 23.08.2021
6696 Haze 27 1008 94 3000 0 0 22:50 23.08.2021
6697 Haze 28 1008 89 3000 0 0 21:40 23.08.2021
6698 Rain 28 1009 89 3000 2.06 180 20:25 23.08.2021
6699 Haze 28 1008 89 3000 2.57 220 18:39 23.08.2021
6700 Haze 29 1007 84 3000 3.09 240 16:27 23.08.2021
6701 Haze 30 1006 74 4000 4.63 240 13:58 23.08.2021
6702 Haze 31 1007 66 4000 5.14 220 12:33 23.08.2021
6703 Haze 31 1007 70 4000 4.12 230 11:24 23.08.2021
6704 Haze 31 1008 74 4000 4.63 220 10:36 23.08.2021
6705 Haze 30 1008 74 4000 5.14 230 09:21 23.08.2021
6706 Haze 30 1009 74 4000 3.09 160 07:54 23.08.2021
6707 Haze 29 1009 79 3000 3.6 170 06:43 23.08.2021
6708 Haze 27 1009 94 3000 2.57 110 04:46 23.08.2021
6709 Haze 26 1007 94 3000 1.54 90 00:47 23.08.2021
6710 Haze 26 1007 94 3000 1.54 120 22:43 22.08.2021
6711 Haze 27 1008 94 3000 2.57 100 21:37 22.08.2021
6712 Haze 27 1009 94 3000 1.54 120 20:20 22.08.2021
6713 Haze 27 1008 89 3000 0 0 18:37 22.08.2021
6714 Haze 28 1007 83 3000 2.06 210 16:22 22.08.2021
6715 Haze 28 1006 83 4000 2.57 230 14:55 22.08.2021
6716 Haze 28 1006 83 4000 2.06 200 13:59 22.08.2021
6717 Haze 28 1006 83 4000 2.06 170 13:20 22.08.2021
6718 Haze 28 1006 83 4000 2.06 170 13:20 22.08.2021
6719 Haze 28 1006 83 4000 2.06 170 13:20 22.08.2021
6720 Haze 28 1007 78 4000 2.57 190 12:50 22.08.2021
6721 Haze 28 1007 83 4000 3.6 220 11:53 22.08.2021
6722 Haze 28 1007 78 4000 3.6 220 11:33 22.08.2021
6723 Haze 29 1008 79 4000 4.12 230 09:27 22.08.2021
6724 Haze 29 1009 79 4000 2.57 190 07:59 22.08.2021
6725 Haze 26 1009 94 2500 2.06 160 04:44 22.08.2021
6726 Haze 26 1007 94 3000 0 0 22:43 21.08.2021
6727 Haze 26 1008 94 3000 0 0 22:22 21.08.2021
6728 Haze 26 1009 94 3000 2.06 180 18:59 21.08.2021
6729 Haze 26 1009